<?xml version="1.0" encoding="utf-8"?>
<gpx xmlns:xsi="http://www.w3.org/2001/XMLSchema-instance" xmlns:xsd="http://www.w3.org/2001/XMLSchema" version="1.1" creator="Shapelink.com" xmlns="http://www.topografix.com/GPX/1/1" xmlns:gpxtpx="http://www.garmin.com/xmlschemas/TrackPointExtension/v1">
  <metadata>
    <name>Ciclismo 21.53 km, 2020-02-09</name>
    <desc></desc>
    <author><name>Peter Littke</name></author> 
    <time>2020-02-09T06:00:42Z</time>
  </metadata>
  <trk>
    <name>Ciclismo 21.53 km, 2020-02-09</name>
    <trkseg>
      <trkpt lat="59.173546" lon="18.143683">
        <ele>0</ele>
        <time>2020-02-09T06:00:42Z</time>
      </trkpt>
      <trkpt lat="59.173512" lon="18.14361">
        <ele>94</ele>
        <time>2020-02-09T06:00:54Z</time>
      </trkpt>
      <trkpt lat="59.173533" lon="18.14361">
        <ele>93</ele>
        <time>2020-02-09T06:00:54Z</time>
      </trkpt>
      <trkpt lat="59.173565" lon="18.143616">
        <ele>92</ele>
        <time>2020-02-09T06:00:55Z</time>
      </trkpt>
      <trkpt lat="59.173603" lon="18.14362">
        <ele>91</ele>
        <time>2020-02-09T06:00:56Z</time>
      </trkpt>
      <trkpt lat="59.173642" lon="18.143622">
        <ele>90</ele>
        <time>2020-02-09T06:00:57Z</time>
      </trkpt>
      <trkpt lat="59.173682" lon="18.143628">
        <ele>89</ele>
        <time>2020-02-09T06:00:58Z</time>
      </trkpt>
      <trkpt lat="59.173725" lon="18.143624">
        <ele>89</ele>
        <time>2020-02-09T06:00:59Z</time>
      </trkpt>
      <trkpt lat="59.173766" lon="18.143626">
        <ele>88</ele>
        <time>2020-02-09T06:01:00Z</time>
      </trkpt>
      <trkpt lat="59.1738" lon="18.143621">
        <ele>89</ele>
        <time>2020-02-09T06:01:01Z</time>
      </trkpt>
      <trkpt lat="59.173834" lon="18.143573">
        <ele>89</ele>
        <time>2020-02-09T06:01:02Z</time>
      </trkpt>
      <trkpt lat="59.173873" lon="18.143493">
        <ele>88</ele>
        <time>2020-02-09T06:01:03Z</time>
      </trkpt>
      <trkpt lat="59.173891" lon="18.143398">
        <ele>87</ele>
        <time>2020-02-09T06:01:04Z</time>
      </trkpt>
      <trkpt lat="59.173895" lon="18.143302">
        <ele>85</ele>
        <time>2020-02-09T06:01:05Z</time>
      </trkpt>
      <trkpt lat="59.1739" lon="18.143218">
        <ele>84</ele>
        <time>2020-02-09T06:01:06Z</time>
      </trkpt>
      <trkpt lat="59.173905" lon="18.143139">
        <ele>83</ele>
        <time>2020-02-09T06:01:07Z</time>
      </trkpt>
      <trkpt lat="59.173915" lon="18.143064">
        <ele>82</ele>
        <time>2020-02-09T06:01:08Z</time>
      </trkpt>
      <trkpt lat="59.173935" lon="18.143">
        <ele>81</ele>
        <time>2020-02-09T06:01:09Z</time>
      </trkpt>
      <trkpt lat="59.173968" lon="18.142963">
        <ele>80</ele>
        <time>2020-02-09T06:01:10Z</time>
      </trkpt>
      <trkpt lat="59.174007" lon="18.142955">
        <ele>80</ele>
        <time>2020-02-09T06:01:11Z</time>
      </trkpt>
      <trkpt lat="59.174052" lon="18.142963">
        <ele>79</ele>
        <time>2020-02-09T06:01:12Z</time>
      </trkpt>
      <trkpt lat="59.174113" lon="18.142965">
        <ele>79</ele>
        <time>2020-02-09T06:01:13Z</time>
      </trkpt>
      <trkpt lat="59.174166" lon="18.142981">
        <ele>78</ele>
        <time>2020-02-09T06:01:14Z</time>
      </trkpt>
      <trkpt lat="59.174223" lon="18.142998">
        <ele>78</ele>
        <time>2020-02-09T06:01:15Z</time>
      </trkpt>
      <trkpt lat="59.174284" lon="18.143017">
        <ele>78</ele>
        <time>2020-02-09T06:01:16Z</time>
      </trkpt>
      <trkpt lat="59.174349" lon="18.143038">
        <ele>77</ele>
        <time>2020-02-09T06:01:17Z</time>
      </trkpt>
      <trkpt lat="59.174417" lon="18.143062">
        <ele>76</ele>
        <time>2020-02-09T06:01:18Z</time>
      </trkpt>
      <trkpt lat="59.174487" lon="18.143088">
        <ele>76</ele>
        <time>2020-02-09T06:01:19Z</time>
      </trkpt>
      <trkpt lat="59.174559" lon="18.143116">
        <ele>75</ele>
        <time>2020-02-09T06:01:20Z</time>
      </trkpt>
      <trkpt lat="59.174626" lon="18.143143">
        <ele>74</ele>
        <time>2020-02-09T06:01:21Z</time>
      </trkpt>
      <trkpt lat="59.174693" lon="18.143181">
        <ele>73</ele>
        <time>2020-02-09T06:01:22Z</time>
      </trkpt>
      <trkpt lat="59.174754" lon="18.143228">
        <ele>73</ele>
        <time>2020-02-09T06:01:23Z</time>
      </trkpt>
      <trkpt lat="59.174806" lon="18.143277">
        <ele>72</ele>
        <time>2020-02-09T06:01:24Z</time>
      </trkpt>
      <trkpt lat="59.174851" lon="18.143329">
        <ele>71</ele>
        <time>2020-02-09T06:01:25Z</time>
      </trkpt>
      <trkpt lat="59.174902" lon="18.14337">
        <ele>70</ele>
        <time>2020-02-09T06:01:26Z</time>
      </trkpt>
      <trkpt lat="59.174951" lon="18.143385">
        <ele>69</ele>
        <time>2020-02-09T06:01:27Z</time>
      </trkpt>
      <trkpt lat="59.175002" lon="18.143367">
        <ele>68</ele>
        <time>2020-02-09T06:01:28Z</time>
      </trkpt>
      <trkpt lat="59.175056" lon="18.143315">
        <ele>66</ele>
        <time>2020-02-09T06:01:29Z</time>
      </trkpt>
      <trkpt lat="59.175104" lon="18.143242">
        <ele>65</ele>
        <time>2020-02-09T06:01:30Z</time>
      </trkpt>
      <trkpt lat="59.17515" lon="18.143157">
        <ele>64</ele>
        <time>2020-02-09T06:01:31Z</time>
      </trkpt>
      <trkpt lat="59.175197" lon="18.143067">
        <ele>63</ele>
        <time>2020-02-09T06:01:32Z</time>
      </trkpt>
      <trkpt lat="59.175245" lon="18.142979">
        <ele>62</ele>
        <time>2020-02-09T06:01:33Z</time>
      </trkpt>
      <trkpt lat="59.175296" lon="18.142894">
        <ele>61</ele>
        <time>2020-02-09T06:01:34Z</time>
      </trkpt>
      <trkpt lat="59.175346" lon="18.142807">
        <ele>60</ele>
        <time>2020-02-09T06:01:35Z</time>
      </trkpt>
      <trkpt lat="59.175397" lon="18.142717">
        <ele>59</ele>
        <time>2020-02-09T06:01:36Z</time>
      </trkpt>
      <trkpt lat="59.175446" lon="18.142624">
        <ele>59</ele>
        <time>2020-02-09T06:01:37Z</time>
      </trkpt>
      <trkpt lat="59.175494" lon="18.142524">
        <ele>58</ele>
        <time>2020-02-09T06:01:38Z</time>
      </trkpt>
      <trkpt lat="59.175543" lon="18.142426">
        <ele>58</ele>
        <time>2020-02-09T06:01:39Z</time>
      </trkpt>
      <trkpt lat="59.175592" lon="18.14233">
        <ele>58</ele>
        <time>2020-02-09T06:01:40Z</time>
      </trkpt>
      <trkpt lat="59.175648" lon="18.142245">
        <ele>57</ele>
        <time>2020-02-09T06:01:41Z</time>
      </trkpt>
      <trkpt lat="59.175713" lon="18.142181">
        <ele>57</ele>
        <time>2020-02-09T06:01:42Z</time>
      </trkpt>
      <trkpt lat="59.175782" lon="18.142142">
        <ele>57</ele>
        <time>2020-02-09T06:01:43Z</time>
      </trkpt>
      <trkpt lat="59.175849" lon="18.142105">
        <ele>56</ele>
        <time>2020-02-09T06:01:44Z</time>
      </trkpt>
      <trkpt lat="59.175913" lon="18.142049">
        <ele>56</ele>
        <time>2020-02-09T06:01:45Z</time>
      </trkpt>
      <trkpt lat="59.175974" lon="18.141971">
        <ele>55</ele>
        <time>2020-02-09T06:01:46Z</time>
      </trkpt>
      <trkpt lat="59.176028" lon="18.141875">
        <ele>55</ele>
        <time>2020-02-09T06:01:47Z</time>
      </trkpt>
      <trkpt lat="59.176078" lon="18.141773">
        <ele>55</ele>
        <time>2020-02-09T06:01:48Z</time>
      </trkpt>
      <trkpt lat="59.176129" lon="18.141672">
        <ele>54</ele>
        <time>2020-02-09T06:01:49Z</time>
      </trkpt>
      <trkpt lat="59.176186" lon="18.141583">
        <ele>53</ele>
        <time>2020-02-09T06:01:50Z</time>
      </trkpt>
      <trkpt lat="59.176252" lon="18.141515">
        <ele>53</ele>
        <time>2020-02-09T06:01:51Z</time>
      </trkpt>
      <trkpt lat="59.176323" lon="18.141468">
        <ele>53</ele>
        <time>2020-02-09T06:01:52Z</time>
      </trkpt>
      <trkpt lat="59.176399" lon="18.14145">
        <ele>52</ele>
        <time>2020-02-09T06:01:53Z</time>
      </trkpt>
      <trkpt lat="59.176477" lon="18.14146">
        <ele>52</ele>
        <time>2020-02-09T06:01:54Z</time>
      </trkpt>
      <trkpt lat="59.176555" lon="18.141488">
        <ele>52</ele>
        <time>2020-02-09T06:01:55Z</time>
      </trkpt>
      <trkpt lat="59.176632" lon="18.141526">
        <ele>52</ele>
        <time>2020-02-09T06:01:56Z</time>
      </trkpt>
      <trkpt lat="59.176708" lon="18.141568">
        <ele>51</ele>
        <time>2020-02-09T06:01:57Z</time>
      </trkpt>
      <trkpt lat="59.176785" lon="18.141616">
        <ele>51</ele>
        <time>2020-02-09T06:01:58Z</time>
      </trkpt>
      <trkpt lat="59.176861" lon="18.141665">
        <ele>51</ele>
        <time>2020-02-09T06:01:59Z</time>
      </trkpt>
      <trkpt lat="59.176937" lon="18.141714">
        <ele>50</ele>
        <time>2020-02-09T06:02:00Z</time>
      </trkpt>
      <trkpt lat="59.177016" lon="18.141767">
        <ele>50</ele>
        <time>2020-02-09T06:02:01Z</time>
      </trkpt>
      <trkpt lat="59.177095" lon="18.141818">
        <ele>49</ele>
        <time>2020-02-09T06:02:02Z</time>
      </trkpt>
      <trkpt lat="59.177175" lon="18.141869">
        <ele>49</ele>
        <time>2020-02-09T06:02:03Z</time>
      </trkpt>
      <trkpt lat="59.177256" lon="18.141919">
        <ele>48</ele>
        <time>2020-02-09T06:02:04Z</time>
      </trkpt>
      <trkpt lat="59.177339" lon="18.14197">
        <ele>48</ele>
        <time>2020-02-09T06:02:05Z</time>
      </trkpt>
      <trkpt lat="59.177417" lon="18.142021">
        <ele>48</ele>
        <time>2020-02-09T06:02:06Z</time>
      </trkpt>
      <trkpt lat="59.1775" lon="18.142073">
        <ele>47</ele>
        <time>2020-02-09T06:02:07Z</time>
      </trkpt>
      <trkpt lat="59.177583" lon="18.142127">
        <ele>47</ele>
        <time>2020-02-09T06:02:08Z</time>
      </trkpt>
      <trkpt lat="59.177668" lon="18.142185">
        <ele>46</ele>
        <time>2020-02-09T06:02:09Z</time>
      </trkpt>
      <trkpt lat="59.177753" lon="18.142242">
        <ele>46</ele>
        <time>2020-02-09T06:02:10Z</time>
      </trkpt>
      <trkpt lat="59.177839" lon="18.142297">
        <ele>45</ele>
        <time>2020-02-09T06:02:11Z</time>
      </trkpt>
      <trkpt lat="59.177926" lon="18.142352">
        <ele>45</ele>
        <time>2020-02-09T06:02:12Z</time>
      </trkpt>
      <trkpt lat="59.178012" lon="18.142408">
        <ele>44</ele>
        <time>2020-02-09T06:02:13Z</time>
      </trkpt>
      <trkpt lat="59.178103" lon="18.142468">
        <ele>44</ele>
        <time>2020-02-09T06:02:14Z</time>
      </trkpt>
      <trkpt lat="59.178193" lon="18.142525">
        <ele>43</ele>
        <time>2020-02-09T06:02:15Z</time>
      </trkpt>
      <trkpt lat="59.178283" lon="18.142583">
        <ele>42</ele>
        <time>2020-02-09T06:02:16Z</time>
      </trkpt>
      <trkpt lat="59.178372" lon="18.142643">
        <ele>42</ele>
        <time>2020-02-09T06:02:17Z</time>
      </trkpt>
      <trkpt lat="59.178461" lon="18.142703">
        <ele>41</ele>
        <time>2020-02-09T06:02:18Z</time>
      </trkpt>
      <trkpt lat="59.17855" lon="18.142763">
        <ele>41</ele>
        <time>2020-02-09T06:02:19Z</time>
      </trkpt>
      <trkpt lat="59.178638" lon="18.142825">
        <ele>40</ele>
        <time>2020-02-09T06:02:20Z</time>
      </trkpt>
      <trkpt lat="59.178725" lon="18.142887">
        <ele>39</ele>
        <time>2020-02-09T06:02:21Z</time>
      </trkpt>
      <trkpt lat="59.178811" lon="18.142947">
        <ele>39</ele>
        <time>2020-02-09T06:02:22Z</time>
      </trkpt>
      <trkpt lat="59.178898" lon="18.143008">
        <ele>39</ele>
        <time>2020-02-09T06:02:23Z</time>
      </trkpt>
      <trkpt lat="59.178983" lon="18.143068">
        <ele>38</ele>
        <time>2020-02-09T06:02:24Z</time>
      </trkpt>
      <trkpt lat="59.179068" lon="18.143129">
        <ele>38</ele>
        <time>2020-02-09T06:02:25Z</time>
      </trkpt>
      <trkpt lat="59.179151" lon="18.143188">
        <ele>38</ele>
        <time>2020-02-09T06:02:26Z</time>
      </trkpt>
      <trkpt lat="59.179234" lon="18.143246">
        <ele>37</ele>
        <time>2020-02-09T06:02:27Z</time>
      </trkpt>
      <trkpt lat="59.179315" lon="18.143303">
        <ele>37</ele>
        <time>2020-02-09T06:02:28Z</time>
      </trkpt>
      <trkpt lat="59.179395" lon="18.14336">
        <ele>37</ele>
        <time>2020-02-09T06:02:29Z</time>
      </trkpt>
      <trkpt lat="59.179473" lon="18.143419">
        <ele>37</ele>
        <time>2020-02-09T06:02:30Z</time>
      </trkpt>
      <trkpt lat="59.17955" lon="18.143478">
        <ele>37</ele>
        <time>2020-02-09T06:02:31Z</time>
      </trkpt>
      <trkpt lat="59.179627" lon="18.143535">
        <ele>37</ele>
        <time>2020-02-09T06:02:32Z</time>
      </trkpt>
      <trkpt lat="59.179703" lon="18.143593">
        <ele>37</ele>
        <time>2020-02-09T06:02:33Z</time>
      </trkpt>
      <trkpt lat="59.179778" lon="18.143651">
        <ele>37</ele>
        <time>2020-02-09T06:02:34Z</time>
      </trkpt>
      <trkpt lat="59.179853" lon="18.14371">
        <ele>37</ele>
        <time>2020-02-09T06:02:35Z</time>
      </trkpt>
      <trkpt lat="59.179927" lon="18.143767">
        <ele>37</ele>
        <time>2020-02-09T06:02:36Z</time>
      </trkpt>
      <trkpt lat="59.179999" lon="18.143827">
        <ele>37</ele>
        <time>2020-02-09T06:02:37Z</time>
      </trkpt>
      <trkpt lat="59.180067" lon="18.143895">
        <ele>37</ele>
        <time>2020-02-09T06:02:38Z</time>
      </trkpt>
      <trkpt lat="59.180132" lon="18.14397">
        <ele>37</ele>
        <time>2020-02-09T06:02:39Z</time>
      </trkpt>
      <trkpt lat="59.180196" lon="18.144045">
        <ele>37</ele>
        <time>2020-02-09T06:02:40Z</time>
      </trkpt>
      <trkpt lat="59.180258" lon="18.144117">
        <ele>37</ele>
        <time>2020-02-09T06:02:41Z</time>
      </trkpt>
      <trkpt lat="59.180319" lon="18.14419">
        <ele>37</ele>
        <time>2020-02-09T06:02:42Z</time>
      </trkpt>
      <trkpt lat="59.180378" lon="18.144263">
        <ele>37</ele>
        <time>2020-02-09T06:02:43Z</time>
      </trkpt>
      <trkpt lat="59.180437" lon="18.144332">
        <ele>37</ele>
        <time>2020-02-09T06:02:44Z</time>
      </trkpt>
      <trkpt lat="59.180495" lon="18.144398">
        <ele>37</ele>
        <time>2020-02-09T06:02:45Z</time>
      </trkpt>
      <trkpt lat="59.180552" lon="18.144464">
        <ele>37</ele>
        <time>2020-02-09T06:02:46Z</time>
      </trkpt>
      <trkpt lat="59.180608" lon="18.144531">
        <ele>37</ele>
        <time>2020-02-09T06:02:47Z</time>
      </trkpt>
      <trkpt lat="59.180661" lon="18.144603">
        <ele>37</ele>
        <time>2020-02-09T06:02:48Z</time>
      </trkpt>
      <trkpt lat="59.180707" lon="18.144687">
        <ele>37</ele>
        <time>2020-02-09T06:02:49Z</time>
      </trkpt>
      <trkpt lat="59.180749" lon="18.144779">
        <ele>37</ele>
        <time>2020-02-09T06:02:50Z</time>
      </trkpt>
      <trkpt lat="59.180796" lon="18.144863">
        <ele>38</ele>
        <time>2020-02-09T06:02:51Z</time>
      </trkpt>
      <trkpt lat="59.180849" lon="18.144927">
        <ele>38</ele>
        <time>2020-02-09T06:02:52Z</time>
      </trkpt>
      <trkpt lat="59.180905" lon="18.144983">
        <ele>38</ele>
        <time>2020-02-09T06:02:53Z</time>
      </trkpt>
      <trkpt lat="59.180962" lon="18.145043">
        <ele>38</ele>
        <time>2020-02-09T06:02:54Z</time>
      </trkpt>
      <trkpt lat="59.181017" lon="18.145104">
        <ele>38</ele>
        <time>2020-02-09T06:02:55Z</time>
      </trkpt>
      <trkpt lat="59.181072" lon="18.145165">
        <ele>38</ele>
        <time>2020-02-09T06:02:56Z</time>
      </trkpt>
      <trkpt lat="59.181127" lon="18.145224">
        <ele>38</ele>
        <time>2020-02-09T06:02:57Z</time>
      </trkpt>
      <trkpt lat="59.181181" lon="18.145282">
        <ele>38</ele>
        <time>2020-02-09T06:02:58Z</time>
      </trkpt>
      <trkpt lat="59.181236" lon="18.145342">
        <ele>38</ele>
        <time>2020-02-09T06:02:59Z</time>
      </trkpt>
      <trkpt lat="59.181291" lon="18.145403">
        <ele>38</ele>
        <time>2020-02-09T06:03:00Z</time>
      </trkpt>
      <trkpt lat="59.181346" lon="18.145464">
        <ele>38</ele>
        <time>2020-02-09T06:03:01Z</time>
      </trkpt>
      <trkpt lat="59.181402" lon="18.145524">
        <ele>38</ele>
        <time>2020-02-09T06:03:02Z</time>
      </trkpt>
      <trkpt lat="59.181457" lon="18.145586">
        <ele>38</ele>
        <time>2020-02-09T06:03:03Z</time>
      </trkpt>
      <trkpt lat="59.181514" lon="18.145648">
        <ele>38</ele>
        <time>2020-02-09T06:03:04Z</time>
      </trkpt>
      <trkpt lat="59.181574" lon="18.14571">
        <ele>38</ele>
        <time>2020-02-09T06:03:05Z</time>
      </trkpt>
      <trkpt lat="59.181632" lon="18.145774">
        <ele>38</ele>
        <time>2020-02-09T06:03:06Z</time>
      </trkpt>
      <trkpt lat="59.181692" lon="18.145843">
        <ele>38</ele>
        <time>2020-02-09T06:03:07Z</time>
      </trkpt>
      <trkpt lat="59.181755" lon="18.145918">
        <ele>38</ele>
        <time>2020-02-09T06:03:08Z</time>
      </trkpt>
      <trkpt lat="59.181816" lon="18.145992">
        <ele>38</ele>
        <time>2020-02-09T06:03:09Z</time>
      </trkpt>
      <trkpt lat="59.181878" lon="18.146066">
        <ele>38</ele>
        <time>2020-02-09T06:03:10Z</time>
      </trkpt>
      <trkpt lat="59.181942" lon="18.14614">
        <ele>38</ele>
        <time>2020-02-09T06:03:11Z</time>
      </trkpt>
      <trkpt lat="59.182006" lon="18.146213">
        <ele>38</ele>
        <time>2020-02-09T06:03:12Z</time>
      </trkpt>
      <trkpt lat="59.18207" lon="18.146288">
        <ele>38</ele>
        <time>2020-02-09T06:03:13Z</time>
      </trkpt>
      <trkpt lat="59.182134" lon="18.146364">
        <ele>38</ele>
        <time>2020-02-09T06:03:14Z</time>
      </trkpt>
      <trkpt lat="59.182198" lon="18.14644">
        <ele>38</ele>
        <time>2020-02-09T06:03:15Z</time>
      </trkpt>
      <trkpt lat="59.182261" lon="18.146512">
        <ele>38</ele>
        <time>2020-02-09T06:03:16Z</time>
      </trkpt>
      <trkpt lat="59.182325" lon="18.14658">
        <ele>38</ele>
        <time>2020-02-09T06:03:17Z</time>
      </trkpt>
      <trkpt lat="59.182388" lon="18.146648">
        <ele>38</ele>
        <time>2020-02-09T06:03:18Z</time>
      </trkpt>
      <trkpt lat="59.182452" lon="18.146714">
        <ele>38</ele>
        <time>2020-02-09T06:03:19Z</time>
      </trkpt>
      <trkpt lat="59.182518" lon="18.146778">
        <ele>38</ele>
        <time>2020-02-09T06:03:20Z</time>
      </trkpt>
      <trkpt lat="59.182583" lon="18.146836">
        <ele>38</ele>
        <time>2020-02-09T06:03:21Z</time>
      </trkpt>
      <trkpt lat="59.18265" lon="18.146894">
        <ele>38</ele>
        <time>2020-02-09T06:03:22Z</time>
      </trkpt>
      <trkpt lat="59.182716" lon="18.146948">
        <ele>38</ele>
        <time>2020-02-09T06:03:23Z</time>
      </trkpt>
      <trkpt lat="59.182785" lon="18.146998">
        <ele>38</ele>
        <time>2020-02-09T06:03:24Z</time>
      </trkpt>
      <trkpt lat="59.182852" lon="18.147044">
        <ele>38</ele>
        <time>2020-02-09T06:03:25Z</time>
      </trkpt>
      <trkpt lat="59.18292" lon="18.147084">
        <ele>38</ele>
        <time>2020-02-09T06:03:26Z</time>
      </trkpt>
      <trkpt lat="59.18299" lon="18.147122">
        <ele>38</ele>
        <time>2020-02-09T06:03:27Z</time>
      </trkpt>
      <trkpt lat="59.183061" lon="18.147156">
        <ele>38</ele>
        <time>2020-02-09T06:03:28Z</time>
      </trkpt>
      <trkpt lat="59.183134" lon="18.147184">
        <ele>38</ele>
        <time>2020-02-09T06:03:29Z</time>
      </trkpt>
      <trkpt lat="59.183204" lon="18.147212">
        <ele>37</ele>
        <time>2020-02-09T06:03:30Z</time>
      </trkpt>
      <trkpt lat="59.183271" lon="18.14724">
        <ele>38</ele>
        <time>2020-02-09T06:03:31Z</time>
      </trkpt>
      <trkpt lat="59.183334" lon="18.147278">
        <ele>37</ele>
        <time>2020-02-09T06:03:32Z</time>
      </trkpt>
      <trkpt lat="59.183394" lon="18.147322">
        <ele>37</ele>
        <time>2020-02-09T06:03:33Z</time>
      </trkpt>
      <trkpt lat="59.183456" lon="18.147354">
        <ele>37</ele>
        <time>2020-02-09T06:03:34Z</time>
      </trkpt>
      <trkpt lat="59.18352" lon="18.147366">
        <ele>37</ele>
        <time>2020-02-09T06:03:35Z</time>
      </trkpt>
      <trkpt lat="59.183586" lon="18.14736">
        <ele>37</ele>
        <time>2020-02-09T06:03:36Z</time>
      </trkpt>
      <trkpt lat="59.18365" lon="18.147336">
        <ele>37</ele>
        <time>2020-02-09T06:03:37Z</time>
      </trkpt>
      <trkpt lat="59.183716" lon="18.147308">
        <ele>37</ele>
        <time>2020-02-09T06:03:38Z</time>
      </trkpt>
      <trkpt lat="59.183785" lon="18.147288">
        <ele>37</ele>
        <time>2020-02-09T06:03:39Z</time>
      </trkpt>
      <trkpt lat="59.183854" lon="18.147274">
        <ele>37</ele>
        <time>2020-02-09T06:03:40Z</time>
      </trkpt>
      <trkpt lat="59.183926" lon="18.147262">
        <ele>37</ele>
        <time>2020-02-09T06:03:41Z</time>
      </trkpt>
      <trkpt lat="59.184" lon="18.147248">
        <ele>36</ele>
        <time>2020-02-09T06:03:42Z</time>
      </trkpt>
      <trkpt lat="59.184076" lon="18.147233">
        <ele>36</ele>
        <time>2020-02-09T06:03:43Z</time>
      </trkpt>
      <trkpt lat="59.184155" lon="18.147218">
        <ele>36</ele>
        <time>2020-02-09T06:03:45Z</time>
      </trkpt>
      <trkpt lat="59.184236" lon="18.147196">
        <ele>36</ele>
        <time>2020-02-09T06:03:45Z</time>
      </trkpt>
      <trkpt lat="59.18432" lon="18.147176">
        <ele>35</ele>
        <time>2020-02-09T06:03:46Z</time>
      </trkpt>
      <trkpt lat="59.184406" lon="18.147154">
        <ele>35</ele>
        <time>2020-02-09T06:03:47Z</time>
      </trkpt>
      <trkpt lat="59.184492" lon="18.14713">
        <ele>35</ele>
        <time>2020-02-09T06:03:48Z</time>
      </trkpt>
      <trkpt lat="59.18458" lon="18.14711">
        <ele>35</ele>
        <time>2020-02-09T06:03:49Z</time>
      </trkpt>
      <trkpt lat="59.184668" lon="18.147087">
        <ele>35</ele>
        <time>2020-02-09T06:03:50Z</time>
      </trkpt>
      <trkpt lat="59.184754" lon="18.147066">
        <ele>35</ele>
        <time>2020-02-09T06:03:51Z</time>
      </trkpt>
      <trkpt lat="59.184836" lon="18.147038">
        <ele>34</ele>
        <time>2020-02-09T06:03:52Z</time>
      </trkpt>
      <trkpt lat="59.184914" lon="18.147002">
        <ele>34</ele>
        <time>2020-02-09T06:03:53Z</time>
      </trkpt>
      <trkpt lat="59.184988" lon="18.146952">
        <ele>34</ele>
        <time>2020-02-09T06:03:54Z</time>
      </trkpt>
      <trkpt lat="59.185056" lon="18.146892">
        <ele>34</ele>
        <time>2020-02-09T06:03:55Z</time>
      </trkpt>
      <trkpt lat="59.18512" lon="18.146834">
        <ele>33</ele>
        <time>2020-02-09T06:03:56Z</time>
      </trkpt>
      <trkpt lat="59.185182" lon="18.146786">
        <ele>33</ele>
        <time>2020-02-09T06:03:57Z</time>
      </trkpt>
      <trkpt lat="59.185243" lon="18.146756">
        <ele>33</ele>
        <time>2020-02-09T06:03:58Z</time>
      </trkpt>
      <trkpt lat="59.185301" lon="18.146748">
        <ele>32</ele>
        <time>2020-02-09T06:03:59Z</time>
      </trkpt>
      <trkpt lat="59.185352" lon="18.146774">
        <ele>32</ele>
        <time>2020-02-09T06:04:00Z</time>
      </trkpt>
      <trkpt lat="59.185393" lon="18.146837">
        <ele>32</ele>
        <time>2020-02-09T06:04:01Z</time>
      </trkpt>
      <trkpt lat="59.18543" lon="18.146913">
        <ele>32</ele>
        <time>2020-02-09T06:04:02Z</time>
      </trkpt>
      <trkpt lat="59.185472" lon="18.146961">
        <ele>32</ele>
        <time>2020-02-09T06:04:03Z</time>
      </trkpt>
      <trkpt lat="59.185523" lon="18.146969">
        <ele>31</ele>
        <time>2020-02-09T06:04:04Z</time>
      </trkpt>
      <trkpt lat="59.185577" lon="18.146958">
        <ele>31</ele>
        <time>2020-02-09T06:04:05Z</time>
      </trkpt>
      <trkpt lat="59.185636" lon="18.146947">
        <ele>31</ele>
        <time>2020-02-09T06:04:06Z</time>
      </trkpt>
      <trkpt lat="59.185698" lon="18.146939">
        <ele>31</ele>
        <time>2020-02-09T06:04:07Z</time>
      </trkpt>
      <trkpt lat="59.185761" lon="18.14693">
        <ele>31</ele>
        <time>2020-02-09T06:04:08Z</time>
      </trkpt>
      <trkpt lat="59.185824" lon="18.146915">
        <ele>31</ele>
        <time>2020-02-09T06:04:09Z</time>
      </trkpt>
      <trkpt lat="59.185887" lon="18.146901">
        <ele>31</ele>
        <time>2020-02-09T06:04:10Z</time>
      </trkpt>
      <trkpt lat="59.185951" lon="18.146888">
        <ele>31</ele>
        <time>2020-02-09T06:04:11Z</time>
      </trkpt>
      <trkpt lat="59.186015" lon="18.146876">
        <ele>31</ele>
        <time>2020-02-09T06:04:12Z</time>
      </trkpt>
      <trkpt lat="59.186081" lon="18.146864">
        <ele>31</ele>
        <time>2020-02-09T06:04:13Z</time>
      </trkpt>
      <trkpt lat="59.186148" lon="18.146855">
        <ele>31</ele>
        <time>2020-02-09T06:04:14Z</time>
      </trkpt>
      <trkpt lat="59.186216" lon="18.146849">
        <ele>31</ele>
        <time>2020-02-09T06:04:15Z</time>
      </trkpt>
      <trkpt lat="59.186286" lon="18.14684">
        <ele>31</ele>
        <time>2020-02-09T06:04:16Z</time>
      </trkpt>
      <trkpt lat="59.186355" lon="18.146826">
        <ele>30</ele>
        <time>2020-02-09T06:04:17Z</time>
      </trkpt>
      <trkpt lat="59.186424" lon="18.14681">
        <ele>30</ele>
        <time>2020-02-09T06:04:18Z</time>
      </trkpt>
      <trkpt lat="59.186493" lon="18.146791">
        <ele>30</ele>
        <time>2020-02-09T06:04:19Z</time>
      </trkpt>
      <trkpt lat="59.186563" lon="18.14677">
        <ele>30</ele>
        <time>2020-02-09T06:04:20Z</time>
      </trkpt>
      <trkpt lat="59.186634" lon="18.146754">
        <ele>30</ele>
        <time>2020-02-09T06:04:21Z</time>
      </trkpt>
      <trkpt lat="59.186705" lon="18.146738">
        <ele>30</ele>
        <time>2020-02-09T06:04:22Z</time>
      </trkpt>
      <trkpt lat="59.186776" lon="18.146718">
        <ele>30</ele>
        <time>2020-02-09T06:04:23Z</time>
      </trkpt>
      <trkpt lat="59.186846" lon="18.146699">
        <ele>30</ele>
        <time>2020-02-09T06:04:24Z</time>
      </trkpt>
      <trkpt lat="59.186915" lon="18.14668">
        <ele>30</ele>
        <time>2020-02-09T06:04:25Z</time>
      </trkpt>
      <trkpt lat="59.186985" lon="18.146662">
        <ele>30</ele>
        <time>2020-02-09T06:04:26Z</time>
      </trkpt>
      <trkpt lat="59.187055" lon="18.146643">
        <ele>30</ele>
        <time>2020-02-09T06:04:27Z</time>
      </trkpt>
      <trkpt lat="59.187125" lon="18.146624">
        <ele>30</ele>
        <time>2020-02-09T06:04:28Z</time>
      </trkpt>
      <trkpt lat="59.187195" lon="18.146608">
        <ele>30</ele>
        <time>2020-02-09T06:04:29Z</time>
      </trkpt>
      <trkpt lat="59.187266" lon="18.14659">
        <ele>30</ele>
        <time>2020-02-09T06:04:30Z</time>
      </trkpt>
      <trkpt lat="59.187337" lon="18.146572">
        <ele>30</ele>
        <time>2020-02-09T06:04:31Z</time>
      </trkpt>
      <trkpt lat="59.187407" lon="18.146553">
        <ele>30</ele>
        <time>2020-02-09T06:04:32Z</time>
      </trkpt>
      <trkpt lat="59.187478" lon="18.14653">
        <ele>30</ele>
        <time>2020-02-09T06:04:33Z</time>
      </trkpt>
      <trkpt lat="59.187547" lon="18.146503">
        <ele>30</ele>
        <time>2020-02-09T06:04:34Z</time>
      </trkpt>
      <trkpt lat="59.187615" lon="18.146471">
        <ele>30</ele>
        <time>2020-02-09T06:04:35Z</time>
      </trkpt>
      <trkpt lat="59.187681" lon="18.146436">
        <ele>30</ele>
        <time>2020-02-09T06:04:36Z</time>
      </trkpt>
      <trkpt lat="59.187747" lon="18.146396">
        <ele>30</ele>
        <time>2020-02-09T06:04:37Z</time>
      </trkpt>
      <trkpt lat="59.187811" lon="18.146352">
        <ele>30</ele>
        <time>2020-02-09T06:04:38Z</time>
      </trkpt>
      <trkpt lat="59.187874" lon="18.146303">
        <ele>30</ele>
        <time>2020-02-09T06:04:39Z</time>
      </trkpt>
      <trkpt lat="59.187936" lon="18.146251">
        <ele>30</ele>
        <time>2020-02-09T06:04:40Z</time>
      </trkpt>
      <trkpt lat="59.187998" lon="18.146199">
        <ele>30</ele>
        <time>2020-02-09T06:04:41Z</time>
      </trkpt>
      <trkpt lat="59.188059" lon="18.146151">
        <ele>30</ele>
        <time>2020-02-09T06:04:42Z</time>
      </trkpt>
      <trkpt lat="59.188121" lon="18.146107">
        <ele>30</ele>
        <time>2020-02-09T06:04:43Z</time>
      </trkpt>
      <trkpt lat="59.18818" lon="18.146066">
        <ele>30</ele>
        <time>2020-02-09T06:04:44Z</time>
      </trkpt>
      <trkpt lat="59.188237" lon="18.146026">
        <ele>30</ele>
        <time>2020-02-09T06:04:45Z</time>
      </trkpt>
      <trkpt lat="59.188295" lon="18.145991">
        <ele>31</ele>
        <time>2020-02-09T06:04:46Z</time>
      </trkpt>
      <trkpt lat="59.188353" lon="18.145956">
        <ele>31</ele>
        <time>2020-02-09T06:04:47Z</time>
      </trkpt>
      <trkpt lat="59.18841" lon="18.145917">
        <ele>31</ele>
        <time>2020-02-09T06:04:48Z</time>
      </trkpt>
      <trkpt lat="59.188468" lon="18.14587">
        <ele>31</ele>
        <time>2020-02-09T06:04:49Z</time>
      </trkpt>
      <trkpt lat="59.188525" lon="18.145821">
        <ele>31</ele>
        <time>2020-02-09T06:04:50Z</time>
      </trkpt>
      <trkpt lat="59.188582" lon="18.145773">
        <ele>32</ele>
        <time>2020-02-09T06:04:51Z</time>
      </trkpt>
      <trkpt lat="59.188636" lon="18.145723">
        <ele>32</ele>
        <time>2020-02-09T06:04:52Z</time>
      </trkpt>
      <trkpt lat="59.188689" lon="18.145669">
        <ele>32</ele>
        <time>2020-02-09T06:04:53Z</time>
      </trkpt>
      <trkpt lat="59.18874" lon="18.14561">
        <ele>32</ele>
        <time>2020-02-09T06:04:54Z</time>
      </trkpt>
      <trkpt lat="59.188789" lon="18.145548">
        <ele>32</ele>
        <time>2020-02-09T06:04:55Z</time>
      </trkpt>
      <trkpt lat="59.188839" lon="18.145485">
        <ele>32</ele>
        <time>2020-02-09T06:04:56Z</time>
      </trkpt>
      <trkpt lat="59.188888" lon="18.145421">
        <ele>32</ele>
        <time>2020-02-09T06:04:57Z</time>
      </trkpt>
      <trkpt lat="59.188937" lon="18.145357">
        <ele>32</ele>
        <time>2020-02-09T06:04:58Z</time>
      </trkpt>
      <trkpt lat="59.188984" lon="18.14529">
        <ele>32</ele>
        <time>2020-02-09T06:04:59Z</time>
      </trkpt>
      <trkpt lat="59.189031" lon="18.145221">
        <ele>32</ele>
        <time>2020-02-09T06:05:00Z</time>
      </trkpt>
      <trkpt lat="59.189079" lon="18.145151">
        <ele>32</ele>
        <time>2020-02-09T06:05:01Z</time>
      </trkpt>
      <trkpt lat="59.189126" lon="18.145078">
        <ele>32</ele>
        <time>2020-02-09T06:05:02Z</time>
      </trkpt>
      <trkpt lat="59.189172" lon="18.145005">
        <ele>32</ele>
        <time>2020-02-09T06:05:03Z</time>
      </trkpt>
      <trkpt lat="59.189221" lon="18.144937">
        <ele>32</ele>
        <time>2020-02-09T06:05:04Z</time>
      </trkpt>
      <trkpt lat="59.189272" lon="18.144874">
        <ele>32</ele>
        <time>2020-02-09T06:05:05Z</time>
      </trkpt>
      <trkpt lat="59.189326" lon="18.144815">
        <ele>32</ele>
        <time>2020-02-09T06:05:06Z</time>
      </trkpt>
      <trkpt lat="59.189381" lon="18.144757">
        <ele>32</ele>
        <time>2020-02-09T06:05:07Z</time>
      </trkpt>
      <trkpt lat="59.189438" lon="18.144704">
        <ele>31</ele>
        <time>2020-02-09T06:05:08Z</time>
      </trkpt>
      <trkpt lat="59.189498" lon="18.144655">
        <ele>31</ele>
        <time>2020-02-09T06:05:09Z</time>
      </trkpt>
      <trkpt lat="59.189561" lon="18.144609">
        <ele>31</ele>
        <time>2020-02-09T06:05:10Z</time>
      </trkpt>
      <trkpt lat="59.189626" lon="18.144566">
        <ele>31</ele>
        <time>2020-02-09T06:05:11Z</time>
      </trkpt>
      <trkpt lat="59.189695" lon="18.144522">
        <ele>31</ele>
        <time>2020-02-09T06:05:12Z</time>
      </trkpt>
      <trkpt lat="59.189765" lon="18.144481">
        <ele>31</ele>
        <time>2020-02-09T06:05:13Z</time>
      </trkpt>
      <trkpt lat="59.189835" lon="18.144443">
        <ele>31</ele>
        <time>2020-02-09T06:05:14Z</time>
      </trkpt>
      <trkpt lat="59.189905" lon="18.144407">
        <ele>31</ele>
        <time>2020-02-09T06:05:15Z</time>
      </trkpt>
      <trkpt lat="59.189973" lon="18.144365">
        <ele>31</ele>
        <time>2020-02-09T06:05:16Z</time>
      </trkpt>
      <trkpt lat="59.190039" lon="18.144321">
        <ele>31</ele>
        <time>2020-02-09T06:05:17Z</time>
      </trkpt>
      <trkpt lat="59.190101" lon="18.144276">
        <ele>31</ele>
        <time>2020-02-09T06:05:18Z</time>
      </trkpt>
      <trkpt lat="59.190165" lon="18.144235">
        <ele>31</ele>
        <time>2020-02-09T06:05:19Z</time>
      </trkpt>
      <trkpt lat="59.190241" lon="18.144217">
        <ele>31</ele>
        <time>2020-02-09T06:05:20Z</time>
      </trkpt>
      <trkpt lat="59.190312" lon="18.144205">
        <ele>30</ele>
        <time>2020-02-09T06:05:21Z</time>
      </trkpt>
      <trkpt lat="59.190371" lon="18.144248">
        <ele>30</ele>
        <time>2020-02-09T06:05:22Z</time>
      </trkpt>
      <trkpt lat="59.190429" lon="18.144269">
        <ele>31</ele>
        <time>2020-02-09T06:05:23Z</time>
      </trkpt>
      <trkpt lat="59.190492" lon="18.144254">
        <ele>31</ele>
        <time>2020-02-09T06:05:24Z</time>
      </trkpt>
      <trkpt lat="59.190553" lon="18.144235">
        <ele>31</ele>
        <time>2020-02-09T06:05:25Z</time>
      </trkpt>
      <trkpt lat="59.190612" lon="18.144215">
        <ele>31</ele>
        <time>2020-02-09T06:05:26Z</time>
      </trkpt>
      <trkpt lat="59.190674" lon="18.144203">
        <ele>31</ele>
        <time>2020-02-09T06:05:27Z</time>
      </trkpt>
      <trkpt lat="59.19073" lon="18.144188">
        <ele>31</ele>
        <time>2020-02-09T06:05:28Z</time>
      </trkpt>
      <trkpt lat="59.190789" lon="18.144179">
        <ele>31</ele>
        <time>2020-02-09T06:05:29Z</time>
      </trkpt>
      <trkpt lat="59.190844" lon="18.14417">
        <ele>31</ele>
        <time>2020-02-09T06:05:30Z</time>
      </trkpt>
      <trkpt lat="59.190899" lon="18.144165">
        <ele>32</ele>
        <time>2020-02-09T06:05:31Z</time>
      </trkpt>
      <trkpt lat="59.19095" lon="18.144157">
        <ele>32</ele>
        <time>2020-02-09T06:05:32Z</time>
      </trkpt>
      <trkpt lat="59.190999" lon="18.144149">
        <ele>32</ele>
        <time>2020-02-09T06:05:33Z</time>
      </trkpt>
      <trkpt lat="59.191042" lon="18.144138">
        <ele>33</ele>
        <time>2020-02-09T06:05:34Z</time>
      </trkpt>
      <trkpt lat="59.191083" lon="18.144131">
        <ele>33</ele>
        <time>2020-02-09T06:05:35Z</time>
      </trkpt>
      <trkpt lat="59.191126" lon="18.144121">
        <ele>33</ele>
        <time>2020-02-09T06:05:36Z</time>
      </trkpt>
      <trkpt lat="59.191168" lon="18.144104">
        <ele>34</ele>
        <time>2020-02-09T06:05:37Z</time>
      </trkpt>
      <trkpt lat="59.19121" lon="18.144089">
        <ele>34</ele>
        <time>2020-02-09T06:05:38Z</time>
      </trkpt>
      <trkpt lat="59.191253" lon="18.144071">
        <ele>34</ele>
        <time>2020-02-09T06:05:39Z</time>
      </trkpt>
      <trkpt lat="59.191296" lon="18.144053">
        <ele>34</ele>
        <time>2020-02-09T06:05:40Z</time>
      </trkpt>
      <trkpt lat="59.191338" lon="18.14404">
        <ele>34</ele>
        <time>2020-02-09T06:05:41Z</time>
      </trkpt>
      <trkpt lat="59.191379" lon="18.14403">
        <ele>34</ele>
        <time>2020-02-09T06:05:42Z</time>
      </trkpt>
      <trkpt lat="59.191418" lon="18.144014">
        <ele>34</ele>
        <time>2020-02-09T06:05:43Z</time>
      </trkpt>
      <trkpt lat="59.191457" lon="18.143996">
        <ele>34</ele>
        <time>2020-02-09T06:05:44Z</time>
      </trkpt>
      <trkpt lat="59.191495" lon="18.143981">
        <ele>35</ele>
        <time>2020-02-09T06:05:45Z</time>
      </trkpt>
      <trkpt lat="59.191532" lon="18.143961">
        <ele>35</ele>
        <time>2020-02-09T06:05:46Z</time>
      </trkpt>
      <trkpt lat="59.19157" lon="18.143938">
        <ele>35</ele>
        <time>2020-02-09T06:05:47Z</time>
      </trkpt>
      <trkpt lat="59.191606" lon="18.143912">
        <ele>35</ele>
        <time>2020-02-09T06:05:48Z</time>
      </trkpt>
      <trkpt lat="59.191643" lon="18.143889">
        <ele>36</ele>
        <time>2020-02-09T06:05:49Z</time>
      </trkpt>
      <trkpt lat="59.19168" lon="18.143869">
        <ele>36</ele>
        <time>2020-02-09T06:05:50Z</time>
      </trkpt>
      <trkpt lat="59.191715" lon="18.143848">
        <ele>36</ele>
        <time>2020-02-09T06:05:51Z</time>
      </trkpt>
      <trkpt lat="59.191749" lon="18.143824">
        <ele>36</ele>
        <time>2020-02-09T06:05:52Z</time>
      </trkpt>
      <trkpt lat="59.19178" lon="18.143794">
        <ele>37</ele>
        <time>2020-02-09T06:05:53Z</time>
      </trkpt>
      <trkpt lat="59.191811" lon="18.143767">
        <ele>37</ele>
        <time>2020-02-09T06:05:54Z</time>
      </trkpt>
      <trkpt lat="59.191844" lon="18.143738">
        <ele>37</ele>
        <time>2020-02-09T06:05:55Z</time>
      </trkpt>
      <trkpt lat="59.191877" lon="18.143708">
        <ele>37</ele>
        <time>2020-02-09T06:05:56Z</time>
      </trkpt>
      <trkpt lat="59.191909" lon="18.143679">
        <ele>37</ele>
        <time>2020-02-09T06:05:57Z</time>
      </trkpt>
      <trkpt lat="59.191944" lon="18.143652">
        <ele>37</ele>
        <time>2020-02-09T06:05:58Z</time>
      </trkpt>
      <trkpt lat="59.19198" lon="18.14362">
        <ele>37</ele>
        <time>2020-02-09T06:05:59Z</time>
      </trkpt>
      <trkpt lat="59.192014" lon="18.143588">
        <ele>37</ele>
        <time>2020-02-09T06:06:00Z</time>
      </trkpt>
      <trkpt lat="59.192046" lon="18.143549">
        <ele>37</ele>
        <time>2020-02-09T06:06:01Z</time>
      </trkpt>
      <trkpt lat="59.192079" lon="18.143513">
        <ele>37</ele>
        <time>2020-02-09T06:06:02Z</time>
      </trkpt>
      <trkpt lat="59.192112" lon="18.143477">
        <ele>38</ele>
        <time>2020-02-09T06:06:03Z</time>
      </trkpt>
      <trkpt lat="59.192146" lon="18.143438">
        <ele>38</ele>
        <time>2020-02-09T06:06:04Z</time>
      </trkpt>
      <trkpt lat="59.192181" lon="18.143401">
        <ele>38</ele>
        <time>2020-02-09T06:06:05Z</time>
      </trkpt>
      <trkpt lat="59.192216" lon="18.143363">
        <ele>39</ele>
        <time>2020-02-09T06:06:06Z</time>
      </trkpt>
      <trkpt lat="59.19225" lon="18.143326">
        <ele>39</ele>
        <time>2020-02-09T06:06:07Z</time>
      </trkpt>
      <trkpt lat="59.192284" lon="18.143288">
        <ele>39</ele>
        <time>2020-02-09T06:06:08Z</time>
      </trkpt>
      <trkpt lat="59.192317" lon="18.143249">
        <ele>40</ele>
        <time>2020-02-09T06:06:09Z</time>
      </trkpt>
      <trkpt lat="59.192349" lon="18.143214">
        <ele>40</ele>
        <time>2020-02-09T06:06:10Z</time>
      </trkpt>
      <trkpt lat="59.192381" lon="18.143177">
        <ele>40</ele>
        <time>2020-02-09T06:06:11Z</time>
      </trkpt>
      <trkpt lat="59.192413" lon="18.143138">
        <ele>40</ele>
        <time>2020-02-09T06:06:12Z</time>
      </trkpt>
      <trkpt lat="59.192447" lon="18.143102">
        <ele>40</ele>
        <time>2020-02-09T06:06:13Z</time>
      </trkpt>
      <trkpt lat="59.19248" lon="18.143067">
        <ele>40</ele>
        <time>2020-02-09T06:06:14Z</time>
      </trkpt>
      <trkpt lat="59.192514" lon="18.143035">
        <ele>40</ele>
        <time>2020-02-09T06:06:15Z</time>
      </trkpt>
      <trkpt lat="59.192548" lon="18.143004">
        <ele>40</ele>
        <time>2020-02-09T06:06:16Z</time>
      </trkpt>
      <trkpt lat="59.192581" lon="18.142972">
        <ele>40</ele>
        <time>2020-02-09T06:06:17Z</time>
      </trkpt>
      <trkpt lat="59.192615" lon="18.142939">
        <ele>40</ele>
        <time>2020-02-09T06:06:18Z</time>
      </trkpt>
      <trkpt lat="59.192652" lon="18.142916">
        <ele>40</ele>
        <time>2020-02-09T06:06:21Z</time>
      </trkpt>
      <trkpt lat="59.192689" lon="18.142882">
        <ele>40</ele>
        <time>2020-02-09T06:06:22Z</time>
      </trkpt>
      <trkpt lat="59.192729" lon="18.142841">
        <ele>40</ele>
        <time>2020-02-09T06:06:23Z</time>
      </trkpt>
      <trkpt lat="59.19277" lon="18.142799">
        <ele>40</ele>
        <time>2020-02-09T06:06:24Z</time>
      </trkpt>
      <trkpt lat="59.19281" lon="18.142759">
        <ele>40</ele>
        <time>2020-02-09T06:06:25Z</time>
      </trkpt>
      <trkpt lat="59.192849" lon="18.142718">
        <ele>41</ele>
        <time>2020-02-09T06:06:26Z</time>
      </trkpt>
      <trkpt lat="59.192887" lon="18.142677">
        <ele>41</ele>
        <time>2020-02-09T06:06:27Z</time>
      </trkpt>
      <trkpt lat="59.192924" lon="18.142638">
        <ele>41</ele>
        <time>2020-02-09T06:06:28Z</time>
      </trkpt>
      <trkpt lat="59.192962" lon="18.142599">
        <ele>41</ele>
        <time>2020-02-09T06:06:29Z</time>
      </trkpt>
      <trkpt lat="59.193" lon="18.142561">
        <ele>42</ele>
        <time>2020-02-09T06:06:30Z</time>
      </trkpt>
      <trkpt lat="59.193034" lon="18.142518">
        <ele>43</ele>
        <time>2020-02-09T06:06:31Z</time>
      </trkpt>
      <trkpt lat="59.193071" lon="18.142475">
        <ele>43</ele>
        <time>2020-02-09T06:06:32Z</time>
      </trkpt>
      <trkpt lat="59.193111" lon="18.142437">
        <ele>43</ele>
        <time>2020-02-09T06:06:33Z</time>
      </trkpt>
      <trkpt lat="59.193152" lon="18.142404">
        <ele>43</ele>
        <time>2020-02-09T06:06:34Z</time>
      </trkpt>
      <trkpt lat="59.193193" lon="18.142375">
        <ele>43</ele>
        <time>2020-02-09T06:06:35Z</time>
      </trkpt>
      <trkpt lat="59.193236" lon="18.142346">
        <ele>43</ele>
        <time>2020-02-09T06:06:36Z</time>
      </trkpt>
      <trkpt lat="59.193276" lon="18.142309">
        <ele>43</ele>
        <time>2020-02-09T06:06:37Z</time>
      </trkpt>
      <trkpt lat="59.193318" lon="18.142276">
        <ele>43</ele>
        <time>2020-02-09T06:06:38Z</time>
      </trkpt>
      <trkpt lat="59.193359" lon="18.14225">
        <ele>43</ele>
        <time>2020-02-09T06:06:39Z</time>
      </trkpt>
      <trkpt lat="59.193399" lon="18.142221">
        <ele>43</ele>
        <time>2020-02-09T06:06:40Z</time>
      </trkpt>
      <trkpt lat="59.193438" lon="18.14219">
        <ele>43</ele>
        <time>2020-02-09T06:06:41Z</time>
      </trkpt>
      <trkpt lat="59.193478" lon="18.142156">
        <ele>44</ele>
        <time>2020-02-09T06:06:42Z</time>
      </trkpt>
      <trkpt lat="59.193519" lon="18.14212">
        <ele>44</ele>
        <time>2020-02-09T06:06:43Z</time>
      </trkpt>
      <trkpt lat="59.193561" lon="18.142083">
        <ele>44</ele>
        <time>2020-02-09T06:06:44Z</time>
      </trkpt>
      <trkpt lat="59.193602" lon="18.142045">
        <ele>44</ele>
        <time>2020-02-09T06:06:45Z</time>
      </trkpt>
      <trkpt lat="59.193645" lon="18.142004">
        <ele>44</ele>
        <time>2020-02-09T06:06:46Z</time>
      </trkpt>
      <trkpt lat="59.193687" lon="18.141962">
        <ele>44</ele>
        <time>2020-02-09T06:06:47Z</time>
      </trkpt>
      <trkpt lat="59.193728" lon="18.141916">
        <ele>44</ele>
        <time>2020-02-09T06:06:48Z</time>
      </trkpt>
      <trkpt lat="59.193771" lon="18.141873">
        <ele>44</ele>
        <time>2020-02-09T06:06:49Z</time>
      </trkpt>
      <trkpt lat="59.193816" lon="18.14183">
        <ele>44</ele>
        <time>2020-02-09T06:06:50Z</time>
      </trkpt>
      <trkpt lat="59.193862" lon="18.141787">
        <ele>44</ele>
        <time>2020-02-09T06:06:51Z</time>
      </trkpt>
      <trkpt lat="59.193911" lon="18.141744">
        <ele>44</ele>
        <time>2020-02-09T06:06:52Z</time>
      </trkpt>
      <trkpt lat="59.193961" lon="18.141702">
        <ele>44</ele>
        <time>2020-02-09T06:06:53Z</time>
      </trkpt>
      <trkpt lat="59.194013" lon="18.14166">
        <ele>44</ele>
        <time>2020-02-09T06:06:55Z</time>
      </trkpt>
      <trkpt lat="59.194065" lon="18.141617">
        <ele>44</ele>
        <time>2020-02-09T06:06:55Z</time>
      </trkpt>
      <trkpt lat="59.194118" lon="18.141574">
        <ele>43</ele>
        <time>2020-02-09T06:06:56Z</time>
      </trkpt>
      <trkpt lat="59.194171" lon="18.141529">
        <ele>43</ele>
        <time>2020-02-09T06:06:57Z</time>
      </trkpt>
      <trkpt lat="59.194224" lon="18.141482">
        <ele>43</ele>
        <time>2020-02-09T06:06:58Z</time>
      </trkpt>
      <trkpt lat="59.194277" lon="18.141434">
        <ele>43</ele>
        <time>2020-02-09T06:06:59Z</time>
      </trkpt>
      <trkpt lat="59.194331" lon="18.141388">
        <ele>43</ele>
        <time>2020-02-09T06:07:00Z</time>
      </trkpt>
      <trkpt lat="59.194383" lon="18.141341">
        <ele>43</ele>
        <time>2020-02-09T06:07:01Z</time>
      </trkpt>
      <trkpt lat="59.194431" lon="18.141292">
        <ele>43</ele>
        <time>2020-02-09T06:07:02Z</time>
      </trkpt>
      <trkpt lat="59.194475" lon="18.141244">
        <ele>43</ele>
        <time>2020-02-09T06:07:03Z</time>
      </trkpt>
      <trkpt lat="59.194528" lon="18.141197">
        <ele>43</ele>
        <time>2020-02-09T06:07:04Z</time>
      </trkpt>
      <trkpt lat="59.194582" lon="18.141149">
        <ele>43</ele>
        <time>2020-02-09T06:07:05Z</time>
      </trkpt>
      <trkpt lat="59.194639" lon="18.141097">
        <ele>43</ele>
        <time>2020-02-09T06:07:06Z</time>
      </trkpt>
      <trkpt lat="59.194703" lon="18.141038">
        <ele>42</ele>
        <time>2020-02-09T06:07:07Z</time>
      </trkpt>
      <trkpt lat="59.194767" lon="18.140981">
        <ele>42</ele>
        <time>2020-02-09T06:07:08Z</time>
      </trkpt>
      <trkpt lat="59.194831" lon="18.140926">
        <ele>42</ele>
        <time>2020-02-09T06:07:09Z</time>
      </trkpt>
      <trkpt lat="59.1949" lon="18.14087">
        <ele>42</ele>
        <time>2020-02-09T06:07:10Z</time>
      </trkpt>
      <trkpt lat="59.194974" lon="18.140819">
        <ele>41</ele>
        <time>2020-02-09T06:07:11Z</time>
      </trkpt>
      <trkpt lat="59.195051" lon="18.140779">
        <ele>41</ele>
        <time>2020-02-09T06:07:12Z</time>
      </trkpt>
      <trkpt lat="59.195131" lon="18.140742">
        <ele>41</ele>
        <time>2020-02-09T06:07:13Z</time>
      </trkpt>
      <trkpt lat="59.195213" lon="18.140714">
        <ele>40</ele>
        <time>2020-02-09T06:07:14Z</time>
      </trkpt>
      <trkpt lat="59.195295" lon="18.140701">
        <ele>40</ele>
        <time>2020-02-09T06:07:15Z</time>
      </trkpt>
      <trkpt lat="59.195379" lon="18.140701">
        <ele>40</ele>
        <time>2020-02-09T06:07:16Z</time>
      </trkpt>
      <trkpt lat="59.195461" lon="18.140703">
        <ele>39</ele>
        <time>2020-02-09T06:07:17Z</time>
      </trkpt>
      <trkpt lat="59.195545" lon="18.140709">
        <ele>39</ele>
        <time>2020-02-09T06:07:18Z</time>
      </trkpt>
      <trkpt lat="59.195628" lon="18.140717">
        <ele>39</ele>
        <time>2020-02-09T06:07:19Z</time>
      </trkpt>
      <trkpt lat="59.195712" lon="18.140726">
        <ele>39</ele>
        <time>2020-02-09T06:07:20Z</time>
      </trkpt>
      <trkpt lat="59.195796" lon="18.140738">
        <ele>39</ele>
        <time>2020-02-09T06:07:21Z</time>
      </trkpt>
      <trkpt lat="59.19588" lon="18.140751">
        <ele>39</ele>
        <time>2020-02-09T06:07:22Z</time>
      </trkpt>
      <trkpt lat="59.195966" lon="18.140771">
        <ele>38</ele>
        <time>2020-02-09T06:07:23Z</time>
      </trkpt>
      <trkpt lat="59.196051" lon="18.140792">
        <ele>38</ele>
        <time>2020-02-09T06:07:24Z</time>
      </trkpt>
      <trkpt lat="59.196135" lon="18.140817">
        <ele>38</ele>
        <time>2020-02-09T06:07:25Z</time>
      </trkpt>
      <trkpt lat="59.196216" lon="18.140841">
        <ele>37</ele>
        <time>2020-02-09T06:07:26Z</time>
      </trkpt>
      <trkpt lat="59.196297" lon="18.140869">
        <ele>37</ele>
        <time>2020-02-09T06:07:27Z</time>
      </trkpt>
      <trkpt lat="59.196377" lon="18.140903">
        <ele>37</ele>
        <time>2020-02-09T06:07:28Z</time>
      </trkpt>
      <trkpt lat="59.196455" lon="18.14095">
        <ele>37</ele>
        <time>2020-02-09T06:07:29Z</time>
      </trkpt>
      <trkpt lat="59.196531" lon="18.141001">
        <ele>36</ele>
        <time>2020-02-09T06:07:30Z</time>
      </trkpt>
      <trkpt lat="59.196606" lon="18.141064">
        <ele>35</ele>
        <time>2020-02-09T06:07:31Z</time>
      </trkpt>
      <trkpt lat="59.19668" lon="18.141142">
        <ele>35</ele>
        <time>2020-02-09T06:07:32Z</time>
      </trkpt>
      <trkpt lat="59.196754" lon="18.141231">
        <ele>34</ele>
        <time>2020-02-09T06:07:33Z</time>
      </trkpt>
      <trkpt lat="59.196828" lon="18.141324">
        <ele>34</ele>
        <time>2020-02-09T06:07:34Z</time>
      </trkpt>
      <trkpt lat="59.196903" lon="18.141423">
        <ele>33</ele>
        <time>2020-02-09T06:07:35Z</time>
      </trkpt>
      <trkpt lat="59.196976" lon="18.141536">
        <ele>32</ele>
        <time>2020-02-09T06:07:36Z</time>
      </trkpt>
      <trkpt lat="59.197048" lon="18.141659">
        <ele>32</ele>
        <time>2020-02-09T06:07:37Z</time>
      </trkpt>
      <trkpt lat="59.197119" lon="18.141777">
        <ele>32</ele>
        <time>2020-02-09T06:07:38Z</time>
      </trkpt>
      <trkpt lat="59.197193" lon="18.141889">
        <ele>31</ele>
        <time>2020-02-09T06:07:39Z</time>
      </trkpt>
      <trkpt lat="59.197271" lon="18.141997">
        <ele>31</ele>
        <time>2020-02-09T06:07:40Z</time>
      </trkpt>
      <trkpt lat="59.197348" lon="18.142097">
        <ele>30</ele>
        <time>2020-02-09T06:07:41Z</time>
      </trkpt>
      <trkpt lat="59.197427" lon="18.142188">
        <ele>30</ele>
        <time>2020-02-09T06:07:42Z</time>
      </trkpt>
      <trkpt lat="59.19751" lon="18.14227">
        <ele>30</ele>
        <time>2020-02-09T06:07:43Z</time>
      </trkpt>
      <trkpt lat="59.197594" lon="18.142341">
        <ele>30</ele>
        <time>2020-02-09T06:07:44Z</time>
      </trkpt>
      <trkpt lat="59.197678" lon="18.142406">
        <ele>29</ele>
        <time>2020-02-09T06:07:45Z</time>
      </trkpt>
      <trkpt lat="59.197764" lon="18.142468">
        <ele>29</ele>
        <time>2020-02-09T06:07:46Z</time>
      </trkpt>
      <trkpt lat="59.197849" lon="18.142529">
        <ele>29</ele>
        <time>2020-02-09T06:07:47Z</time>
      </trkpt>
      <trkpt lat="59.197929" lon="18.142591">
        <ele>28</ele>
        <time>2020-02-09T06:07:48Z</time>
      </trkpt>
      <trkpt lat="59.198007" lon="18.142649">
        <ele>28</ele>
        <time>2020-02-09T06:07:49Z</time>
      </trkpt>
      <trkpt lat="59.198082" lon="18.142704">
        <ele>27</ele>
        <time>2020-02-09T06:07:50Z</time>
      </trkpt>
      <trkpt lat="59.198154" lon="18.142761">
        <ele>27</ele>
        <time>2020-02-09T06:07:52Z</time>
      </trkpt>
      <trkpt lat="59.198226" lon="18.142816">
        <ele>27</ele>
        <time>2020-02-09T06:07:52Z</time>
      </trkpt>
      <trkpt lat="59.198298" lon="18.142868">
        <ele>26</ele>
        <time>2020-02-09T06:07:53Z</time>
      </trkpt>
      <trkpt lat="59.198369" lon="18.142918">
        <ele>26</ele>
        <time>2020-02-09T06:07:54Z</time>
      </trkpt>
      <trkpt lat="59.19844" lon="18.142963">
        <ele>26</ele>
        <time>2020-02-09T06:07:55Z</time>
      </trkpt>
      <trkpt lat="59.198511" lon="18.142999">
        <ele>26</ele>
        <time>2020-02-09T06:07:56Z</time>
      </trkpt>
      <trkpt lat="59.19858" lon="18.143023">
        <ele>26</ele>
        <time>2020-02-09T06:07:57Z</time>
      </trkpt>
      <trkpt lat="59.198651" lon="18.143037">
        <ele>26</ele>
        <time>2020-02-09T06:07:58Z</time>
      </trkpt>
      <trkpt lat="59.198722" lon="18.143044">
        <ele>25</ele>
        <time>2020-02-09T06:07:59Z</time>
      </trkpt>
      <trkpt lat="59.198793" lon="18.143049">
        <ele>25</ele>
        <time>2020-02-09T06:08:00Z</time>
      </trkpt>
      <trkpt lat="59.198864" lon="18.143053">
        <ele>25</ele>
        <time>2020-02-09T06:08:01Z</time>
      </trkpt>
      <trkpt lat="59.198935" lon="18.143056">
        <ele>25</ele>
        <time>2020-02-09T06:08:02Z</time>
      </trkpt>
      <trkpt lat="59.199006" lon="18.14306">
        <ele>25</ele>
        <time>2020-02-09T06:08:03Z</time>
      </trkpt>
      <trkpt lat="59.199076" lon="18.143064">
        <ele>25</ele>
        <time>2020-02-09T06:08:04Z</time>
      </trkpt>
      <trkpt lat="59.199145" lon="18.143068">
        <ele>26</ele>
        <time>2020-02-09T06:08:05Z</time>
      </trkpt>
      <trkpt lat="59.199214" lon="18.143069">
        <ele>26</ele>
        <time>2020-02-09T06:08:06Z</time>
      </trkpt>
      <trkpt lat="59.199281" lon="18.143068">
        <ele>26</ele>
        <time>2020-02-09T06:08:07Z</time>
      </trkpt>
      <trkpt lat="59.199348" lon="18.143063">
        <ele>25</ele>
        <time>2020-02-09T06:08:08Z</time>
      </trkpt>
      <trkpt lat="59.199413" lon="18.143049">
        <ele>25</ele>
        <time>2020-02-09T06:08:09Z</time>
      </trkpt>
      <trkpt lat="59.199476" lon="18.143019">
        <ele>25</ele>
        <time>2020-02-09T06:08:10Z</time>
      </trkpt>
      <trkpt lat="59.199536" lon="18.14297">
        <ele>25</ele>
        <time>2020-02-09T06:08:11Z</time>
      </trkpt>
      <trkpt lat="59.199591" lon="18.142901">
        <ele>25</ele>
        <time>2020-02-09T06:08:12Z</time>
      </trkpt>
      <trkpt lat="59.199641" lon="18.142815">
        <ele>25</ele>
        <time>2020-02-09T06:08:13Z</time>
      </trkpt>
      <trkpt lat="59.199684" lon="18.14272">
        <ele>25</ele>
        <time>2020-02-09T06:08:14Z</time>
      </trkpt>
      <trkpt lat="59.199725" lon="18.142622">
        <ele>25</ele>
        <time>2020-02-09T06:08:15Z</time>
      </trkpt>
      <trkpt lat="59.199764" lon="18.142527">
        <ele>25</ele>
        <time>2020-02-09T06:08:16Z</time>
      </trkpt>
      <trkpt lat="59.199799" lon="18.142437">
        <ele>25</ele>
        <time>2020-02-09T06:08:17Z</time>
      </trkpt>
      <trkpt lat="59.199826" lon="18.142359">
        <ele>25</ele>
        <time>2020-02-09T06:08:18Z</time>
      </trkpt>
      <trkpt lat="59.199856" lon="18.142287">
        <ele>25</ele>
        <time>2020-02-09T06:08:19Z</time>
      </trkpt>
      <trkpt lat="59.199892" lon="18.142222">
        <ele>25</ele>
        <time>2020-02-09T06:08:20Z</time>
      </trkpt>
      <trkpt lat="59.199929" lon="18.142165">
        <ele>25</ele>
        <time>2020-02-09T06:08:21Z</time>
      </trkpt>
      <trkpt lat="59.199963" lon="18.142114">
        <ele>25</ele>
        <time>2020-02-09T06:08:22Z</time>
      </trkpt>
      <trkpt lat="59.199994" lon="18.142068">
        <ele>25</ele>
        <time>2020-02-09T06:08:23Z</time>
      </trkpt>
      <trkpt lat="59.200023" lon="18.142026">
        <ele>25</ele>
        <time>2020-02-09T06:08:24Z</time>
      </trkpt>
      <trkpt lat="59.200052" lon="18.141991">
        <ele>25</ele>
        <time>2020-02-09T06:08:25Z</time>
      </trkpt>
      <trkpt lat="59.200081" lon="18.14196">
        <ele>25</ele>
        <time>2020-02-09T06:08:26Z</time>
      </trkpt>
      <trkpt lat="59.200112" lon="18.141928">
        <ele>26</ele>
        <time>2020-02-09T06:08:27Z</time>
      </trkpt>
      <trkpt lat="59.200143" lon="18.141895">
        <ele>26</ele>
        <time>2020-02-09T06:08:28Z</time>
      </trkpt>
      <trkpt lat="59.20017" lon="18.141864">
        <ele>26</ele>
        <time>2020-02-09T06:08:29Z</time>
      </trkpt>
      <trkpt lat="59.200197" lon="18.141831">
        <ele>26</ele>
        <time>2020-02-09T06:08:30Z</time>
      </trkpt>
      <trkpt lat="59.200223" lon="18.141798">
        <ele>26</ele>
        <time>2020-02-09T06:08:31Z</time>
      </trkpt>
      <trkpt lat="59.20025" lon="18.141769">
        <ele>26</ele>
        <time>2020-02-09T06:08:32Z</time>
      </trkpt>
      <trkpt lat="59.200278" lon="18.14174">
        <ele>26</ele>
        <time>2020-02-09T06:08:33Z</time>
      </trkpt>
      <trkpt lat="59.200305" lon="18.141712">
        <ele>26</ele>
        <time>2020-02-09T06:08:34Z</time>
      </trkpt>
      <trkpt lat="59.200332" lon="18.141684">
        <ele>26</ele>
        <time>2020-02-09T06:08:35Z</time>
      </trkpt>
      <trkpt lat="59.200361" lon="18.141656">
        <ele>26</ele>
        <time>2020-02-09T06:08:36Z</time>
      </trkpt>
      <trkpt lat="59.200391" lon="18.141624">
        <ele>26</ele>
        <time>2020-02-09T06:08:37Z</time>
      </trkpt>
      <trkpt lat="59.200422" lon="18.141591">
        <ele>27</ele>
        <time>2020-02-09T06:08:38Z</time>
      </trkpt>
      <trkpt lat="59.200453" lon="18.141558">
        <ele>27</ele>
        <time>2020-02-09T06:08:39Z</time>
      </trkpt>
      <trkpt lat="59.200485" lon="18.141523">
        <ele>27</ele>
        <time>2020-02-09T06:08:40Z</time>
      </trkpt>
      <trkpt lat="59.200517" lon="18.141488">
        <ele>27</ele>
        <time>2020-02-09T06:08:41Z</time>
      </trkpt>
      <trkpt lat="59.200549" lon="18.141454">
        <ele>27</ele>
        <time>2020-02-09T06:08:42Z</time>
      </trkpt>
      <trkpt lat="59.200582" lon="18.141421">
        <ele>27</ele>
        <time>2020-02-09T06:08:43Z</time>
      </trkpt>
      <trkpt lat="59.200615" lon="18.14139">
        <ele>27</ele>
        <time>2020-02-09T06:08:44Z</time>
      </trkpt>
      <trkpt lat="59.20065" lon="18.141365">
        <ele>28</ele>
        <time>2020-02-09T06:08:45Z</time>
      </trkpt>
      <trkpt lat="59.200687" lon="18.141352">
        <ele>28</ele>
        <time>2020-02-09T06:08:46Z</time>
      </trkpt>
      <trkpt lat="59.200724" lon="18.141349">
        <ele>28</ele>
        <time>2020-02-09T06:08:47Z</time>
      </trkpt>
      <trkpt lat="59.200762" lon="18.141354">
        <ele>28</ele>
        <time>2020-02-09T06:08:48Z</time>
      </trkpt>
      <trkpt lat="59.200802" lon="18.141367">
        <ele>28</ele>
        <time>2020-02-09T06:08:49Z</time>
      </trkpt>
      <trkpt lat="59.20084" lon="18.141388">
        <ele>29</ele>
        <time>2020-02-09T06:08:50Z</time>
      </trkpt>
      <trkpt lat="59.200878" lon="18.141413">
        <ele>29</ele>
        <time>2020-02-09T06:08:51Z</time>
      </trkpt>
      <trkpt lat="59.200913" lon="18.141445">
        <ele>29</ele>
        <time>2020-02-09T06:08:52Z</time>
      </trkpt>
      <trkpt lat="59.200951" lon="18.14148">
        <ele>29</ele>
        <time>2020-02-09T06:08:53Z</time>
      </trkpt>
      <trkpt lat="59.200988" lon="18.141516">
        <ele>29</ele>
        <time>2020-02-09T06:08:54Z</time>
      </trkpt>
      <trkpt lat="59.201026" lon="18.14155">
        <ele>29</ele>
        <time>2020-02-09T06:08:55Z</time>
      </trkpt>
      <trkpt lat="59.201065" lon="18.141583">
        <ele>29</ele>
        <time>2020-02-09T06:08:56Z</time>
      </trkpt>
      <trkpt lat="59.201105" lon="18.141616">
        <ele>30</ele>
        <time>2020-02-09T06:08:57Z</time>
      </trkpt>
      <trkpt lat="59.201146" lon="18.141647">
        <ele>30</ele>
        <time>2020-02-09T06:08:58Z</time>
      </trkpt>
      <trkpt lat="59.201186" lon="18.141682">
        <ele>30</ele>
        <time>2020-02-09T06:08:59Z</time>
      </trkpt>
      <trkpt lat="59.201227" lon="18.141719">
        <ele>30</ele>
        <time>2020-02-09T06:09:00Z</time>
      </trkpt>
      <trkpt lat="59.201268" lon="18.141758">
        <ele>30</ele>
        <time>2020-02-09T06:09:01Z</time>
      </trkpt>
      <trkpt lat="59.201309" lon="18.141795">
        <ele>30</ele>
        <time>2020-02-09T06:09:02Z</time>
      </trkpt>
      <trkpt lat="59.20135" lon="18.141829">
        <ele>30</ele>
        <time>2020-02-09T06:09:03Z</time>
      </trkpt>
      <trkpt lat="59.201391" lon="18.141861">
        <ele>30</ele>
        <time>2020-02-09T06:09:04Z</time>
      </trkpt>
      <trkpt lat="59.201432" lon="18.14189">
        <ele>30</ele>
        <time>2020-02-09T06:09:05Z</time>
      </trkpt>
      <trkpt lat="59.201473" lon="18.141915">
        <ele>31</ele>
        <time>2020-02-09T06:09:06Z</time>
      </trkpt>
      <trkpt lat="59.201516" lon="18.14194">
        <ele>31</ele>
        <time>2020-02-09T06:09:07Z</time>
      </trkpt>
      <trkpt lat="59.201559" lon="18.141965">
        <ele>31</ele>
        <time>2020-02-09T06:09:08Z</time>
      </trkpt>
      <trkpt lat="59.201603" lon="18.141988">
        <ele>31</ele>
        <time>2020-02-09T06:09:09Z</time>
      </trkpt>
      <trkpt lat="59.201646" lon="18.142014">
        <ele>31</ele>
        <time>2020-02-09T06:09:10Z</time>
      </trkpt>
      <trkpt lat="59.201691" lon="18.142037">
        <ele>31</ele>
        <time>2020-02-09T06:09:11Z</time>
      </trkpt>
      <trkpt lat="59.201736" lon="18.142056">
        <ele>31</ele>
        <time>2020-02-09T06:09:12Z</time>
      </trkpt>
      <trkpt lat="59.20178" lon="18.142077">
        <ele>31</ele>
        <time>2020-02-09T06:09:13Z</time>
      </trkpt>
      <trkpt lat="59.201825" lon="18.142097">
        <ele>32</ele>
        <time>2020-02-09T06:09:14Z</time>
      </trkpt>
      <trkpt lat="59.20187" lon="18.142115">
        <ele>32</ele>
        <time>2020-02-09T06:09:15Z</time>
      </trkpt>
      <trkpt lat="59.201916" lon="18.142134">
        <ele>32</ele>
        <time>2020-02-09T06:09:16Z</time>
      </trkpt>
      <trkpt lat="59.201961" lon="18.142153">
        <ele>32</ele>
        <time>2020-02-09T06:09:17Z</time>
      </trkpt>
      <trkpt lat="59.202006" lon="18.142173">
        <ele>32</ele>
        <time>2020-02-09T06:09:18Z</time>
      </trkpt>
      <trkpt lat="59.202051" lon="18.142192">
        <ele>32</ele>
        <time>2020-02-09T06:09:19Z</time>
      </trkpt>
      <trkpt lat="59.202097" lon="18.142211">
        <ele>32</ele>
        <time>2020-02-09T06:09:20Z</time>
      </trkpt>
      <trkpt lat="59.202144" lon="18.14223">
        <ele>33</ele>
        <time>2020-02-09T06:09:21Z</time>
      </trkpt>
      <trkpt lat="59.20219" lon="18.142248">
        <ele>33</ele>
        <time>2020-02-09T06:09:22Z</time>
      </trkpt>
      <trkpt lat="59.202236" lon="18.142265">
        <ele>33</ele>
        <time>2020-02-09T06:09:23Z</time>
      </trkpt>
      <trkpt lat="59.202283" lon="18.14228">
        <ele>33</ele>
        <time>2020-02-09T06:09:24Z</time>
      </trkpt>
      <trkpt lat="59.202327" lon="18.142293">
        <ele>33</ele>
        <time>2020-02-09T06:09:25Z</time>
      </trkpt>
      <trkpt lat="59.202372" lon="18.1423">
        <ele>33</ele>
        <time>2020-02-09T06:09:26Z</time>
      </trkpt>
      <trkpt lat="59.20242" lon="18.142302">
        <ele>33</ele>
        <time>2020-02-09T06:09:27Z</time>
      </trkpt>
      <trkpt lat="59.202468" lon="18.142296">
        <ele>33</ele>
        <time>2020-02-09T06:09:28Z</time>
      </trkpt>
      <trkpt lat="59.202515" lon="18.142287">
        <ele>33</ele>
        <time>2020-02-09T06:09:29Z</time>
      </trkpt>
      <trkpt lat="59.202561" lon="18.142277">
        <ele>34</ele>
        <time>2020-02-09T06:09:30Z</time>
      </trkpt>
      <trkpt lat="59.202607" lon="18.142267">
        <ele>34</ele>
        <time>2020-02-09T06:09:31Z</time>
      </trkpt>
      <trkpt lat="59.202651" lon="18.142259">
        <ele>34</ele>
        <time>2020-02-09T06:09:32Z</time>
      </trkpt>
      <trkpt lat="59.202696" lon="18.142255">
        <ele>34</ele>
        <time>2020-02-09T06:09:33Z</time>
      </trkpt>
      <trkpt lat="59.202742" lon="18.142253">
        <ele>34</ele>
        <time>2020-02-09T06:09:34Z</time>
      </trkpt>
      <trkpt lat="59.20279" lon="18.142249">
        <ele>34</ele>
        <time>2020-02-09T06:09:35Z</time>
      </trkpt>
      <trkpt lat="59.202838" lon="18.14225">
        <ele>34</ele>
        <time>2020-02-09T06:09:36Z</time>
      </trkpt>
      <trkpt lat="59.202886" lon="18.142256">
        <ele>35</ele>
        <time>2020-02-09T06:09:37Z</time>
      </trkpt>
      <trkpt lat="59.202935" lon="18.142261">
        <ele>35</ele>
        <time>2020-02-09T06:09:38Z</time>
      </trkpt>
      <trkpt lat="59.202985" lon="18.142267">
        <ele>35</ele>
        <time>2020-02-09T06:09:39Z</time>
      </trkpt>
      <trkpt lat="59.203036" lon="18.142273">
        <ele>35</ele>
        <time>2020-02-09T06:09:40Z</time>
      </trkpt>
      <trkpt lat="59.203088" lon="18.14228">
        <ele>35</ele>
        <time>2020-02-09T06:09:41Z</time>
      </trkpt>
      <trkpt lat="59.20314" lon="18.14229">
        <ele>35</ele>
        <time>2020-02-09T06:09:42Z</time>
      </trkpt>
      <trkpt lat="59.203193" lon="18.142299">
        <ele>35</ele>
        <time>2020-02-09T06:09:43Z</time>
      </trkpt>
      <trkpt lat="59.203248" lon="18.142306">
        <ele>35</ele>
        <time>2020-02-09T06:09:44Z</time>
      </trkpt>
      <trkpt lat="59.203303" lon="18.142313">
        <ele>35</ele>
        <time>2020-02-09T06:09:45Z</time>
      </trkpt>
      <trkpt lat="59.203358" lon="18.142318">
        <ele>35</ele>
        <time>2020-02-09T06:09:46Z</time>
      </trkpt>
      <trkpt lat="59.203411" lon="18.142322">
        <ele>35</ele>
        <time>2020-02-09T06:09:47Z</time>
      </trkpt>
      <trkpt lat="59.203464" lon="18.142321">
        <ele>35</ele>
        <time>2020-02-09T06:09:48Z</time>
      </trkpt>
      <trkpt lat="59.203517" lon="18.14232">
        <ele>35</ele>
        <time>2020-02-09T06:09:49Z</time>
      </trkpt>
      <trkpt lat="59.203573" lon="18.142319">
        <ele>35</ele>
        <time>2020-02-09T06:09:50Z</time>
      </trkpt>
      <trkpt lat="59.20363" lon="18.142312">
        <ele>35</ele>
        <time>2020-02-09T06:09:51Z</time>
      </trkpt>
      <trkpt lat="59.203686" lon="18.142299">
        <ele>36</ele>
        <time>2020-02-09T06:09:52Z</time>
      </trkpt>
      <trkpt lat="59.203744" lon="18.142284">
        <ele>36</ele>
        <time>2020-02-09T06:09:53Z</time>
      </trkpt>
      <trkpt lat="59.203802" lon="18.142268">
        <ele>36</ele>
        <time>2020-02-09T06:09:54Z</time>
      </trkpt>
      <trkpt lat="59.20386" lon="18.14225">
        <ele>36</ele>
        <time>2020-02-09T06:09:55Z</time>
      </trkpt>
      <trkpt lat="59.203919" lon="18.142231">
        <ele>36</ele>
        <time>2020-02-09T06:09:56Z</time>
      </trkpt>
      <trkpt lat="59.203978" lon="18.142211">
        <ele>36</ele>
        <time>2020-02-09T06:09:57Z</time>
      </trkpt>
      <trkpt lat="59.204036" lon="18.142191">
        <ele>36</ele>
        <time>2020-02-09T06:09:58Z</time>
      </trkpt>
      <trkpt lat="59.204094" lon="18.142168">
        <ele>36</ele>
        <time>2020-02-09T06:09:59Z</time>
      </trkpt>
      <trkpt lat="59.204152" lon="18.142147">
        <ele>36</ele>
        <time>2020-02-09T06:10:00Z</time>
      </trkpt>
      <trkpt lat="59.20421" lon="18.142126">
        <ele>36</ele>
        <time>2020-02-09T06:10:01Z</time>
      </trkpt>
      <trkpt lat="59.204267" lon="18.142104">
        <ele>36</ele>
        <time>2020-02-09T06:10:02Z</time>
      </trkpt>
      <trkpt lat="59.204323" lon="18.142083">
        <ele>36</ele>
        <time>2020-02-09T06:10:03Z</time>
      </trkpt>
      <trkpt lat="59.204378" lon="18.142059">
        <ele>36</ele>
        <time>2020-02-09T06:10:04Z</time>
      </trkpt>
      <trkpt lat="59.204432" lon="18.142033">
        <ele>36</ele>
        <time>2020-02-09T06:10:05Z</time>
      </trkpt>
      <trkpt lat="59.204485" lon="18.142006">
        <ele>37</ele>
        <time>2020-02-09T06:10:06Z</time>
      </trkpt>
      <trkpt lat="59.204536" lon="18.141979">
        <ele>37</ele>
        <time>2020-02-09T06:10:07Z</time>
      </trkpt>
      <trkpt lat="59.204586" lon="18.141951">
        <ele>37</ele>
        <time>2020-02-09T06:10:08Z</time>
      </trkpt>
      <trkpt lat="59.204636" lon="18.141925">
        <ele>37</ele>
        <time>2020-02-09T06:10:09Z</time>
      </trkpt>
      <trkpt lat="59.204685" lon="18.141898">
        <ele>37</ele>
        <time>2020-02-09T06:10:10Z</time>
      </trkpt>
      <trkpt lat="59.204733" lon="18.141871">
        <ele>37</ele>
        <time>2020-02-09T06:10:11Z</time>
      </trkpt>
      <trkpt lat="59.204778" lon="18.141847">
        <ele>38</ele>
        <time>2020-02-09T06:10:12Z</time>
      </trkpt>
      <trkpt lat="59.20482" lon="18.141822">
        <ele>38</ele>
        <time>2020-02-09T06:10:13Z</time>
      </trkpt>
      <trkpt lat="59.204859" lon="18.141796">
        <ele>38</ele>
        <time>2020-02-09T06:10:14Z</time>
      </trkpt>
      <trkpt lat="59.204896" lon="18.141768">
        <ele>38</ele>
        <time>2020-02-09T06:10:15Z</time>
      </trkpt>
      <trkpt lat="59.204936" lon="18.141737">
        <ele>38</ele>
        <time>2020-02-09T06:10:16Z</time>
      </trkpt>
      <trkpt lat="59.20498" lon="18.141708">
        <ele>39</ele>
        <time>2020-02-09T06:10:17Z</time>
      </trkpt>
      <trkpt lat="59.205025" lon="18.141678">
        <ele>39</ele>
        <time>2020-02-09T06:10:18Z</time>
      </trkpt>
      <trkpt lat="59.205071" lon="18.141647">
        <ele>39</ele>
        <time>2020-02-09T06:10:19Z</time>
      </trkpt>
      <trkpt lat="59.205115" lon="18.141613">
        <ele>39</ele>
        <time>2020-02-09T06:10:20Z</time>
      </trkpt>
      <trkpt lat="59.205158" lon="18.14158">
        <ele>39</ele>
        <time>2020-02-09T06:10:21Z</time>
      </trkpt>
      <trkpt lat="59.205202" lon="18.141547">
        <ele>39</ele>
        <time>2020-02-09T06:10:22Z</time>
      </trkpt>
      <trkpt lat="59.205244" lon="18.141511">
        <ele>39</ele>
        <time>2020-02-09T06:10:23Z</time>
      </trkpt>
      <trkpt lat="59.205285" lon="18.141475">
        <ele>39</ele>
        <time>2020-02-09T06:10:24Z</time>
      </trkpt>
      <trkpt lat="59.205323" lon="18.14144">
        <ele>40</ele>
        <time>2020-02-09T06:10:25Z</time>
      </trkpt>
      <trkpt lat="59.205358" lon="18.141409">
        <ele>40</ele>
        <time>2020-02-09T06:10:26Z</time>
      </trkpt>
      <trkpt lat="59.205392" lon="18.141382">
        <ele>40</ele>
        <time>2020-02-09T06:10:27Z</time>
      </trkpt>
      <trkpt lat="59.205427" lon="18.141354">
        <ele>40</ele>
        <time>2020-02-09T06:10:28Z</time>
      </trkpt>
      <trkpt lat="59.205459" lon="18.141326">
        <ele>40</ele>
        <time>2020-02-09T06:10:29Z</time>
      </trkpt>
      <trkpt lat="59.20549" lon="18.141298">
        <ele>41</ele>
        <time>2020-02-09T06:10:30Z</time>
      </trkpt>
      <trkpt lat="59.205529" lon="18.141261">
        <ele>41</ele>
        <time>2020-02-09T06:10:31Z</time>
      </trkpt>
      <trkpt lat="59.205566" lon="18.141225">
        <ele>41</ele>
        <time>2020-02-09T06:10:32Z</time>
      </trkpt>
      <trkpt lat="59.205604" lon="18.141192">
        <ele>41</ele>
        <time>2020-02-09T06:10:33Z</time>
      </trkpt>
      <trkpt lat="59.205642" lon="18.141158">
        <ele>41</ele>
        <time>2020-02-09T06:10:34Z</time>
      </trkpt>
      <trkpt lat="59.205683" lon="18.141122">
        <ele>42</ele>
        <time>2020-02-09T06:10:35Z</time>
      </trkpt>
      <trkpt lat="59.205726" lon="18.141083">
        <ele>42</ele>
        <time>2020-02-09T06:10:36Z</time>
      </trkpt>
      <trkpt lat="59.205771" lon="18.141045">
        <ele>42</ele>
        <time>2020-02-09T06:10:37Z</time>
      </trkpt>
      <trkpt lat="59.205816" lon="18.141007">
        <ele>42</ele>
        <time>2020-02-09T06:10:38Z</time>
      </trkpt>
      <trkpt lat="59.205862" lon="18.140973">
        <ele>42</ele>
        <time>2020-02-09T06:10:39Z</time>
      </trkpt>
      <trkpt lat="59.205908" lon="18.140945">
        <ele>42</ele>
        <time>2020-02-09T06:10:40Z</time>
      </trkpt>
      <trkpt lat="59.205954" lon="18.140918">
        <ele>42</ele>
        <time>2020-02-09T06:10:41Z</time>
      </trkpt>
      <trkpt lat="59.206" lon="18.14089">
        <ele>42</ele>
        <time>2020-02-09T06:10:42Z</time>
      </trkpt>
      <trkpt lat="59.206046" lon="18.140867">
        <ele>42</ele>
        <time>2020-02-09T06:10:43Z</time>
      </trkpt>
      <trkpt lat="59.206094" lon="18.140845">
        <ele>42</ele>
        <time>2020-02-09T06:10:44Z</time>
      </trkpt>
      <trkpt lat="59.20614" lon="18.140813">
        <ele>42</ele>
        <time>2020-02-09T06:10:45Z</time>
      </trkpt>
      <trkpt lat="59.206182" lon="18.140758">
        <ele>42</ele>
        <time>2020-02-09T06:10:46Z</time>
      </trkpt>
      <trkpt lat="59.206218" lon="18.14069">
        <ele>42</ele>
        <time>2020-02-09T06:10:47Z</time>
      </trkpt>
      <trkpt lat="59.206248" lon="18.140615">
        <ele>43</ele>
        <time>2020-02-09T06:10:48Z</time>
      </trkpt>
      <trkpt lat="59.20628" lon="18.140542">
        <ele>43</ele>
        <time>2020-02-09T06:10:49Z</time>
      </trkpt>
      <trkpt lat="59.206315" lon="18.140481">
        <ele>43</ele>
        <time>2020-02-09T06:10:50Z</time>
      </trkpt>
      <trkpt lat="59.206352" lon="18.140433">
        <ele>43</ele>
        <time>2020-02-09T06:10:51Z</time>
      </trkpt>
      <trkpt lat="59.206394" lon="18.140398">
        <ele>43</ele>
        <time>2020-02-09T06:10:52Z</time>
      </trkpt>
      <trkpt lat="59.206437" lon="18.140375">
        <ele>43</ele>
        <time>2020-02-09T06:10:53Z</time>
      </trkpt>
      <trkpt lat="59.206481" lon="18.140359">
        <ele>43</ele>
        <time>2020-02-09T06:10:54Z</time>
      </trkpt>
      <trkpt lat="59.206527" lon="18.140347">
        <ele>43</ele>
        <time>2020-02-09T06:10:55Z</time>
      </trkpt>
      <trkpt lat="59.206573" lon="18.14034">
        <ele>43</ele>
        <time>2020-02-09T06:10:56Z</time>
      </trkpt>
      <trkpt lat="59.206618" lon="18.140338">
        <ele>44</ele>
        <time>2020-02-09T06:10:57Z</time>
      </trkpt>
      <trkpt lat="59.206663" lon="18.140342">
        <ele>44</ele>
        <time>2020-02-09T06:10:58Z</time>
      </trkpt>
      <trkpt lat="59.206708" lon="18.140347">
        <ele>44</ele>
        <time>2020-02-09T06:10:59Z</time>
      </trkpt>
      <trkpt lat="59.206753" lon="18.140351">
        <ele>44</ele>
        <time>2020-02-09T06:11:00Z</time>
      </trkpt>
      <trkpt lat="59.206797" lon="18.14036">
        <ele>44</ele>
        <time>2020-02-09T06:11:01Z</time>
      </trkpt>
      <trkpt lat="59.206841" lon="18.140372">
        <ele>44</ele>
        <time>2020-02-09T06:11:02Z</time>
      </trkpt>
      <trkpt lat="59.206883" lon="18.14038">
        <ele>44</ele>
        <time>2020-02-09T06:11:03Z</time>
      </trkpt>
      <trkpt lat="59.206924" lon="18.140389">
        <ele>45</ele>
        <time>2020-02-09T06:11:04Z</time>
      </trkpt>
      <trkpt lat="59.206961" lon="18.140398">
        <ele>45</ele>
        <time>2020-02-09T06:11:05Z</time>
      </trkpt>
      <trkpt lat="59.207006" lon="18.140411">
        <ele>45</ele>
        <time>2020-02-09T06:11:06Z</time>
      </trkpt>
      <trkpt lat="59.207051" lon="18.140428">
        <ele>45</ele>
        <time>2020-02-09T06:11:07Z</time>
      </trkpt>
      <trkpt lat="59.207096" lon="18.140446">
        <ele>46</ele>
        <time>2020-02-09T06:11:08Z</time>
      </trkpt>
      <trkpt lat="59.207141" lon="18.140466">
        <ele>46</ele>
        <time>2020-02-09T06:11:09Z</time>
      </trkpt>
      <trkpt lat="59.207187" lon="18.140484">
        <ele>46</ele>
        <time>2020-02-09T06:11:10Z</time>
      </trkpt>
      <trkpt lat="59.207232" lon="18.140505">
        <ele>46</ele>
        <time>2020-02-09T06:11:11Z</time>
      </trkpt>
      <trkpt lat="59.207274" lon="18.140529">
        <ele>46</ele>
        <time>2020-02-09T06:11:12Z</time>
      </trkpt>
      <trkpt lat="59.207313" lon="18.140554">
        <ele>47</ele>
        <time>2020-02-09T06:11:13Z</time>
      </trkpt>
      <trkpt lat="59.207355" lon="18.140578">
        <ele>47</ele>
        <time>2020-02-09T06:11:14Z</time>
      </trkpt>
      <trkpt lat="59.207399" lon="18.140606">
        <ele>47</ele>
        <time>2020-02-09T06:11:15Z</time>
      </trkpt>
      <trkpt lat="59.207443" lon="18.140635">
        <ele>47</ele>
        <time>2020-02-09T06:11:16Z</time>
      </trkpt>
      <trkpt lat="59.207485" lon="18.140665">
        <ele>47</ele>
        <time>2020-02-09T06:11:17Z</time>
      </trkpt>
      <trkpt lat="59.207522" lon="18.14069">
        <ele>47</ele>
        <time>2020-02-09T06:11:18Z</time>
      </trkpt>
      <trkpt lat="59.207562" lon="18.14072">
        <ele>48</ele>
        <time>2020-02-09T06:11:19Z</time>
      </trkpt>
      <trkpt lat="59.207606" lon="18.140756">
        <ele>48</ele>
        <time>2020-02-09T06:11:20Z</time>
      </trkpt>
      <trkpt lat="59.207649" lon="18.140795">
        <ele>48</ele>
        <time>2020-02-09T06:11:21Z</time>
      </trkpt>
      <trkpt lat="59.20769" lon="18.140832">
        <ele>48</ele>
        <time>2020-02-09T06:11:22Z</time>
      </trkpt>
      <trkpt lat="59.207729" lon="18.140868">
        <ele>48</ele>
        <time>2020-02-09T06:11:23Z</time>
      </trkpt>
      <trkpt lat="59.207772" lon="18.140911">
        <ele>48</ele>
        <time>2020-02-09T06:11:24Z</time>
      </trkpt>
      <trkpt lat="59.207815" lon="18.140955">
        <ele>48</ele>
        <time>2020-02-09T06:11:25Z</time>
      </trkpt>
      <trkpt lat="59.207857" lon="18.140999">
        <ele>49</ele>
        <time>2020-02-09T06:11:26Z</time>
      </trkpt>
      <trkpt lat="59.207895" lon="18.141041">
        <ele>49</ele>
        <time>2020-02-09T06:11:27Z</time>
      </trkpt>
      <trkpt lat="59.20793" lon="18.141084">
        <ele>49</ele>
        <time>2020-02-09T06:11:28Z</time>
      </trkpt>
      <trkpt lat="59.207966" lon="18.141133">
        <ele>49</ele>
        <time>2020-02-09T06:11:29Z</time>
      </trkpt>
      <trkpt lat="59.208" lon="18.141183">
        <ele>49</ele>
        <time>2020-02-09T06:11:30Z</time>
      </trkpt>
      <trkpt lat="59.208034" lon="18.141233">
        <ele>49</ele>
        <time>2020-02-09T06:11:31Z</time>
      </trkpt>
      <trkpt lat="59.20807" lon="18.141285">
        <ele>49</ele>
        <time>2020-02-09T06:11:32Z</time>
      </trkpt>
      <trkpt lat="59.208106" lon="18.141335">
        <ele>50</ele>
        <time>2020-02-09T06:11:33Z</time>
      </trkpt>
      <trkpt lat="59.208142" lon="18.141387">
        <ele>50</ele>
        <time>2020-02-09T06:11:34Z</time>
      </trkpt>
      <trkpt lat="59.208185" lon="18.141446">
        <ele>50</ele>
        <time>2020-02-09T06:11:35Z</time>
      </trkpt>
      <trkpt lat="59.208227" lon="18.141508">
        <ele>50</ele>
        <time>2020-02-09T06:11:36Z</time>
      </trkpt>
      <trkpt lat="59.208263" lon="18.141564">
        <ele>50</ele>
        <time>2020-02-09T06:11:37Z</time>
      </trkpt>
      <trkpt lat="59.208297" lon="18.141621">
        <ele>50</ele>
        <time>2020-02-09T06:11:38Z</time>
      </trkpt>
      <trkpt lat="59.208326" lon="18.141674">
        <ele>50</ele>
        <time>2020-02-09T06:11:39Z</time>
      </trkpt>
      <trkpt lat="59.20836" lon="18.141728">
        <ele>50</ele>
        <time>2020-02-09T06:11:40Z</time>
      </trkpt>
      <trkpt lat="59.208392" lon="18.141785">
        <ele>51</ele>
        <time>2020-02-09T06:11:41Z</time>
      </trkpt>
      <trkpt lat="59.208427" lon="18.141847">
        <ele>51</ele>
        <time>2020-02-09T06:11:42Z</time>
      </trkpt>
      <trkpt lat="59.208459" lon="18.141908">
        <ele>51</ele>
        <time>2020-02-09T06:11:43Z</time>
      </trkpt>
      <trkpt lat="59.208492" lon="18.141972">
        <ele>51</ele>
        <time>2020-02-09T06:11:44Z</time>
      </trkpt>
      <trkpt lat="59.208524" lon="18.142036">
        <ele>52</ele>
        <time>2020-02-09T06:11:45Z</time>
      </trkpt>
      <trkpt lat="59.208554" lon="18.1421">
        <ele>52</ele>
        <time>2020-02-09T06:11:46Z</time>
      </trkpt>
      <trkpt lat="59.208587" lon="18.142167">
        <ele>52</ele>
        <time>2020-02-09T06:11:47Z</time>
      </trkpt>
      <trkpt lat="59.208619" lon="18.142234">
        <ele>52</ele>
        <time>2020-02-09T06:11:48Z</time>
      </trkpt>
      <trkpt lat="59.208648" lon="18.1423">
        <ele>52</ele>
        <time>2020-02-09T06:11:49Z</time>
      </trkpt>
      <trkpt lat="59.208675" lon="18.142368">
        <ele>53</ele>
        <time>2020-02-09T06:11:50Z</time>
      </trkpt>
      <trkpt lat="59.208706" lon="18.142441">
        <ele>53</ele>
        <time>2020-02-09T06:11:51Z</time>
      </trkpt>
      <trkpt lat="59.208739" lon="18.142518">
        <ele>53</ele>
        <time>2020-02-09T06:11:52Z</time>
      </trkpt>
      <trkpt lat="59.208772" lon="18.142596">
        <ele>53</ele>
        <time>2020-02-09T06:11:53Z</time>
      </trkpt>
      <trkpt lat="59.208805" lon="18.142674">
        <ele>53</ele>
        <time>2020-02-09T06:11:54Z</time>
      </trkpt>
      <trkpt lat="59.208837" lon="18.142752">
        <ele>53</ele>
        <time>2020-02-09T06:11:55Z</time>
      </trkpt>
      <trkpt lat="59.208868" lon="18.14283">
        <ele>53</ele>
        <time>2020-02-09T06:11:56Z</time>
      </trkpt>
      <trkpt lat="59.208901" lon="18.142911">
        <ele>54</ele>
        <time>2020-02-09T06:11:57Z</time>
      </trkpt>
      <trkpt lat="59.208933" lon="18.142992">
        <ele>54</ele>
        <time>2020-02-09T06:11:58Z</time>
      </trkpt>
      <trkpt lat="59.208966" lon="18.143074">
        <ele>54</ele>
        <time>2020-02-09T06:11:59Z</time>
      </trkpt>
      <trkpt lat="59.209001" lon="18.143154">
        <ele>54</ele>
        <time>2020-02-09T06:12:00Z</time>
      </trkpt>
      <trkpt lat="59.209037" lon="18.143235">
        <ele>54</ele>
        <time>2020-02-09T06:12:01Z</time>
      </trkpt>
      <trkpt lat="59.209071" lon="18.143319">
        <ele>54</ele>
        <time>2020-02-09T06:12:02Z</time>
      </trkpt>
      <trkpt lat="59.209105" lon="18.143404">
        <ele>54</ele>
        <time>2020-02-09T06:12:03Z</time>
      </trkpt>
      <trkpt lat="59.20914" lon="18.143491">
        <ele>53</ele>
        <time>2020-02-09T06:12:04Z</time>
      </trkpt>
      <trkpt lat="59.209176" lon="18.143578">
        <ele>53</ele>
        <time>2020-02-09T06:12:05Z</time>
      </trkpt>
      <trkpt lat="59.209211" lon="18.143666">
        <ele>53</ele>
        <time>2020-02-09T06:12:06Z</time>
      </trkpt>
      <trkpt lat="59.209246" lon="18.143753">
        <ele>53</ele>
        <time>2020-02-09T06:12:07Z</time>
      </trkpt>
      <trkpt lat="59.209282" lon="18.143842">
        <ele>53</ele>
        <time>2020-02-09T06:12:08Z</time>
      </trkpt>
      <trkpt lat="59.209318" lon="18.143932">
        <ele>52</ele>
        <time>2020-02-09T06:12:09Z</time>
      </trkpt>
      <trkpt lat="59.209353" lon="18.14402">
        <ele>52</ele>
        <time>2020-02-09T06:12:10Z</time>
      </trkpt>
      <trkpt lat="59.209387" lon="18.144109">
        <ele>52</ele>
        <time>2020-02-09T06:12:11Z</time>
      </trkpt>
      <trkpt lat="59.20942" lon="18.144201">
        <ele>52</ele>
        <time>2020-02-09T06:12:12Z</time>
      </trkpt>
      <trkpt lat="59.209449" lon="18.144296">
        <ele>52</ele>
        <time>2020-02-09T06:12:13Z</time>
      </trkpt>
      <trkpt lat="59.209475" lon="18.144399">
        <ele>52</ele>
        <time>2020-02-09T06:12:14Z</time>
      </trkpt>
      <trkpt lat="59.209493" lon="18.144504">
        <ele>52</ele>
        <time>2020-02-09T06:12:15Z</time>
      </trkpt>
      <trkpt lat="59.209503" lon="18.144609">
        <ele>52</ele>
        <time>2020-02-09T06:12:16Z</time>
      </trkpt>
      <trkpt lat="59.209517" lon="18.144711">
        <ele>51</ele>
        <time>2020-02-09T06:12:17Z</time>
      </trkpt>
      <trkpt lat="59.20954" lon="18.144802">
        <ele>51</ele>
        <time>2020-02-09T06:12:18Z</time>
      </trkpt>
      <trkpt lat="59.209573" lon="18.144882">
        <ele>51</ele>
        <time>2020-02-09T06:12:19Z</time>
      </trkpt>
      <trkpt lat="59.209617" lon="18.144942">
        <ele>51</ele>
        <time>2020-02-09T06:12:20Z</time>
      </trkpt>
      <trkpt lat="59.209666" lon="18.144983">
        <ele>51</ele>
        <time>2020-02-09T06:12:21Z</time>
      </trkpt>
      <trkpt lat="59.209714" lon="18.145026">
        <ele>51</ele>
        <time>2020-02-09T06:12:22Z</time>
      </trkpt>
      <trkpt lat="59.20976" lon="18.145081">
        <ele>51</ele>
        <time>2020-02-09T06:12:23Z</time>
      </trkpt>
      <trkpt lat="59.209805" lon="18.145145">
        <ele>51</ele>
        <time>2020-02-09T06:12:24Z</time>
      </trkpt>
      <trkpt lat="59.209846" lon="18.145219">
        <ele>51</ele>
        <time>2020-02-09T06:12:25Z</time>
      </trkpt>
      <trkpt lat="59.209884" lon="18.145302">
        <ele>51</ele>
        <time>2020-02-09T06:12:26Z</time>
      </trkpt>
      <trkpt lat="59.209919" lon="18.14539">
        <ele>51</ele>
        <time>2020-02-09T06:12:27Z</time>
      </trkpt>
      <trkpt lat="59.209952" lon="18.145483">
        <ele>51</ele>
        <time>2020-02-09T06:12:28Z</time>
      </trkpt>
      <trkpt lat="59.209986" lon="18.145577">
        <ele>51</ele>
        <time>2020-02-09T06:12:29Z</time>
      </trkpt>
      <trkpt lat="59.210024" lon="18.145671">
        <ele>51</ele>
        <time>2020-02-09T06:12:30Z</time>
      </trkpt>
      <trkpt lat="59.210066" lon="18.14576">
        <ele>51</ele>
        <time>2020-02-09T06:12:31Z</time>
      </trkpt>
      <trkpt lat="59.210113" lon="18.14584">
        <ele>51</ele>
        <time>2020-02-09T06:12:32Z</time>
      </trkpt>
      <trkpt lat="59.210168" lon="18.145909">
        <ele>51</ele>
        <time>2020-02-09T06:12:33Z</time>
      </trkpt>
      <trkpt lat="59.210229" lon="18.145965">
        <ele>50</ele>
        <time>2020-02-09T06:12:34Z</time>
      </trkpt>
      <trkpt lat="59.210293" lon="18.146018">
        <ele>50</ele>
        <time>2020-02-09T06:12:35Z</time>
      </trkpt>
      <trkpt lat="59.210359" lon="18.146079">
        <ele>50</ele>
        <time>2020-02-09T06:12:36Z</time>
      </trkpt>
      <trkpt lat="59.210426" lon="18.146149">
        <ele>50</ele>
        <time>2020-02-09T06:12:37Z</time>
      </trkpt>
      <trkpt lat="59.210495" lon="18.146225">
        <ele>49</ele>
        <time>2020-02-09T06:12:38Z</time>
      </trkpt>
      <trkpt lat="59.210567" lon="18.146307">
        <ele>49</ele>
        <time>2020-02-09T06:12:39Z</time>
      </trkpt>
      <trkpt lat="59.210641" lon="18.14639">
        <ele>49</ele>
        <time>2020-02-09T06:12:40Z</time>
      </trkpt>
      <trkpt lat="59.210716" lon="18.146471">
        <ele>49</ele>
        <time>2020-02-09T06:12:41Z</time>
      </trkpt>
      <trkpt lat="59.210795" lon="18.146551">
        <ele>49</ele>
        <time>2020-02-09T06:12:42Z</time>
      </trkpt>
      <trkpt lat="59.210875" lon="18.146627">
        <ele>49</ele>
        <time>2020-02-09T06:12:43Z</time>
      </trkpt>
      <trkpt lat="59.210957" lon="18.1467">
        <ele>48</ele>
        <time>2020-02-09T06:12:44Z</time>
      </trkpt>
      <trkpt lat="59.211042" lon="18.146772">
        <ele>48</ele>
        <time>2020-02-09T06:12:45Z</time>
      </trkpt>
      <trkpt lat="59.21113" lon="18.146839">
        <ele>48</ele>
        <time>2020-02-09T06:12:46Z</time>
      </trkpt>
      <trkpt lat="59.211222" lon="18.146904">
        <ele>48</ele>
        <time>2020-02-09T06:12:47Z</time>
      </trkpt>
      <trkpt lat="59.211314" lon="18.146964">
        <ele>48</ele>
        <time>2020-02-09T06:12:48Z</time>
      </trkpt>
      <trkpt lat="59.211407" lon="18.147015">
        <ele>48</ele>
        <time>2020-02-09T06:12:49Z</time>
      </trkpt>
      <trkpt lat="59.211501" lon="18.147055">
        <ele>47</ele>
        <time>2020-02-09T06:12:50Z</time>
      </trkpt>
      <trkpt lat="59.211598" lon="18.147093">
        <ele>47</ele>
        <time>2020-02-09T06:12:51Z</time>
      </trkpt>
      <trkpt lat="59.211701" lon="18.14713">
        <ele>46</ele>
        <time>2020-02-09T06:12:52Z</time>
      </trkpt>
      <trkpt lat="59.211804" lon="18.147163">
        <ele>46</ele>
        <time>2020-02-09T06:12:53Z</time>
      </trkpt>
      <trkpt lat="59.211907" lon="18.147184">
        <ele>45</ele>
        <time>2020-02-09T06:12:54Z</time>
      </trkpt>
      <trkpt lat="59.21201" lon="18.147196">
        <ele>45</ele>
        <time>2020-02-09T06:12:55Z</time>
      </trkpt>
      <trkpt lat="59.212114" lon="18.147207">
        <ele>44</ele>
        <time>2020-02-09T06:12:56Z</time>
      </trkpt>
      <trkpt lat="59.212218" lon="18.147215">
        <ele>44</ele>
        <time>2020-02-09T06:12:57Z</time>
      </trkpt>
      <trkpt lat="59.21232" lon="18.147216">
        <ele>44</ele>
        <time>2020-02-09T06:12:58Z</time>
      </trkpt>
      <trkpt lat="59.212421" lon="18.147211">
        <ele>43</ele>
        <time>2020-02-09T06:12:59Z</time>
      </trkpt>
      <trkpt lat="59.212523" lon="18.147199">
        <ele>43</ele>
        <time>2020-02-09T06:13:00Z</time>
      </trkpt>
      <trkpt lat="59.212624" lon="18.14718">
        <ele>42</ele>
        <time>2020-02-09T06:13:01Z</time>
      </trkpt>
      <trkpt lat="59.212726" lon="18.147158">
        <ele>42</ele>
        <time>2020-02-09T06:13:02Z</time>
      </trkpt>
      <trkpt lat="59.212828" lon="18.147133">
        <ele>41</ele>
        <time>2020-02-09T06:13:03Z</time>
      </trkpt>
      <trkpt lat="59.212931" lon="18.147106">
        <ele>41</ele>
        <time>2020-02-09T06:13:04Z</time>
      </trkpt>
      <trkpt lat="59.213033" lon="18.147073">
        <ele>40</ele>
        <time>2020-02-09T06:13:05Z</time>
      </trkpt>
      <trkpt lat="59.213134" lon="18.147033">
        <ele>40</ele>
        <time>2020-02-09T06:13:06Z</time>
      </trkpt>
      <trkpt lat="59.213234" lon="18.146985">
        <ele>39</ele>
        <time>2020-02-09T06:13:07Z</time>
      </trkpt>
      <trkpt lat="59.213332" lon="18.14693">
        <ele>39</ele>
        <time>2020-02-09T06:13:08Z</time>
      </trkpt>
      <trkpt lat="59.213426" lon="18.146869">
        <ele>38</ele>
        <time>2020-02-09T06:13:09Z</time>
      </trkpt>
      <trkpt lat="59.213517" lon="18.146804">
        <ele>38</ele>
        <time>2020-02-09T06:13:10Z</time>
      </trkpt>
      <trkpt lat="59.213607" lon="18.146736">
        <ele>37</ele>
        <time>2020-02-09T06:13:11Z</time>
      </trkpt>
      <trkpt lat="59.213692" lon="18.14666">
        <ele>36</ele>
        <time>2020-02-09T06:13:12Z</time>
      </trkpt>
      <trkpt lat="59.213775" lon="18.146578">
        <ele>36</ele>
        <time>2020-02-09T06:13:13Z</time>
      </trkpt>
      <trkpt lat="59.213854" lon="18.146489">
        <ele>35</ele>
        <time>2020-02-09T06:13:14Z</time>
      </trkpt>
      <trkpt lat="59.213931" lon="18.146398">
        <ele>35</ele>
        <time>2020-02-09T06:13:15Z</time>
      </trkpt>
      <trkpt lat="59.214006" lon="18.146305">
        <ele>34</ele>
        <time>2020-02-09T06:13:16Z</time>
      </trkpt>
      <trkpt lat="59.214083" lon="18.146214">
        <ele>34</ele>
        <time>2020-02-09T06:13:17Z</time>
      </trkpt>
      <trkpt lat="59.214159" lon="18.14612">
        <ele>33</ele>
        <time>2020-02-09T06:13:18Z</time>
      </trkpt>
      <trkpt lat="59.214235" lon="18.146026">
        <ele>33</ele>
        <time>2020-02-09T06:13:19Z</time>
      </trkpt>
      <trkpt lat="59.214311" lon="18.145933">
        <ele>33</ele>
        <time>2020-02-09T06:13:20Z</time>
      </trkpt>
      <trkpt lat="59.214385" lon="18.14584">
        <ele>33</ele>
        <time>2020-02-09T06:13:21Z</time>
      </trkpt>
      <trkpt lat="59.214458" lon="18.145751">
        <ele>32</ele>
        <time>2020-02-09T06:13:22Z</time>
      </trkpt>
      <trkpt lat="59.214528" lon="18.145664">
        <ele>32</ele>
        <time>2020-02-09T06:13:23Z</time>
      </trkpt>
      <trkpt lat="59.214596" lon="18.145579">
        <ele>32</ele>
        <time>2020-02-09T06:13:24Z</time>
      </trkpt>
      <trkpt lat="59.214665" lon="18.145496">
        <ele>32</ele>
        <time>2020-02-09T06:13:25Z</time>
      </trkpt>
      <trkpt lat="59.214734" lon="18.145415">
        <ele>31</ele>
        <time>2020-02-09T06:13:26Z</time>
      </trkpt>
      <trkpt lat="59.214802" lon="18.145333">
        <ele>31</ele>
        <time>2020-02-09T06:13:27Z</time>
      </trkpt>
      <trkpt lat="59.214872" lon="18.145248">
        <ele>31</ele>
        <time>2020-02-09T06:13:28Z</time>
      </trkpt>
      <trkpt lat="59.21494" lon="18.145162">
        <ele>31</ele>
        <time>2020-02-09T06:13:29Z</time>
      </trkpt>
      <trkpt lat="59.215007" lon="18.145074">
        <ele>31</ele>
        <time>2020-02-09T06:13:30Z</time>
      </trkpt>
      <trkpt lat="59.215074" lon="18.14499">
        <ele>31</ele>
        <time>2020-02-09T06:13:31Z</time>
      </trkpt>
      <trkpt lat="59.215141" lon="18.14491">
        <ele>31</ele>
        <time>2020-02-09T06:13:32Z</time>
      </trkpt>
      <trkpt lat="59.215209" lon="18.144831">
        <ele>31</ele>
        <time>2020-02-09T06:13:33Z</time>
      </trkpt>
      <trkpt lat="59.215277" lon="18.144748">
        <ele>31</ele>
        <time>2020-02-09T06:13:34Z</time>
      </trkpt>
      <trkpt lat="59.215344" lon="18.144668">
        <ele>31</ele>
        <time>2020-02-09T06:13:35Z</time>
      </trkpt>
      <trkpt lat="59.215412" lon="18.144587">
        <ele>31</ele>
        <time>2020-02-09T06:13:36Z</time>
      </trkpt>
      <trkpt lat="59.215478" lon="18.144504">
        <ele>31</ele>
        <time>2020-02-09T06:13:37Z</time>
      </trkpt>
      <trkpt lat="59.215544" lon="18.144423">
        <ele>31</ele>
        <time>2020-02-09T06:13:38Z</time>
      </trkpt>
      <trkpt lat="59.215615" lon="18.144342">
        <ele>31</ele>
        <time>2020-02-09T06:13:39Z</time>
      </trkpt>
      <trkpt lat="59.215684" lon="18.144261">
        <ele>30</ele>
        <time>2020-02-09T06:13:40Z</time>
      </trkpt>
      <trkpt lat="59.215754" lon="18.144179">
        <ele>30</ele>
        <time>2020-02-09T06:13:41Z</time>
      </trkpt>
      <trkpt lat="59.215823" lon="18.144099">
        <ele>30</ele>
        <time>2020-02-09T06:13:42Z</time>
      </trkpt>
      <trkpt lat="59.215892" lon="18.144018">
        <ele>30</ele>
        <time>2020-02-09T06:13:43Z</time>
      </trkpt>
      <trkpt lat="59.21596" lon="18.143934">
        <ele>29</ele>
        <time>2020-02-09T06:13:44Z</time>
      </trkpt>
      <trkpt lat="59.216031" lon="18.143852">
        <ele>29</ele>
        <time>2020-02-09T06:13:45Z</time>
      </trkpt>
      <trkpt lat="59.216101" lon="18.143771">
        <ele>29</ele>
        <time>2020-02-09T06:13:46Z</time>
      </trkpt>
      <trkpt lat="59.216171" lon="18.143687">
        <ele>29</ele>
        <time>2020-02-09T06:13:47Z</time>
      </trkpt>
      <trkpt lat="59.21624" lon="18.143605">
        <ele>29</ele>
        <time>2020-02-09T06:13:48Z</time>
      </trkpt>
      <trkpt lat="59.216309" lon="18.143519">
        <ele>29</ele>
        <time>2020-02-09T06:13:49Z</time>
      </trkpt>
      <trkpt lat="59.216378" lon="18.14344">
        <ele>28</ele>
        <time>2020-02-09T06:13:50Z</time>
      </trkpt>
      <trkpt lat="59.216447" lon="18.143365">
        <ele>28</ele>
        <time>2020-02-09T06:13:51Z</time>
      </trkpt>
      <trkpt lat="59.216513" lon="18.143285">
        <ele>28</ele>
        <time>2020-02-09T06:13:52Z</time>
      </trkpt>
      <trkpt lat="59.216576" lon="18.143208">
        <ele>28</ele>
        <time>2020-02-09T06:13:53Z</time>
      </trkpt>
      <trkpt lat="59.216639" lon="18.143133">
        <ele>27</ele>
        <time>2020-02-09T06:13:54Z</time>
      </trkpt>
      <trkpt lat="59.216702" lon="18.143057">
        <ele>27</ele>
        <time>2020-02-09T06:13:55Z</time>
      </trkpt>
      <trkpt lat="59.216764" lon="18.142986">
        <ele>27</ele>
        <time>2020-02-09T06:13:56Z</time>
      </trkpt>
      <trkpt lat="59.216826" lon="18.142919">
        <ele>27</ele>
        <time>2020-02-09T06:13:57Z</time>
      </trkpt>
      <trkpt lat="59.216888" lon="18.142856">
        <ele>26</ele>
        <time>2020-02-09T06:13:58Z</time>
      </trkpt>
      <trkpt lat="59.216951" lon="18.142793">
        <ele>26</ele>
        <time>2020-02-09T06:13:59Z</time>
      </trkpt>
      <trkpt lat="59.21701" lon="18.142729">
        <ele>26</ele>
        <time>2020-02-09T06:14:00Z</time>
      </trkpt>
      <trkpt lat="59.217068" lon="18.142663">
        <ele>26</ele>
        <time>2020-02-09T06:14:01Z</time>
      </trkpt>
      <trkpt lat="59.217124" lon="18.142597">
        <ele>26</ele>
        <time>2020-02-09T06:14:02Z</time>
      </trkpt>
      <trkpt lat="59.21718" lon="18.142534">
        <ele>26</ele>
        <time>2020-02-09T06:14:03Z</time>
      </trkpt>
      <trkpt lat="59.217236" lon="18.142474">
        <ele>25</ele>
        <time>2020-02-09T06:14:04Z</time>
      </trkpt>
      <trkpt lat="59.217292" lon="18.14241">
        <ele>25</ele>
        <time>2020-02-09T06:14:05Z</time>
      </trkpt>
      <trkpt lat="59.217344" lon="18.142344">
        <ele>25</ele>
        <time>2020-02-09T06:14:06Z</time>
      </trkpt>
      <trkpt lat="59.217397" lon="18.142278">
        <ele>25</ele>
        <time>2020-02-09T06:14:07Z</time>
      </trkpt>
      <trkpt lat="59.21745" lon="18.142211">
        <ele>25</ele>
        <time>2020-02-09T06:14:08Z</time>
      </trkpt>
      <trkpt lat="59.217504" lon="18.142146">
        <ele>25</ele>
        <time>2020-02-09T06:14:09Z</time>
      </trkpt>
      <trkpt lat="59.21756" lon="18.142085">
        <ele>25</ele>
        <time>2020-02-09T06:14:10Z</time>
      </trkpt>
      <trkpt lat="59.217618" lon="18.142025">
        <ele>25</ele>
        <time>2020-02-09T06:14:11Z</time>
      </trkpt>
      <trkpt lat="59.217673" lon="18.141963">
        <ele>25</ele>
        <time>2020-02-09T06:14:12Z</time>
      </trkpt>
      <trkpt lat="59.217728" lon="18.141902">
        <ele>24</ele>
        <time>2020-02-09T06:14:13Z</time>
      </trkpt>
      <trkpt lat="59.217783" lon="18.141844">
        <ele>24</ele>
        <time>2020-02-09T06:14:14Z</time>
      </trkpt>
      <trkpt lat="59.217838" lon="18.141787">
        <ele>24</ele>
        <time>2020-02-09T06:14:15Z</time>
      </trkpt>
      <trkpt lat="59.217892" lon="18.141726">
        <ele>24</ele>
        <time>2020-02-09T06:14:16Z</time>
      </trkpt>
      <trkpt lat="59.217945" lon="18.14166">
        <ele>24</ele>
        <time>2020-02-09T06:14:17Z</time>
      </trkpt>
      <trkpt lat="59.217998" lon="18.141594">
        <ele>24</ele>
        <time>2020-02-09T06:14:18Z</time>
      </trkpt>
      <trkpt lat="59.218053" lon="18.141535">
        <ele>24</ele>
        <time>2020-02-09T06:14:19Z</time>
      </trkpt>
      <trkpt lat="59.21811" lon="18.141485">
        <ele>24</ele>
        <time>2020-02-09T06:14:20Z</time>
      </trkpt>
      <trkpt lat="59.218171" lon="18.141455">
        <ele>23</ele>
        <time>2020-02-09T06:14:21Z</time>
      </trkpt>
      <trkpt lat="59.218233" lon="18.141446">
        <ele>23</ele>
        <time>2020-02-09T06:14:22Z</time>
      </trkpt>
      <trkpt lat="59.218293" lon="18.141447">
        <ele>23</ele>
        <time>2020-02-09T06:14:23Z</time>
      </trkpt>
      <trkpt lat="59.218353" lon="18.141443">
        <ele>23</ele>
        <time>2020-02-09T06:14:24Z</time>
      </trkpt>
      <trkpt lat="59.218411" lon="18.141414">
        <ele>23</ele>
        <time>2020-02-09T06:14:25Z</time>
      </trkpt>
      <trkpt lat="59.218464" lon="18.141353">
        <ele>23</ele>
        <time>2020-02-09T06:14:26Z</time>
      </trkpt>
      <trkpt lat="59.218509" lon="18.141269">
        <ele>23</ele>
        <time>2020-02-09T06:14:27Z</time>
      </trkpt>
      <trkpt lat="59.218545" lon="18.141169">
        <ele>23</ele>
        <time>2020-02-09T06:14:28Z</time>
      </trkpt>
      <trkpt lat="59.218579" lon="18.141067">
        <ele>23</ele>
        <time>2020-02-09T06:14:29Z</time>
      </trkpt>
      <trkpt lat="59.218616" lon="18.140967">
        <ele>23</ele>
        <time>2020-02-09T06:14:30Z</time>
      </trkpt>
      <trkpt lat="59.218653" lon="18.140867">
        <ele>23</ele>
        <time>2020-02-09T06:14:31Z</time>
      </trkpt>
      <trkpt lat="59.218693" lon="18.140769">
        <ele>23</ele>
        <time>2020-02-09T06:14:32Z</time>
      </trkpt>
      <trkpt lat="59.218738" lon="18.140679">
        <ele>23</ele>
        <time>2020-02-09T06:14:33Z</time>
      </trkpt>
      <trkpt lat="59.218787" lon="18.140598">
        <ele>23</ele>
        <time>2020-02-09T06:14:34Z</time>
      </trkpt>
      <trkpt lat="59.218841" lon="18.140526">
        <ele>23</ele>
        <time>2020-02-09T06:14:35Z</time>
      </trkpt>
      <trkpt lat="59.218897" lon="18.140457">
        <ele>23</ele>
        <time>2020-02-09T06:14:36Z</time>
      </trkpt>
      <trkpt lat="59.218953" lon="18.14039">
        <ele>23</ele>
        <time>2020-02-09T06:14:37Z</time>
      </trkpt>
      <trkpt lat="59.219008" lon="18.140322">
        <ele>23</ele>
        <time>2020-02-09T06:14:38Z</time>
      </trkpt>
      <trkpt lat="59.219063" lon="18.140256">
        <ele>23</ele>
        <time>2020-02-09T06:14:39Z</time>
      </trkpt>
      <trkpt lat="59.219119" lon="18.140189">
        <ele>23</ele>
        <time>2020-02-09T06:14:40Z</time>
      </trkpt>
      <trkpt lat="59.219176" lon="18.140122">
        <ele>23</ele>
        <time>2020-02-09T06:14:41Z</time>
      </trkpt>
      <trkpt lat="59.219232" lon="18.140056">
        <ele>23</ele>
        <time>2020-02-09T06:14:42Z</time>
      </trkpt>
      <trkpt lat="59.219289" lon="18.13999">
        <ele>23</ele>
        <time>2020-02-09T06:14:43Z</time>
      </trkpt>
      <trkpt lat="59.219344" lon="18.139924">
        <ele>23</ele>
        <time>2020-02-09T06:14:44Z</time>
      </trkpt>
      <trkpt lat="59.219398" lon="18.139859">
        <ele>23</ele>
        <time>2020-02-09T06:14:45Z</time>
      </trkpt>
      <trkpt lat="59.219454" lon="18.139797">
        <ele>23</ele>
        <time>2020-02-09T06:14:46Z</time>
      </trkpt>
      <trkpt lat="59.219508" lon="18.139737">
        <ele>23</ele>
        <time>2020-02-09T06:14:47Z</time>
      </trkpt>
      <trkpt lat="59.21956" lon="18.139675">
        <ele>23</ele>
        <time>2020-02-09T06:14:48Z</time>
      </trkpt>
      <trkpt lat="59.219612" lon="18.139616">
        <ele>24</ele>
        <time>2020-02-09T06:14:49Z</time>
      </trkpt>
      <trkpt lat="59.219663" lon="18.139561">
        <ele>24</ele>
        <time>2020-02-09T06:14:50Z</time>
      </trkpt>
      <trkpt lat="59.219706" lon="18.139513">
        <ele>24</ele>
        <time>2020-02-09T06:14:51Z</time>
      </trkpt>
      <trkpt lat="59.219749" lon="18.139468">
        <ele>24</ele>
        <time>2020-02-09T06:14:52Z</time>
      </trkpt>
      <trkpt lat="59.219793" lon="18.139418">
        <ele>24</ele>
        <time>2020-02-09T06:14:53Z</time>
      </trkpt>
      <trkpt lat="59.21984" lon="18.139362">
        <ele>24</ele>
        <time>2020-02-09T06:14:54Z</time>
      </trkpt>
      <trkpt lat="59.219887" lon="18.139316">
        <ele>25</ele>
        <time>2020-02-09T06:14:55Z</time>
      </trkpt>
      <trkpt lat="59.219927" lon="18.139274">
        <ele>25</ele>
        <time>2020-02-09T06:14:56Z</time>
      </trkpt>
      <trkpt lat="59.219967" lon="18.139226">
        <ele>25</ele>
        <time>2020-02-09T06:14:57Z</time>
      </trkpt>
      <trkpt lat="59.220002" lon="18.139171">
        <ele>25</ele>
        <time>2020-02-09T06:14:58Z</time>
      </trkpt>
      <trkpt lat="59.220041" lon="18.13912">
        <ele>26</ele>
        <time>2020-02-09T06:14:59Z</time>
      </trkpt>
      <trkpt lat="59.220082" lon="18.139071">
        <ele>26</ele>
        <time>2020-02-09T06:15:01Z</time>
      </trkpt>
      <trkpt lat="59.220121" lon="18.139024">
        <ele>26</ele>
        <time>2020-02-09T06:15:01Z</time>
      </trkpt>
      <trkpt lat="59.220161" lon="18.13898">
        <ele>26</ele>
        <time>2020-02-09T06:15:02Z</time>
      </trkpt>
      <trkpt lat="59.220201" lon="18.138938">
        <ele>26</ele>
        <time>2020-02-09T06:15:03Z</time>
      </trkpt>
      <trkpt lat="59.220241" lon="18.138895">
        <ele>26</ele>
        <time>2020-02-09T06:15:04Z</time>
      </trkpt>
      <trkpt lat="59.220279" lon="18.138856">
        <ele>26</ele>
        <time>2020-02-09T06:15:05Z</time>
      </trkpt>
      <trkpt lat="59.22032" lon="18.13882">
        <ele>27</ele>
        <time>2020-02-09T06:15:06Z</time>
      </trkpt>
      <trkpt lat="59.220362" lon="18.138788">
        <ele>27</ele>
        <time>2020-02-09T06:15:07Z</time>
      </trkpt>
      <trkpt lat="59.220402" lon="18.138756">
        <ele>27</ele>
        <time>2020-02-09T06:15:08Z</time>
      </trkpt>
      <trkpt lat="59.220443" lon="18.138728">
        <ele>27</ele>
        <time>2020-02-09T06:15:09Z</time>
      </trkpt>
      <trkpt lat="59.220483" lon="18.138699">
        <ele>27</ele>
        <time>2020-02-09T06:15:10Z</time>
      </trkpt>
      <trkpt lat="59.220523" lon="18.13867">
        <ele>28</ele>
        <time>2020-02-09T06:15:11Z</time>
      </trkpt>
      <trkpt lat="59.220564" lon="18.138642">
        <ele>28</ele>
        <time>2020-02-09T06:15:12Z</time>
      </trkpt>
      <trkpt lat="59.220606" lon="18.138615">
        <ele>28</ele>
        <time>2020-02-09T06:15:13Z</time>
      </trkpt>
      <trkpt lat="59.220648" lon="18.138591">
        <ele>28</ele>
        <time>2020-02-09T06:15:14Z</time>
      </trkpt>
      <trkpt lat="59.22069" lon="18.138568">
        <ele>28</ele>
        <time>2020-02-09T06:15:15Z</time>
      </trkpt>
      <trkpt lat="59.220733" lon="18.138548">
        <ele>28</ele>
        <time>2020-02-09T06:15:16Z</time>
      </trkpt>
      <trkpt lat="59.220775" lon="18.138528">
        <ele>28</ele>
        <time>2020-02-09T06:15:17Z</time>
      </trkpt>
      <trkpt lat="59.220818" lon="18.138506">
        <ele>28</ele>
        <time>2020-02-09T06:15:18Z</time>
      </trkpt>
      <trkpt lat="59.220859" lon="18.138482">
        <ele>29</ele>
        <time>2020-02-09T06:15:19Z</time>
      </trkpt>
      <trkpt lat="59.220899" lon="18.138462">
        <ele>28</ele>
        <time>2020-02-09T06:15:20Z</time>
      </trkpt>
      <trkpt lat="59.220943" lon="18.138447">
        <ele>29</ele>
        <time>2020-02-09T06:15:21Z</time>
      </trkpt>
      <trkpt lat="59.220989" lon="18.138429">
        <ele>29</ele>
        <time>2020-02-09T06:15:22Z</time>
      </trkpt>
      <trkpt lat="59.221035" lon="18.138408">
        <ele>29</ele>
        <time>2020-02-09T06:15:23Z</time>
      </trkpt>
      <trkpt lat="59.221083" lon="18.13839">
        <ele>29</ele>
        <time>2020-02-09T06:15:24Z</time>
      </trkpt>
      <trkpt lat="59.221131" lon="18.13837">
        <ele>29</ele>
        <time>2020-02-09T06:15:25Z</time>
      </trkpt>
      <trkpt lat="59.221178" lon="18.138352">
        <ele>29</ele>
        <time>2020-02-09T06:15:26Z</time>
      </trkpt>
      <trkpt lat="59.221228" lon="18.138335">
        <ele>29</ele>
        <time>2020-02-09T06:15:27Z</time>
      </trkpt>
      <trkpt lat="59.221276" lon="18.13832">
        <ele>30</ele>
        <time>2020-02-09T06:15:28Z</time>
      </trkpt>
      <trkpt lat="59.221324" lon="18.138301">
        <ele>30</ele>
        <time>2020-02-09T06:15:29Z</time>
      </trkpt>
      <trkpt lat="59.221373" lon="18.138281">
        <ele>30</ele>
        <time>2020-02-09T06:15:30Z</time>
      </trkpt>
      <trkpt lat="59.221418" lon="18.138256">
        <ele>30</ele>
        <time>2020-02-09T06:15:31Z</time>
      </trkpt>
      <trkpt lat="59.221467" lon="18.138237">
        <ele>30</ele>
        <time>2020-02-09T06:15:32Z</time>
      </trkpt>
      <trkpt lat="59.221514" lon="18.13822">
        <ele>30</ele>
        <time>2020-02-09T06:15:33Z</time>
      </trkpt>
      <trkpt lat="59.221562" lon="18.138201">
        <ele>30</ele>
        <time>2020-02-09T06:15:34Z</time>
      </trkpt>
      <trkpt lat="59.221609" lon="18.138179">
        <ele>31</ele>
        <time>2020-02-09T06:15:35Z</time>
      </trkpt>
      <trkpt lat="59.221656" lon="18.138156">
        <ele>31</ele>
        <time>2020-02-09T06:15:36Z</time>
      </trkpt>
      <trkpt lat="59.221705" lon="18.138134">
        <ele>31</ele>
        <time>2020-02-09T06:15:37Z</time>
      </trkpt>
      <trkpt lat="59.221753" lon="18.138114">
        <ele>31</ele>
        <time>2020-02-09T06:15:38Z</time>
      </trkpt>
      <trkpt lat="59.2218" lon="18.138094">
        <ele>31</ele>
        <time>2020-02-09T06:15:39Z</time>
      </trkpt>
      <trkpt lat="59.221847" lon="18.138074">
        <ele>31</ele>
        <time>2020-02-09T06:15:40Z</time>
      </trkpt>
      <trkpt lat="59.221896" lon="18.138051">
        <ele>32</ele>
        <time>2020-02-09T06:15:41Z</time>
      </trkpt>
      <trkpt lat="59.221948" lon="18.138029">
        <ele>32</ele>
        <time>2020-02-09T06:15:42Z</time>
      </trkpt>
      <trkpt lat="59.222" lon="18.138006">
        <ele>32</ele>
        <time>2020-02-09T06:15:43Z</time>
      </trkpt>
      <trkpt lat="59.222053" lon="18.137982">
        <ele>32</ele>
        <time>2020-02-09T06:15:44Z</time>
      </trkpt>
      <trkpt lat="59.222107" lon="18.137956">
        <ele>32</ele>
        <time>2020-02-09T06:15:45Z</time>
      </trkpt>
      <trkpt lat="59.222164" lon="18.137931">
        <ele>32</ele>
        <time>2020-02-09T06:15:46Z</time>
      </trkpt>
      <trkpt lat="59.222224" lon="18.137908">
        <ele>32</ele>
        <time>2020-02-09T06:15:47Z</time>
      </trkpt>
      <trkpt lat="59.222284" lon="18.137883">
        <ele>32</ele>
        <time>2020-02-09T06:15:48Z</time>
      </trkpt>
      <trkpt lat="59.222343" lon="18.137854">
        <ele>33</ele>
        <time>2020-02-09T06:15:49Z</time>
      </trkpt>
      <trkpt lat="59.222402" lon="18.137823">
        <ele>33</ele>
        <time>2020-02-09T06:15:50Z</time>
      </trkpt>
      <trkpt lat="59.222459" lon="18.13779">
        <ele>33</ele>
        <time>2020-02-09T06:15:51Z</time>
      </trkpt>
      <trkpt lat="59.222515" lon="18.137755">
        <ele>33</ele>
        <time>2020-02-09T06:15:52Z</time>
      </trkpt>
      <trkpt lat="59.222574" lon="18.137717">
        <ele>33</ele>
        <time>2020-02-09T06:15:53Z</time>
      </trkpt>
      <trkpt lat="59.222631" lon="18.137677">
        <ele>33</ele>
        <time>2020-02-09T06:15:54Z</time>
      </trkpt>
      <trkpt lat="59.222687" lon="18.137633">
        <ele>33</ele>
        <time>2020-02-09T06:15:55Z</time>
      </trkpt>
      <trkpt lat="59.222743" lon="18.137588">
        <ele>33</ele>
        <time>2020-02-09T06:15:56Z</time>
      </trkpt>
      <trkpt lat="59.222779" lon="18.137549">
        <ele>33</ele>
        <time>2020-02-09T06:15:59Z</time>
      </trkpt>
      <trkpt lat="59.222829" lon="18.137496">
        <ele>33</ele>
        <time>2020-02-09T06:16:00Z</time>
      </trkpt>
      <trkpt lat="59.222892" lon="18.137432">
        <ele>33</ele>
        <time>2020-02-09T06:16:01Z</time>
      </trkpt>
      <trkpt lat="59.222963" lon="18.137354">
        <ele>33</ele>
        <time>2020-02-09T06:16:02Z</time>
      </trkpt>
      <trkpt lat="59.223022" lon="18.137286">
        <ele>33</ele>
        <time>2020-02-09T06:16:03Z</time>
      </trkpt>
      <trkpt lat="59.223083" lon="18.137213">
        <ele>33</ele>
        <time>2020-02-09T06:16:04Z</time>
      </trkpt>
      <trkpt lat="59.223138" lon="18.137144">
        <ele>33</ele>
        <time>2020-02-09T06:16:05Z</time>
      </trkpt>
      <trkpt lat="59.223188" lon="18.137072">
        <ele>33</ele>
        <time>2020-02-09T06:16:06Z</time>
      </trkpt>
      <trkpt lat="59.223235" lon="18.136996">
        <ele>33</ele>
        <time>2020-02-09T06:16:07Z</time>
      </trkpt>
      <trkpt lat="59.223284" lon="18.136918">
        <ele>33</ele>
        <time>2020-02-09T06:16:08Z</time>
      </trkpt>
      <trkpt lat="59.22333" lon="18.13684">
        <ele>33</ele>
        <time>2020-02-09T06:16:09Z</time>
      </trkpt>
      <trkpt lat="59.223377" lon="18.136756">
        <ele>33</ele>
        <time>2020-02-09T06:16:10Z</time>
      </trkpt>
      <trkpt lat="59.223418" lon="18.136674">
        <ele>33</ele>
        <time>2020-02-09T06:16:11Z</time>
      </trkpt>
      <trkpt lat="59.223456" lon="18.136592">
        <ele>33</ele>
        <time>2020-02-09T06:16:12Z</time>
      </trkpt>
      <trkpt lat="59.223497" lon="18.136506">
        <ele>33</ele>
        <time>2020-02-09T06:16:13Z</time>
      </trkpt>
      <trkpt lat="59.223533" lon="18.136422">
        <ele>33</ele>
        <time>2020-02-09T06:16:14Z</time>
      </trkpt>
      <trkpt lat="59.223564" lon="18.136338">
        <ele>33</ele>
        <time>2020-02-09T06:16:15Z</time>
      </trkpt>
      <trkpt lat="59.223595" lon="18.136254">
        <ele>33</ele>
        <time>2020-02-09T06:16:16Z</time>
      </trkpt>
      <trkpt lat="59.223627" lon="18.136166">
        <ele>33</ele>
        <time>2020-02-09T06:16:17Z</time>
      </trkpt>
      <trkpt lat="59.223662" lon="18.136072">
        <ele>33</ele>
        <time>2020-02-09T06:16:18Z</time>
      </trkpt>
      <trkpt lat="59.223703" lon="18.135969">
        <ele>34</ele>
        <time>2020-02-09T06:16:19Z</time>
      </trkpt>
      <trkpt lat="59.223748" lon="18.135864">
        <ele>34</ele>
        <time>2020-02-09T06:16:20Z</time>
      </trkpt>
      <trkpt lat="59.223793" lon="18.135758">
        <ele>34</ele>
        <time>2020-02-09T06:16:21Z</time>
      </trkpt>
      <trkpt lat="59.223834" lon="18.135654">
        <ele>34</ele>
        <time>2020-02-09T06:16:22Z</time>
      </trkpt>
      <trkpt lat="59.223879" lon="18.135548">
        <ele>34</ele>
        <time>2020-02-09T06:16:23Z</time>
      </trkpt>
      <trkpt lat="59.223931" lon="18.135436">
        <ele>33</ele>
        <time>2020-02-09T06:16:24Z</time>
      </trkpt>
      <trkpt lat="59.22398" lon="18.135328">
        <ele>33</ele>
        <time>2020-02-09T06:16:25Z</time>
      </trkpt>
      <trkpt lat="59.224031" lon="18.135215">
        <ele>34</ele>
        <time>2020-02-09T06:16:26Z</time>
      </trkpt>
      <trkpt lat="59.224072" lon="18.135106">
        <ele>34</ele>
        <time>2020-02-09T06:16:27Z</time>
      </trkpt>
      <trkpt lat="59.224105" lon="18.134998">
        <ele>34</ele>
        <time>2020-02-09T06:16:28Z</time>
      </trkpt>
      <trkpt lat="59.224137" lon="18.13489">
        <ele>33</ele>
        <time>2020-02-09T06:16:29Z</time>
      </trkpt>
      <trkpt lat="59.224176" lon="18.13478">
        <ele>33</ele>
        <time>2020-02-09T06:16:30Z</time>
      </trkpt>
      <trkpt lat="59.224215" lon="18.134676">
        <ele>33</ele>
        <time>2020-02-09T06:16:31Z</time>
      </trkpt>
      <trkpt lat="59.224262" lon="18.134572">
        <ele>33</ele>
        <time>2020-02-09T06:16:32Z</time>
      </trkpt>
      <trkpt lat="59.224294" lon="18.134474">
        <ele>33</ele>
        <time>2020-02-09T06:16:33Z</time>
      </trkpt>
      <trkpt lat="59.224333" lon="18.134374">
        <ele>33</ele>
        <time>2020-02-09T06:16:34Z</time>
      </trkpt>
      <trkpt lat="59.224387" lon="18.134272">
        <ele>33</ele>
        <time>2020-02-09T06:16:35Z</time>
      </trkpt>
      <trkpt lat="59.224429" lon="18.134172">
        <ele>33</ele>
        <time>2020-02-09T06:16:36Z</time>
      </trkpt>
      <trkpt lat="59.22447" lon="18.134074">
        <ele>33</ele>
        <time>2020-02-09T06:16:37Z</time>
      </trkpt>
      <trkpt lat="59.224513" lon="18.13398">
        <ele>34</ele>
        <time>2020-02-09T06:16:38Z</time>
      </trkpt>
      <trkpt lat="59.224553" lon="18.13389">
        <ele>34</ele>
        <time>2020-02-09T06:16:39Z</time>
      </trkpt>
      <trkpt lat="59.224594" lon="18.133804">
        <ele>34</ele>
        <time>2020-02-09T06:16:40Z</time>
      </trkpt>
      <trkpt lat="59.224639" lon="18.133722">
        <ele>34</ele>
        <time>2020-02-09T06:16:41Z</time>
      </trkpt>
      <trkpt lat="59.224677" lon="18.133642">
        <ele>34</ele>
        <time>2020-02-09T06:16:42Z</time>
      </trkpt>
      <trkpt lat="59.224716" lon="18.133564">
        <ele>34</ele>
        <time>2020-02-09T06:16:43Z</time>
      </trkpt>
      <trkpt lat="59.224752" lon="18.133488">
        <ele>34</ele>
        <time>2020-02-09T06:16:44Z</time>
      </trkpt>
      <trkpt lat="59.224787" lon="18.133416">
        <ele>34</ele>
        <time>2020-02-09T06:16:45Z</time>
      </trkpt>
      <trkpt lat="59.224821" lon="18.133348">
        <ele>34</ele>
        <time>2020-02-09T06:16:46Z</time>
      </trkpt>
      <trkpt lat="59.224858" lon="18.13328">
        <ele>34</ele>
        <time>2020-02-09T06:16:47Z</time>
      </trkpt>
      <trkpt lat="59.224898" lon="18.133212">
        <ele>34</ele>
        <time>2020-02-09T06:16:48Z</time>
      </trkpt>
      <trkpt lat="59.224931" lon="18.133144">
        <ele>34</ele>
        <time>2020-02-09T06:16:49Z</time>
      </trkpt>
      <trkpt lat="59.224965" lon="18.133078">
        <ele>34</ele>
        <time>2020-02-09T06:16:50Z</time>
      </trkpt>
      <trkpt lat="59.224997" lon="18.133015">
        <ele>34</ele>
        <time>2020-02-09T06:16:51Z</time>
      </trkpt>
      <trkpt lat="59.22503" lon="18.13296">
        <ele>34</ele>
        <time>2020-02-09T06:16:52Z</time>
      </trkpt>
      <trkpt lat="59.225059" lon="18.132906">
        <ele>35</ele>
        <time>2020-02-09T06:16:53Z</time>
      </trkpt>
      <trkpt lat="59.225084" lon="18.132854">
        <ele>35</ele>
        <time>2020-02-09T06:16:54Z</time>
      </trkpt>
      <trkpt lat="59.22512" lon="18.132796">
        <ele>35</ele>
        <time>2020-02-09T06:16:55Z</time>
      </trkpt>
      <trkpt lat="59.225149" lon="18.132748">
        <ele>35</ele>
        <time>2020-02-09T06:16:56Z</time>
      </trkpt>
      <trkpt lat="59.225179" lon="18.132696">
        <ele>35</ele>
        <time>2020-02-09T06:16:57Z</time>
      </trkpt>
      <trkpt lat="59.225209" lon="18.132646">
        <ele>36</ele>
        <time>2020-02-09T06:16:58Z</time>
      </trkpt>
      <trkpt lat="59.225241" lon="18.132598">
        <ele>36</ele>
        <time>2020-02-09T06:16:59Z</time>
      </trkpt>
      <trkpt lat="59.225271" lon="18.132547">
        <ele>36</ele>
        <time>2020-02-09T06:17:00Z</time>
      </trkpt>
      <trkpt lat="59.225299" lon="18.132504">
        <ele>36</ele>
        <time>2020-02-09T06:17:01Z</time>
      </trkpt>
      <trkpt lat="59.225328" lon="18.13246">
        <ele>36</ele>
        <time>2020-02-09T06:17:02Z</time>
      </trkpt>
      <trkpt lat="59.225358" lon="18.132415">
        <ele>36</ele>
        <time>2020-02-09T06:17:03Z</time>
      </trkpt>
      <trkpt lat="59.225392" lon="18.132371">
        <ele>36</ele>
        <time>2020-02-09T06:17:04Z</time>
      </trkpt>
      <trkpt lat="59.225426" lon="18.13233">
        <ele>36</ele>
        <time>2020-02-09T06:17:05Z</time>
      </trkpt>
      <trkpt lat="59.225453" lon="18.132284">
        <ele>36</ele>
        <time>2020-02-09T06:17:06Z</time>
      </trkpt>
      <trkpt lat="59.225483" lon="18.132232">
        <ele>37</ele>
        <time>2020-02-09T06:17:07Z</time>
      </trkpt>
      <trkpt lat="59.225519" lon="18.132174">
        <ele>37</ele>
        <time>2020-02-09T06:17:08Z</time>
      </trkpt>
      <trkpt lat="59.225553" lon="18.132122">
        <ele>37</ele>
        <time>2020-02-09T06:17:09Z</time>
      </trkpt>
      <trkpt lat="59.225589" lon="18.132067">
        <ele>37</ele>
        <time>2020-02-09T06:17:10Z</time>
      </trkpt>
      <trkpt lat="59.22562" lon="18.132007">
        <ele>37</ele>
        <time>2020-02-09T06:17:11Z</time>
      </trkpt>
      <trkpt lat="59.225644" lon="18.13194">
        <ele>37</ele>
        <time>2020-02-09T06:17:12Z</time>
      </trkpt>
      <trkpt lat="59.225673" lon="18.131863">
        <ele>37</ele>
        <time>2020-02-09T06:17:13Z</time>
      </trkpt>
      <trkpt lat="59.225701" lon="18.131786">
        <ele>37</ele>
        <time>2020-02-09T06:17:14Z</time>
      </trkpt>
      <trkpt lat="59.225725" lon="18.131698">
        <ele>38</ele>
        <time>2020-02-09T06:17:15Z</time>
      </trkpt>
      <trkpt lat="59.225745" lon="18.131612">
        <ele>38</ele>
        <time>2020-02-09T06:17:16Z</time>
      </trkpt>
      <trkpt lat="59.225765" lon="18.131531">
        <ele>38</ele>
        <time>2020-02-09T06:17:17Z</time>
      </trkpt>
      <trkpt lat="59.225789" lon="18.131458">
        <ele>38</ele>
        <time>2020-02-09T06:17:18Z</time>
      </trkpt>
      <trkpt lat="59.225818" lon="18.131398">
        <ele>38</ele>
        <time>2020-02-09T06:17:19Z</time>
      </trkpt>
      <trkpt lat="59.225852" lon="18.131344">
        <ele>38</ele>
        <time>2020-02-09T06:17:20Z</time>
      </trkpt>
      <trkpt lat="59.22589" lon="18.131294">
        <ele>38</ele>
        <time>2020-02-09T06:17:21Z</time>
      </trkpt>
      <trkpt lat="59.225926" lon="18.131243">
        <ele>39</ele>
        <time>2020-02-09T06:17:22Z</time>
      </trkpt>
      <trkpt lat="59.225962" lon="18.131191">
        <ele>38</ele>
        <time>2020-02-09T06:17:23Z</time>
      </trkpt>
      <trkpt lat="59.225998" lon="18.131142">
        <ele>38</ele>
        <time>2020-02-09T06:17:24Z</time>
      </trkpt>
      <trkpt lat="59.226033" lon="18.131093">
        <ele>39</ele>
        <time>2020-02-09T06:17:25Z</time>
      </trkpt>
      <trkpt lat="59.226066" lon="18.131042">
        <ele>39</ele>
        <time>2020-02-09T06:17:26Z</time>
      </trkpt>
      <trkpt lat="59.2261" lon="18.13099">
        <ele>39</ele>
        <time>2020-02-09T06:17:27Z</time>
      </trkpt>
      <trkpt lat="59.226132" lon="18.130939">
        <ele>39</ele>
        <time>2020-02-09T06:17:28Z</time>
      </trkpt>
      <trkpt lat="59.226161" lon="18.130888">
        <ele>39</ele>
        <time>2020-02-09T06:17:29Z</time>
      </trkpt>
      <trkpt lat="59.226192" lon="18.13084">
        <ele>39</ele>
        <time>2020-02-09T06:17:30Z</time>
      </trkpt>
      <trkpt lat="59.226223" lon="18.130793">
        <ele>39</ele>
        <time>2020-02-09T06:17:31Z</time>
      </trkpt>
      <trkpt lat="59.226256" lon="18.130743">
        <ele>40</ele>
        <time>2020-02-09T06:17:32Z</time>
      </trkpt>
      <trkpt lat="59.22629" lon="18.130694">
        <ele>40</ele>
        <time>2020-02-09T06:17:33Z</time>
      </trkpt>
      <trkpt lat="59.226325" lon="18.130643">
        <ele>40</ele>
        <time>2020-02-09T06:17:34Z</time>
      </trkpt>
      <trkpt lat="59.226361" lon="18.130594">
        <ele>40</ele>
        <time>2020-02-09T06:17:35Z</time>
      </trkpt>
      <trkpt lat="59.226396" lon="18.130543">
        <ele>40</ele>
        <time>2020-02-09T06:17:36Z</time>
      </trkpt>
      <trkpt lat="59.22643" lon="18.130489">
        <ele>40</ele>
        <time>2020-02-09T06:17:37Z</time>
      </trkpt>
      <trkpt lat="59.226464" lon="18.130436">
        <ele>40</ele>
        <time>2020-02-09T06:17:38Z</time>
      </trkpt>
      <trkpt lat="59.226497" lon="18.130381">
        <ele>40</ele>
        <time>2020-02-09T06:17:39Z</time>
      </trkpt>
      <trkpt lat="59.226524" lon="18.130324">
        <ele>40</ele>
        <time>2020-02-09T06:17:40Z</time>
      </trkpt>
      <trkpt lat="59.226549" lon="18.130263">
        <ele>40</ele>
        <time>2020-02-09T06:17:41Z</time>
      </trkpt>
      <trkpt lat="59.226578" lon="18.130196">
        <ele>41</ele>
        <time>2020-02-09T06:17:42Z</time>
      </trkpt>
      <trkpt lat="59.226605" lon="18.13012">
        <ele>41</ele>
        <time>2020-02-09T06:17:43Z</time>
      </trkpt>
      <trkpt lat="59.226629" lon="18.130048">
        <ele>41</ele>
        <time>2020-02-09T06:17:44Z</time>
      </trkpt>
      <trkpt lat="59.226654" lon="18.129974">
        <ele>41</ele>
        <time>2020-02-09T06:17:45Z</time>
      </trkpt>
      <trkpt lat="59.22668" lon="18.129901">
        <ele>41</ele>
        <time>2020-02-09T06:17:46Z</time>
      </trkpt>
      <trkpt lat="59.22671" lon="18.12983">
        <ele>41</ele>
        <time>2020-02-09T06:17:47Z</time>
      </trkpt>
      <trkpt lat="59.22674" lon="18.129759">
        <ele>42</ele>
        <time>2020-02-09T06:17:48Z</time>
      </trkpt>
      <trkpt lat="59.22677" lon="18.129685">
        <ele>42</ele>
        <time>2020-02-09T06:17:49Z</time>
      </trkpt>
      <trkpt lat="59.226797" lon="18.129613">
        <ele>42</ele>
        <time>2020-02-09T06:17:50Z</time>
      </trkpt>
      <trkpt lat="59.226824" lon="18.12954">
        <ele>42</ele>
        <time>2020-02-09T06:17:51Z</time>
      </trkpt>
      <trkpt lat="59.226851" lon="18.129466">
        <ele>42</ele>
        <time>2020-02-09T06:17:52Z</time>
      </trkpt>
      <trkpt lat="59.226878" lon="18.129391">
        <ele>42</ele>
        <time>2020-02-09T06:17:53Z</time>
      </trkpt>
      <trkpt lat="59.226904" lon="18.129317">
        <ele>42</ele>
        <time>2020-02-09T06:17:54Z</time>
      </trkpt>
      <trkpt lat="59.226929" lon="18.129242">
        <ele>42</ele>
        <time>2020-02-09T06:17:55Z</time>
      </trkpt>
      <trkpt lat="59.226951" lon="18.12917">
        <ele>43</ele>
        <time>2020-02-09T06:17:56Z</time>
      </trkpt>
      <trkpt lat="59.226967" lon="18.129099">
        <ele>43</ele>
        <time>2020-02-09T06:17:57Z</time>
      </trkpt>
      <trkpt lat="59.226987" lon="18.129022">
        <ele>43</ele>
        <time>2020-02-09T06:17:58Z</time>
      </trkpt>
      <trkpt lat="59.22701" lon="18.128942">
        <ele>43</ele>
        <time>2020-02-09T06:17:59Z</time>
      </trkpt>
      <trkpt lat="59.227026" lon="18.128868">
        <ele>43</ele>
        <time>2020-02-09T06:18:00Z</time>
      </trkpt>
      <trkpt lat="59.227043" lon="18.128799">
        <ele>44</ele>
        <time>2020-02-09T06:18:01Z</time>
      </trkpt>
      <trkpt lat="59.227063" lon="18.128726">
        <ele>44</ele>
        <time>2020-02-09T06:18:02Z</time>
      </trkpt>
      <trkpt lat="59.227082" lon="18.128653">
        <ele>44</ele>
        <time>2020-02-09T06:18:03Z</time>
      </trkpt>
      <trkpt lat="59.227104" lon="18.128577">
        <ele>44</ele>
        <time>2020-02-09T06:18:04Z</time>
      </trkpt>
      <trkpt lat="59.227127" lon="18.1285">
        <ele>44</ele>
        <time>2020-02-09T06:18:05Z</time>
      </trkpt>
      <trkpt lat="59.227153" lon="18.12842">
        <ele>45</ele>
        <time>2020-02-09T06:18:06Z</time>
      </trkpt>
      <trkpt lat="59.227181" lon="18.128341">
        <ele>45</ele>
        <time>2020-02-09T06:18:07Z</time>
      </trkpt>
      <trkpt lat="59.227204" lon="18.128264">
        <ele>45</ele>
        <time>2020-02-09T06:18:08Z</time>
      </trkpt>
      <trkpt lat="59.227231" lon="18.128185">
        <ele>45</ele>
        <time>2020-02-09T06:18:09Z</time>
      </trkpt>
      <trkpt lat="59.227269" lon="18.128103">
        <ele>45</ele>
        <time>2020-02-09T06:18:10Z</time>
      </trkpt>
      <trkpt lat="59.227305" lon="18.128023">
        <ele>45</ele>
        <time>2020-02-09T06:18:11Z</time>
      </trkpt>
      <trkpt lat="59.227336" lon="18.127947">
        <ele>45</ele>
        <time>2020-02-09T06:18:12Z</time>
      </trkpt>
      <trkpt lat="59.22737" lon="18.127869">
        <ele>45</ele>
        <time>2020-02-09T06:18:13Z</time>
      </trkpt>
      <trkpt lat="59.227407" lon="18.127784">
        <ele>45</ele>
        <time>2020-02-09T06:18:14Z</time>
      </trkpt>
      <trkpt lat="59.227445" lon="18.127702">
        <ele>45</ele>
        <time>2020-02-09T06:18:15Z</time>
      </trkpt>
      <trkpt lat="59.227482" lon="18.127622">
        <ele>45</ele>
        <time>2020-02-09T06:18:16Z</time>
      </trkpt>
      <trkpt lat="59.227516" lon="18.127544">
        <ele>45</ele>
        <time>2020-02-09T06:18:17Z</time>
      </trkpt>
      <trkpt lat="59.227549" lon="18.127462">
        <ele>45</ele>
        <time>2020-02-09T06:18:18Z</time>
      </trkpt>
      <trkpt lat="59.227581" lon="18.127383">
        <ele>45</ele>
        <time>2020-02-09T06:18:19Z</time>
      </trkpt>
      <trkpt lat="59.227611" lon="18.12731">
        <ele>45</ele>
        <time>2020-02-09T06:18:20Z</time>
      </trkpt>
      <trkpt lat="59.227639" lon="18.127236">
        <ele>45</ele>
        <time>2020-02-09T06:18:21Z</time>
      </trkpt>
      <trkpt lat="59.227668" lon="18.127159">
        <ele>45</ele>
        <time>2020-02-09T06:18:22Z</time>
      </trkpt>
      <trkpt lat="59.227693" lon="18.127079">
        <ele>46</ele>
        <time>2020-02-09T06:18:23Z</time>
      </trkpt>
      <trkpt lat="59.227717" lon="18.126995">
        <ele>46</ele>
        <time>2020-02-09T06:18:24Z</time>
      </trkpt>
      <trkpt lat="59.227736" lon="18.12691">
        <ele>46</ele>
        <time>2020-02-09T06:18:25Z</time>
      </trkpt>
      <trkpt lat="59.227754" lon="18.12682">
        <ele>45</ele>
        <time>2020-02-09T06:18:26Z</time>
      </trkpt>
      <trkpt lat="59.227767" lon="18.126732">
        <ele>46</ele>
        <time>2020-02-09T06:18:27Z</time>
      </trkpt>
      <trkpt lat="59.227783" lon="18.126651">
        <ele>46</ele>
        <time>2020-02-09T06:18:28Z</time>
      </trkpt>
      <trkpt lat="59.227804" lon="18.126579">
        <ele>46</ele>
        <time>2020-02-09T06:18:29Z</time>
      </trkpt>
      <trkpt lat="59.227832" lon="18.126521">
        <ele>46</ele>
        <time>2020-02-09T06:18:30Z</time>
      </trkpt>
      <trkpt lat="59.227874" lon="18.126489">
        <ele>46</ele>
        <time>2020-02-09T06:18:31Z</time>
      </trkpt>
      <trkpt lat="59.227918" lon="18.126477">
        <ele>45</ele>
        <time>2020-02-09T06:18:32Z</time>
      </trkpt>
      <trkpt lat="59.227964" lon="18.126473">
        <ele>45</ele>
        <time>2020-02-09T06:18:33Z</time>
      </trkpt>
      <trkpt lat="59.228013" lon="18.126467">
        <ele>45</ele>
        <time>2020-02-09T06:18:34Z</time>
      </trkpt>
      <trkpt lat="59.228064" lon="18.126457">
        <ele>45</ele>
        <time>2020-02-09T06:18:35Z</time>
      </trkpt>
      <trkpt lat="59.228116" lon="18.126444">
        <ele>45</ele>
        <time>2020-02-09T06:18:36Z</time>
      </trkpt>
      <trkpt lat="59.228169" lon="18.126431">
        <ele>44</ele>
        <time>2020-02-09T06:18:37Z</time>
      </trkpt>
      <trkpt lat="59.228226" lon="18.12642">
        <ele>44</ele>
        <time>2020-02-09T06:18:38Z</time>
      </trkpt>
      <trkpt lat="59.228285" lon="18.12641">
        <ele>44</ele>
        <time>2020-02-09T06:18:39Z</time>
      </trkpt>
      <trkpt lat="59.228346" lon="18.126401">
        <ele>43</ele>
        <time>2020-02-09T06:18:40Z</time>
      </trkpt>
      <trkpt lat="59.228411" lon="18.126399">
        <ele>43</ele>
        <time>2020-02-09T06:18:41Z</time>
      </trkpt>
      <trkpt lat="59.228475" lon="18.126405">
        <ele>43</ele>
        <time>2020-02-09T06:18:42Z</time>
      </trkpt>
      <trkpt lat="59.228538" lon="18.126401">
        <ele>43</ele>
        <time>2020-02-09T06:18:43Z</time>
      </trkpt>
      <trkpt lat="59.228598" lon="18.126366">
        <ele>42</ele>
        <time>2020-02-09T06:18:44Z</time>
      </trkpt>
      <trkpt lat="59.228653" lon="18.126298">
        <ele>42</ele>
        <time>2020-02-09T06:18:45Z</time>
      </trkpt>
      <trkpt lat="59.228701" lon="18.12621">
        <ele>42</ele>
        <time>2020-02-09T06:18:46Z</time>
      </trkpt>
      <trkpt lat="59.228749" lon="18.126114">
        <ele>42</ele>
        <time>2020-02-09T06:18:47Z</time>
      </trkpt>
      <trkpt lat="59.228795" lon="18.126016">
        <ele>42</ele>
        <time>2020-02-09T06:18:48Z</time>
      </trkpt>
      <trkpt lat="59.228844" lon="18.125908">
        <ele>42</ele>
        <time>2020-02-09T06:18:49Z</time>
      </trkpt>
      <trkpt lat="59.228893" lon="18.125791">
        <ele>42</ele>
        <time>2020-02-09T06:18:50Z</time>
      </trkpt>
      <trkpt lat="59.228943" lon="18.125672">
        <ele>42</ele>
        <time>2020-02-09T06:18:51Z</time>
      </trkpt>
      <trkpt lat="59.228999" lon="18.125561">
        <ele>42</ele>
        <time>2020-02-09T06:18:52Z</time>
      </trkpt>
      <trkpt lat="59.229051" lon="18.125454">
        <ele>42</ele>
        <time>2020-02-09T06:18:53Z</time>
      </trkpt>
      <trkpt lat="59.229098" lon="18.125357">
        <ele>42</ele>
        <time>2020-02-09T06:18:54Z</time>
      </trkpt>
      <trkpt lat="59.229139" lon="18.125264">
        <ele>41</ele>
        <time>2020-02-09T06:18:55Z</time>
      </trkpt>
      <trkpt lat="59.229177" lon="18.125172">
        <ele>41</ele>
        <time>2020-02-09T06:18:56Z</time>
      </trkpt>
      <trkpt lat="59.229215" lon="18.125072">
        <ele>41</ele>
        <time>2020-02-09T06:18:57Z</time>
      </trkpt>
      <trkpt lat="59.229247" lon="18.124953">
        <ele>41</ele>
        <time>2020-02-09T06:18:58Z</time>
      </trkpt>
      <trkpt lat="59.229274" lon="18.124829">
        <ele>41</ele>
        <time>2020-02-09T06:18:59Z</time>
      </trkpt>
      <trkpt lat="59.229288" lon="18.124716">
        <ele>41</ele>
        <time>2020-02-09T06:19:00Z</time>
      </trkpt>
      <trkpt lat="59.2293" lon="18.124598">
        <ele>41</ele>
        <time>2020-02-09T06:19:01Z</time>
      </trkpt>
      <trkpt lat="59.229307" lon="18.124481">
        <ele>41</ele>
        <time>2020-02-09T06:19:02Z</time>
      </trkpt>
      <trkpt lat="59.229317" lon="18.124364">
        <ele>42</ele>
        <time>2020-02-09T06:19:03Z</time>
      </trkpt>
      <trkpt lat="59.229338" lon="18.124252">
        <ele>42</ele>
        <time>2020-02-09T06:19:04Z</time>
      </trkpt>
      <trkpt lat="59.229369" lon="18.124162">
        <ele>42</ele>
        <time>2020-02-09T06:19:05Z</time>
      </trkpt>
      <trkpt lat="59.229408" lon="18.124089">
        <ele>42</ele>
        <time>2020-02-09T06:19:06Z</time>
      </trkpt>
      <trkpt lat="59.229453" lon="18.12403">
        <ele>42</ele>
        <time>2020-02-09T06:19:07Z</time>
      </trkpt>
      <trkpt lat="59.229499" lon="18.123977">
        <ele>41</ele>
        <time>2020-02-09T06:19:08Z</time>
      </trkpt>
      <trkpt lat="59.229543" lon="18.123926">
        <ele>41</ele>
        <time>2020-02-09T06:19:09Z</time>
      </trkpt>
      <trkpt lat="59.22959" lon="18.123878">
        <ele>41</ele>
        <time>2020-02-09T06:19:10Z</time>
      </trkpt>
      <trkpt lat="59.229631" lon="18.123828">
        <ele>41</ele>
        <time>2020-02-09T06:19:13Z</time>
      </trkpt>
      <trkpt lat="59.229692" lon="18.123765">
        <ele>40</ele>
        <time>2020-02-09T06:19:14Z</time>
      </trkpt>
      <trkpt lat="59.229749" lon="18.123705">
        <ele>40</ele>
        <time>2020-02-09T06:19:15Z</time>
      </trkpt>
      <trkpt lat="59.229805" lon="18.123648">
        <ele>40</ele>
        <time>2020-02-09T06:19:16Z</time>
      </trkpt>
      <trkpt lat="59.229859" lon="18.123591">
        <ele>39</ele>
        <time>2020-02-09T06:19:17Z</time>
      </trkpt>
      <trkpt lat="59.229913" lon="18.123538">
        <ele>39</ele>
        <time>2020-02-09T06:19:18Z</time>
      </trkpt>
      <trkpt lat="59.229957" lon="18.123466">
        <ele>39</ele>
        <time>2020-02-09T06:19:19Z</time>
      </trkpt>
      <trkpt lat="59.22999" lon="18.123373">
        <ele>39</ele>
        <time>2020-02-09T06:19:20Z</time>
      </trkpt>
      <trkpt lat="59.230009" lon="18.123267">
        <ele>38</ele>
        <time>2020-02-09T06:19:21Z</time>
      </trkpt>
      <trkpt lat="59.230017" lon="18.123153">
        <ele>38</ele>
        <time>2020-02-09T06:19:22Z</time>
      </trkpt>
      <trkpt lat="59.230018" lon="18.123032">
        <ele>38</ele>
        <time>2020-02-09T06:19:23Z</time>
      </trkpt>
      <trkpt lat="59.23001" lon="18.122909">
        <ele>38</ele>
        <time>2020-02-09T06:19:24Z</time>
      </trkpt>
      <trkpt lat="59.229992" lon="18.122786">
        <ele>38</ele>
        <time>2020-02-09T06:19:25Z</time>
      </trkpt>
      <trkpt lat="59.229966" lon="18.122667">
        <ele>38</ele>
        <time>2020-02-09T06:19:26Z</time>
      </trkpt>
      <trkpt lat="59.229935" lon="18.122547">
        <ele>38</ele>
        <time>2020-02-09T06:19:27Z</time>
      </trkpt>
      <trkpt lat="59.229901" lon="18.122428">
        <ele>38</ele>
        <time>2020-02-09T06:19:28Z</time>
      </trkpt>
      <trkpt lat="59.229866" lon="18.12231">
        <ele>37</ele>
        <time>2020-02-09T06:19:29Z</time>
      </trkpt>
      <trkpt lat="59.229834" lon="18.122192">
        <ele>37</ele>
        <time>2020-02-09T06:19:30Z</time>
      </trkpt>
      <trkpt lat="59.229805" lon="18.122076">
        <ele>37</ele>
        <time>2020-02-09T06:19:31Z</time>
      </trkpt>
      <trkpt lat="59.229782" lon="18.121956">
        <ele>37</ele>
        <time>2020-02-09T06:19:32Z</time>
      </trkpt>
      <trkpt lat="59.229776" lon="18.121833">
        <ele>37</ele>
        <time>2020-02-09T06:19:33Z</time>
      </trkpt>
      <trkpt lat="59.22979" lon="18.121719">
        <ele>37</ele>
        <time>2020-02-09T06:19:34Z</time>
      </trkpt>
      <trkpt lat="59.229823" lon="18.121626">
        <ele>37</ele>
        <time>2020-02-09T06:19:35Z</time>
      </trkpt>
      <trkpt lat="59.229866" lon="18.12156">
        <ele>36</ele>
        <time>2020-02-09T06:19:36Z</time>
      </trkpt>
      <trkpt lat="59.229909" lon="18.121508">
        <ele>36</ele>
        <time>2020-02-09T06:19:37Z</time>
      </trkpt>
      <trkpt lat="59.229947" lon="18.121466">
        <ele>37</ele>
        <time>2020-02-09T06:19:38Z</time>
      </trkpt>
      <trkpt lat="59.229985" lon="18.121423">
        <ele>37</ele>
        <time>2020-02-09T06:19:39Z</time>
      </trkpt>
      <trkpt lat="59.230025" lon="18.121385">
        <ele>37</ele>
        <time>2020-02-09T06:19:40Z</time>
      </trkpt>
      <trkpt lat="59.229996" lon="18.121406">
        <ele>37</ele>
        <time>2020-02-09T06:19:41Z</time>
      </trkpt>
      <trkpt lat="59.230022" lon="18.121374">
        <ele>37</ele>
        <time>2020-02-09T06:19:44Z</time>
      </trkpt>
      <trkpt lat="59.230073" lon="18.121333">
        <ele>37</ele>
        <time>2020-02-09T06:19:45Z</time>
      </trkpt>
      <trkpt lat="59.230136" lon="18.12129">
        <ele>38</ele>
        <time>2020-02-09T06:19:46Z</time>
      </trkpt>
      <trkpt lat="59.230206" lon="18.121255">
        <ele>38</ele>
        <time>2020-02-09T06:19:47Z</time>
      </trkpt>
      <trkpt lat="59.230266" lon="18.121236">
        <ele>38</ele>
        <time>2020-02-09T06:19:48Z</time>
      </trkpt>
      <trkpt lat="59.230321" lon="18.121226">
        <ele>38</ele>
        <time>2020-02-09T06:19:49Z</time>
      </trkpt>
      <trkpt lat="59.230379" lon="18.121218">
        <ele>38</ele>
        <time>2020-02-09T06:19:50Z</time>
      </trkpt>
      <trkpt lat="59.230433" lon="18.121211">
        <ele>39</ele>
        <time>2020-02-09T06:19:51Z</time>
      </trkpt>
      <trkpt lat="59.230487" lon="18.1212">
        <ele>39</ele>
        <time>2020-02-09T06:19:52Z</time>
      </trkpt>
      <trkpt lat="59.230537" lon="18.121181">
        <ele>39</ele>
        <time>2020-02-09T06:19:53Z</time>
      </trkpt>
      <trkpt lat="59.230584" lon="18.121157">
        <ele>39</ele>
        <time>2020-02-09T06:19:54Z</time>
      </trkpt>
      <trkpt lat="59.230635" lon="18.121127">
        <ele>39</ele>
        <time>2020-02-09T06:19:55Z</time>
      </trkpt>
      <trkpt lat="59.230687" lon="18.121097">
        <ele>39</ele>
        <time>2020-02-09T06:19:56Z</time>
      </trkpt>
      <trkpt lat="59.23074" lon="18.121066">
        <ele>39</ele>
        <time>2020-02-09T06:19:57Z</time>
      </trkpt>
      <trkpt lat="59.230795" lon="18.121037">
        <ele>39</ele>
        <time>2020-02-09T06:19:58Z</time>
      </trkpt>
      <trkpt lat="59.230839" lon="18.121012">
        <ele>39</ele>
        <time>2020-02-09T06:19:59Z</time>
      </trkpt>
      <trkpt lat="59.230887" lon="18.120985">
        <ele>39</ele>
        <time>2020-02-09T06:20:00Z</time>
      </trkpt>
      <trkpt lat="59.23094" lon="18.12096">
        <ele>40</ele>
        <time>2020-02-09T06:20:01Z</time>
      </trkpt>
      <trkpt lat="59.230991" lon="18.12093">
        <ele>40</ele>
        <time>2020-02-09T06:20:02Z</time>
      </trkpt>
      <trkpt lat="59.231036" lon="18.120895">
        <ele>40</ele>
        <time>2020-02-09T06:20:03Z</time>
      </trkpt>
      <trkpt lat="59.231075" lon="18.120862">
        <ele>40</ele>
        <time>2020-02-09T06:20:04Z</time>
      </trkpt>
      <trkpt lat="59.231114" lon="18.12083">
        <ele>40</ele>
        <time>2020-02-09T06:20:05Z</time>
      </trkpt>
      <trkpt lat="59.231154" lon="18.120799">
        <ele>40</ele>
        <time>2020-02-09T06:20:06Z</time>
      </trkpt>
      <trkpt lat="59.2312" lon="18.120759">
        <ele>41</ele>
        <time>2020-02-09T06:20:07Z</time>
      </trkpt>
      <trkpt lat="59.231246" lon="18.120721">
        <ele>41</ele>
        <time>2020-02-09T06:20:08Z</time>
      </trkpt>
      <trkpt lat="59.231293" lon="18.120684">
        <ele>41</ele>
        <time>2020-02-09T06:20:09Z</time>
      </trkpt>
      <trkpt lat="59.23134" lon="18.120648">
        <ele>41</ele>
        <time>2020-02-09T06:20:10Z</time>
      </trkpt>
      <trkpt lat="59.231387" lon="18.12061">
        <ele>41</ele>
        <time>2020-02-09T06:20:11Z</time>
      </trkpt>
      <trkpt lat="59.231434" lon="18.120574">
        <ele>42</ele>
        <time>2020-02-09T06:20:12Z</time>
      </trkpt>
      <trkpt lat="59.231482" lon="18.120541">
        <ele>42</ele>
        <time>2020-02-09T06:20:13Z</time>
      </trkpt>
      <trkpt lat="59.231527" lon="18.120511">
        <ele>42</ele>
        <time>2020-02-09T06:20:14Z</time>
      </trkpt>
      <trkpt lat="59.231572" lon="18.120487">
        <ele>42</ele>
        <time>2020-02-09T06:20:15Z</time>
      </trkpt>
      <trkpt lat="59.231626" lon="18.120453">
        <ele>42</ele>
        <time>2020-02-09T06:20:16Z</time>
      </trkpt>
      <trkpt lat="59.23167" lon="18.120418">
        <ele>42</ele>
        <time>2020-02-09T06:20:17Z</time>
      </trkpt>
      <trkpt lat="59.23172" lon="18.12038">
        <ele>42</ele>
        <time>2020-02-09T06:20:18Z</time>
      </trkpt>
      <trkpt lat="59.23177" lon="18.12035">
        <ele>42</ele>
        <time>2020-02-09T06:20:19Z</time>
      </trkpt>
      <trkpt lat="59.231824" lon="18.120324">
        <ele>42</ele>
        <time>2020-02-09T06:20:20Z</time>
      </trkpt>
      <trkpt lat="59.231882" lon="18.120298">
        <ele>42</ele>
        <time>2020-02-09T06:20:21Z</time>
      </trkpt>
      <trkpt lat="59.231945" lon="18.120275">
        <ele>42</ele>
        <time>2020-02-09T06:20:22Z</time>
      </trkpt>
      <trkpt lat="59.23201" lon="18.120257">
        <ele>42</ele>
        <time>2020-02-09T06:20:23Z</time>
      </trkpt>
      <trkpt lat="59.232074" lon="18.120247">
        <ele>42</ele>
        <time>2020-02-09T06:20:24Z</time>
      </trkpt>
      <trkpt lat="59.232138" lon="18.12025">
        <ele>42</ele>
        <time>2020-02-09T06:20:25Z</time>
      </trkpt>
      <trkpt lat="59.2322" lon="18.120262">
        <ele>42</ele>
        <time>2020-02-09T06:20:26Z</time>
      </trkpt>
      <trkpt lat="59.232261" lon="18.120283">
        <ele>42</ele>
        <time>2020-02-09T06:20:27Z</time>
      </trkpt>
      <trkpt lat="59.232317" lon="18.120316">
        <ele>42</ele>
        <time>2020-02-09T06:20:28Z</time>
      </trkpt>
      <trkpt lat="59.232366" lon="18.120372">
        <ele>42</ele>
        <time>2020-02-09T06:20:29Z</time>
      </trkpt>
      <trkpt lat="59.232406" lon="18.120441">
        <ele>42</ele>
        <time>2020-02-09T06:20:30Z</time>
      </trkpt>
      <trkpt lat="59.232434" lon="18.120515">
        <ele>42</ele>
        <time>2020-02-09T06:20:31Z</time>
      </trkpt>
      <trkpt lat="59.232454" lon="18.120592">
        <ele>42</ele>
        <time>2020-02-09T06:20:32Z</time>
      </trkpt>
      <trkpt lat="59.23247" lon="18.120656">
        <ele>42</ele>
        <time>2020-02-09T06:20:33Z</time>
      </trkpt>
      <trkpt lat="59.232487" lon="18.120711">
        <ele>42</ele>
        <time>2020-02-09T06:20:34Z</time>
      </trkpt>
      <trkpt lat="59.232504" lon="18.120766">
        <ele>42</ele>
        <time>2020-02-09T06:20:35Z</time>
      </trkpt>
      <trkpt lat="59.232524" lon="18.120821">
        <ele>42</ele>
        <time>2020-02-09T06:20:36Z</time>
      </trkpt>
      <trkpt lat="59.232546" lon="18.120883">
        <ele>42</ele>
        <time>2020-02-09T06:20:37Z</time>
      </trkpt>
      <trkpt lat="59.232568" lon="18.120948">
        <ele>41</ele>
        <time>2020-02-09T06:20:38Z</time>
      </trkpt>
      <trkpt lat="59.232595" lon="18.12101">
        <ele>41</ele>
        <time>2020-02-09T06:20:39Z</time>
      </trkpt>
      <trkpt lat="59.23263" lon="18.121049">
        <ele>41</ele>
        <time>2020-02-09T06:20:40Z</time>
      </trkpt>
      <trkpt lat="59.232671" lon="18.121082">
        <ele>41</ele>
        <time>2020-02-09T06:20:41Z</time>
      </trkpt>
      <trkpt lat="59.232712" lon="18.121121">
        <ele>41</ele>
        <time>2020-02-09T06:20:42Z</time>
      </trkpt>
      <trkpt lat="59.23275" lon="18.121171">
        <ele>41</ele>
        <time>2020-02-09T06:20:43Z</time>
      </trkpt>
      <trkpt lat="59.232786" lon="18.121226">
        <ele>41</ele>
        <time>2020-02-09T06:20:44Z</time>
      </trkpt>
      <trkpt lat="59.232824" lon="18.121279">
        <ele>41</ele>
        <time>2020-02-09T06:20:45Z</time>
      </trkpt>
      <trkpt lat="59.23287" lon="18.121329">
        <ele>41</ele>
        <time>2020-02-09T06:20:46Z</time>
      </trkpt>
      <trkpt lat="59.232918" lon="18.121367">
        <ele>41</ele>
        <time>2020-02-09T06:20:47Z</time>
      </trkpt>
      <trkpt lat="59.232967" lon="18.12139">
        <ele>41</ele>
        <time>2020-02-09T06:20:48Z</time>
      </trkpt>
      <trkpt lat="59.23302" lon="18.121399">
        <ele>41</ele>
        <time>2020-02-09T06:20:49Z</time>
      </trkpt>
      <trkpt lat="59.233076" lon="18.121391">
        <ele>41</ele>
        <time>2020-02-09T06:20:50Z</time>
      </trkpt>
      <trkpt lat="59.233134" lon="18.121367">
        <ele>41</ele>
        <time>2020-02-09T06:20:51Z</time>
      </trkpt>
      <trkpt lat="59.233194" lon="18.121324">
        <ele>41</ele>
        <time>2020-02-09T06:20:52Z</time>
      </trkpt>
      <trkpt lat="59.233258" lon="18.121268">
        <ele>41</ele>
        <time>2020-02-09T06:20:53Z</time>
      </trkpt>
      <trkpt lat="59.233328" lon="18.12121">
        <ele>41</ele>
        <time>2020-02-09T06:20:54Z</time>
      </trkpt>
      <trkpt lat="59.233406" lon="18.121155">
        <ele>41</ele>
        <time>2020-02-09T06:20:55Z</time>
      </trkpt>
      <trkpt lat="59.233481" lon="18.121095">
        <ele>41</ele>
        <time>2020-02-09T06:20:56Z</time>
      </trkpt>
      <trkpt lat="59.23356" lon="18.121034">
        <ele>41</ele>
        <time>2020-02-09T06:20:57Z</time>
      </trkpt>
      <trkpt lat="59.23364" lon="18.120973">
        <ele>41</ele>
        <time>2020-02-09T06:20:58Z</time>
      </trkpt>
      <trkpt lat="59.233724" lon="18.120914">
        <ele>41</ele>
        <time>2020-02-09T06:20:59Z</time>
      </trkpt>
      <trkpt lat="59.233808" lon="18.120851">
        <ele>41</ele>
        <time>2020-02-09T06:21:00Z</time>
      </trkpt>
      <trkpt lat="59.233891" lon="18.120792">
        <ele>41</ele>
        <time>2020-02-09T06:21:01Z</time>
      </trkpt>
      <trkpt lat="59.233966" lon="18.120739">
        <ele>41</ele>
        <time>2020-02-09T06:21:02Z</time>
      </trkpt>
      <trkpt lat="59.23405" lon="18.120681">
        <ele>41</ele>
        <time>2020-02-09T06:21:03Z</time>
      </trkpt>
      <trkpt lat="59.234148" lon="18.120608">
        <ele>41</ele>
        <time>2020-02-09T06:21:04Z</time>
      </trkpt>
      <trkpt lat="59.234255" lon="18.120541">
        <ele>40</ele>
        <time>2020-02-09T06:21:05Z</time>
      </trkpt>
      <trkpt lat="59.234359" lon="18.120484">
        <ele>39</ele>
        <time>2020-02-09T06:21:06Z</time>
      </trkpt>
      <trkpt lat="59.234465" lon="18.120431">
        <ele>39</ele>
        <time>2020-02-09T06:21:07Z</time>
      </trkpt>
      <trkpt lat="59.234559" lon="18.120372">
        <ele>38</ele>
        <time>2020-02-09T06:21:08Z</time>
      </trkpt>
      <trkpt lat="59.234651" lon="18.120312">
        <ele>37</ele>
        <time>2020-02-09T06:21:09Z</time>
      </trkpt>
      <trkpt lat="59.234745" lon="18.120252">
        <ele>37</ele>
        <time>2020-02-09T06:21:10Z</time>
      </trkpt>
      <trkpt lat="59.234838" lon="18.120194">
        <ele>36</ele>
        <time>2020-02-09T06:21:11Z</time>
      </trkpt>
      <trkpt lat="59.23493" lon="18.120142">
        <ele>35</ele>
        <time>2020-02-09T06:21:12Z</time>
      </trkpt>
      <trkpt lat="59.235021" lon="18.120102">
        <ele>34</ele>
        <time>2020-02-09T06:21:13Z</time>
      </trkpt>
      <trkpt lat="59.23511" lon="18.120074">
        <ele>34</ele>
        <time>2020-02-09T06:21:14Z</time>
      </trkpt>
      <trkpt lat="59.235196" lon="18.120054">
        <ele>33</ele>
        <time>2020-02-09T06:21:15Z</time>
      </trkpt>
      <trkpt lat="59.23528" lon="18.120026">
        <ele>33</ele>
        <time>2020-02-09T06:21:16Z</time>
      </trkpt>
      <trkpt lat="59.235361" lon="18.119989">
        <ele>32</ele>
        <time>2020-02-09T06:21:17Z</time>
      </trkpt>
      <trkpt lat="59.235441" lon="18.119948">
        <ele>32</ele>
        <time>2020-02-09T06:21:18Z</time>
      </trkpt>
      <trkpt lat="59.235518" lon="18.119904">
        <ele>32</ele>
        <time>2020-02-09T06:21:19Z</time>
      </trkpt>
      <trkpt lat="59.235592" lon="18.119856">
        <ele>32</ele>
        <time>2020-02-09T06:21:20Z</time>
      </trkpt>
      <trkpt lat="59.235665" lon="18.119809">
        <ele>32</ele>
        <time>2020-02-09T06:21:21Z</time>
      </trkpt>
      <trkpt lat="59.235734" lon="18.119761">
        <ele>32</ele>
        <time>2020-02-09T06:21:22Z</time>
      </trkpt>
      <trkpt lat="59.235803" lon="18.119717">
        <ele>32</ele>
        <time>2020-02-09T06:21:23Z</time>
      </trkpt>
      <trkpt lat="59.235872" lon="18.119682">
        <ele>32</ele>
        <time>2020-02-09T06:21:24Z</time>
      </trkpt>
      <trkpt lat="59.235941" lon="18.119653">
        <ele>33</ele>
        <time>2020-02-09T06:21:25Z</time>
      </trkpt>
      <trkpt lat="59.236009" lon="18.119628">
        <ele>33</ele>
        <time>2020-02-09T06:21:26Z</time>
      </trkpt>
      <trkpt lat="59.236078" lon="18.119604">
        <ele>32</ele>
        <time>2020-02-09T06:21:27Z</time>
      </trkpt>
      <trkpt lat="59.236145" lon="18.119587">
        <ele>32</ele>
        <time>2020-02-09T06:21:28Z</time>
      </trkpt>
      <trkpt lat="59.236214" lon="18.119574">
        <ele>32</ele>
        <time>2020-02-09T06:21:29Z</time>
      </trkpt>
      <trkpt lat="59.236282" lon="18.119562">
        <ele>32</ele>
        <time>2020-02-09T06:21:30Z</time>
      </trkpt>
      <trkpt lat="59.236351" lon="18.11955">
        <ele>32</ele>
        <time>2020-02-09T06:21:31Z</time>
      </trkpt>
      <trkpt lat="59.236419" lon="18.11954">
        <ele>31</ele>
        <time>2020-02-09T06:21:32Z</time>
      </trkpt>
      <trkpt lat="59.236488" lon="18.119533">
        <ele>31</ele>
        <time>2020-02-09T06:21:33Z</time>
      </trkpt>
      <trkpt lat="59.236557" lon="18.11953">
        <ele>31</ele>
        <time>2020-02-09T06:21:34Z</time>
      </trkpt>
      <trkpt lat="59.236626" lon="18.11953">
        <ele>31</ele>
        <time>2020-02-09T06:21:35Z</time>
      </trkpt>
      <trkpt lat="59.236695" lon="18.119526">
        <ele>31</ele>
        <time>2020-02-09T06:21:36Z</time>
      </trkpt>
      <trkpt lat="59.236765" lon="18.119523">
        <ele>31</ele>
        <time>2020-02-09T06:21:37Z</time>
      </trkpt>
      <trkpt lat="59.236834" lon="18.119526">
        <ele>31</ele>
        <time>2020-02-09T06:21:38Z</time>
      </trkpt>
      <trkpt lat="59.236903" lon="18.119532">
        <ele>31</ele>
        <time>2020-02-09T06:21:39Z</time>
      </trkpt>
      <trkpt lat="59.236971" lon="18.11954">
        <ele>31</ele>
        <time>2020-02-09T06:21:40Z</time>
      </trkpt>
      <trkpt lat="59.23704" lon="18.11955">
        <ele>31</ele>
        <time>2020-02-09T06:21:41Z</time>
      </trkpt>
      <trkpt lat="59.237108" lon="18.119564">
        <ele>30</ele>
        <time>2020-02-09T06:21:42Z</time>
      </trkpt>
      <trkpt lat="59.237177" lon="18.119576">
        <ele>30</ele>
        <time>2020-02-09T06:21:43Z</time>
      </trkpt>
      <trkpt lat="59.237244" lon="18.119587">
        <ele>30</ele>
        <time>2020-02-09T06:21:44Z</time>
      </trkpt>
      <trkpt lat="59.237313" lon="18.119596">
        <ele>30</ele>
        <time>2020-02-09T06:21:45Z</time>
      </trkpt>
      <trkpt lat="59.237381" lon="18.119609">
        <ele>30</ele>
        <time>2020-02-09T06:21:46Z</time>
      </trkpt>
      <trkpt lat="59.237449" lon="18.11962">
        <ele>30</ele>
        <time>2020-02-09T06:21:47Z</time>
      </trkpt>
      <trkpt lat="59.237518" lon="18.11963">
        <ele>30</ele>
        <time>2020-02-09T06:21:48Z</time>
      </trkpt>
      <trkpt lat="59.237586" lon="18.119644">
        <ele>30</ele>
        <time>2020-02-09T06:21:49Z</time>
      </trkpt>
      <trkpt lat="59.237654" lon="18.119656">
        <ele>30</ele>
        <time>2020-02-09T06:21:50Z</time>
      </trkpt>
      <trkpt lat="59.237722" lon="18.119664">
        <ele>30</ele>
        <time>2020-02-09T06:21:51Z</time>
      </trkpt>
      <trkpt lat="59.23779" lon="18.119674">
        <ele>30</ele>
        <time>2020-02-09T06:21:52Z</time>
      </trkpt>
      <trkpt lat="59.237859" lon="18.119684">
        <ele>30</ele>
        <time>2020-02-09T06:21:53Z</time>
      </trkpt>
      <trkpt lat="59.237928" lon="18.119693">
        <ele>29</ele>
        <time>2020-02-09T06:21:54Z</time>
      </trkpt>
      <trkpt lat="59.237998" lon="18.119705">
        <ele>29</ele>
        <time>2020-02-09T06:21:55Z</time>
      </trkpt>
      <trkpt lat="59.238069" lon="18.119718">
        <ele>29</ele>
        <time>2020-02-09T06:21:56Z</time>
      </trkpt>
      <trkpt lat="59.23814" lon="18.119729">
        <ele>29</ele>
        <time>2020-02-09T06:21:57Z</time>
      </trkpt>
      <trkpt lat="59.238212" lon="18.119738">
        <ele>29</ele>
        <time>2020-02-09T06:21:58Z</time>
      </trkpt>
      <trkpt lat="59.238284" lon="18.11975">
        <ele>29</ele>
        <time>2020-02-09T06:21:59Z</time>
      </trkpt>
      <trkpt lat="59.238356" lon="18.119762">
        <ele>29</ele>
        <time>2020-02-09T06:22:00Z</time>
      </trkpt>
      <trkpt lat="59.23843" lon="18.119773">
        <ele>30</ele>
        <time>2020-02-09T06:22:01Z</time>
      </trkpt>
      <trkpt lat="59.238501" lon="18.119779">
        <ele>30</ele>
        <time>2020-02-09T06:22:02Z</time>
      </trkpt>
      <trkpt lat="59.238573" lon="18.119786">
        <ele>30</ele>
        <time>2020-02-09T06:22:03Z</time>
      </trkpt>
      <trkpt lat="59.238645" lon="18.119797">
        <ele>30</ele>
        <time>2020-02-09T06:22:04Z</time>
      </trkpt>
      <trkpt lat="59.238719" lon="18.119809">
        <ele>30</ele>
        <time>2020-02-09T06:22:05Z</time>
      </trkpt>
      <trkpt lat="59.238792" lon="18.119819">
        <ele>30</ele>
        <time>2020-02-09T06:22:06Z</time>
      </trkpt>
      <trkpt lat="59.238865" lon="18.119828">
        <ele>30</ele>
        <time>2020-02-09T06:22:07Z</time>
      </trkpt>
      <trkpt lat="59.238939" lon="18.119836">
        <ele>29</ele>
        <time>2020-02-09T06:22:08Z</time>
      </trkpt>
      <trkpt lat="59.239012" lon="18.119841">
        <ele>29</ele>
        <time>2020-02-09T06:22:09Z</time>
      </trkpt>
      <trkpt lat="59.239083" lon="18.119835">
        <ele>29</ele>
        <time>2020-02-09T06:22:10Z</time>
      </trkpt>
      <trkpt lat="59.239154" lon="18.119825">
        <ele>29</ele>
        <time>2020-02-09T06:22:11Z</time>
      </trkpt>
      <trkpt lat="59.239225" lon="18.119812">
        <ele>29</ele>
        <time>2020-02-09T06:22:12Z</time>
      </trkpt>
      <trkpt lat="59.239295" lon="18.119798">
        <ele>29</ele>
        <time>2020-02-09T06:22:13Z</time>
      </trkpt>
      <trkpt lat="59.239364" lon="18.11978">
        <ele>29</ele>
        <time>2020-02-09T06:22:14Z</time>
      </trkpt>
      <trkpt lat="59.239431" lon="18.119755">
        <ele>29</ele>
        <time>2020-02-09T06:22:15Z</time>
      </trkpt>
      <trkpt lat="59.239499" lon="18.119727">
        <ele>29</ele>
        <time>2020-02-09T06:22:16Z</time>
      </trkpt>
      <trkpt lat="59.239567" lon="18.1197">
        <ele>29</ele>
        <time>2020-02-09T06:22:17Z</time>
      </trkpt>
      <trkpt lat="59.239633" lon="18.119673">
        <ele>29</ele>
        <time>2020-02-09T06:22:18Z</time>
      </trkpt>
      <trkpt lat="59.2397" lon="18.119648">
        <ele>29</ele>
        <time>2020-02-09T06:22:19Z</time>
      </trkpt>
      <trkpt lat="59.239766" lon="18.119618">
        <ele>28</ele>
        <time>2020-02-09T06:22:20Z</time>
      </trkpt>
      <trkpt lat="59.239833" lon="18.11959">
        <ele>28</ele>
        <time>2020-02-09T06:22:21Z</time>
      </trkpt>
      <trkpt lat="59.2399" lon="18.119564">
        <ele>28</ele>
        <time>2020-02-09T06:22:22Z</time>
      </trkpt>
      <trkpt lat="59.239967" lon="18.11954">
        <ele>28</ele>
        <time>2020-02-09T06:22:23Z</time>
      </trkpt>
      <trkpt lat="59.240032" lon="18.119516">
        <ele>28</ele>
        <time>2020-02-09T06:22:24Z</time>
      </trkpt>
      <trkpt lat="59.240095" lon="18.119488">
        <ele>28</ele>
        <time>2020-02-09T06:22:25Z</time>
      </trkpt>
      <trkpt lat="59.240159" lon="18.119461">
        <ele>28</ele>
        <time>2020-02-09T06:22:26Z</time>
      </trkpt>
      <trkpt lat="59.240222" lon="18.119435">
        <ele>28</ele>
        <time>2020-02-09T06:22:27Z</time>
      </trkpt>
      <trkpt lat="59.240282" lon="18.119408">
        <ele>27</ele>
        <time>2020-02-09T06:22:28Z</time>
      </trkpt>
      <trkpt lat="59.240341" lon="18.119387">
        <ele>27</ele>
        <time>2020-02-09T06:22:29Z</time>
      </trkpt>
      <trkpt lat="59.240398" lon="18.119394">
        <ele>27</ele>
        <time>2020-02-09T06:22:30Z</time>
      </trkpt>
      <trkpt lat="59.240445" lon="18.119438">
        <ele>27</ele>
        <time>2020-02-09T06:22:31Z</time>
      </trkpt>
      <trkpt lat="59.240489" lon="18.1195">
        <ele>26</ele>
        <time>2020-02-09T06:22:32Z</time>
      </trkpt>
      <trkpt lat="59.240539" lon="18.119543">
        <ele>26</ele>
        <time>2020-02-09T06:22:33Z</time>
      </trkpt>
      <trkpt lat="59.240593" lon="18.119551">
        <ele>26</ele>
        <time>2020-02-09T06:22:34Z</time>
      </trkpt>
      <trkpt lat="59.24065" lon="18.119545">
        <ele>26</ele>
        <time>2020-02-09T06:22:35Z</time>
      </trkpt>
      <trkpt lat="59.240711" lon="18.119545">
        <ele>26</ele>
        <time>2020-02-09T06:22:36Z</time>
      </trkpt>
      <trkpt lat="59.240773" lon="18.119559">
        <ele>26</ele>
        <time>2020-02-09T06:22:37Z</time>
      </trkpt>
      <trkpt lat="59.240835" lon="18.119591">
        <ele>26</ele>
        <time>2020-02-09T06:22:38Z</time>
      </trkpt>
      <trkpt lat="59.240893" lon="18.119639">
        <ele>26</ele>
        <time>2020-02-09T06:22:39Z</time>
      </trkpt>
      <trkpt lat="59.240951" lon="18.119691">
        <ele>26</ele>
        <time>2020-02-09T06:22:40Z</time>
      </trkpt>
      <trkpt lat="59.241001" lon="18.119748">
        <ele>25</ele>
        <time>2020-02-09T06:22:41Z</time>
      </trkpt>
      <trkpt lat="59.241048" lon="18.119801">
        <ele>25</ele>
        <time>2020-02-09T06:22:42Z</time>
      </trkpt>
      <trkpt lat="59.241104" lon="18.119851">
        <ele>25</ele>
        <time>2020-02-09T06:22:43Z</time>
      </trkpt>
      <trkpt lat="59.241162" lon="18.119905">
        <ele>25</ele>
        <time>2020-02-09T06:22:45Z</time>
      </trkpt>
      <trkpt lat="59.241208" lon="18.119934">
        <ele>25</ele>
        <time>2020-02-09T06:22:45Z</time>
      </trkpt>
      <trkpt lat="59.241257" lon="18.119973">
        <ele>25</ele>
        <time>2020-02-09T06:22:46Z</time>
      </trkpt>
      <trkpt lat="59.241306" lon="18.120011">
        <ele>25</ele>
        <time>2020-02-09T06:22:47Z</time>
      </trkpt>
      <trkpt lat="59.241363" lon="18.120046">
        <ele>25</ele>
        <time>2020-02-09T06:22:48Z</time>
      </trkpt>
      <trkpt lat="59.241427" lon="18.120084">
        <ele>25</ele>
        <time>2020-02-09T06:22:49Z</time>
      </trkpt>
      <trkpt lat="59.241484" lon="18.120113">
        <ele>25</ele>
        <time>2020-02-09T06:22:50Z</time>
      </trkpt>
      <trkpt lat="59.241538" lon="18.120136">
        <ele>25</ele>
        <time>2020-02-09T06:22:51Z</time>
      </trkpt>
      <trkpt lat="59.241583" lon="18.120145">
        <ele>25</ele>
        <time>2020-02-09T06:22:52Z</time>
      </trkpt>
      <trkpt lat="59.241624" lon="18.120129">
        <ele>25</ele>
        <time>2020-02-09T06:22:53Z</time>
      </trkpt>
      <trkpt lat="59.241657" lon="18.120085">
        <ele>25</ele>
        <time>2020-02-09T06:22:54Z</time>
      </trkpt>
      <trkpt lat="59.241685" lon="18.120028">
        <ele>25</ele>
        <time>2020-02-09T06:22:55Z</time>
      </trkpt>
      <trkpt lat="59.24171" lon="18.11996">
        <ele>25</ele>
        <time>2020-02-09T06:22:56Z</time>
      </trkpt>
      <trkpt lat="59.241728" lon="18.119887">
        <ele>25</ele>
        <time>2020-02-09T06:22:57Z</time>
      </trkpt>
      <trkpt lat="59.241745" lon="18.119809">
        <ele>25</ele>
        <time>2020-02-09T06:22:58Z</time>
      </trkpt>
      <trkpt lat="59.241759" lon="18.119726">
        <ele>25</ele>
        <time>2020-02-09T06:22:59Z</time>
      </trkpt>
      <trkpt lat="59.241776" lon="18.119639">
        <ele>25</ele>
        <time>2020-02-09T06:23:00Z</time>
      </trkpt>
      <trkpt lat="59.241789" lon="18.11955">
        <ele>25</ele>
        <time>2020-02-09T06:23:01Z</time>
      </trkpt>
      <trkpt lat="59.241803" lon="18.119465">
        <ele>25</ele>
        <time>2020-02-09T06:23:02Z</time>
      </trkpt>
      <trkpt lat="59.24183" lon="18.119395">
        <ele>25</ele>
        <time>2020-02-09T06:23:03Z</time>
      </trkpt>
      <trkpt lat="59.241869" lon="18.119344">
        <ele>25</ele>
        <time>2020-02-09T06:23:04Z</time>
      </trkpt>
      <trkpt lat="59.241915" lon="18.119312">
        <ele>25</ele>
        <time>2020-02-09T06:23:05Z</time>
      </trkpt>
      <trkpt lat="59.241963" lon="18.119293">
        <ele>25</ele>
        <time>2020-02-09T06:23:06Z</time>
      </trkpt>
      <trkpt lat="59.242012" lon="18.119273">
        <ele>25</ele>
        <time>2020-02-09T06:23:07Z</time>
      </trkpt>
      <trkpt lat="59.242063" lon="18.11925">
        <ele>25</ele>
        <time>2020-02-09T06:23:08Z</time>
      </trkpt>
      <trkpt lat="59.242112" lon="18.119223">
        <ele>25</ele>
        <time>2020-02-09T06:23:09Z</time>
      </trkpt>
      <trkpt lat="59.242162" lon="18.119191">
        <ele>25</ele>
        <time>2020-02-09T06:23:10Z</time>
      </trkpt>
      <trkpt lat="59.242213" lon="18.119156">
        <ele>25</ele>
        <time>2020-02-09T06:23:11Z</time>
      </trkpt>
      <trkpt lat="59.242264" lon="18.119117">
        <ele>25</ele>
        <time>2020-02-09T06:23:12Z</time>
      </trkpt>
      <trkpt lat="59.242315" lon="18.119073">
        <ele>25</ele>
        <time>2020-02-09T06:23:13Z</time>
      </trkpt>
      <trkpt lat="59.242366" lon="18.119024">
        <ele>25</ele>
        <time>2020-02-09T06:23:14Z</time>
      </trkpt>
      <trkpt lat="59.242411" lon="18.118969">
        <ele>25</ele>
        <time>2020-02-09T06:23:15Z</time>
      </trkpt>
      <trkpt lat="59.242452" lon="18.118906">
        <ele>25</ele>
        <time>2020-02-09T06:23:16Z</time>
      </trkpt>
      <trkpt lat="59.242492" lon="18.118831">
        <ele>25</ele>
        <time>2020-02-09T06:23:17Z</time>
      </trkpt>
      <trkpt lat="59.242529" lon="18.118747">
        <ele>25</ele>
        <time>2020-02-09T06:23:18Z</time>
      </trkpt>
      <trkpt lat="59.242565" lon="18.118655">
        <ele>25</ele>
        <time>2020-02-09T06:23:19Z</time>
      </trkpt>
      <trkpt lat="59.242601" lon="18.118558">
        <ele>25</ele>
        <time>2020-02-09T06:23:20Z</time>
      </trkpt>
      <trkpt lat="59.242634" lon="18.118459">
        <ele>25</ele>
        <time>2020-02-09T06:23:21Z</time>
      </trkpt>
      <trkpt lat="59.242663" lon="18.118358">
        <ele>25</ele>
        <time>2020-02-09T06:23:22Z</time>
      </trkpt>
      <trkpt lat="59.242693" lon="18.118259">
        <ele>25</ele>
        <time>2020-02-09T06:23:23Z</time>
      </trkpt>
      <trkpt lat="59.242724" lon="18.118158">
        <ele>25</ele>
        <time>2020-02-09T06:23:24Z</time>
      </trkpt>
      <trkpt lat="59.242754" lon="18.118056">
        <ele>25</ele>
        <time>2020-02-09T06:23:25Z</time>
      </trkpt>
      <trkpt lat="59.242786" lon="18.117957">
        <ele>25</ele>
        <time>2020-02-09T06:23:26Z</time>
      </trkpt>
      <trkpt lat="59.242819" lon="18.117857">
        <ele>25</ele>
        <time>2020-02-09T06:23:27Z</time>
      </trkpt>
      <trkpt lat="59.242856" lon="18.117758">
        <ele>25</ele>
        <time>2020-02-09T06:23:28Z</time>
      </trkpt>
      <trkpt lat="59.242892" lon="18.11766">
        <ele>25</ele>
        <time>2020-02-09T06:23:29Z</time>
      </trkpt>
      <trkpt lat="59.242924" lon="18.117562">
        <ele>25</ele>
        <time>2020-02-09T06:23:30Z</time>
      </trkpt>
      <trkpt lat="59.242956" lon="18.117464">
        <ele>25</ele>
        <time>2020-02-09T06:23:31Z</time>
      </trkpt>
      <trkpt lat="59.242988" lon="18.117367">
        <ele>24</ele>
        <time>2020-02-09T06:23:32Z</time>
      </trkpt>
      <trkpt lat="59.243024" lon="18.117272">
        <ele>24</ele>
        <time>2020-02-09T06:23:33Z</time>
      </trkpt>
      <trkpt lat="59.243056" lon="18.117178">
        <ele>24</ele>
        <time>2020-02-09T06:23:34Z</time>
      </trkpt>
      <trkpt lat="59.243086" lon="18.117083">
        <ele>24</ele>
        <time>2020-02-09T06:23:35Z</time>
      </trkpt>
      <trkpt lat="59.243117" lon="18.116989">
        <ele>24</ele>
        <time>2020-02-09T06:23:36Z</time>
      </trkpt>
      <trkpt lat="59.243144" lon="18.116895">
        <ele>24</ele>
        <time>2020-02-09T06:23:37Z</time>
      </trkpt>
      <trkpt lat="59.243174" lon="18.116803">
        <ele>24</ele>
        <time>2020-02-09T06:23:38Z</time>
      </trkpt>
      <trkpt lat="59.243207" lon="18.116711">
        <ele>24</ele>
        <time>2020-02-09T06:23:39Z</time>
      </trkpt>
      <trkpt lat="59.243238" lon="18.11662">
        <ele>24</ele>
        <time>2020-02-09T06:23:40Z</time>
      </trkpt>
      <trkpt lat="59.24327" lon="18.116527">
        <ele>24</ele>
        <time>2020-02-09T06:23:41Z</time>
      </trkpt>
      <trkpt lat="59.243302" lon="18.116435">
        <ele>24</ele>
        <time>2020-02-09T06:23:42Z</time>
      </trkpt>
      <trkpt lat="59.243335" lon="18.116343">
        <ele>24</ele>
        <time>2020-02-09T06:23:43Z</time>
      </trkpt>
      <trkpt lat="59.243366" lon="18.116252">
        <ele>24</ele>
        <time>2020-02-09T06:23:44Z</time>
      </trkpt>
      <trkpt lat="59.243396" lon="18.116161">
        <ele>24</ele>
        <time>2020-02-09T06:23:45Z</time>
      </trkpt>
      <trkpt lat="59.243427" lon="18.11607">
        <ele>24</ele>
        <time>2020-02-09T06:23:46Z</time>
      </trkpt>
      <trkpt lat="59.243458" lon="18.115978">
        <ele>24</ele>
        <time>2020-02-09T06:23:47Z</time>
      </trkpt>
      <trkpt lat="59.243488" lon="18.115887">
        <ele>24</ele>
        <time>2020-02-09T06:23:48Z</time>
      </trkpt>
      <trkpt lat="59.243517" lon="18.115796">
        <ele>25</ele>
        <time>2020-02-09T06:23:49Z</time>
      </trkpt>
      <trkpt lat="59.243544" lon="18.115703">
        <ele>25</ele>
        <time>2020-02-09T06:23:50Z</time>
      </trkpt>
      <trkpt lat="59.243567" lon="18.115609">
        <ele>25</ele>
        <time>2020-02-09T06:23:51Z</time>
      </trkpt>
      <trkpt lat="59.243588" lon="18.115513">
        <ele>25</ele>
        <time>2020-02-09T06:23:52Z</time>
      </trkpt>
      <trkpt lat="59.243603" lon="18.115415">
        <ele>25</ele>
        <time>2020-02-09T06:23:53Z</time>
      </trkpt>
      <trkpt lat="59.243613" lon="18.115314">
        <ele>25</ele>
        <time>2020-02-09T06:23:54Z</time>
      </trkpt>
      <trkpt lat="59.243619" lon="18.115213">
        <ele>25</ele>
        <time>2020-02-09T06:23:55Z</time>
      </trkpt>
      <trkpt lat="59.243627" lon="18.115114">
        <ele>25</ele>
        <time>2020-02-09T06:23:56Z</time>
      </trkpt>
      <trkpt lat="59.243637" lon="18.115017">
        <ele>25</ele>
        <time>2020-02-09T06:23:57Z</time>
      </trkpt>
      <trkpt lat="59.243647" lon="18.114922">
        <ele>26</ele>
        <time>2020-02-09T06:23:58Z</time>
      </trkpt>
      <trkpt lat="59.24366" lon="18.114827">
        <ele>26</ele>
        <time>2020-02-09T06:23:59Z</time>
      </trkpt>
      <trkpt lat="59.243675" lon="18.114733">
        <ele>26</ele>
        <time>2020-02-09T06:24:00Z</time>
      </trkpt>
      <trkpt lat="59.243692" lon="18.11464">
        <ele>26</ele>
        <time>2020-02-09T06:24:01Z</time>
      </trkpt>
      <trkpt lat="59.243707" lon="18.114546">
        <ele>26</ele>
        <time>2020-02-09T06:24:02Z</time>
      </trkpt>
      <trkpt lat="59.243722" lon="18.11445">
        <ele>26</ele>
        <time>2020-02-09T06:24:03Z</time>
      </trkpt>
      <trkpt lat="59.243736" lon="18.114356">
        <ele>26</ele>
        <time>2020-02-09T06:24:04Z</time>
      </trkpt>
      <trkpt lat="59.243749" lon="18.11426">
        <ele>26</ele>
        <time>2020-02-09T06:24:05Z</time>
      </trkpt>
      <trkpt lat="59.243761" lon="18.114164">
        <ele>27</ele>
        <time>2020-02-09T06:24:06Z</time>
      </trkpt>
      <trkpt lat="59.243774" lon="18.114068">
        <ele>27</ele>
        <time>2020-02-09T06:24:07Z</time>
      </trkpt>
      <trkpt lat="59.243787" lon="18.113972">
        <ele>27</ele>
        <time>2020-02-09T06:24:08Z</time>
      </trkpt>
      <trkpt lat="59.243798" lon="18.113876">
        <ele>27</ele>
        <time>2020-02-09T06:24:09Z</time>
      </trkpt>
      <trkpt lat="59.243809" lon="18.11378">
        <ele>27</ele>
        <time>2020-02-09T06:24:10Z</time>
      </trkpt>
      <trkpt lat="59.243817" lon="18.113684">
        <ele>27</ele>
        <time>2020-02-09T06:24:11Z</time>
      </trkpt>
      <trkpt lat="59.243827" lon="18.113587">
        <ele>27</ele>
        <time>2020-02-09T06:24:12Z</time>
      </trkpt>
      <trkpt lat="59.243835" lon="18.11349">
        <ele>27</ele>
        <time>2020-02-09T06:24:13Z</time>
      </trkpt>
      <trkpt lat="59.243844" lon="18.113392">
        <ele>27</ele>
        <time>2020-02-09T06:24:14Z</time>
      </trkpt>
      <trkpt lat="59.243857" lon="18.113293">
        <ele>27</ele>
        <time>2020-02-09T06:24:15Z</time>
      </trkpt>
      <trkpt lat="59.243869" lon="18.113194">
        <ele>27</ele>
        <time>2020-02-09T06:24:16Z</time>
      </trkpt>
      <trkpt lat="59.243882" lon="18.113098">
        <ele>27</ele>
        <time>2020-02-09T06:24:17Z</time>
      </trkpt>
      <trkpt lat="59.243893" lon="18.113">
        <ele>27</ele>
        <time>2020-02-09T06:24:18Z</time>
      </trkpt>
      <trkpt lat="59.243901" lon="18.112903">
        <ele>27</ele>
        <time>2020-02-09T06:24:19Z</time>
      </trkpt>
      <trkpt lat="59.243906" lon="18.112806">
        <ele>27</ele>
        <time>2020-02-09T06:24:20Z</time>
      </trkpt>
      <trkpt lat="59.243911" lon="18.112709">
        <ele>27</ele>
        <time>2020-02-09T06:24:21Z</time>
      </trkpt>
      <trkpt lat="59.243914" lon="18.112612">
        <ele>27</ele>
        <time>2020-02-09T06:24:22Z</time>
      </trkpt>
      <trkpt lat="59.243915" lon="18.112514">
        <ele>27</ele>
        <time>2020-02-09T06:24:23Z</time>
      </trkpt>
      <trkpt lat="59.243918" lon="18.112418">
        <ele>27</ele>
        <time>2020-02-09T06:24:24Z</time>
      </trkpt>
      <trkpt lat="59.243923" lon="18.112322">
        <ele>27</ele>
        <time>2020-02-09T06:24:25Z</time>
      </trkpt>
      <trkpt lat="59.243926" lon="18.112228">
        <ele>27</ele>
        <time>2020-02-09T06:24:26Z</time>
      </trkpt>
      <trkpt lat="59.243927" lon="18.112134">
        <ele>27</ele>
        <time>2020-02-09T06:24:27Z</time>
      </trkpt>
      <trkpt lat="59.243928" lon="18.112042">
        <ele>27</ele>
        <time>2020-02-09T06:24:28Z</time>
      </trkpt>
      <trkpt lat="59.243929" lon="18.111952">
        <ele>27</ele>
        <time>2020-02-09T06:24:29Z</time>
      </trkpt>
      <trkpt lat="59.243931" lon="18.111862">
        <ele>27</ele>
        <time>2020-02-09T06:24:30Z</time>
      </trkpt>
      <trkpt lat="59.243933" lon="18.111776">
        <ele>27</ele>
        <time>2020-02-09T06:24:31Z</time>
      </trkpt>
      <trkpt lat="59.243935" lon="18.111692">
        <ele>27</ele>
        <time>2020-02-09T06:24:32Z</time>
      </trkpt>
      <trkpt lat="59.243936" lon="18.111608">
        <ele>27</ele>
        <time>2020-02-09T06:24:33Z</time>
      </trkpt>
      <trkpt lat="59.243937" lon="18.111526">
        <ele>27</ele>
        <time>2020-02-09T06:24:34Z</time>
      </trkpt>
      <trkpt lat="59.243937" lon="18.111444">
        <ele>27</ele>
        <time>2020-02-09T06:24:35Z</time>
      </trkpt>
      <trkpt lat="59.243936" lon="18.111364">
        <ele>27</ele>
        <time>2020-02-09T06:24:36Z</time>
      </trkpt>
      <trkpt lat="59.243936" lon="18.111284">
        <ele>27</ele>
        <time>2020-02-09T06:24:37Z</time>
      </trkpt>
      <trkpt lat="59.243938" lon="18.111206">
        <ele>28</ele>
        <time>2020-02-09T06:24:38Z</time>
      </trkpt>
      <trkpt lat="59.24394" lon="18.111128">
        <ele>28</ele>
        <time>2020-02-09T06:24:39Z</time>
      </trkpt>
      <trkpt lat="59.243942" lon="18.111049">
        <ele>28</ele>
        <time>2020-02-09T06:24:40Z</time>
      </trkpt>
      <trkpt lat="59.243943" lon="18.110972">
        <ele>28</ele>
        <time>2020-02-09T06:24:41Z</time>
      </trkpt>
      <trkpt lat="59.243944" lon="18.110896">
        <ele>28</ele>
        <time>2020-02-09T06:24:42Z</time>
      </trkpt>
      <trkpt lat="59.243944" lon="18.11082">
        <ele>28</ele>
        <time>2020-02-09T06:24:43Z</time>
      </trkpt>
      <trkpt lat="59.243945" lon="18.110744">
        <ele>28</ele>
        <time>2020-02-09T06:24:44Z</time>
      </trkpt>
      <trkpt lat="59.243946" lon="18.11067">
        <ele>28</ele>
        <time>2020-02-09T06:24:45Z</time>
      </trkpt>
      <trkpt lat="59.243946" lon="18.110596">
        <ele>28</ele>
        <time>2020-02-09T06:24:46Z</time>
      </trkpt>
      <trkpt lat="59.243946" lon="18.110524">
        <ele>28</ele>
        <time>2020-02-09T06:24:47Z</time>
      </trkpt>
      <trkpt lat="59.243947" lon="18.110452">
        <ele>28</ele>
        <time>2020-02-09T06:24:48Z</time>
      </trkpt>
      <trkpt lat="59.24395" lon="18.110382">
        <ele>28</ele>
        <time>2020-02-09T06:24:49Z</time>
      </trkpt>
      <trkpt lat="59.243951" lon="18.110312">
        <ele>29</ele>
        <time>2020-02-09T06:24:50Z</time>
      </trkpt>
      <trkpt lat="59.243951" lon="18.110242">
        <ele>29</ele>
        <time>2020-02-09T06:24:51Z</time>
      </trkpt>
      <trkpt lat="59.243953" lon="18.110172">
        <ele>29</ele>
        <time>2020-02-09T06:24:52Z</time>
      </trkpt>
      <trkpt lat="59.243955" lon="18.110102">
        <ele>29</ele>
        <time>2020-02-09T06:24:53Z</time>
      </trkpt>
      <trkpt lat="59.24396" lon="18.110031">
        <ele>29</ele>
        <time>2020-02-09T06:24:54Z</time>
      </trkpt>
      <trkpt lat="59.243962" lon="18.10996">
        <ele>29</ele>
        <time>2020-02-09T06:24:55Z</time>
      </trkpt>
      <trkpt lat="59.243965" lon="18.109886">
        <ele>29</ele>
        <time>2020-02-09T06:24:56Z</time>
      </trkpt>
      <trkpt lat="59.243971" lon="18.109813">
        <ele>30</ele>
        <time>2020-02-09T06:24:57Z</time>
      </trkpt>
      <trkpt lat="59.243979" lon="18.109738">
        <ele>30</ele>
        <time>2020-02-09T06:24:58Z</time>
      </trkpt>
      <trkpt lat="59.243989" lon="18.109665">
        <ele>30</ele>
        <time>2020-02-09T06:24:59Z</time>
      </trkpt>
      <trkpt lat="59.243999" lon="18.109592">
        <ele>30</ele>
        <time>2020-02-09T06:25:00Z</time>
      </trkpt>
      <trkpt lat="59.244011" lon="18.109518">
        <ele>30</ele>
        <time>2020-02-09T06:25:01Z</time>
      </trkpt>
      <trkpt lat="59.244024" lon="18.109447">
        <ele>30</ele>
        <time>2020-02-09T06:25:02Z</time>
      </trkpt>
      <trkpt lat="59.244036" lon="18.109376">
        <ele>30</ele>
        <time>2020-02-09T06:25:03Z</time>
      </trkpt>
      <trkpt lat="59.24405" lon="18.109306">
        <ele>30</ele>
        <time>2020-02-09T06:25:04Z</time>
      </trkpt>
      <trkpt lat="59.244066" lon="18.109239">
        <ele>30</ele>
        <time>2020-02-09T06:25:05Z</time>
      </trkpt>
      <trkpt lat="59.244084" lon="18.109173">
        <ele>30</ele>
        <time>2020-02-09T06:25:06Z</time>
      </trkpt>
      <trkpt lat="59.244103" lon="18.109111">
        <ele>30</ele>
        <time>2020-02-09T06:25:07Z</time>
      </trkpt>
      <trkpt lat="59.244125" lon="18.10905">
        <ele>30</ele>
        <time>2020-02-09T06:25:08Z</time>
      </trkpt>
      <trkpt lat="59.244148" lon="18.108991">
        <ele>30</ele>
        <time>2020-02-09T06:25:09Z</time>
      </trkpt>
      <trkpt lat="59.244172" lon="18.108933">
        <ele>30</ele>
        <time>2020-02-09T06:25:10Z</time>
      </trkpt>
      <trkpt lat="59.244198" lon="18.108875">
        <ele>31</ele>
        <time>2020-02-09T06:25:11Z</time>
      </trkpt>
      <trkpt lat="59.244225" lon="18.108818">
        <ele>31</ele>
        <time>2020-02-09T06:25:12Z</time>
      </trkpt>
      <trkpt lat="59.244253" lon="18.108764">
        <ele>31</ele>
        <time>2020-02-09T06:25:13Z</time>
      </trkpt>
      <trkpt lat="59.244281" lon="18.108708">
        <ele>31</ele>
        <time>2020-02-09T06:25:14Z</time>
      </trkpt>
      <trkpt lat="59.244313" lon="18.108651">
        <ele>30</ele>
        <time>2020-02-09T06:25:15Z</time>
      </trkpt>
      <trkpt lat="59.244343" lon="18.108593">
        <ele>30</ele>
        <time>2020-02-09T06:25:16Z</time>
      </trkpt>
      <trkpt lat="59.244372" lon="18.108537">
        <ele>30</ele>
        <time>2020-02-09T06:25:17Z</time>
      </trkpt>
      <trkpt lat="59.244403" lon="18.108481">
        <ele>30</ele>
        <time>2020-02-09T06:25:18Z</time>
      </trkpt>
      <trkpt lat="59.244435" lon="18.108426">
        <ele>30</ele>
        <time>2020-02-09T06:25:19Z</time>
      </trkpt>
      <trkpt lat="59.244465" lon="18.108371">
        <ele>30</ele>
        <time>2020-02-09T06:25:20Z</time>
      </trkpt>
      <trkpt lat="59.244499" lon="18.108315">
        <ele>30</ele>
        <time>2020-02-09T06:25:21Z</time>
      </trkpt>
      <trkpt lat="59.244532" lon="18.108257">
        <ele>30</ele>
        <time>2020-02-09T06:25:22Z</time>
      </trkpt>
      <trkpt lat="59.244564" lon="18.108196">
        <ele>30</ele>
        <time>2020-02-09T06:25:23Z</time>
      </trkpt>
      <trkpt lat="59.2446" lon="18.108135">
        <ele>30</ele>
        <time>2020-02-09T06:25:24Z</time>
      </trkpt>
      <trkpt lat="59.244634" lon="18.108073">
        <ele>30</ele>
        <time>2020-02-09T06:25:25Z</time>
      </trkpt>
      <trkpt lat="59.244668" lon="18.108012">
        <ele>30</ele>
        <time>2020-02-09T06:25:26Z</time>
      </trkpt>
      <trkpt lat="59.244698" lon="18.107951">
        <ele>30</ele>
        <time>2020-02-09T06:25:27Z</time>
      </trkpt>
      <trkpt lat="59.244727" lon="18.107891">
        <ele>30</ele>
        <time>2020-02-09T06:25:28Z</time>
      </trkpt>
      <trkpt lat="59.244761" lon="18.107827">
        <ele>30</ele>
        <time>2020-02-09T06:25:29Z</time>
      </trkpt>
      <trkpt lat="59.244794" lon="18.107766">
        <ele>30</ele>
        <time>2020-02-09T06:25:30Z</time>
      </trkpt>
      <trkpt lat="59.244825" lon="18.107708">
        <ele>30</ele>
        <time>2020-02-09T06:25:31Z</time>
      </trkpt>
      <trkpt lat="59.244855" lon="18.107649">
        <ele>30</ele>
        <time>2020-02-09T06:25:32Z</time>
      </trkpt>
      <trkpt lat="59.244885" lon="18.107587">
        <ele>30</ele>
        <time>2020-02-09T06:25:33Z</time>
      </trkpt>
      <trkpt lat="59.244915" lon="18.107527">
        <ele>30</ele>
        <time>2020-02-09T06:25:34Z</time>
      </trkpt>
      <trkpt lat="59.244948" lon="18.107469">
        <ele>30</ele>
        <time>2020-02-09T06:25:35Z</time>
      </trkpt>
      <trkpt lat="59.244984" lon="18.107408">
        <ele>30</ele>
        <time>2020-02-09T06:25:36Z</time>
      </trkpt>
      <trkpt lat="59.245019" lon="18.107346">
        <ele>30</ele>
        <time>2020-02-09T06:25:37Z</time>
      </trkpt>
      <trkpt lat="59.245057" lon="18.107282">
        <ele>30</ele>
        <time>2020-02-09T06:25:38Z</time>
      </trkpt>
      <trkpt lat="59.245097" lon="18.107214">
        <ele>30</ele>
        <time>2020-02-09T06:25:39Z</time>
      </trkpt>
      <trkpt lat="59.245137" lon="18.107142">
        <ele>30</ele>
        <time>2020-02-09T06:25:40Z</time>
      </trkpt>
      <trkpt lat="59.245177" lon="18.107068">
        <ele>30</ele>
        <time>2020-02-09T06:25:41Z</time>
      </trkpt>
      <trkpt lat="59.245219" lon="18.106991">
        <ele>30</ele>
        <time>2020-02-09T06:25:42Z</time>
      </trkpt>
      <trkpt lat="59.245265" lon="18.106914">
        <ele>30</ele>
        <time>2020-02-09T06:25:43Z</time>
      </trkpt>
      <trkpt lat="59.245314" lon="18.106835">
        <ele>30</ele>
        <time>2020-02-09T06:25:44Z</time>
      </trkpt>
      <trkpt lat="59.245362" lon="18.106753">
        <ele>30</ele>
        <time>2020-02-09T06:25:45Z</time>
      </trkpt>
      <trkpt lat="59.245408" lon="18.106669">
        <ele>30</ele>
        <time>2020-02-09T06:25:46Z</time>
      </trkpt>
      <trkpt lat="59.245453" lon="18.106584">
        <ele>30</ele>
        <time>2020-02-09T06:25:47Z</time>
      </trkpt>
      <trkpt lat="59.2455" lon="18.1065">
        <ele>30</ele>
        <time>2020-02-09T06:25:48Z</time>
      </trkpt>
      <trkpt lat="59.245548" lon="18.106418">
        <ele>30</ele>
        <time>2020-02-09T06:25:49Z</time>
      </trkpt>
      <trkpt lat="59.245597" lon="18.106334">
        <ele>29</ele>
        <time>2020-02-09T06:25:50Z</time>
      </trkpt>
      <trkpt lat="59.245649" lon="18.10625">
        <ele>29</ele>
        <time>2020-02-09T06:25:51Z</time>
      </trkpt>
      <trkpt lat="59.245702" lon="18.106167">
        <ele>29</ele>
        <time>2020-02-09T06:25:52Z</time>
      </trkpt>
      <trkpt lat="59.245756" lon="18.106086">
        <ele>29</ele>
        <time>2020-02-09T06:25:53Z</time>
      </trkpt>
      <trkpt lat="59.245812" lon="18.106003">
        <ele>29</ele>
        <time>2020-02-09T06:25:54Z</time>
      </trkpt>
      <trkpt lat="59.245868" lon="18.105917">
        <ele>29</ele>
        <time>2020-02-09T06:25:55Z</time>
      </trkpt>
      <trkpt lat="59.245924" lon="18.105829">
        <ele>29</ele>
        <time>2020-02-09T06:25:56Z</time>
      </trkpt>
      <trkpt lat="59.245981" lon="18.105742">
        <ele>29</ele>
        <time>2020-02-09T06:25:57Z</time>
      </trkpt>
      <trkpt lat="59.246038" lon="18.105658">
        <ele>29</ele>
        <time>2020-02-09T06:25:58Z</time>
      </trkpt>
      <trkpt lat="59.246094" lon="18.105572">
        <ele>29</ele>
        <time>2020-02-09T06:25:59Z</time>
      </trkpt>
      <trkpt lat="59.246154" lon="18.10549">
        <ele>28</ele>
        <time>2020-02-09T06:26:00Z</time>
      </trkpt>
      <trkpt lat="59.246218" lon="18.105422">
        <ele>28</ele>
        <time>2020-02-09T06:26:01Z</time>
      </trkpt>
      <trkpt lat="59.246291" lon="18.105375">
        <ele>28</ele>
        <time>2020-02-09T06:26:02Z</time>
      </trkpt>
      <trkpt lat="59.24637" lon="18.105348">
        <ele>28</ele>
        <time>2020-02-09T06:26:03Z</time>
      </trkpt>
      <trkpt lat="59.24645" lon="18.105327">
        <ele>28</ele>
        <time>2020-02-09T06:26:04Z</time>
      </trkpt>
      <trkpt lat="59.246525" lon="18.105298">
        <ele>27</ele>
        <time>2020-02-09T06:26:05Z</time>
      </trkpt>
      <trkpt lat="59.246597" lon="18.10524">
        <ele>27</ele>
        <time>2020-02-09T06:26:06Z</time>
      </trkpt>
      <trkpt lat="59.24667" lon="18.105154">
        <ele>27</ele>
        <time>2020-02-09T06:26:07Z</time>
      </trkpt>
      <trkpt lat="59.246745" lon="18.105061">
        <ele>27</ele>
        <time>2020-02-09T06:26:08Z</time>
      </trkpt>
      <trkpt lat="59.246818" lon="18.104968">
        <ele>27</ele>
        <time>2020-02-09T06:26:09Z</time>
      </trkpt>
      <trkpt lat="59.246885" lon="18.10488">
        <ele>27</ele>
        <time>2020-02-09T06:26:10Z</time>
      </trkpt>
      <trkpt lat="59.246939" lon="18.104787">
        <ele>27</ele>
        <time>2020-02-09T06:26:11Z</time>
      </trkpt>
      <trkpt lat="59.246974" lon="18.104686">
        <ele>27</ele>
        <time>2020-02-09T06:26:12Z</time>
      </trkpt>
      <trkpt lat="59.24698" lon="18.104574">
        <ele>27</ele>
        <time>2020-02-09T06:26:13Z</time>
      </trkpt>
      <trkpt lat="59.246977" lon="18.104458">
        <ele>27</ele>
        <time>2020-02-09T06:26:14Z</time>
      </trkpt>
      <trkpt lat="59.246966" lon="18.104348">
        <ele>27</ele>
        <time>2020-02-09T06:26:15Z</time>
      </trkpt>
      <trkpt lat="59.246957" lon="18.104228">
        <ele>27</ele>
        <time>2020-02-09T06:26:16Z</time>
      </trkpt>
      <trkpt lat="59.246959" lon="18.104107">
        <ele>27</ele>
        <time>2020-02-09T06:26:17Z</time>
      </trkpt>
      <trkpt lat="59.246976" lon="18.103992">
        <ele>27</ele>
        <time>2020-02-09T06:26:18Z</time>
      </trkpt>
      <trkpt lat="59.246991" lon="18.10389">
        <ele>27</ele>
        <time>2020-02-09T06:26:19Z</time>
      </trkpt>
      <trkpt lat="59.247015" lon="18.103794">
        <ele>28</ele>
        <time>2020-02-09T06:26:20Z</time>
      </trkpt>
      <trkpt lat="59.247041" lon="18.103708">
        <ele>28</ele>
        <time>2020-02-09T06:26:21Z</time>
      </trkpt>
      <trkpt lat="59.247069" lon="18.103632">
        <ele>28</ele>
        <time>2020-02-09T06:26:22Z</time>
      </trkpt>
      <trkpt lat="59.247099" lon="18.103564">
        <ele>28</ele>
        <time>2020-02-09T06:26:23Z</time>
      </trkpt>
      <trkpt lat="59.247128" lon="18.103499">
        <ele>28</ele>
        <time>2020-02-09T06:26:24Z</time>
      </trkpt>
      <trkpt lat="59.247158" lon="18.10344">
        <ele>28</ele>
        <time>2020-02-09T06:26:25Z</time>
      </trkpt>
      <trkpt lat="59.247191" lon="18.103385">
        <ele>28</ele>
        <time>2020-02-09T06:26:26Z</time>
      </trkpt>
      <trkpt lat="59.247224" lon="18.103336">
        <ele>28</ele>
        <time>2020-02-09T06:26:27Z</time>
      </trkpt>
      <trkpt lat="59.247259" lon="18.103288">
        <ele>28</ele>
        <time>2020-02-09T06:26:28Z</time>
      </trkpt>
      <trkpt lat="59.247294" lon="18.103236">
        <ele>28</ele>
        <time>2020-02-09T06:26:29Z</time>
      </trkpt>
      <trkpt lat="59.247329" lon="18.103181">
        <ele>29</ele>
        <time>2020-02-09T06:26:30Z</time>
      </trkpt>
      <trkpt lat="59.247363" lon="18.103124">
        <ele>29</ele>
        <time>2020-02-09T06:26:31Z</time>
      </trkpt>
      <trkpt lat="59.247394" lon="18.103074">
        <ele>29</ele>
        <time>2020-02-09T06:26:32Z</time>
      </trkpt>
      <trkpt lat="59.247425" lon="18.103022">
        <ele>29</ele>
        <time>2020-02-09T06:26:33Z</time>
      </trkpt>
      <trkpt lat="59.247454" lon="18.10296">
        <ele>29</ele>
        <time>2020-02-09T06:26:34Z</time>
      </trkpt>
      <trkpt lat="59.247482" lon="18.102894">
        <ele>29</ele>
        <time>2020-02-09T06:26:35Z</time>
      </trkpt>
      <trkpt lat="59.247504" lon="18.102821">
        <ele>29</ele>
        <time>2020-02-09T06:26:36Z</time>
      </trkpt>
      <trkpt lat="59.247525" lon="18.102744">
        <ele>29</ele>
        <time>2020-02-09T06:26:37Z</time>
      </trkpt>
      <trkpt lat="59.247546" lon="18.102664">
        <ele>29</ele>
        <time>2020-02-09T06:26:38Z</time>
      </trkpt>
      <trkpt lat="59.247566" lon="18.102581">
        <ele>30</ele>
        <time>2020-02-09T06:26:39Z</time>
      </trkpt>
      <trkpt lat="59.247584" lon="18.1025">
        <ele>30</ele>
        <time>2020-02-09T06:26:40Z</time>
      </trkpt>
      <trkpt lat="59.247604" lon="18.10242">
        <ele>30</ele>
        <time>2020-02-09T06:26:41Z</time>
      </trkpt>
      <trkpt lat="59.247626" lon="18.102332">
        <ele>30</ele>
        <time>2020-02-09T06:26:42Z</time>
      </trkpt>
      <trkpt lat="59.247648" lon="18.102237">
        <ele>30</ele>
        <time>2020-02-09T06:26:43Z</time>
      </trkpt>
      <trkpt lat="59.247668" lon="18.102148">
        <ele>30</ele>
        <time>2020-02-09T06:26:44Z</time>
      </trkpt>
      <trkpt lat="59.247692" lon="18.102056">
        <ele>31</ele>
        <time>2020-02-09T06:26:45Z</time>
      </trkpt>
      <trkpt lat="59.247716" lon="18.101968">
        <ele>31</ele>
        <time>2020-02-09T06:26:46Z</time>
      </trkpt>
      <trkpt lat="59.247739" lon="18.10188">
        <ele>31</ele>
        <time>2020-02-09T06:26:47Z</time>
      </trkpt>
      <trkpt lat="59.247762" lon="18.101788">
        <ele>32</ele>
        <time>2020-02-09T06:26:48Z</time>
      </trkpt>
      <trkpt lat="59.247785" lon="18.101695">
        <ele>32</ele>
        <time>2020-02-09T06:26:49Z</time>
      </trkpt>
      <trkpt lat="59.24781" lon="18.101608">
        <ele>32</ele>
        <time>2020-02-09T06:26:50Z</time>
      </trkpt>
      <trkpt lat="59.247836" lon="18.10152">
        <ele>32</ele>
        <time>2020-02-09T06:26:51Z</time>
      </trkpt>
      <trkpt lat="59.247863" lon="18.101434">
        <ele>32</ele>
        <time>2020-02-09T06:26:52Z</time>
      </trkpt>
      <trkpt lat="59.247887" lon="18.101348">
        <ele>32</ele>
        <time>2020-02-09T06:26:53Z</time>
      </trkpt>
      <trkpt lat="59.247913" lon="18.10126">
        <ele>32</ele>
        <time>2020-02-09T06:26:54Z</time>
      </trkpt>
      <trkpt lat="59.247946" lon="18.101168">
        <ele>32</ele>
        <time>2020-02-09T06:26:55Z</time>
      </trkpt>
      <trkpt lat="59.247981" lon="18.10108">
        <ele>32</ele>
        <time>2020-02-09T06:26:56Z</time>
      </trkpt>
      <trkpt lat="59.24801" lon="18.10099">
        <ele>32</ele>
        <time>2020-02-09T06:26:57Z</time>
      </trkpt>
      <trkpt lat="59.248039" lon="18.1009">
        <ele>32</ele>
        <time>2020-02-09T06:26:58Z</time>
      </trkpt>
      <trkpt lat="59.248074" lon="18.100814">
        <ele>32</ele>
        <time>2020-02-09T06:26:59Z</time>
      </trkpt>
      <trkpt lat="59.248117" lon="18.100737">
        <ele>31</ele>
        <time>2020-02-09T06:27:00Z</time>
      </trkpt>
      <trkpt lat="59.248172" lon="18.10067">
        <ele>31</ele>
        <time>2020-02-09T06:27:01Z</time>
      </trkpt>
      <trkpt lat="59.24823" lon="18.10061">
        <ele>31</ele>
        <time>2020-02-09T06:27:02Z</time>
      </trkpt>
      <trkpt lat="59.248288" lon="18.100555">
        <ele>31</ele>
        <time>2020-02-09T06:27:03Z</time>
      </trkpt>
      <trkpt lat="59.248349" lon="18.100503">
        <ele>31</ele>
        <time>2020-02-09T06:27:04Z</time>
      </trkpt>
      <trkpt lat="59.248411" lon="18.100447">
        <ele>31</ele>
        <time>2020-02-09T06:27:05Z</time>
      </trkpt>
      <trkpt lat="59.248471" lon="18.100387">
        <ele>31</ele>
        <time>2020-02-09T06:27:06Z</time>
      </trkpt>
      <trkpt lat="59.248527" lon="18.100325">
        <ele>30</ele>
        <time>2020-02-09T06:27:07Z</time>
      </trkpt>
      <trkpt lat="59.248576" lon="18.100257">
        <ele>30</ele>
        <time>2020-02-09T06:27:08Z</time>
      </trkpt>
      <trkpt lat="59.24862" lon="18.100187">
        <ele>30</ele>
        <time>2020-02-09T06:27:09Z</time>
      </trkpt>
      <trkpt lat="59.248667" lon="18.100114">
        <ele>30</ele>
        <time>2020-02-09T06:27:10Z</time>
      </trkpt>
      <trkpt lat="59.248718" lon="18.100041">
        <ele>30</ele>
        <time>2020-02-09T06:27:11Z</time>
      </trkpt>
      <trkpt lat="59.248769" lon="18.099968">
        <ele>30</ele>
        <time>2020-02-09T06:27:12Z</time>
      </trkpt>
      <trkpt lat="59.248824" lon="18.0999">
        <ele>30</ele>
        <time>2020-02-09T06:27:13Z</time>
      </trkpt>
      <trkpt lat="59.248881" lon="18.099837">
        <ele>30</ele>
        <time>2020-02-09T06:27:14Z</time>
      </trkpt>
      <trkpt lat="59.248944" lon="18.099779">
        <ele>29</ele>
        <time>2020-02-09T06:27:15Z</time>
      </trkpt>
      <trkpt lat="59.249007" lon="18.099723">
        <ele>29</ele>
        <time>2020-02-09T06:27:16Z</time>
      </trkpt>
      <trkpt lat="59.249072" lon="18.099674">
        <ele>29</ele>
        <time>2020-02-09T06:27:17Z</time>
      </trkpt>
      <trkpt lat="59.249136" lon="18.099633">
        <ele>29</ele>
        <time>2020-02-09T06:27:18Z</time>
      </trkpt>
      <trkpt lat="59.249201" lon="18.099599">
        <ele>29</ele>
        <time>2020-02-09T06:27:19Z</time>
      </trkpt>
      <trkpt lat="59.249268" lon="18.099568">
        <ele>29</ele>
        <time>2020-02-09T06:27:20Z</time>
      </trkpt>
      <trkpt lat="59.249335" lon="18.09954">
        <ele>29</ele>
        <time>2020-02-09T06:27:21Z</time>
      </trkpt>
      <trkpt lat="59.249403" lon="18.099511">
        <ele>29</ele>
        <time>2020-02-09T06:27:22Z</time>
      </trkpt>
      <trkpt lat="59.24947" lon="18.099482">
        <ele>29</ele>
        <time>2020-02-09T06:27:23Z</time>
      </trkpt>
      <trkpt lat="59.249539" lon="18.099458">
        <ele>29</ele>
        <time>2020-02-09T06:27:24Z</time>
      </trkpt>
      <trkpt lat="59.249608" lon="18.099445">
        <ele>29</ele>
        <time>2020-02-09T06:27:25Z</time>
      </trkpt>
      <trkpt lat="59.249675" lon="18.099449">
        <ele>29</ele>
        <time>2020-02-09T06:27:26Z</time>
      </trkpt>
      <trkpt lat="59.249739" lon="18.099466">
        <ele>29</ele>
        <time>2020-02-09T06:27:27Z</time>
      </trkpt>
      <trkpt lat="59.2498" lon="18.099492">
        <ele>29</ele>
        <time>2020-02-09T06:27:28Z</time>
      </trkpt>
      <trkpt lat="59.249855" lon="18.09952">
        <ele>29</ele>
        <time>2020-02-09T06:27:29Z</time>
      </trkpt>
      <trkpt lat="59.249909" lon="18.09955">
        <ele>29</ele>
        <time>2020-02-09T06:27:30Z</time>
      </trkpt>
      <trkpt lat="59.249962" lon="18.099577">
        <ele>29</ele>
        <time>2020-02-09T06:27:31Z</time>
      </trkpt>
      <trkpt lat="59.250015" lon="18.099604">
        <ele>29</ele>
        <time>2020-02-09T06:27:32Z</time>
      </trkpt>
      <trkpt lat="59.250067" lon="18.099625">
        <ele>29</ele>
        <time>2020-02-09T06:27:33Z</time>
      </trkpt>
      <trkpt lat="59.25012" lon="18.099647">
        <ele>29</ele>
        <time>2020-02-09T06:27:34Z</time>
      </trkpt>
      <trkpt lat="59.250171" lon="18.099669">
        <ele>29</ele>
        <time>2020-02-09T06:27:35Z</time>
      </trkpt>
      <trkpt lat="59.250221" lon="18.099691">
        <ele>29</ele>
        <time>2020-02-09T06:27:36Z</time>
      </trkpt>
      <trkpt lat="59.25027" lon="18.099716">
        <ele>29</ele>
        <time>2020-02-09T06:27:37Z</time>
      </trkpt>
      <trkpt lat="59.25032" lon="18.099743">
        <ele>29</ele>
        <time>2020-02-09T06:27:38Z</time>
      </trkpt>
      <trkpt lat="59.250369" lon="18.099771">
        <ele>29</ele>
        <time>2020-02-09T06:27:39Z</time>
      </trkpt>
      <trkpt lat="59.250416" lon="18.099801">
        <ele>29</ele>
        <time>2020-02-09T06:27:40Z</time>
      </trkpt>
      <trkpt lat="59.250462" lon="18.099836">
        <ele>29</ele>
        <time>2020-02-09T06:27:41Z</time>
      </trkpt>
      <trkpt lat="59.250506" lon="18.099878">
        <ele>29</ele>
        <time>2020-02-09T06:27:42Z</time>
      </trkpt>
      <trkpt lat="59.250546" lon="18.099932">
        <ele>29</ele>
        <time>2020-02-09T06:27:43Z</time>
      </trkpt>
      <trkpt lat="59.250584" lon="18.099988">
        <ele>29</ele>
        <time>2020-02-09T06:27:44Z</time>
      </trkpt>
      <trkpt lat="59.250622" lon="18.100046">
        <ele>29</ele>
        <time>2020-02-09T06:27:45Z</time>
      </trkpt>
      <trkpt lat="59.250659" lon="18.10011">
        <ele>29</ele>
        <time>2020-02-09T06:27:46Z</time>
      </trkpt>
      <trkpt lat="59.250694" lon="18.100181">
        <ele>29</ele>
        <time>2020-02-09T06:27:47Z</time>
      </trkpt>
      <trkpt lat="59.250727" lon="18.100259">
        <ele>29</ele>
        <time>2020-02-09T06:27:48Z</time>
      </trkpt>
      <trkpt lat="59.250761" lon="18.100341">
        <ele>29</ele>
        <time>2020-02-09T06:27:49Z</time>
      </trkpt>
      <trkpt lat="59.250796" lon="18.100425">
        <ele>29</ele>
        <time>2020-02-09T06:27:50Z</time>
      </trkpt>
      <trkpt lat="59.250836" lon="18.100504">
        <ele>29</ele>
        <time>2020-02-09T06:27:51Z</time>
      </trkpt>
      <trkpt lat="59.250881" lon="18.100582">
        <ele>28</ele>
        <time>2020-02-09T06:27:52Z</time>
      </trkpt>
      <trkpt lat="59.250928" lon="18.100653">
        <ele>28</ele>
        <time>2020-02-09T06:27:53Z</time>
      </trkpt>
      <trkpt lat="59.250978" lon="18.100717">
        <ele>28</ele>
        <time>2020-02-09T06:27:54Z</time>
      </trkpt>
      <trkpt lat="59.251032" lon="18.100773">
        <ele>28</ele>
        <time>2020-02-09T06:27:55Z</time>
      </trkpt>
      <trkpt lat="59.251089" lon="18.100819">
        <ele>28</ele>
        <time>2020-02-09T06:27:56Z</time>
      </trkpt>
      <trkpt lat="59.251148" lon="18.100861">
        <ele>28</ele>
        <time>2020-02-09T06:27:57Z</time>
      </trkpt>
      <trkpt lat="59.251209" lon="18.100903">
        <ele>27</ele>
        <time>2020-02-09T06:27:58Z</time>
      </trkpt>
      <trkpt lat="59.251273" lon="18.100938">
        <ele>27</ele>
        <time>2020-02-09T06:27:59Z</time>
      </trkpt>
      <trkpt lat="59.251342" lon="18.100958">
        <ele>27</ele>
        <time>2020-02-09T06:28:00Z</time>
      </trkpt>
      <trkpt lat="59.251414" lon="18.100959">
        <ele>27</ele>
        <time>2020-02-09T06:28:01Z</time>
      </trkpt>
      <trkpt lat="59.251485" lon="18.10094">
        <ele>27</ele>
        <time>2020-02-09T06:28:02Z</time>
      </trkpt>
      <trkpt lat="59.251557" lon="18.100905">
        <ele>27</ele>
        <time>2020-02-09T06:28:03Z</time>
      </trkpt>
      <trkpt lat="59.25163" lon="18.100863">
        <ele>27</ele>
        <time>2020-02-09T06:28:04Z</time>
      </trkpt>
      <trkpt lat="59.251702" lon="18.10082">
        <ele>27</ele>
        <time>2020-02-09T06:28:05Z</time>
      </trkpt>
      <trkpt lat="59.251777" lon="18.100774">
        <ele>27</ele>
        <time>2020-02-09T06:28:06Z</time>
      </trkpt>
      <trkpt lat="59.251853" lon="18.100724">
        <ele>26</ele>
        <time>2020-02-09T06:28:07Z</time>
      </trkpt>
      <trkpt lat="59.251931" lon="18.100672">
        <ele>26</ele>
        <time>2020-02-09T06:28:08Z</time>
      </trkpt>
      <trkpt lat="59.252011" lon="18.100618">
        <ele>25</ele>
        <time>2020-02-09T06:28:09Z</time>
      </trkpt>
      <trkpt lat="59.252094" lon="18.100564">
        <ele>25</ele>
        <time>2020-02-09T06:28:10Z</time>
      </trkpt>
      <trkpt lat="59.252177" lon="18.100511">
        <ele>25</ele>
        <time>2020-02-09T06:28:11Z</time>
      </trkpt>
      <trkpt lat="59.252261" lon="18.10046">
        <ele>24</ele>
        <time>2020-02-09T06:28:12Z</time>
      </trkpt>
      <trkpt lat="59.252345" lon="18.100408">
        <ele>24</ele>
        <time>2020-02-09T06:28:13Z</time>
      </trkpt>
      <trkpt lat="59.25243" lon="18.100359">
        <ele>24</ele>
        <time>2020-02-09T06:28:14Z</time>
      </trkpt>
      <trkpt lat="59.252516" lon="18.100313">
        <ele>23</ele>
        <time>2020-02-09T06:28:15Z</time>
      </trkpt>
      <trkpt lat="59.252601" lon="18.100272">
        <ele>23</ele>
        <time>2020-02-09T06:28:16Z</time>
      </trkpt>
      <trkpt lat="59.252684" lon="18.100236">
        <ele>23</ele>
        <time>2020-02-09T06:28:17Z</time>
      </trkpt>
      <trkpt lat="59.252765" lon="18.100208">
        <ele>23</ele>
        <time>2020-02-09T06:28:18Z</time>
      </trkpt>
      <trkpt lat="59.252845" lon="18.100186">
        <ele>23</ele>
        <time>2020-02-09T06:28:19Z</time>
      </trkpt>
      <trkpt lat="59.252924" lon="18.100166">
        <ele>24</ele>
        <time>2020-02-09T06:28:20Z</time>
      </trkpt>
      <trkpt lat="59.253001" lon="18.100156">
        <ele>24</ele>
        <time>2020-02-09T06:28:21Z</time>
      </trkpt>
      <trkpt lat="59.253076" lon="18.100157">
        <ele>24</ele>
        <time>2020-02-09T06:28:22Z</time>
      </trkpt>
      <trkpt lat="59.253149" lon="18.100168">
        <ele>24</ele>
        <time>2020-02-09T06:28:23Z</time>
      </trkpt>
      <trkpt lat="59.253218" lon="18.100194">
        <ele>24</ele>
        <time>2020-02-09T06:28:24Z</time>
      </trkpt>
      <trkpt lat="59.253283" lon="18.100237">
        <ele>24</ele>
        <time>2020-02-09T06:28:25Z</time>
      </trkpt>
      <trkpt lat="59.253346" lon="18.100284">
        <ele>24</ele>
        <time>2020-02-09T06:28:26Z</time>
      </trkpt>
      <trkpt lat="59.253408" lon="18.100334">
        <ele>24</ele>
        <time>2020-02-09T06:28:27Z</time>
      </trkpt>
      <trkpt lat="59.253473" lon="18.100383">
        <ele>24</ele>
        <time>2020-02-09T06:28:28Z</time>
      </trkpt>
      <trkpt lat="59.25354" lon="18.100429">
        <ele>24</ele>
        <time>2020-02-09T06:28:29Z</time>
      </trkpt>
      <trkpt lat="59.253604" lon="18.100468">
        <ele>24</ele>
        <time>2020-02-09T06:28:30Z</time>
      </trkpt>
      <trkpt lat="59.253669" lon="18.1005">
        <ele>24</ele>
        <time>2020-02-09T06:28:31Z</time>
      </trkpt>
      <trkpt lat="59.253734" lon="18.100528">
        <ele>24</ele>
        <time>2020-02-09T06:28:32Z</time>
      </trkpt>
      <trkpt lat="59.253799" lon="18.100554">
        <ele>24</ele>
        <time>2020-02-09T06:28:33Z</time>
      </trkpt>
      <trkpt lat="59.253863" lon="18.100579">
        <ele>24</ele>
        <time>2020-02-09T06:28:34Z</time>
      </trkpt>
      <trkpt lat="59.253926" lon="18.100601">
        <ele>24</ele>
        <time>2020-02-09T06:28:35Z</time>
      </trkpt>
      <trkpt lat="59.253989" lon="18.100618">
        <ele>24</ele>
        <time>2020-02-09T06:28:36Z</time>
      </trkpt>
      <trkpt lat="59.254054" lon="18.100629">
        <ele>24</ele>
        <time>2020-02-09T06:28:37Z</time>
      </trkpt>
      <trkpt lat="59.254115" lon="18.100632">
        <ele>24</ele>
        <time>2020-02-09T06:28:38Z</time>
      </trkpt>
      <trkpt lat="59.254176" lon="18.100635">
        <ele>24</ele>
        <time>2020-02-09T06:28:39Z</time>
      </trkpt>
      <trkpt lat="59.254237" lon="18.100646">
        <ele>24</ele>
        <time>2020-02-09T06:28:40Z</time>
      </trkpt>
      <trkpt lat="59.2543" lon="18.100666">
        <ele>24</ele>
        <time>2020-02-09T06:28:41Z</time>
      </trkpt>
      <trkpt lat="59.254366" lon="18.100692">
        <ele>24</ele>
        <time>2020-02-09T06:28:42Z</time>
      </trkpt>
      <trkpt lat="59.254431" lon="18.100717">
        <ele>24</ele>
        <time>2020-02-09T06:28:43Z</time>
      </trkpt>
      <trkpt lat="59.254498" lon="18.100744">
        <ele>24</ele>
        <time>2020-02-09T06:28:44Z</time>
      </trkpt>
      <trkpt lat="59.254564" lon="18.100769">
        <ele>24</ele>
        <time>2020-02-09T06:28:45Z</time>
      </trkpt>
      <trkpt lat="59.254631" lon="18.100791">
        <ele>24</ele>
        <time>2020-02-09T06:28:46Z</time>
      </trkpt>
      <trkpt lat="59.254695" lon="18.100807">
        <ele>25</ele>
        <time>2020-02-09T06:28:47Z</time>
      </trkpt>
      <trkpt lat="59.254756" lon="18.10082">
        <ele>25</ele>
        <time>2020-02-09T06:28:48Z</time>
      </trkpt>
      <trkpt lat="59.254818" lon="18.100834">
        <ele>24</ele>
        <time>2020-02-09T06:28:49Z</time>
      </trkpt>
      <trkpt lat="59.254885" lon="18.100853">
        <ele>24</ele>
        <time>2020-02-09T06:28:50Z</time>
      </trkpt>
      <trkpt lat="59.254943" lon="18.100865">
        <ele>25</ele>
        <time>2020-02-09T06:28:51Z</time>
      </trkpt>
      <trkpt lat="59.255005" lon="18.100876">
        <ele>25</ele>
        <time>2020-02-09T06:28:52Z</time>
      </trkpt>
      <trkpt lat="59.255069" lon="18.100887">
        <ele>25</ele>
        <time>2020-02-09T06:28:53Z</time>
      </trkpt>
      <trkpt lat="59.255132" lon="18.1009">
        <ele>25</ele>
        <time>2020-02-09T06:28:54Z</time>
      </trkpt>
      <trkpt lat="59.255195" lon="18.100911">
        <ele>25</ele>
        <time>2020-02-09T06:28:55Z</time>
      </trkpt>
      <trkpt lat="59.255255" lon="18.100921">
        <ele>25</ele>
        <time>2020-02-09T06:28:56Z</time>
      </trkpt>
      <trkpt lat="59.255319" lon="18.100934">
        <ele>25</ele>
        <time>2020-02-09T06:28:57Z</time>
      </trkpt>
      <trkpt lat="59.255388" lon="18.100951">
        <ele>25</ele>
        <time>2020-02-09T06:28:58Z</time>
      </trkpt>
      <trkpt lat="59.255455" lon="18.100967">
        <ele>25</ele>
        <time>2020-02-09T06:28:59Z</time>
      </trkpt>
      <trkpt lat="59.255523" lon="18.100984">
        <ele>25</ele>
        <time>2020-02-09T06:29:00Z</time>
      </trkpt>
      <trkpt lat="59.25559" lon="18.100999">
        <ele>25</ele>
        <time>2020-02-09T06:29:01Z</time>
      </trkpt>
      <trkpt lat="59.255655" lon="18.101013">
        <ele>25</ele>
        <time>2020-02-09T06:29:02Z</time>
      </trkpt>
      <trkpt lat="59.255724" lon="18.101027">
        <ele>25</ele>
        <time>2020-02-09T06:29:03Z</time>
      </trkpt>
      <trkpt lat="59.255792" lon="18.101041">
        <ele>25</ele>
        <time>2020-02-09T06:29:04Z</time>
      </trkpt>
      <trkpt lat="59.25586" lon="18.101055">
        <ele>25</ele>
        <time>2020-02-09T06:29:05Z</time>
      </trkpt>
      <trkpt lat="59.255928" lon="18.101065">
        <ele>25</ele>
        <time>2020-02-09T06:29:06Z</time>
      </trkpt>
      <trkpt lat="59.255994" lon="18.101074">
        <ele>25</ele>
        <time>2020-02-09T06:29:07Z</time>
      </trkpt>
      <trkpt lat="59.25606" lon="18.10108">
        <ele>25</ele>
        <time>2020-02-09T06:29:08Z</time>
      </trkpt>
      <trkpt lat="59.256126" lon="18.101084">
        <ele>25</ele>
        <time>2020-02-09T06:29:09Z</time>
      </trkpt>
      <trkpt lat="59.256193" lon="18.101087">
        <ele>25</ele>
        <time>2020-02-09T06:29:10Z</time>
      </trkpt>
      <trkpt lat="59.25626" lon="18.101091">
        <ele>25</ele>
        <time>2020-02-09T06:29:11Z</time>
      </trkpt>
      <trkpt lat="59.256325" lon="18.101096">
        <ele>25</ele>
        <time>2020-02-09T06:29:12Z</time>
      </trkpt>
      <trkpt lat="59.25639" lon="18.101101">
        <ele>25</ele>
        <time>2020-02-09T06:29:13Z</time>
      </trkpt>
      <trkpt lat="59.256452" lon="18.101105">
        <ele>25</ele>
        <time>2020-02-09T06:29:14Z</time>
      </trkpt>
      <trkpt lat="59.256511" lon="18.101106">
        <ele>25</ele>
        <time>2020-02-09T06:29:15Z</time>
      </trkpt>
      <trkpt lat="59.256573" lon="18.101111">
        <ele>25</ele>
        <time>2020-02-09T06:29:16Z</time>
      </trkpt>
      <trkpt lat="59.256632" lon="18.101113">
        <ele>25</ele>
        <time>2020-02-09T06:29:17Z</time>
      </trkpt>
      <trkpt lat="59.256692" lon="18.101109">
        <ele>25</ele>
        <time>2020-02-09T06:29:18Z</time>
      </trkpt>
      <trkpt lat="59.256754" lon="18.101102">
        <ele>25</ele>
        <time>2020-02-09T06:29:19Z</time>
      </trkpt>
      <trkpt lat="59.256816" lon="18.101096">
        <ele>25</ele>
        <time>2020-02-09T06:29:20Z</time>
      </trkpt>
      <trkpt lat="59.256875" lon="18.101093">
        <ele>26</ele>
        <time>2020-02-09T06:29:21Z</time>
      </trkpt>
      <trkpt lat="59.256932" lon="18.101085">
        <ele>26</ele>
        <time>2020-02-09T06:29:22Z</time>
      </trkpt>
      <trkpt lat="59.256975" lon="18.101045">
        <ele>26</ele>
        <time>2020-02-09T06:29:24Z</time>
      </trkpt>
      <trkpt lat="59.256996" lon="18.100975">
        <ele>26</ele>
        <time>2020-02-09T06:29:24Z</time>
      </trkpt>
      <trkpt lat="59.257023" lon="18.100883">
        <ele>26</ele>
        <time>2020-02-09T06:29:25Z</time>
      </trkpt>
      <trkpt lat="59.25705" lon="18.100781">
        <ele>26</ele>
        <time>2020-02-09T06:29:26Z</time>
      </trkpt>
      <trkpt lat="59.257077" lon="18.100682">
        <ele>26</ele>
        <time>2020-02-09T06:29:27Z</time>
      </trkpt>
      <trkpt lat="59.257102" lon="18.100585">
        <ele>26</ele>
        <time>2020-02-09T06:29:28Z</time>
      </trkpt>
      <trkpt lat="59.257204" lon="18.100299">
        <ele>26</ele>
        <time>2020-02-09T06:29:31Z</time>
      </trkpt>
      <trkpt lat="59.257186" lon="18.100001">
        <ele>26</ele>
        <time>2020-02-09T06:29:33Z</time>
      </trkpt>
      <trkpt lat="59.257288" lon="18.09978">
        <ele>26</ele>
        <time>2020-02-09T06:29:35Z</time>
      </trkpt>
      <trkpt lat="59.257389" lon="18.099595">
        <ele>26</ele>
        <time>2020-02-09T06:29:37Z</time>
      </trkpt>
      <trkpt lat="59.257454" lon="18.099426">
        <ele>27</ele>
        <time>2020-02-09T06:29:39Z</time>
      </trkpt>
      <trkpt lat="59.257492" lon="18.099355">
        <ele>27</ele>
        <time>2020-02-09T06:29:40Z</time>
      </trkpt>
      <trkpt lat="59.257532" lon="18.099308">
        <ele>27</ele>
        <time>2020-02-09T06:29:41Z</time>
      </trkpt>
      <trkpt lat="59.257574" lon="18.099264">
        <ele>27</ele>
        <time>2020-02-09T06:29:42Z</time>
      </trkpt>
      <trkpt lat="59.25762" lon="18.099229">
        <ele>28</ele>
        <time>2020-02-09T06:29:43Z</time>
      </trkpt>
      <trkpt lat="59.257662" lon="18.099204">
        <ele>28</ele>
        <time>2020-02-09T06:29:44Z</time>
      </trkpt>
      <trkpt lat="59.257703" lon="18.099181">
        <ele>28</ele>
        <time>2020-02-09T06:29:45Z</time>
      </trkpt>
      <trkpt lat="59.257746" lon="18.099172">
        <ele>28</ele>
        <time>2020-02-09T06:29:46Z</time>
      </trkpt>
      <trkpt lat="59.257792" lon="18.099175">
        <ele>28</ele>
        <time>2020-02-09T06:29:47Z</time>
      </trkpt>
      <trkpt lat="59.257835" lon="18.099181">
        <ele>29</ele>
        <time>2020-02-09T06:29:48Z</time>
      </trkpt>
      <trkpt lat="59.257879" lon="18.099191">
        <ele>29</ele>
        <time>2020-02-09T06:29:49Z</time>
      </trkpt>
      <trkpt lat="59.257923" lon="18.099202">
        <ele>29</ele>
        <time>2020-02-09T06:29:50Z</time>
      </trkpt>
      <trkpt lat="59.257962" lon="18.099214">
        <ele>29</ele>
        <time>2020-02-09T06:29:51Z</time>
      </trkpt>
      <trkpt lat="59.258002" lon="18.099219">
        <ele>30</ele>
        <time>2020-02-09T06:29:52Z</time>
      </trkpt>
      <trkpt lat="59.258042" lon="18.099218">
        <ele>30</ele>
        <time>2020-02-09T06:29:53Z</time>
      </trkpt>
      <trkpt lat="59.25809" lon="18.099216">
        <ele>30</ele>
        <time>2020-02-09T06:29:54Z</time>
      </trkpt>
      <trkpt lat="59.258143" lon="18.099213">
        <ele>30</ele>
        <time>2020-02-09T06:29:55Z</time>
      </trkpt>
      <trkpt lat="59.258192" lon="18.099208">
        <ele>30</ele>
        <time>2020-02-09T06:29:56Z</time>
      </trkpt>
      <trkpt lat="59.25824" lon="18.099204">
        <ele>30</ele>
        <time>2020-02-09T06:29:57Z</time>
      </trkpt>
      <trkpt lat="59.25829" lon="18.099205">
        <ele>31</ele>
        <time>2020-02-09T06:29:58Z</time>
      </trkpt>
      <trkpt lat="59.258339" lon="18.099204">
        <ele>31</ele>
        <time>2020-02-09T06:29:59Z</time>
      </trkpt>
      <trkpt lat="59.258388" lon="18.099205">
        <ele>31</ele>
        <time>2020-02-09T06:30:01Z</time>
      </trkpt>
      <trkpt lat="59.258441" lon="18.099207">
        <ele>31</ele>
        <time>2020-02-09T06:30:01Z</time>
      </trkpt>
      <trkpt lat="59.258495" lon="18.09921">
        <ele>32</ele>
        <time>2020-02-09T06:30:02Z</time>
      </trkpt>
      <trkpt lat="59.258549" lon="18.09921">
        <ele>32</ele>
        <time>2020-02-09T06:30:03Z</time>
      </trkpt>
      <trkpt lat="59.258608" lon="18.099209">
        <ele>32</ele>
        <time>2020-02-09T06:30:04Z</time>
      </trkpt>
      <trkpt lat="59.258668" lon="18.099206">
        <ele>32</ele>
        <time>2020-02-09T06:30:05Z</time>
      </trkpt>
      <trkpt lat="59.258729" lon="18.099202">
        <ele>32</ele>
        <time>2020-02-09T06:30:06Z</time>
      </trkpt>
      <trkpt lat="59.25879" lon="18.099198">
        <ele>32</ele>
        <time>2020-02-09T06:30:07Z</time>
      </trkpt>
      <trkpt lat="59.258848" lon="18.099197">
        <ele>32</ele>
        <time>2020-02-09T06:30:08Z</time>
      </trkpt>
      <trkpt lat="59.258906" lon="18.099197">
        <ele>32</ele>
        <time>2020-02-09T06:30:09Z</time>
      </trkpt>
      <trkpt lat="59.258964" lon="18.099195">
        <ele>32</ele>
        <time>2020-02-09T06:30:10Z</time>
      </trkpt>
      <trkpt lat="59.259023" lon="18.09919">
        <ele>32</ele>
        <time>2020-02-09T06:30:11Z</time>
      </trkpt>
      <trkpt lat="59.259084" lon="18.099187">
        <ele>32</ele>
        <time>2020-02-09T06:30:12Z</time>
      </trkpt>
      <trkpt lat="59.259145" lon="18.099181">
        <ele>32</ele>
        <time>2020-02-09T06:30:13Z</time>
      </trkpt>
      <trkpt lat="59.259209" lon="18.099167">
        <ele>32</ele>
        <time>2020-02-09T06:30:14Z</time>
      </trkpt>
      <trkpt lat="59.259271" lon="18.099143">
        <ele>32</ele>
        <time>2020-02-09T06:30:15Z</time>
      </trkpt>
      <trkpt lat="59.259331" lon="18.099103">
        <ele>32</ele>
        <time>2020-02-09T06:30:16Z</time>
      </trkpt>
      <trkpt lat="59.259389" lon="18.099054">
        <ele>31</ele>
        <time>2020-02-09T06:30:17Z</time>
      </trkpt>
      <trkpt lat="59.259442" lon="18.098989">
        <ele>31</ele>
        <time>2020-02-09T06:30:18Z</time>
      </trkpt>
      <trkpt lat="59.259491" lon="18.098913">
        <ele>31</ele>
        <time>2020-02-09T06:30:19Z</time>
      </trkpt>
      <trkpt lat="59.259533" lon="18.098824">
        <ele>31</ele>
        <time>2020-02-09T06:30:20Z</time>
      </trkpt>
      <trkpt lat="59.259569" lon="18.098726">
        <ele>31</ele>
        <time>2020-02-09T06:30:21Z</time>
      </trkpt>
      <trkpt lat="59.259597" lon="18.098622">
        <ele>31</ele>
        <time>2020-02-09T06:30:22Z</time>
      </trkpt>
      <trkpt lat="59.259621" lon="18.098514">
        <ele>31</ele>
        <time>2020-02-09T06:30:23Z</time>
      </trkpt>
      <trkpt lat="59.259632" lon="18.098401">
        <ele>31</ele>
        <time>2020-02-09T06:30:24Z</time>
      </trkpt>
      <trkpt lat="59.259643" lon="18.098283">
        <ele>31</ele>
        <time>2020-02-09T06:30:25Z</time>
      </trkpt>
      <trkpt lat="59.25965" lon="18.098167">
        <ele>31</ele>
        <time>2020-02-09T06:30:26Z</time>
      </trkpt>
      <trkpt lat="59.25966" lon="18.098055">
        <ele>31</ele>
        <time>2020-02-09T06:30:27Z</time>
      </trkpt>
      <trkpt lat="59.259672" lon="18.097946">
        <ele>31</ele>
        <time>2020-02-09T06:30:28Z</time>
      </trkpt>
      <trkpt lat="59.259681" lon="18.097837">
        <ele>31</ele>
        <time>2020-02-09T06:30:29Z</time>
      </trkpt>
      <trkpt lat="59.25969" lon="18.097731">
        <ele>31</ele>
        <time>2020-02-09T06:30:30Z</time>
      </trkpt>
      <trkpt lat="59.259701" lon="18.097628">
        <ele>31</ele>
        <time>2020-02-09T06:30:31Z</time>
      </trkpt>
      <trkpt lat="59.259714" lon="18.097529">
        <ele>31</ele>
        <time>2020-02-09T06:30:32Z</time>
      </trkpt>
      <trkpt lat="59.259732" lon="18.097432">
        <ele>31</ele>
        <time>2020-02-09T06:30:33Z</time>
      </trkpt>
      <trkpt lat="59.25975" lon="18.097335">
        <ele>31</ele>
        <time>2020-02-09T06:30:34Z</time>
      </trkpt>
      <trkpt lat="59.259776" lon="18.097241">
        <ele>31</ele>
        <time>2020-02-09T06:30:35Z</time>
      </trkpt>
      <trkpt lat="59.259803" lon="18.097147">
        <ele>30</ele>
        <time>2020-02-09T06:30:36Z</time>
      </trkpt>
      <trkpt lat="59.259842" lon="18.097067">
        <ele>30</ele>
        <time>2020-02-09T06:30:37Z</time>
      </trkpt>
      <trkpt lat="59.259891" lon="18.096997">
        <ele>29</ele>
        <time>2020-02-09T06:30:38Z</time>
      </trkpt>
      <trkpt lat="59.259942" lon="18.096932">
        <ele>29</ele>
        <time>2020-02-09T06:30:39Z</time>
      </trkpt>
      <trkpt lat="59.259997" lon="18.096868">
        <ele>28</ele>
        <time>2020-02-09T06:30:40Z</time>
      </trkpt>
      <trkpt lat="59.260055" lon="18.096808">
        <ele>28</ele>
        <time>2020-02-09T06:30:41Z</time>
      </trkpt>
      <trkpt lat="59.260119" lon="18.096757">
        <ele>28</ele>
        <time>2020-02-09T06:30:42Z</time>
      </trkpt>
      <trkpt lat="59.260184" lon="18.096712">
        <ele>28</ele>
        <time>2020-02-09T06:30:43Z</time>
      </trkpt>
      <trkpt lat="59.260247" lon="18.096676">
        <ele>28</ele>
        <time>2020-02-09T06:30:44Z</time>
      </trkpt>
      <trkpt lat="59.260311" lon="18.096637">
        <ele>28</ele>
        <time>2020-02-09T06:30:45Z</time>
      </trkpt>
      <trkpt lat="59.260453" lon="18.096543">
        <ele>28</ele>
        <time>2020-02-09T06:30:47Z</time>
      </trkpt>
      <trkpt lat="59.260587" lon="18.096511">
        <ele>28</ele>
        <time>2020-02-09T06:30:49Z</time>
      </trkpt>
      <trkpt lat="59.260705" lon="18.0965">
        <ele>28</ele>
        <time>2020-02-09T06:30:51Z</time>
      </trkpt>
      <trkpt lat="59.26076" lon="18.096494">
        <ele>28</ele>
        <time>2020-02-09T06:30:52Z</time>
      </trkpt>
      <trkpt lat="59.260811" lon="18.09648">
        <ele>29</ele>
        <time>2020-02-09T06:30:53Z</time>
      </trkpt>
      <trkpt lat="59.26086" lon="18.096472">
        <ele>29</ele>
        <time>2020-02-09T06:30:54Z</time>
      </trkpt>
      <trkpt lat="59.260907" lon="18.096465">
        <ele>29</ele>
        <time>2020-02-09T06:30:55Z</time>
      </trkpt>
      <trkpt lat="59.260953" lon="18.096465">
        <ele>29</ele>
        <time>2020-02-09T06:30:56Z</time>
      </trkpt>
      <trkpt lat="59.260999" lon="18.096472">
        <ele>29</ele>
        <time>2020-02-09T06:30:57Z</time>
      </trkpt>
      <trkpt lat="59.261046" lon="18.096485">
        <ele>29</ele>
        <time>2020-02-09T06:30:59Z</time>
      </trkpt>
      <trkpt lat="59.261093" lon="18.096501">
        <ele>29</ele>
        <time>2020-02-09T06:30:59Z</time>
      </trkpt>
      <trkpt lat="59.261142" lon="18.096521">
        <ele>29</ele>
        <time>2020-02-09T06:31:00Z</time>
      </trkpt>
      <trkpt lat="59.261191" lon="18.09655">
        <ele>29</ele>
        <time>2020-02-09T06:31:01Z</time>
      </trkpt>
      <trkpt lat="59.261241" lon="18.09659">
        <ele>29</ele>
        <time>2020-02-09T06:31:02Z</time>
      </trkpt>
      <trkpt lat="59.261292" lon="18.096641">
        <ele>29</ele>
        <time>2020-02-09T06:31:03Z</time>
      </trkpt>
      <trkpt lat="59.261345" lon="18.096695">
        <ele>29</ele>
        <time>2020-02-09T06:31:04Z</time>
      </trkpt>
      <trkpt lat="59.261397" lon="18.096754">
        <ele>29</ele>
        <time>2020-02-09T06:31:05Z</time>
      </trkpt>
      <trkpt lat="59.261449" lon="18.096818">
        <ele>28</ele>
        <time>2020-02-09T06:31:06Z</time>
      </trkpt>
      <trkpt lat="59.261499" lon="18.096886">
        <ele>28</ele>
        <time>2020-02-09T06:31:07Z</time>
      </trkpt>
      <trkpt lat="59.261547" lon="18.09696">
        <ele>28</ele>
        <time>2020-02-09T06:31:08Z</time>
      </trkpt>
      <trkpt lat="59.261594" lon="18.097038">
        <ele>28</ele>
        <time>2020-02-09T06:31:09Z</time>
      </trkpt>
      <trkpt lat="59.261641" lon="18.097116">
        <ele>28</ele>
        <time>2020-02-09T06:31:10Z</time>
      </trkpt>
      <trkpt lat="59.261687" lon="18.097195">
        <ele>28</ele>
        <time>2020-02-09T06:31:11Z</time>
      </trkpt>
      <trkpt lat="59.261733" lon="18.097275">
        <ele>28</ele>
        <time>2020-02-09T06:31:12Z</time>
      </trkpt>
      <trkpt lat="59.261778" lon="18.097355">
        <ele>28</ele>
        <time>2020-02-09T06:31:13Z</time>
      </trkpt>
      <trkpt lat="59.261824" lon="18.097432">
        <ele>28</ele>
        <time>2020-02-09T06:31:14Z</time>
      </trkpt>
      <trkpt lat="59.261871" lon="18.097507">
        <ele>28</ele>
        <time>2020-02-09T06:31:15Z</time>
      </trkpt>
      <trkpt lat="59.261918" lon="18.097582">
        <ele>28</ele>
        <time>2020-02-09T06:31:16Z</time>
      </trkpt>
      <trkpt lat="59.261965" lon="18.097657">
        <ele>28</ele>
        <time>2020-02-09T06:31:17Z</time>
      </trkpt>
      <trkpt lat="59.262014" lon="18.097731">
        <ele>28</ele>
        <time>2020-02-09T06:31:18Z</time>
      </trkpt>
      <trkpt lat="59.262063" lon="18.097805">
        <ele>28</ele>
        <time>2020-02-09T06:31:19Z</time>
      </trkpt>
      <trkpt lat="59.262113" lon="18.097881">
        <ele>28</ele>
        <time>2020-02-09T06:31:20Z</time>
      </trkpt>
      <trkpt lat="59.262163" lon="18.097953">
        <ele>28</ele>
        <time>2020-02-09T06:31:21Z</time>
      </trkpt>
      <trkpt lat="59.262213" lon="18.098019">
        <ele>28</ele>
        <time>2020-02-09T06:31:22Z</time>
      </trkpt>
      <trkpt lat="59.262264" lon="18.098076">
        <ele>28</ele>
        <time>2020-02-09T06:31:23Z</time>
      </trkpt>
      <trkpt lat="59.262318" lon="18.098121">
        <ele>29</ele>
        <time>2020-02-09T06:31:24Z</time>
      </trkpt>
      <trkpt lat="59.262375" lon="18.098152">
        <ele>29</ele>
        <time>2020-02-09T06:31:25Z</time>
      </trkpt>
      <trkpt lat="59.262432" lon="18.098173">
        <ele>29</ele>
        <time>2020-02-09T06:31:26Z</time>
      </trkpt>
      <trkpt lat="59.262488" lon="18.098185">
        <ele>29</ele>
        <time>2020-02-09T06:31:27Z</time>
      </trkpt>
      <trkpt lat="59.262544" lon="18.09819">
        <ele>29</ele>
        <time>2020-02-09T06:31:28Z</time>
      </trkpt>
      <trkpt lat="59.262599" lon="18.098191">
        <ele>29</ele>
        <time>2020-02-09T06:31:29Z</time>
      </trkpt>
      <trkpt lat="59.262652" lon="18.09819">
        <ele>29</ele>
        <time>2020-02-09T06:31:30Z</time>
      </trkpt>
      <trkpt lat="59.262703" lon="18.098187">
        <ele>30</ele>
        <time>2020-02-09T06:31:31Z</time>
      </trkpt>
      <trkpt lat="59.262754" lon="18.098185">
        <ele>30</ele>
        <time>2020-02-09T06:31:32Z</time>
      </trkpt>
      <trkpt lat="59.262803" lon="18.098183">
        <ele>30</ele>
        <time>2020-02-09T06:31:33Z</time>
      </trkpt>
      <trkpt lat="59.262852" lon="18.098178">
        <ele>30</ele>
        <time>2020-02-09T06:31:34Z</time>
      </trkpt>
      <trkpt lat="59.262901" lon="18.098175">
        <ele>31</ele>
        <time>2020-02-09T06:31:35Z</time>
      </trkpt>
      <trkpt lat="59.262949" lon="18.09817">
        <ele>31</ele>
        <time>2020-02-09T06:31:36Z</time>
      </trkpt>
      <trkpt lat="59.262994" lon="18.098164">
        <ele>31</ele>
        <time>2020-02-09T06:31:37Z</time>
      </trkpt>
      <trkpt lat="59.263036" lon="18.098155">
        <ele>31</ele>
        <time>2020-02-09T06:31:38Z</time>
      </trkpt>
      <trkpt lat="59.263082" lon="18.098146">
        <ele>31</ele>
        <time>2020-02-09T06:31:39Z</time>
      </trkpt>
      <trkpt lat="59.263123" lon="18.098135">
        <ele>32</ele>
        <time>2020-02-09T06:31:40Z</time>
      </trkpt>
      <trkpt lat="59.263167" lon="18.098128">
        <ele>32</ele>
        <time>2020-02-09T06:31:41Z</time>
      </trkpt>
      <trkpt lat="59.263212" lon="18.098119">
        <ele>32</ele>
        <time>2020-02-09T06:31:42Z</time>
      </trkpt>
      <trkpt lat="59.263257" lon="18.098104">
        <ele>32</ele>
        <time>2020-02-09T06:31:43Z</time>
      </trkpt>
      <trkpt lat="59.263308" lon="18.098088">
        <ele>32</ele>
        <time>2020-02-09T06:31:44Z</time>
      </trkpt>
      <trkpt lat="59.263359" lon="18.098073">
        <ele>32</ele>
        <time>2020-02-09T06:31:45Z</time>
      </trkpt>
      <trkpt lat="59.263406" lon="18.098061">
        <ele>33</ele>
        <time>2020-02-09T06:31:46Z</time>
      </trkpt>
      <trkpt lat="59.26345" lon="18.098047">
        <ele>33</ele>
        <time>2020-02-09T06:31:47Z</time>
      </trkpt>
      <trkpt lat="59.263492" lon="18.098034">
        <ele>33</ele>
        <time>2020-02-09T06:31:48Z</time>
      </trkpt>
      <trkpt lat="59.263533" lon="18.098021">
        <ele>33</ele>
        <time>2020-02-09T06:31:49Z</time>
      </trkpt>
      <trkpt lat="59.26357" lon="18.098014">
        <ele>33</ele>
        <time>2020-02-09T06:31:50Z</time>
      </trkpt>
      <trkpt lat="59.263613" lon="18.098002">
        <ele>34</ele>
        <time>2020-02-09T06:31:51Z</time>
      </trkpt>
      <trkpt lat="59.263656" lon="18.09799">
        <ele>34</ele>
        <time>2020-02-09T06:31:52Z</time>
      </trkpt>
      <trkpt lat="59.263698" lon="18.09798">
        <ele>34</ele>
        <time>2020-02-09T06:31:53Z</time>
      </trkpt>
      <trkpt lat="59.263741" lon="18.097968">
        <ele>34</ele>
        <time>2020-02-09T06:31:54Z</time>
      </trkpt>
      <trkpt lat="59.263779" lon="18.097954">
        <ele>34</ele>
        <time>2020-02-09T06:31:55Z</time>
      </trkpt>
      <trkpt lat="59.263815" lon="18.097938">
        <ele>35</ele>
        <time>2020-02-09T06:31:56Z</time>
      </trkpt>
      <trkpt lat="59.263854" lon="18.097922">
        <ele>35</ele>
        <time>2020-02-09T06:31:57Z</time>
      </trkpt>
      <trkpt lat="59.263892" lon="18.097907">
        <ele>35</ele>
        <time>2020-02-09T06:31:58Z</time>
      </trkpt>
      <trkpt lat="59.263932" lon="18.097894">
        <ele>35</ele>
        <time>2020-02-09T06:31:59Z</time>
      </trkpt>
      <trkpt lat="59.263972" lon="18.097884">
        <ele>35</ele>
        <time>2020-02-09T06:32:00Z</time>
      </trkpt>
      <trkpt lat="59.264015" lon="18.097872">
        <ele>35</ele>
        <time>2020-02-09T06:32:01Z</time>
      </trkpt>
      <trkpt lat="59.264055" lon="18.097859">
        <ele>35</ele>
        <time>2020-02-09T06:32:02Z</time>
      </trkpt>
      <trkpt lat="59.264093" lon="18.097841">
        <ele>36</ele>
        <time>2020-02-09T06:32:03Z</time>
      </trkpt>
      <trkpt lat="59.264133" lon="18.097821">
        <ele>36</ele>
        <time>2020-02-09T06:32:04Z</time>
      </trkpt>
      <trkpt lat="59.264176" lon="18.097802">
        <ele>36</ele>
        <time>2020-02-09T06:32:05Z</time>
      </trkpt>
      <trkpt lat="59.264217" lon="18.097782">
        <ele>36</ele>
        <time>2020-02-09T06:32:06Z</time>
      </trkpt>
      <trkpt lat="59.264262" lon="18.097762">
        <ele>36</ele>
        <time>2020-02-09T06:32:07Z</time>
      </trkpt>
      <trkpt lat="59.264308" lon="18.097743">
        <ele>36</ele>
        <time>2020-02-09T06:32:08Z</time>
      </trkpt>
      <trkpt lat="59.264355" lon="18.097724">
        <ele>36</ele>
        <time>2020-02-09T06:32:09Z</time>
      </trkpt>
      <trkpt lat="59.264401" lon="18.097702">
        <ele>36</ele>
        <time>2020-02-09T06:32:10Z</time>
      </trkpt>
      <trkpt lat="59.264448" lon="18.097679">
        <ele>36</ele>
        <time>2020-02-09T06:32:11Z</time>
      </trkpt>
      <trkpt lat="59.264499" lon="18.097655">
        <ele>37</ele>
        <time>2020-02-09T06:32:12Z</time>
      </trkpt>
      <trkpt lat="59.264553" lon="18.097627">
        <ele>37</ele>
        <time>2020-02-09T06:32:13Z</time>
      </trkpt>
      <trkpt lat="59.264608" lon="18.097602">
        <ele>37</ele>
        <time>2020-02-09T06:32:14Z</time>
      </trkpt>
      <trkpt lat="59.264668" lon="18.097577">
        <ele>37</ele>
        <time>2020-02-09T06:32:15Z</time>
      </trkpt>
      <trkpt lat="59.264729" lon="18.097551">
        <ele>37</ele>
        <time>2020-02-09T06:32:16Z</time>
      </trkpt>
      <trkpt lat="59.26479" lon="18.097525">
        <ele>37</ele>
        <time>2020-02-09T06:32:17Z</time>
      </trkpt>
      <trkpt lat="59.26485" lon="18.097496">
        <ele>37</ele>
        <time>2020-02-09T06:32:18Z</time>
      </trkpt>
      <trkpt lat="59.264911" lon="18.09746">
        <ele>37</ele>
        <time>2020-02-09T06:32:19Z</time>
      </trkpt>
      <trkpt lat="59.26497" lon="18.097423">
        <ele>37</ele>
        <time>2020-02-09T06:32:20Z</time>
      </trkpt>
      <trkpt lat="59.26504" lon="18.09739">
        <ele>37</ele>
        <time>2020-02-09T06:32:21Z</time>
      </trkpt>
      <trkpt lat="59.265108" lon="18.097357">
        <ele>37</ele>
        <time>2020-02-09T06:32:22Z</time>
      </trkpt>
      <trkpt lat="59.265172" lon="18.097326">
        <ele>37</ele>
        <time>2020-02-09T06:32:23Z</time>
      </trkpt>
      <trkpt lat="59.265233" lon="18.097312">
        <ele>37</ele>
        <time>2020-02-09T06:32:24Z</time>
      </trkpt>
      <trkpt lat="59.265289" lon="18.097335">
        <ele>37</ele>
        <time>2020-02-09T06:32:25Z</time>
      </trkpt>
      <trkpt lat="59.265328" lon="18.097401">
        <ele>37</ele>
        <time>2020-02-09T06:32:26Z</time>
      </trkpt>
      <trkpt lat="59.26535" lon="18.097483">
        <ele>38</ele>
        <time>2020-02-09T06:32:27Z</time>
      </trkpt>
      <trkpt lat="59.265368" lon="18.097566">
        <ele>38</ele>
        <time>2020-02-09T06:32:28Z</time>
      </trkpt>
      <trkpt lat="59.265382" lon="18.097664">
        <ele>37</ele>
        <time>2020-02-09T06:32:29Z</time>
      </trkpt>
      <trkpt lat="59.265378" lon="18.097893">
        <ele>37</ele>
        <time>2020-02-09T06:32:31Z</time>
      </trkpt>
      <trkpt lat="59.265363" lon="18.098131">
        <ele>38</ele>
        <time>2020-02-09T06:32:33Z</time>
      </trkpt>
      <trkpt lat="59.265486" lon="18.098176">
        <ele>38</ele>
        <time>2020-02-09T06:32:35Z</time>
      </trkpt>
      <trkpt lat="59.26561" lon="18.09814">
        <ele>38</ele>
        <time>2020-02-09T06:32:37Z</time>
      </trkpt>
      <trkpt lat="59.265659" lon="18.098111">
        <ele>38</ele>
        <time>2020-02-09T06:32:38Z</time>
      </trkpt>
      <trkpt lat="59.265761" lon="18.098053">
        <ele>38</ele>
        <time>2020-02-09T06:32:40Z</time>
      </trkpt>
      <trkpt lat="59.265802" lon="18.098023">
        <ele>38</ele>
        <time>2020-02-09T06:32:41Z</time>
      </trkpt>
      <trkpt lat="59.265844" lon="18.097994">
        <ele>38</ele>
        <time>2020-02-09T06:32:42Z</time>
      </trkpt>
      <trkpt lat="59.265881" lon="18.097965">
        <ele>38</ele>
        <time>2020-02-09T06:32:43Z</time>
      </trkpt>
      <trkpt lat="59.265918" lon="18.097936">
        <ele>38</ele>
        <time>2020-02-09T06:32:44Z</time>
      </trkpt>
      <trkpt lat="59.265956" lon="18.097909">
        <ele>38</ele>
        <time>2020-02-09T06:32:45Z</time>
      </trkpt>
      <trkpt lat="59.265994" lon="18.097881">
        <ele>38</ele>
        <time>2020-02-09T06:32:46Z</time>
      </trkpt>
      <trkpt lat="59.266031" lon="18.097853">
        <ele>38</ele>
        <time>2020-02-09T06:32:47Z</time>
      </trkpt>
      <trkpt lat="59.266068" lon="18.097832">
        <ele>38</ele>
        <time>2020-02-09T06:32:48Z</time>
      </trkpt>
      <trkpt lat="59.266102" lon="18.097836">
        <ele>38</ele>
        <time>2020-02-09T06:32:49Z</time>
      </trkpt>
      <trkpt lat="59.266128" lon="18.097869">
        <ele>39</ele>
        <time>2020-02-09T06:32:51Z</time>
      </trkpt>
      <trkpt lat="59.266146" lon="18.097921">
        <ele>39</ele>
        <time>2020-02-09T06:32:51Z</time>
      </trkpt>
      <trkpt lat="59.266163" lon="18.097979">
        <ele>39</ele>
        <time>2020-02-09T06:32:52Z</time>
      </trkpt>
      <trkpt lat="59.266187" lon="18.09802">
        <ele>39</ele>
        <time>2020-02-09T06:32:53Z</time>
      </trkpt>
      <trkpt lat="59.266219" lon="18.098031">
        <ele>39</ele>
        <time>2020-02-09T06:32:54Z</time>
      </trkpt>
      <trkpt lat="59.266257" lon="18.098017">
        <ele>39</ele>
        <time>2020-02-09T06:32:55Z</time>
      </trkpt>
      <trkpt lat="59.266295" lon="18.097993">
        <ele>39</ele>
        <time>2020-02-09T06:32:56Z</time>
      </trkpt>
      <trkpt lat="59.266337" lon="18.097973">
        <ele>39</ele>
        <time>2020-02-09T06:32:57Z</time>
      </trkpt>
      <trkpt lat="59.26638" lon="18.097957">
        <ele>39</ele>
        <time>2020-02-09T06:32:58Z</time>
      </trkpt>
      <trkpt lat="59.266425" lon="18.097947">
        <ele>39</ele>
        <time>2020-02-09T06:32:59Z</time>
      </trkpt>
      <trkpt lat="59.266466" lon="18.097929">
        <ele>39</ele>
        <time>2020-02-09T06:33:00Z</time>
      </trkpt>
      <trkpt lat="59.266511" lon="18.097906">
        <ele>39</ele>
        <time>2020-02-09T06:33:01Z</time>
      </trkpt>
      <trkpt lat="59.266558" lon="18.097881">
        <ele>39</ele>
        <time>2020-02-09T06:33:02Z</time>
      </trkpt>
      <trkpt lat="59.266605" lon="18.097855">
        <ele>39</ele>
        <time>2020-02-09T06:33:03Z</time>
      </trkpt>
      <trkpt lat="59.266653" lon="18.097828">
        <ele>39</ele>
        <time>2020-02-09T06:33:04Z</time>
      </trkpt>
      <trkpt lat="59.266697" lon="18.097799">
        <ele>40</ele>
        <time>2020-02-09T06:33:05Z</time>
      </trkpt>
      <trkpt lat="59.266738" lon="18.097767">
        <ele>40</ele>
        <time>2020-02-09T06:33:06Z</time>
      </trkpt>
      <trkpt lat="59.266783" lon="18.097737">
        <ele>40</ele>
        <time>2020-02-09T06:33:07Z</time>
      </trkpt>
      <trkpt lat="59.266824" lon="18.097704">
        <ele>40</ele>
        <time>2020-02-09T06:33:08Z</time>
      </trkpt>
      <trkpt lat="59.266867" lon="18.097669">
        <ele>40</ele>
        <time>2020-02-09T06:33:09Z</time>
      </trkpt>
      <trkpt lat="59.266911" lon="18.097633">
        <ele>40</ele>
        <time>2020-02-09T06:33:10Z</time>
      </trkpt>
      <trkpt lat="59.266957" lon="18.097596">
        <ele>40</ele>
        <time>2020-02-09T06:33:11Z</time>
      </trkpt>
      <trkpt lat="59.267004" lon="18.097561">
        <ele>41</ele>
        <time>2020-02-09T06:33:12Z</time>
      </trkpt>
      <trkpt lat="59.267052" lon="18.097526">
        <ele>41</ele>
        <time>2020-02-09T06:33:13Z</time>
      </trkpt>
      <trkpt lat="59.2671" lon="18.097495">
        <ele>41</ele>
        <time>2020-02-09T06:33:14Z</time>
      </trkpt>
      <trkpt lat="59.267148" lon="18.09746">
        <ele>41</ele>
        <time>2020-02-09T06:33:15Z</time>
      </trkpt>
      <trkpt lat="59.267205" lon="18.097425">
        <ele>41</ele>
        <time>2020-02-09T06:33:16Z</time>
      </trkpt>
      <trkpt lat="59.267265" lon="18.097388">
        <ele>41</ele>
        <time>2020-02-09T06:33:17Z</time>
      </trkpt>
      <trkpt lat="59.267323" lon="18.097349">
        <ele>41</ele>
        <time>2020-02-09T06:33:18Z</time>
      </trkpt>
      <trkpt lat="59.267383" lon="18.097308">
        <ele>40</ele>
        <time>2020-02-09T06:33:19Z</time>
      </trkpt>
      <trkpt lat="59.267447" lon="18.097274">
        <ele>40</ele>
        <time>2020-02-09T06:33:20Z</time>
      </trkpt>
      <trkpt lat="59.267507" lon="18.097239">
        <ele>40</ele>
        <time>2020-02-09T06:33:21Z</time>
      </trkpt>
      <trkpt lat="59.267566" lon="18.097204">
        <ele>40</ele>
        <time>2020-02-09T06:33:22Z</time>
      </trkpt>
      <trkpt lat="59.267624" lon="18.09717">
        <ele>40</ele>
        <time>2020-02-09T06:33:23Z</time>
      </trkpt>
      <trkpt lat="59.26768" lon="18.097137">
        <ele>40</ele>
        <time>2020-02-09T06:33:24Z</time>
      </trkpt>
      <trkpt lat="59.267736" lon="18.097105">
        <ele>40</ele>
        <time>2020-02-09T06:33:25Z</time>
      </trkpt>
      <trkpt lat="59.267796" lon="18.097077">
        <ele>40</ele>
        <time>2020-02-09T06:33:26Z</time>
      </trkpt>
      <trkpt lat="59.267852" lon="18.097052">
        <ele>40</ele>
        <time>2020-02-09T06:33:27Z</time>
      </trkpt>
      <trkpt lat="59.267905" lon="18.097027">
        <ele>40</ele>
        <time>2020-02-09T06:33:28Z</time>
      </trkpt>
      <trkpt lat="59.267957" lon="18.097005">
        <ele>40</ele>
        <time>2020-02-09T06:33:29Z</time>
      </trkpt>
      <trkpt lat="59.26801" lon="18.096982">
        <ele>40</ele>
        <time>2020-02-09T06:33:30Z</time>
      </trkpt>
      <trkpt lat="59.268058" lon="18.096957">
        <ele>40</ele>
        <time>2020-02-09T06:33:31Z</time>
      </trkpt>
      <trkpt lat="59.268106" lon="18.096924">
        <ele>40</ele>
        <time>2020-02-09T06:33:32Z</time>
      </trkpt>
      <trkpt lat="59.268155" lon="18.096891">
        <ele>40</ele>
        <time>2020-02-09T06:33:33Z</time>
      </trkpt>
      <trkpt lat="59.268203" lon="18.09686">
        <ele>40</ele>
        <time>2020-02-09T06:33:34Z</time>
      </trkpt>
      <trkpt lat="59.268252" lon="18.096825">
        <ele>40</ele>
        <time>2020-02-09T06:33:35Z</time>
      </trkpt>
      <trkpt lat="59.268302" lon="18.096787">
        <ele>40</ele>
        <time>2020-02-09T06:33:36Z</time>
      </trkpt>
      <trkpt lat="59.268351" lon="18.096745">
        <ele>40</ele>
        <time>2020-02-09T06:33:37Z</time>
      </trkpt>
      <trkpt lat="59.268403" lon="18.096707">
        <ele>40</ele>
        <time>2020-02-09T06:33:38Z</time>
      </trkpt>
      <trkpt lat="59.268458" lon="18.09667">
        <ele>40</ele>
        <time>2020-02-09T06:33:39Z</time>
      </trkpt>
      <trkpt lat="59.268511" lon="18.096633">
        <ele>40</ele>
        <time>2020-02-09T06:33:40Z</time>
      </trkpt>
      <trkpt lat="59.268566" lon="18.096594">
        <ele>41</ele>
        <time>2020-02-09T06:33:41Z</time>
      </trkpt>
      <trkpt lat="59.268621" lon="18.096559">
        <ele>41</ele>
        <time>2020-02-09T06:33:42Z</time>
      </trkpt>
      <trkpt lat="59.268676" lon="18.096524">
        <ele>41</ele>
        <time>2020-02-09T06:33:43Z</time>
      </trkpt>
      <trkpt lat="59.26873" lon="18.09649">
        <ele>41</ele>
        <time>2020-02-09T06:33:44Z</time>
      </trkpt>
      <trkpt lat="59.268785" lon="18.096458">
        <ele>41</ele>
        <time>2020-02-09T06:33:45Z</time>
      </trkpt>
      <trkpt lat="59.26884" lon="18.096428">
        <ele>41</ele>
        <time>2020-02-09T06:33:46Z</time>
      </trkpt>
      <trkpt lat="59.268896" lon="18.096402">
        <ele>41</ele>
        <time>2020-02-09T06:33:47Z</time>
      </trkpt>
      <trkpt lat="59.268953" lon="18.09638">
        <ele>41</ele>
        <time>2020-02-09T06:33:48Z</time>
      </trkpt>
      <trkpt lat="59.26901" lon="18.096361">
        <ele>41</ele>
        <time>2020-02-09T06:33:49Z</time>
      </trkpt>
      <trkpt lat="59.269065" lon="18.096339">
        <ele>41</ele>
        <time>2020-02-09T06:33:50Z</time>
      </trkpt>
      <trkpt lat="59.269119" lon="18.096312">
        <ele>41</ele>
        <time>2020-02-09T06:33:51Z</time>
      </trkpt>
      <trkpt lat="59.269173" lon="18.096285">
        <ele>42</ele>
        <time>2020-02-09T06:33:52Z</time>
      </trkpt>
      <trkpt lat="59.269224" lon="18.096254">
        <ele>42</ele>
        <time>2020-02-09T06:33:53Z</time>
      </trkpt>
      <trkpt lat="59.269273" lon="18.09622">
        <ele>42</ele>
        <time>2020-02-09T06:33:54Z</time>
      </trkpt>
      <trkpt lat="59.269322" lon="18.096192">
        <ele>42</ele>
        <time>2020-02-09T06:33:55Z</time>
      </trkpt>
      <trkpt lat="59.269371" lon="18.096166">
        <ele>42</ele>
        <time>2020-02-09T06:33:56Z</time>
      </trkpt>
      <trkpt lat="59.269421" lon="18.096139">
        <ele>42</ele>
        <time>2020-02-09T06:33:57Z</time>
      </trkpt>
      <trkpt lat="59.269475" lon="18.096114">
        <ele>41</ele>
        <time>2020-02-09T06:33:58Z</time>
      </trkpt>
      <trkpt lat="59.269533" lon="18.096088">
        <ele>41</ele>
        <time>2020-02-09T06:33:59Z</time>
      </trkpt>
      <trkpt lat="59.269587" lon="18.096063">
        <ele>41</ele>
        <time>2020-02-09T06:34:00Z</time>
      </trkpt>
      <trkpt lat="59.269643" lon="18.096037">
        <ele>41</ele>
        <time>2020-02-09T06:34:01Z</time>
      </trkpt>
      <trkpt lat="59.269699" lon="18.096003">
        <ele>41</ele>
        <time>2020-02-09T06:34:02Z</time>
      </trkpt>
      <trkpt lat="59.269753" lon="18.095962">
        <ele>41</ele>
        <time>2020-02-09T06:34:03Z</time>
      </trkpt>
      <trkpt lat="59.26981" lon="18.095921">
        <ele>41</ele>
        <time>2020-02-09T06:34:04Z</time>
      </trkpt>
      <trkpt lat="59.269871" lon="18.095882">
        <ele>41</ele>
        <time>2020-02-09T06:34:05Z</time>
      </trkpt>
      <trkpt lat="59.269923" lon="18.095843">
        <ele>41</ele>
        <time>2020-02-09T06:34:06Z</time>
      </trkpt>
      <trkpt lat="59.269987" lon="18.095804">
        <ele>41</ele>
        <time>2020-02-09T06:34:07Z</time>
      </trkpt>
      <trkpt lat="59.270045" lon="18.095763">
        <ele>41</ele>
        <time>2020-02-09T06:34:08Z</time>
      </trkpt>
      <trkpt lat="59.270104" lon="18.095732">
        <ele>41</ele>
        <time>2020-02-09T06:34:09Z</time>
      </trkpt>
      <trkpt lat="59.270166" lon="18.095705">
        <ele>41</ele>
        <time>2020-02-09T06:34:10Z</time>
      </trkpt>
      <trkpt lat="59.270226" lon="18.095682">
        <ele>41</ele>
        <time>2020-02-09T06:34:11Z</time>
      </trkpt>
      <trkpt lat="59.270289" lon="18.095659">
        <ele>41</ele>
        <time>2020-02-09T06:34:12Z</time>
      </trkpt>
      <trkpt lat="59.270356" lon="18.095635">
        <ele>41</ele>
        <time>2020-02-09T06:34:13Z</time>
      </trkpt>
      <trkpt lat="59.270419" lon="18.09561">
        <ele>41</ele>
        <time>2020-02-09T06:34:14Z</time>
      </trkpt>
      <trkpt lat="59.270486" lon="18.095592">
        <ele>41</ele>
        <time>2020-02-09T06:34:15Z</time>
      </trkpt>
      <trkpt lat="59.270549" lon="18.095574">
        <ele>41</ele>
        <time>2020-02-09T06:34:16Z</time>
      </trkpt>
      <trkpt lat="59.27061" lon="18.095549">
        <ele>42</ele>
        <time>2020-02-09T06:34:17Z</time>
      </trkpt>
      <trkpt lat="59.27067" lon="18.095514">
        <ele>42</ele>
        <time>2020-02-09T06:34:18Z</time>
      </trkpt>
      <trkpt lat="59.270726" lon="18.095474">
        <ele>42</ele>
        <time>2020-02-09T06:34:19Z</time>
      </trkpt>
      <trkpt lat="59.270785" lon="18.095429">
        <ele>42</ele>
        <time>2020-02-09T06:34:20Z</time>
      </trkpt>
      <trkpt lat="59.270849" lon="18.095377">
        <ele>42</ele>
        <time>2020-02-09T06:34:21Z</time>
      </trkpt>
      <trkpt lat="59.27091" lon="18.095335">
        <ele>42</ele>
        <time>2020-02-09T06:34:22Z</time>
      </trkpt>
      <trkpt lat="59.270972" lon="18.095298">
        <ele>42</ele>
        <time>2020-02-09T06:34:23Z</time>
      </trkpt>
      <trkpt lat="59.271035" lon="18.095263">
        <ele>42</ele>
        <time>2020-02-09T06:34:24Z</time>
      </trkpt>
      <trkpt lat="59.271097" lon="18.095229">
        <ele>42</ele>
        <time>2020-02-09T06:34:25Z</time>
      </trkpt>
      <trkpt lat="59.27116" lon="18.095195">
        <ele>42</ele>
        <time>2020-02-09T06:34:26Z</time>
      </trkpt>
      <trkpt lat="59.27122" lon="18.095164">
        <ele>42</ele>
        <time>2020-02-09T06:34:27Z</time>
      </trkpt>
      <trkpt lat="59.271285" lon="18.095137">
        <ele>42</ele>
        <time>2020-02-09T06:34:28Z</time>
      </trkpt>
      <trkpt lat="59.271343" lon="18.095114">
        <ele>42</ele>
        <time>2020-02-09T06:34:29Z</time>
      </trkpt>
      <trkpt lat="59.271401" lon="18.095094">
        <ele>42</ele>
        <time>2020-02-09T06:34:30Z</time>
      </trkpt>
      <trkpt lat="59.271453" lon="18.095073">
        <ele>42</ele>
        <time>2020-02-09T06:34:31Z</time>
      </trkpt>
      <trkpt lat="59.271502" lon="18.09505">
        <ele>42</ele>
        <time>2020-02-09T06:34:32Z</time>
      </trkpt>
      <trkpt lat="59.27155" lon="18.095025">
        <ele>42</ele>
        <time>2020-02-09T06:34:33Z</time>
      </trkpt>
      <trkpt lat="59.271597" lon="18.095002">
        <ele>42</ele>
        <time>2020-02-09T06:34:34Z</time>
      </trkpt>
      <trkpt lat="59.271641" lon="18.094978">
        <ele>42</ele>
        <time>2020-02-09T06:34:35Z</time>
      </trkpt>
      <trkpt lat="59.271688" lon="18.094956">
        <ele>43</ele>
        <time>2020-02-09T06:34:36Z</time>
      </trkpt>
      <trkpt lat="59.271736" lon="18.094933">
        <ele>43</ele>
        <time>2020-02-09T06:34:37Z</time>
      </trkpt>
      <trkpt lat="59.271781" lon="18.094908">
        <ele>42</ele>
        <time>2020-02-09T06:34:38Z</time>
      </trkpt>
      <trkpt lat="59.271821" lon="18.094879">
        <ele>42</ele>
        <time>2020-02-09T06:34:39Z</time>
      </trkpt>
      <trkpt lat="59.271871" lon="18.094842">
        <ele>42</ele>
        <time>2020-02-09T06:34:40Z</time>
      </trkpt>
      <trkpt lat="59.271931" lon="18.094807">
        <ele>42</ele>
        <time>2020-02-09T06:34:41Z</time>
      </trkpt>
      <trkpt lat="59.271985" lon="18.094784">
        <ele>42</ele>
        <time>2020-02-09T06:34:42Z</time>
      </trkpt>
      <trkpt lat="59.272036" lon="18.094767">
        <ele>43</ele>
        <time>2020-02-09T06:34:43Z</time>
      </trkpt>
      <trkpt lat="59.272084" lon="18.094749">
        <ele>43</ele>
        <time>2020-02-09T06:34:44Z</time>
      </trkpt>
      <trkpt lat="59.272132" lon="18.094738">
        <ele>43</ele>
        <time>2020-02-09T06:34:45Z</time>
      </trkpt>
      <trkpt lat="59.272182" lon="18.094727">
        <ele>43</ele>
        <time>2020-02-09T06:34:46Z</time>
      </trkpt>
      <trkpt lat="59.272234" lon="18.094713">
        <ele>43</ele>
        <time>2020-02-09T06:34:47Z</time>
      </trkpt>
      <trkpt lat="59.272284" lon="18.094698">
        <ele>43</ele>
        <time>2020-02-09T06:34:48Z</time>
      </trkpt>
      <trkpt lat="59.272332" lon="18.094683">
        <ele>43</ele>
        <time>2020-02-09T06:34:49Z</time>
      </trkpt>
      <trkpt lat="59.272379" lon="18.094668">
        <ele>43</ele>
        <time>2020-02-09T06:34:50Z</time>
      </trkpt>
      <trkpt lat="59.272426" lon="18.094658">
        <ele>43</ele>
        <time>2020-02-09T06:34:51Z</time>
      </trkpt>
      <trkpt lat="59.272474" lon="18.094647">
        <ele>43</ele>
        <time>2020-02-09T06:34:52Z</time>
      </trkpt>
      <trkpt lat="59.272522" lon="18.094635">
        <ele>43</ele>
        <time>2020-02-09T06:34:53Z</time>
      </trkpt>
      <trkpt lat="59.272569" lon="18.094624">
        <ele>44</ele>
        <time>2020-02-09T06:34:54Z</time>
      </trkpt>
      <trkpt lat="59.272613" lon="18.09461">
        <ele>44</ele>
        <time>2020-02-09T06:34:55Z</time>
      </trkpt>
      <trkpt lat="59.272658" lon="18.094597">
        <ele>44</ele>
        <time>2020-02-09T06:34:56Z</time>
      </trkpt>
      <trkpt lat="59.272702" lon="18.094583">
        <ele>44</ele>
        <time>2020-02-09T06:34:57Z</time>
      </trkpt>
      <trkpt lat="59.272747" lon="18.094567">
        <ele>44</ele>
        <time>2020-02-09T06:34:58Z</time>
      </trkpt>
      <trkpt lat="59.272791" lon="18.094548">
        <ele>44</ele>
        <time>2020-02-09T06:34:59Z</time>
      </trkpt>
      <trkpt lat="59.272837" lon="18.094526">
        <ele>44</ele>
        <time>2020-02-09T06:35:00Z</time>
      </trkpt>
      <trkpt lat="59.272883" lon="18.094506">
        <ele>44</ele>
        <time>2020-02-09T06:35:01Z</time>
      </trkpt>
      <trkpt lat="59.27293" lon="18.094488">
        <ele>45</ele>
        <time>2020-02-09T06:35:02Z</time>
      </trkpt>
      <trkpt lat="59.272978" lon="18.09447">
        <ele>45</ele>
        <time>2020-02-09T06:35:03Z</time>
      </trkpt>
      <trkpt lat="59.273028" lon="18.094452">
        <ele>45</ele>
        <time>2020-02-09T06:35:04Z</time>
      </trkpt>
      <trkpt lat="59.27308" lon="18.094433">
        <ele>45</ele>
        <time>2020-02-09T06:35:06Z</time>
      </trkpt>
      <trkpt lat="59.273135" lon="18.094417">
        <ele>45</ele>
        <time>2020-02-09T06:35:06Z</time>
      </trkpt>
      <trkpt lat="59.273195" lon="18.094403">
        <ele>44</ele>
        <time>2020-02-09T06:35:07Z</time>
      </trkpt>
      <trkpt lat="59.273257" lon="18.094387">
        <ele>44</ele>
        <time>2020-02-09T06:35:08Z</time>
      </trkpt>
      <trkpt lat="59.273323" lon="18.094366">
        <ele>44</ele>
        <time>2020-02-09T06:35:09Z</time>
      </trkpt>
      <trkpt lat="59.27339" lon="18.094338">
        <ele>44</ele>
        <time>2020-02-09T06:35:10Z</time>
      </trkpt>
      <trkpt lat="59.273461" lon="18.094307">
        <ele>44</ele>
        <time>2020-02-09T06:35:11Z</time>
      </trkpt>
      <trkpt lat="59.273534" lon="18.094272">
        <ele>44</ele>
        <time>2020-02-09T06:35:12Z</time>
      </trkpt>
      <trkpt lat="59.273606" lon="18.094225">
        <ele>43</ele>
        <time>2020-02-09T06:35:13Z</time>
      </trkpt>
      <trkpt lat="59.27368" lon="18.094169">
        <ele>43</ele>
        <time>2020-02-09T06:35:14Z</time>
      </trkpt>
      <trkpt lat="59.273755" lon="18.094118">
        <ele>42</ele>
        <time>2020-02-09T06:35:15Z</time>
      </trkpt>
      <trkpt lat="59.273833" lon="18.094075">
        <ele>42</ele>
        <time>2020-02-09T06:35:16Z</time>
      </trkpt>
      <trkpt lat="59.273913" lon="18.094036">
        <ele>42</ele>
        <time>2020-02-09T06:35:17Z</time>
      </trkpt>
      <trkpt lat="59.273995" lon="18.093998">
        <ele>41</ele>
        <time>2020-02-09T06:35:18Z</time>
      </trkpt>
      <trkpt lat="59.27408" lon="18.093961">
        <ele>41</ele>
        <time>2020-02-09T06:35:19Z</time>
      </trkpt>
      <trkpt lat="59.274167" lon="18.093923">
        <ele>41</ele>
        <time>2020-02-09T06:35:20Z</time>
      </trkpt>
      <trkpt lat="59.274255" lon="18.093886">
        <ele>40</ele>
        <time>2020-02-09T06:35:21Z</time>
      </trkpt>
      <trkpt lat="59.274344" lon="18.093847">
        <ele>40</ele>
        <time>2020-02-09T06:35:22Z</time>
      </trkpt>
      <trkpt lat="59.274431" lon="18.093809">
        <ele>40</ele>
        <time>2020-02-09T06:35:23Z</time>
      </trkpt>
      <trkpt lat="59.274519" lon="18.093769">
        <ele>40</ele>
        <time>2020-02-09T06:35:25Z</time>
      </trkpt>
      <trkpt lat="59.274604" lon="18.09373">
        <ele>40</ele>
        <time>2020-02-09T06:35:25Z</time>
      </trkpt>
      <trkpt lat="59.274689" lon="18.093696">
        <ele>40</ele>
        <time>2020-02-09T06:35:26Z</time>
      </trkpt>
      <trkpt lat="59.274774" lon="18.093665">
        <ele>40</ele>
        <time>2020-02-09T06:35:27Z</time>
      </trkpt>
      <trkpt lat="59.274858" lon="18.093635">
        <ele>40</ele>
        <time>2020-02-09T06:35:28Z</time>
      </trkpt>
      <trkpt lat="59.274939" lon="18.093606">
        <ele>40</ele>
        <time>2020-02-09T06:35:29Z</time>
      </trkpt>
      <trkpt lat="59.275018" lon="18.093578">
        <ele>40</ele>
        <time>2020-02-09T06:35:30Z</time>
      </trkpt>
      <trkpt lat="59.275094" lon="18.093551">
        <ele>40</ele>
        <time>2020-02-09T06:35:31Z</time>
      </trkpt>
      <trkpt lat="59.275168" lon="18.093521">
        <ele>39</ele>
        <time>2020-02-09T06:35:32Z</time>
      </trkpt>
      <trkpt lat="59.275247" lon="18.093496">
        <ele>39</ele>
        <time>2020-02-09T06:35:33Z</time>
      </trkpt>
      <trkpt lat="59.275329" lon="18.093473">
        <ele>39</ele>
        <time>2020-02-09T06:35:34Z</time>
      </trkpt>
      <trkpt lat="59.275408" lon="18.093451">
        <ele>39</ele>
        <time>2020-02-09T06:35:35Z</time>
      </trkpt>
      <trkpt lat="59.275487" lon="18.093434">
        <ele>39</ele>
        <time>2020-02-09T06:35:36Z</time>
      </trkpt>
      <trkpt lat="59.275564" lon="18.093418">
        <ele>38</ele>
        <time>2020-02-09T06:35:37Z</time>
      </trkpt>
      <trkpt lat="59.275641" lon="18.093399">
        <ele>38</ele>
        <time>2020-02-09T06:35:38Z</time>
      </trkpt>
      <trkpt lat="59.275717" lon="18.093379">
        <ele>38</ele>
        <time>2020-02-09T06:35:39Z</time>
      </trkpt>
      <trkpt lat="59.275792" lon="18.09336">
        <ele>38</ele>
        <time>2020-02-09T06:35:40Z</time>
      </trkpt>
      <trkpt lat="59.275868" lon="18.093342">
        <ele>38</ele>
        <time>2020-02-09T06:35:41Z</time>
      </trkpt>
      <trkpt lat="59.275944" lon="18.093326">
        <ele>38</ele>
        <time>2020-02-09T06:35:42Z</time>
      </trkpt>
      <trkpt lat="59.276019" lon="18.093307">
        <ele>38</ele>
        <time>2020-02-09T06:35:44Z</time>
      </trkpt>
      <trkpt lat="59.276093" lon="18.093289">
        <ele>38</ele>
        <time>2020-02-09T06:35:44Z</time>
      </trkpt>
      <trkpt lat="59.276168" lon="18.093279">
        <ele>38</ele>
        <time>2020-02-09T06:35:45Z</time>
      </trkpt>
      <trkpt lat="59.276241" lon="18.093268">
        <ele>38</ele>
        <time>2020-02-09T06:35:46Z</time>
      </trkpt>
      <trkpt lat="59.276316" lon="18.093255">
        <ele>38</ele>
        <time>2020-02-09T06:35:47Z</time>
      </trkpt>
      <trkpt lat="59.276391" lon="18.093241">
        <ele>38</ele>
        <time>2020-02-09T06:35:48Z</time>
      </trkpt>
      <trkpt lat="59.276466" lon="18.09323">
        <ele>38</ele>
        <time>2020-02-09T06:35:49Z</time>
      </trkpt>
      <trkpt lat="59.276541" lon="18.093218">
        <ele>38</ele>
        <time>2020-02-09T06:35:50Z</time>
      </trkpt>
      <trkpt lat="59.276615" lon="18.093207">
        <ele>38</ele>
        <time>2020-02-09T06:35:51Z</time>
      </trkpt>
      <trkpt lat="59.276689" lon="18.093193">
        <ele>38</ele>
        <time>2020-02-09T06:35:52Z</time>
      </trkpt>
      <trkpt lat="59.276763" lon="18.093177">
        <ele>38</ele>
        <time>2020-02-09T06:35:53Z</time>
      </trkpt>
      <trkpt lat="59.276837" lon="18.093164">
        <ele>38</ele>
        <time>2020-02-09T06:35:54Z</time>
      </trkpt>
      <trkpt lat="59.27691" lon="18.093152">
        <ele>38</ele>
        <time>2020-02-09T06:35:55Z</time>
      </trkpt>
      <trkpt lat="59.276984" lon="18.093139">
        <ele>38</ele>
        <time>2020-02-09T06:35:56Z</time>
      </trkpt>
      <trkpt lat="59.277056" lon="18.093123">
        <ele>38</ele>
        <time>2020-02-09T06:35:57Z</time>
      </trkpt>
      <trkpt lat="59.277126" lon="18.093102">
        <ele>38</ele>
        <time>2020-02-09T06:35:58Z</time>
      </trkpt>
      <trkpt lat="59.277196" lon="18.093081">
        <ele>38</ele>
        <time>2020-02-09T06:35:59Z</time>
      </trkpt>
      <trkpt lat="59.277265" lon="18.093058">
        <ele>38</ele>
        <time>2020-02-09T06:36:00Z</time>
      </trkpt>
      <trkpt lat="59.277334" lon="18.093033">
        <ele>38</ele>
        <time>2020-02-09T06:36:01Z</time>
      </trkpt>
      <trkpt lat="59.277403" lon="18.093005">
        <ele>38</ele>
        <time>2020-02-09T06:36:02Z</time>
      </trkpt>
      <trkpt lat="59.277469" lon="18.092978">
        <ele>39</ele>
        <time>2020-02-09T06:36:03Z</time>
      </trkpt>
      <trkpt lat="59.277539" lon="18.092954">
        <ele>39</ele>
        <time>2020-02-09T06:36:04Z</time>
      </trkpt>
      <trkpt lat="59.277611" lon="18.092929">
        <ele>38</ele>
        <time>2020-02-09T06:36:05Z</time>
      </trkpt>
      <trkpt lat="59.277683" lon="18.092902">
        <ele>38</ele>
        <time>2020-02-09T06:36:06Z</time>
      </trkpt>
      <trkpt lat="59.277753" lon="18.092873">
        <ele>39</ele>
        <time>2020-02-09T06:36:07Z</time>
      </trkpt>
      <trkpt lat="59.277819" lon="18.092838">
        <ele>39</ele>
        <time>2020-02-09T06:36:08Z</time>
      </trkpt>
      <trkpt lat="59.277875" lon="18.092797">
        <ele>39</ele>
        <time>2020-02-09T06:36:09Z</time>
      </trkpt>
      <trkpt lat="59.277944" lon="18.092768">
        <ele>38</ele>
        <time>2020-02-09T06:36:10Z</time>
      </trkpt>
      <trkpt lat="59.278009" lon="18.092737">
        <ele>38</ele>
        <time>2020-02-09T06:36:11Z</time>
      </trkpt>
      <trkpt lat="59.278076" lon="18.092709">
        <ele>38</ele>
        <time>2020-02-09T06:36:12Z</time>
      </trkpt>
      <trkpt lat="59.278144" lon="18.09268">
        <ele>38</ele>
        <time>2020-02-09T06:36:13Z</time>
      </trkpt>
      <trkpt lat="59.278213" lon="18.092654">
        <ele>38</ele>
        <time>2020-02-09T06:36:14Z</time>
      </trkpt>
      <trkpt lat="59.278281" lon="18.092629">
        <ele>37</ele>
        <time>2020-02-09T06:36:15Z</time>
      </trkpt>
      <trkpt lat="59.278347" lon="18.092602">
        <ele>37</ele>
        <time>2020-02-09T06:36:16Z</time>
      </trkpt>
      <trkpt lat="59.278416" lon="18.092573">
        <ele>36</ele>
        <time>2020-02-09T06:36:17Z</time>
      </trkpt>
      <trkpt lat="59.278486" lon="18.092543">
        <ele>36</ele>
        <time>2020-02-09T06:36:18Z</time>
      </trkpt>
      <trkpt lat="59.278557" lon="18.092514">
        <ele>36</ele>
        <time>2020-02-09T06:36:19Z</time>
      </trkpt>
      <trkpt lat="59.278628" lon="18.092484">
        <ele>36</ele>
        <time>2020-02-09T06:36:20Z</time>
      </trkpt>
      <trkpt lat="59.2787" lon="18.092451">
        <ele>36</ele>
        <time>2020-02-09T06:36:21Z</time>
      </trkpt>
      <trkpt lat="59.278772" lon="18.092418">
        <ele>36</ele>
        <time>2020-02-09T06:36:22Z</time>
      </trkpt>
      <trkpt lat="59.278844" lon="18.092384">
        <ele>36</ele>
        <time>2020-02-09T06:36:23Z</time>
      </trkpt>
      <trkpt lat="59.278915" lon="18.092352">
        <ele>36</ele>
        <time>2020-02-09T06:36:24Z</time>
      </trkpt>
      <trkpt lat="59.278984" lon="18.092323">
        <ele>37</ele>
        <time>2020-02-09T06:36:25Z</time>
      </trkpt>
      <trkpt lat="59.279056" lon="18.092297">
        <ele>37</ele>
        <time>2020-02-09T06:36:26Z</time>
      </trkpt>
      <trkpt lat="59.279126" lon="18.092273">
        <ele>37</ele>
        <time>2020-02-09T06:36:27Z</time>
      </trkpt>
      <trkpt lat="59.279192" lon="18.092258">
        <ele>37</ele>
        <time>2020-02-09T06:36:28Z</time>
      </trkpt>
      <trkpt lat="59.279256" lon="18.092245">
        <ele>37</ele>
        <time>2020-02-09T06:36:29Z</time>
      </trkpt>
      <trkpt lat="59.279321" lon="18.092229">
        <ele>37</ele>
        <time>2020-02-09T06:36:30Z</time>
      </trkpt>
      <trkpt lat="59.279385" lon="18.092206">
        <ele>36</ele>
        <time>2020-02-09T06:36:31Z</time>
      </trkpt>
      <trkpt lat="59.279449" lon="18.092177">
        <ele>36</ele>
        <time>2020-02-09T06:36:32Z</time>
      </trkpt>
      <trkpt lat="59.279517" lon="18.092147">
        <ele>36</ele>
        <time>2020-02-09T06:36:33Z</time>
      </trkpt>
      <trkpt lat="59.279582" lon="18.092119">
        <ele>36</ele>
        <time>2020-02-09T06:36:34Z</time>
      </trkpt>
      <trkpt lat="59.279647" lon="18.092093">
        <ele>36</ele>
        <time>2020-02-09T06:36:35Z</time>
      </trkpt>
      <trkpt lat="59.279708" lon="18.09206">
        <ele>36</ele>
        <time>2020-02-09T06:36:36Z</time>
      </trkpt>
      <trkpt lat="59.279769" lon="18.092022">
        <ele>36</ele>
        <time>2020-02-09T06:36:37Z</time>
      </trkpt>
      <trkpt lat="59.27983" lon="18.09199">
        <ele>36</ele>
        <time>2020-02-09T06:36:38Z</time>
      </trkpt>
      <trkpt lat="59.279891" lon="18.091964">
        <ele>36</ele>
        <time>2020-02-09T06:36:39Z</time>
      </trkpt>
      <trkpt lat="59.279952" lon="18.091942">
        <ele>37</ele>
        <time>2020-02-09T06:36:40Z</time>
      </trkpt>
      <trkpt lat="59.280013" lon="18.091922">
        <ele>37</ele>
        <time>2020-02-09T06:36:41Z</time>
      </trkpt>
      <trkpt lat="59.280076" lon="18.091904">
        <ele>37</ele>
        <time>2020-02-09T06:36:42Z</time>
      </trkpt>
      <trkpt lat="59.280139" lon="18.091887">
        <ele>37</ele>
        <time>2020-02-09T06:36:43Z</time>
      </trkpt>
      <trkpt lat="59.280204" lon="18.091868">
        <ele>37</ele>
        <time>2020-02-09T06:36:44Z</time>
      </trkpt>
      <trkpt lat="59.280268" lon="18.091845">
        <ele>37</ele>
        <time>2020-02-09T06:36:45Z</time>
      </trkpt>
      <trkpt lat="59.280332" lon="18.091819">
        <ele>37</ele>
        <time>2020-02-09T06:36:46Z</time>
      </trkpt>
      <trkpt lat="59.280396" lon="18.091798">
        <ele>37</ele>
        <time>2020-02-09T06:36:47Z</time>
      </trkpt>
      <trkpt lat="59.280462" lon="18.091777">
        <ele>37</ele>
        <time>2020-02-09T06:36:48Z</time>
      </trkpt>
      <trkpt lat="59.280528" lon="18.091754">
        <ele>37</ele>
        <time>2020-02-09T06:36:49Z</time>
      </trkpt>
      <trkpt lat="59.280594" lon="18.091732">
        <ele>37</ele>
        <time>2020-02-09T06:36:50Z</time>
      </trkpt>
      <trkpt lat="59.28066" lon="18.091708">
        <ele>37</ele>
        <time>2020-02-09T06:36:51Z</time>
      </trkpt>
      <trkpt lat="59.280729" lon="18.091688">
        <ele>37</ele>
        <time>2020-02-09T06:36:52Z</time>
      </trkpt>
      <trkpt lat="59.280797" lon="18.091666">
        <ele>37</ele>
        <time>2020-02-09T06:36:53Z</time>
      </trkpt>
      <trkpt lat="59.280865" lon="18.091643">
        <ele>37</ele>
        <time>2020-02-09T06:36:54Z</time>
      </trkpt>
      <trkpt lat="59.280932" lon="18.091621">
        <ele>37</ele>
        <time>2020-02-09T06:36:55Z</time>
      </trkpt>
      <trkpt lat="59.280999" lon="18.0916">
        <ele>37</ele>
        <time>2020-02-09T06:36:56Z</time>
      </trkpt>
      <trkpt lat="59.281067" lon="18.091581">
        <ele>37</ele>
        <time>2020-02-09T06:36:57Z</time>
      </trkpt>
      <trkpt lat="59.281135" lon="18.091564">
        <ele>37</ele>
        <time>2020-02-09T06:36:58Z</time>
      </trkpt>
      <trkpt lat="59.281203" lon="18.091547">
        <ele>37</ele>
        <time>2020-02-09T06:36:59Z</time>
      </trkpt>
      <trkpt lat="59.28127" lon="18.091526">
        <ele>37</ele>
        <time>2020-02-09T06:37:00Z</time>
      </trkpt>
      <trkpt lat="59.281337" lon="18.091503">
        <ele>37</ele>
        <time>2020-02-09T06:37:01Z</time>
      </trkpt>
      <trkpt lat="59.281404" lon="18.09148">
        <ele>36</ele>
        <time>2020-02-09T06:37:02Z</time>
      </trkpt>
      <trkpt lat="59.281471" lon="18.091458">
        <ele>36</ele>
        <time>2020-02-09T06:37:03Z</time>
      </trkpt>
      <trkpt lat="59.281538" lon="18.091434">
        <ele>36</ele>
        <time>2020-02-09T06:37:04Z</time>
      </trkpt>
      <trkpt lat="59.281606" lon="18.091411">
        <ele>36</ele>
        <time>2020-02-09T06:37:05Z</time>
      </trkpt>
      <trkpt lat="59.281674" lon="18.091393">
        <ele>36</ele>
        <time>2020-02-09T06:37:06Z</time>
      </trkpt>
      <trkpt lat="59.281742" lon="18.09137">
        <ele>36</ele>
        <time>2020-02-09T06:37:07Z</time>
      </trkpt>
      <trkpt lat="59.281809" lon="18.09135">
        <ele>36</ele>
        <time>2020-02-09T06:37:08Z</time>
      </trkpt>
      <trkpt lat="59.281877" lon="18.091328">
        <ele>36</ele>
        <time>2020-02-09T06:37:09Z</time>
      </trkpt>
      <trkpt lat="59.281944" lon="18.091303">
        <ele>36</ele>
        <time>2020-02-09T06:37:10Z</time>
      </trkpt>
      <trkpt lat="59.28201" lon="18.091277">
        <ele>36</ele>
        <time>2020-02-09T06:37:11Z</time>
      </trkpt>
      <trkpt lat="59.282076" lon="18.091257">
        <ele>36</ele>
        <time>2020-02-09T06:37:12Z</time>
      </trkpt>
      <trkpt lat="59.282143" lon="18.091236">
        <ele>36</ele>
        <time>2020-02-09T06:37:13Z</time>
      </trkpt>
      <trkpt lat="59.282211" lon="18.091217">
        <ele>36</ele>
        <time>2020-02-09T06:37:14Z</time>
      </trkpt>
      <trkpt lat="59.282279" lon="18.091194">
        <ele>35</ele>
        <time>2020-02-09T06:37:15Z</time>
      </trkpt>
      <trkpt lat="59.282344" lon="18.091166">
        <ele>35</ele>
        <time>2020-02-09T06:37:16Z</time>
      </trkpt>
      <trkpt lat="59.282407" lon="18.091137">
        <ele>36</ele>
        <time>2020-02-09T06:37:17Z</time>
      </trkpt>
      <trkpt lat="59.282466" lon="18.091103">
        <ele>35</ele>
        <time>2020-02-09T06:37:18Z</time>
      </trkpt>
      <trkpt lat="59.282529" lon="18.091073">
        <ele>35</ele>
        <time>2020-02-09T06:37:19Z</time>
      </trkpt>
      <trkpt lat="59.28259" lon="18.091042">
        <ele>35</ele>
        <time>2020-02-09T06:37:20Z</time>
      </trkpt>
      <trkpt lat="59.282653" lon="18.091009">
        <ele>36</ele>
        <time>2020-02-09T06:37:21Z</time>
      </trkpt>
      <trkpt lat="59.282716" lon="18.090978">
        <ele>35</ele>
        <time>2020-02-09T06:37:22Z</time>
      </trkpt>
      <trkpt lat="59.28278" lon="18.090948">
        <ele>35</ele>
        <time>2020-02-09T06:37:23Z</time>
      </trkpt>
      <trkpt lat="59.282845" lon="18.090918">
        <ele>35</ele>
        <time>2020-02-09T06:37:24Z</time>
      </trkpt>
      <trkpt lat="59.282909" lon="18.090891">
        <ele>35</ele>
        <time>2020-02-09T06:37:25Z</time>
      </trkpt>
      <trkpt lat="59.28297" lon="18.090864">
        <ele>35</ele>
        <time>2020-02-09T06:37:26Z</time>
      </trkpt>
      <trkpt lat="59.283031" lon="18.090833">
        <ele>35</ele>
        <time>2020-02-09T06:37:27Z</time>
      </trkpt>
      <trkpt lat="59.283091" lon="18.090806">
        <ele>35</ele>
        <time>2020-02-09T06:37:28Z</time>
      </trkpt>
      <trkpt lat="59.283151" lon="18.090774">
        <ele>35</ele>
        <time>2020-02-09T06:37:29Z</time>
      </trkpt>
      <trkpt lat="59.283214" lon="18.090741">
        <ele>35</ele>
        <time>2020-02-09T06:37:30Z</time>
      </trkpt>
      <trkpt lat="59.283279" lon="18.090706">
        <ele>35</ele>
        <time>2020-02-09T06:37:31Z</time>
      </trkpt>
      <trkpt lat="59.283345" lon="18.09067">
        <ele>35</ele>
        <time>2020-02-09T06:37:32Z</time>
      </trkpt>
      <trkpt lat="59.283411" lon="18.090638">
        <ele>37</ele>
        <time>2020-02-09T06:37:33Z</time>
      </trkpt>
      <trkpt lat="59.283468" lon="18.090587">
        <ele>37</ele>
        <time>2020-02-09T06:37:34Z</time>
      </trkpt>
      <trkpt lat="59.283526" lon="18.090546">
        <ele>37</ele>
        <time>2020-02-09T06:37:35Z</time>
      </trkpt>
      <trkpt lat="59.283592" lon="18.09051">
        <ele>37</ele>
        <time>2020-02-09T06:37:36Z</time>
      </trkpt>
      <trkpt lat="59.283657" lon="18.090474">
        <ele>37</ele>
        <time>2020-02-09T06:37:37Z</time>
      </trkpt>
      <trkpt lat="59.28372" lon="18.090442">
        <ele>37</ele>
        <time>2020-02-09T06:37:38Z</time>
      </trkpt>
      <trkpt lat="59.283786" lon="18.090411">
        <ele>38</ele>
        <time>2020-02-09T06:37:39Z</time>
      </trkpt>
      <trkpt lat="59.283846" lon="18.090384">
        <ele>38</ele>
        <time>2020-02-09T06:37:40Z</time>
      </trkpt>
      <trkpt lat="59.283906" lon="18.090359">
        <ele>38</ele>
        <time>2020-02-09T06:37:41Z</time>
      </trkpt>
      <trkpt lat="59.283966" lon="18.090332">
        <ele>38</ele>
        <time>2020-02-09T06:37:42Z</time>
      </trkpt>
      <trkpt lat="59.28403" lon="18.090304">
        <ele>37</ele>
        <time>2020-02-09T06:37:43Z</time>
      </trkpt>
      <trkpt lat="59.284092" lon="18.090278">
        <ele>37</ele>
        <time>2020-02-09T06:37:44Z</time>
      </trkpt>
      <trkpt lat="59.284156" lon="18.090252">
        <ele>37</ele>
        <time>2020-02-09T06:37:45Z</time>
      </trkpt>
      <trkpt lat="59.284219" lon="18.090225">
        <ele>37</ele>
        <time>2020-02-09T06:37:46Z</time>
      </trkpt>
      <trkpt lat="59.284284" lon="18.090194">
        <ele>37</ele>
        <time>2020-02-09T06:37:47Z</time>
      </trkpt>
      <trkpt lat="59.284346" lon="18.090159">
        <ele>37</ele>
        <time>2020-02-09T06:37:48Z</time>
      </trkpt>
      <trkpt lat="59.284408" lon="18.09013">
        <ele>37</ele>
        <time>2020-02-09T06:37:49Z</time>
      </trkpt>
      <trkpt lat="59.28447" lon="18.0901">
        <ele>37</ele>
        <time>2020-02-09T06:37:50Z</time>
      </trkpt>
      <trkpt lat="59.284533" lon="18.09007">
        <ele>37</ele>
        <time>2020-02-09T06:37:51Z</time>
      </trkpt>
      <trkpt lat="59.284593" lon="18.090043">
        <ele>37</ele>
        <time>2020-02-09T06:37:52Z</time>
      </trkpt>
      <trkpt lat="59.284656" lon="18.090015">
        <ele>37</ele>
        <time>2020-02-09T06:37:53Z</time>
      </trkpt>
      <trkpt lat="59.284725" lon="18.089987">
        <ele>37</ele>
        <time>2020-02-09T06:37:54Z</time>
      </trkpt>
      <trkpt lat="59.284795" lon="18.089954">
        <ele>37</ele>
        <time>2020-02-09T06:37:55Z</time>
      </trkpt>
      <trkpt lat="59.284862" lon="18.089924">
        <ele>37</ele>
        <time>2020-02-09T06:37:56Z</time>
      </trkpt>
      <trkpt lat="59.284927" lon="18.089893">
        <ele>37</ele>
        <time>2020-02-09T06:37:57Z</time>
      </trkpt>
      <trkpt lat="59.284992" lon="18.089864">
        <ele>37</ele>
        <time>2020-02-09T06:37:58Z</time>
      </trkpt>
      <trkpt lat="59.285055" lon="18.089833">
        <ele>37</ele>
        <time>2020-02-09T06:37:59Z</time>
      </trkpt>
      <trkpt lat="59.285116" lon="18.089802">
        <ele>37</ele>
        <time>2020-02-09T06:38:00Z</time>
      </trkpt>
      <trkpt lat="59.285179" lon="18.089775">
        <ele>37</ele>
        <time>2020-02-09T06:38:01Z</time>
      </trkpt>
      <trkpt lat="59.285241" lon="18.089748">
        <ele>37</ele>
        <time>2020-02-09T06:38:02Z</time>
      </trkpt>
      <trkpt lat="59.285298" lon="18.089722">
        <ele>37</ele>
        <time>2020-02-09T06:38:03Z</time>
      </trkpt>
      <trkpt lat="59.285353" lon="18.089694">
        <ele>38</ele>
        <time>2020-02-09T06:38:04Z</time>
      </trkpt>
      <trkpt lat="59.285413" lon="18.089668">
        <ele>38</ele>
        <time>2020-02-09T06:38:05Z</time>
      </trkpt>
      <trkpt lat="59.28548" lon="18.089638">
        <ele>38</ele>
        <time>2020-02-09T06:38:06Z</time>
      </trkpt>
      <trkpt lat="59.285543" lon="18.089608">
        <ele>38</ele>
        <time>2020-02-09T06:38:07Z</time>
      </trkpt>
      <trkpt lat="59.285607" lon="18.089581">
        <ele>38</ele>
        <time>2020-02-09T06:38:08Z</time>
      </trkpt>
      <trkpt lat="59.285671" lon="18.089549">
        <ele>38</ele>
        <time>2020-02-09T06:38:09Z</time>
      </trkpt>
      <trkpt lat="59.285735" lon="18.089515">
        <ele>38</ele>
        <time>2020-02-09T06:38:10Z</time>
      </trkpt>
      <trkpt lat="59.285793" lon="18.089484">
        <ele>38</ele>
        <time>2020-02-09T06:38:11Z</time>
      </trkpt>
      <trkpt lat="59.28586" lon="18.089456">
        <ele>38</ele>
        <time>2020-02-09T06:38:12Z</time>
      </trkpt>
      <trkpt lat="59.285925" lon="18.089427">
        <ele>38</ele>
        <time>2020-02-09T06:38:13Z</time>
      </trkpt>
      <trkpt lat="59.285988" lon="18.089396">
        <ele>38</ele>
        <time>2020-02-09T06:38:14Z</time>
      </trkpt>
      <trkpt lat="59.286051" lon="18.089365">
        <ele>38</ele>
        <time>2020-02-09T06:38:15Z</time>
      </trkpt>
      <trkpt lat="59.28611" lon="18.089336">
        <ele>38</ele>
        <time>2020-02-09T06:38:16Z</time>
      </trkpt>
      <trkpt lat="59.28617" lon="18.089303">
        <ele>38</ele>
        <time>2020-02-09T06:38:17Z</time>
      </trkpt>
      <trkpt lat="59.286232" lon="18.08927">
        <ele>38</ele>
        <time>2020-02-09T06:38:18Z</time>
      </trkpt>
      <trkpt lat="59.286293" lon="18.089243">
        <ele>37</ele>
        <time>2020-02-09T06:38:19Z</time>
      </trkpt>
      <trkpt lat="59.286353" lon="18.089217">
        <ele>38</ele>
        <time>2020-02-09T06:38:20Z</time>
      </trkpt>
      <trkpt lat="59.286416" lon="18.089193">
        <ele>37</ele>
        <time>2020-02-09T06:38:21Z</time>
      </trkpt>
      <trkpt lat="59.286477" lon="18.089173">
        <ele>37</ele>
        <time>2020-02-09T06:38:22Z</time>
      </trkpt>
      <trkpt lat="59.286539" lon="18.089153">
        <ele>37</ele>
        <time>2020-02-09T06:38:23Z</time>
      </trkpt>
      <trkpt lat="59.286601" lon="18.089131">
        <ele>37</ele>
        <time>2020-02-09T06:38:24Z</time>
      </trkpt>
      <trkpt lat="59.286664" lon="18.089105">
        <ele>37</ele>
        <time>2020-02-09T06:38:25Z</time>
      </trkpt>
      <trkpt lat="59.286727" lon="18.089081">
        <ele>37</ele>
        <time>2020-02-09T06:38:26Z</time>
      </trkpt>
      <trkpt lat="59.28679" lon="18.089056">
        <ele>37</ele>
        <time>2020-02-09T06:38:27Z</time>
      </trkpt>
      <trkpt lat="59.286851" lon="18.089028">
        <ele>37</ele>
        <time>2020-02-09T06:38:28Z</time>
      </trkpt>
      <trkpt lat="59.286911" lon="18.088996">
        <ele>37</ele>
        <time>2020-02-09T06:38:29Z</time>
      </trkpt>
      <trkpt lat="59.286969" lon="18.088959">
        <ele>37</ele>
        <time>2020-02-09T06:38:30Z</time>
      </trkpt>
      <trkpt lat="59.287027" lon="18.08892">
        <ele>36</ele>
        <time>2020-02-09T06:38:31Z</time>
      </trkpt>
      <trkpt lat="59.287085" lon="18.088885">
        <ele>36</ele>
        <time>2020-02-09T06:38:32Z</time>
      </trkpt>
      <trkpt lat="59.287142" lon="18.088852">
        <ele>36</ele>
        <time>2020-02-09T06:38:33Z</time>
      </trkpt>
      <trkpt lat="59.287199" lon="18.08882">
        <ele>36</ele>
        <time>2020-02-09T06:38:34Z</time>
      </trkpt>
      <trkpt lat="59.287255" lon="18.088791">
        <ele>36</ele>
        <time>2020-02-09T06:38:35Z</time>
      </trkpt>
      <trkpt lat="59.28731" lon="18.088765">
        <ele>36</ele>
        <time>2020-02-09T06:38:36Z</time>
      </trkpt>
      <trkpt lat="59.287363" lon="18.088744">
        <ele>36</ele>
        <time>2020-02-09T06:38:37Z</time>
      </trkpt>
      <trkpt lat="59.287415" lon="18.088753">
        <ele>36</ele>
        <time>2020-02-09T06:38:38Z</time>
      </trkpt>
      <trkpt lat="59.287462" lon="18.08881">
        <ele>36</ele>
        <time>2020-02-09T06:38:39Z</time>
      </trkpt>
      <trkpt lat="59.287493" lon="18.088895">
        <ele>36</ele>
        <time>2020-02-09T06:38:40Z</time>
      </trkpt>
      <trkpt lat="59.287526" lon="18.088993">
        <ele>36</ele>
        <time>2020-02-09T06:38:41Z</time>
      </trkpt>
      <trkpt lat="59.287561" lon="18.089074">
        <ele>36</ele>
        <time>2020-02-09T06:38:42Z</time>
      </trkpt>
      <trkpt lat="59.287613" lon="18.089122">
        <ele>36</ele>
        <time>2020-02-09T06:38:43Z</time>
      </trkpt>
      <trkpt lat="59.287671" lon="18.089141">
        <ele>36</ele>
        <time>2020-02-09T06:38:44Z</time>
      </trkpt>
      <trkpt lat="59.28773" lon="18.089151">
        <ele>36</ele>
        <time>2020-02-09T06:38:45Z</time>
      </trkpt>
      <trkpt lat="59.287788" lon="18.089157">
        <ele>36</ele>
        <time>2020-02-09T06:38:46Z</time>
      </trkpt>
      <trkpt lat="59.287845" lon="18.089154">
        <ele>36</ele>
        <time>2020-02-09T06:38:47Z</time>
      </trkpt>
      <trkpt lat="59.287902" lon="18.089134">
        <ele>36</ele>
        <time>2020-02-09T06:38:48Z</time>
      </trkpt>
      <trkpt lat="59.287959" lon="18.089105">
        <ele>36</ele>
        <time>2020-02-09T06:38:49Z</time>
      </trkpt>
      <trkpt lat="59.288016" lon="18.089074">
        <ele>36</ele>
        <time>2020-02-09T06:38:50Z</time>
      </trkpt>
      <trkpt lat="59.288072" lon="18.089042">
        <ele>37</ele>
        <time>2020-02-09T06:38:51Z</time>
      </trkpt>
      <trkpt lat="59.288126" lon="18.089009">
        <ele>37</ele>
        <time>2020-02-09T06:38:52Z</time>
      </trkpt>
      <trkpt lat="59.288183" lon="18.088975">
        <ele>37</ele>
        <time>2020-02-09T06:38:53Z</time>
      </trkpt>
      <trkpt lat="59.288237" lon="18.088943">
        <ele>37</ele>
        <time>2020-02-09T06:38:54Z</time>
      </trkpt>
      <trkpt lat="59.288292" lon="18.088913">
        <ele>37</ele>
        <time>2020-02-09T06:38:55Z</time>
      </trkpt>
      <trkpt lat="59.288349" lon="18.088888">
        <ele>37</ele>
        <time>2020-02-09T06:38:56Z</time>
      </trkpt>
      <trkpt lat="59.288404" lon="18.088866">
        <ele>37</ele>
        <time>2020-02-09T06:38:57Z</time>
      </trkpt>
      <trkpt lat="59.288454" lon="18.088838">
        <ele>37</ele>
        <time>2020-02-09T06:38:58Z</time>
      </trkpt>
      <trkpt lat="59.288503" lon="18.088803">
        <ele>37</ele>
        <time>2020-02-09T06:38:59Z</time>
      </trkpt>
      <trkpt lat="59.28855" lon="18.088771">
        <ele>37</ele>
        <time>2020-02-09T06:39:00Z</time>
      </trkpt>
      <trkpt lat="59.288602" lon="18.088752">
        <ele>37</ele>
        <time>2020-02-09T06:39:01Z</time>
      </trkpt>
      <trkpt lat="59.288652" lon="18.088738">
        <ele>37</ele>
        <time>2020-02-09T06:39:02Z</time>
      </trkpt>
      <trkpt lat="59.288698" lon="18.088718">
        <ele>37</ele>
        <time>2020-02-09T06:39:03Z</time>
      </trkpt>
      <trkpt lat="59.288742" lon="18.088678">
        <ele>37</ele>
        <time>2020-02-09T06:39:04Z</time>
      </trkpt>
      <trkpt lat="59.28877" lon="18.088606">
        <ele>36</ele>
        <time>2020-02-09T06:39:05Z</time>
      </trkpt>
      <trkpt lat="59.28878" lon="18.088518">
        <ele>36</ele>
        <time>2020-02-09T06:39:06Z</time>
      </trkpt>
      <trkpt lat="59.288794" lon="18.088423">
        <ele>37</ele>
        <time>2020-02-09T06:39:07Z</time>
      </trkpt>
      <trkpt lat="59.288821" lon="18.08834">
        <ele>37</ele>
        <time>2020-02-09T06:39:08Z</time>
      </trkpt>
      <trkpt lat="59.288861" lon="18.088274">
        <ele>37</ele>
        <time>2020-02-09T06:39:09Z</time>
      </trkpt>
      <trkpt lat="59.288911" lon="18.088233">
        <ele>37</ele>
        <time>2020-02-09T06:39:10Z</time>
      </trkpt>
      <trkpt lat="59.288962" lon="18.088208">
        <ele>37</ele>
        <time>2020-02-09T06:39:11Z</time>
      </trkpt>
      <trkpt lat="59.28902" lon="18.088185">
        <ele>37</ele>
        <time>2020-02-09T06:39:13Z</time>
      </trkpt>
      <trkpt lat="59.289074" lon="18.088162">
        <ele>37</ele>
        <time>2020-02-09T06:39:13Z</time>
      </trkpt>
      <trkpt lat="59.289132" lon="18.088134">
        <ele>37</ele>
        <time>2020-02-09T06:39:14Z</time>
      </trkpt>
      <trkpt lat="59.289188" lon="18.088107">
        <ele>38</ele>
        <time>2020-02-09T06:39:15Z</time>
      </trkpt>
      <trkpt lat="59.289246" lon="18.088078">
        <ele>38</ele>
        <time>2020-02-09T06:39:16Z</time>
      </trkpt>
      <trkpt lat="59.289304" lon="18.08805">
        <ele>38</ele>
        <time>2020-02-09T06:39:17Z</time>
      </trkpt>
      <trkpt lat="59.289362" lon="18.088026">
        <ele>38</ele>
        <time>2020-02-09T06:39:18Z</time>
      </trkpt>
      <trkpt lat="59.289419" lon="18.088002">
        <ele>37</ele>
        <time>2020-02-09T06:39:19Z</time>
      </trkpt>
      <trkpt lat="59.289478" lon="18.087978">
        <ele>37</ele>
        <time>2020-02-09T06:39:20Z</time>
      </trkpt>
      <trkpt lat="59.289534" lon="18.08795">
        <ele>38</ele>
        <time>2020-02-09T06:39:21Z</time>
      </trkpt>
      <trkpt lat="59.289589" lon="18.08792">
        <ele>38</ele>
        <time>2020-02-09T06:39:22Z</time>
      </trkpt>
      <trkpt lat="59.289646" lon="18.08789">
        <ele>38</ele>
        <time>2020-02-09T06:39:23Z</time>
      </trkpt>
      <trkpt lat="59.2897" lon="18.08786">
        <ele>38</ele>
        <time>2020-02-09T06:39:24Z</time>
      </trkpt>
      <trkpt lat="59.289756" lon="18.087832">
        <ele>37</ele>
        <time>2020-02-09T06:39:25Z</time>
      </trkpt>
      <trkpt lat="59.289812" lon="18.087804">
        <ele>37</ele>
        <time>2020-02-09T06:39:26Z</time>
      </trkpt>
      <trkpt lat="59.289866" lon="18.087772">
        <ele>37</ele>
        <time>2020-02-09T06:39:27Z</time>
      </trkpt>
      <trkpt lat="59.28992" lon="18.087736">
        <ele>37</ele>
        <time>2020-02-09T06:39:28Z</time>
      </trkpt>
      <trkpt lat="59.289972" lon="18.087692">
        <ele>38</ele>
        <time>2020-02-09T06:39:29Z</time>
      </trkpt>
      <trkpt lat="59.290022" lon="18.087642">
        <ele>38</ele>
        <time>2020-02-09T06:39:30Z</time>
      </trkpt>
      <trkpt lat="59.290073" lon="18.08759">
        <ele>38</ele>
        <time>2020-02-09T06:39:31Z</time>
      </trkpt>
      <trkpt lat="59.290124" lon="18.087543">
        <ele>38</ele>
        <time>2020-02-09T06:39:32Z</time>
      </trkpt>
      <trkpt lat="59.290174" lon="18.087504">
        <ele>38</ele>
        <time>2020-02-09T06:39:33Z</time>
      </trkpt>
      <trkpt lat="59.290226" lon="18.087464">
        <ele>38</ele>
        <time>2020-02-09T06:39:34Z</time>
      </trkpt>
      <trkpt lat="59.290277" lon="18.087424">
        <ele>38</ele>
        <time>2020-02-09T06:39:35Z</time>
      </trkpt>
      <trkpt lat="59.290328" lon="18.087386">
        <ele>38</ele>
        <time>2020-02-09T06:39:36Z</time>
      </trkpt>
      <trkpt lat="59.29038" lon="18.087351">
        <ele>38</ele>
        <time>2020-02-09T06:39:37Z</time>
      </trkpt>
      <trkpt lat="59.290431" lon="18.087316">
        <ele>39</ele>
        <time>2020-02-09T06:39:38Z</time>
      </trkpt>
      <trkpt lat="59.290483" lon="18.087282">
        <ele>39</ele>
        <time>2020-02-09T06:39:39Z</time>
      </trkpt>
      <trkpt lat="59.290536" lon="18.08725">
        <ele>39</ele>
        <time>2020-02-09T06:39:40Z</time>
      </trkpt>
      <trkpt lat="59.290588" lon="18.087219">
        <ele>39</ele>
        <time>2020-02-09T06:39:41Z</time>
      </trkpt>
      <trkpt lat="59.29064" lon="18.08719">
        <ele>39</ele>
        <time>2020-02-09T06:39:42Z</time>
      </trkpt>
      <trkpt lat="59.290692" lon="18.087161">
        <ele>39</ele>
        <time>2020-02-09T06:39:43Z</time>
      </trkpt>
      <trkpt lat="59.290744" lon="18.087134">
        <ele>39</ele>
        <time>2020-02-09T06:39:44Z</time>
      </trkpt>
      <trkpt lat="59.290796" lon="18.087108">
        <ele>39</ele>
        <time>2020-02-09T06:39:45Z</time>
      </trkpt>
      <trkpt lat="59.290847" lon="18.087078">
        <ele>39</ele>
        <time>2020-02-09T06:39:46Z</time>
      </trkpt>
      <trkpt lat="59.290898" lon="18.087048">
        <ele>39</ele>
        <time>2020-02-09T06:39:47Z</time>
      </trkpt>
      <trkpt lat="59.290949" lon="18.08702">
        <ele>39</ele>
        <time>2020-02-09T06:39:48Z</time>
      </trkpt>
      <trkpt lat="59.290997" lon="18.086996">
        <ele>40</ele>
        <time>2020-02-09T06:39:49Z</time>
      </trkpt>
      <trkpt lat="59.291044" lon="18.086974">
        <ele>40</ele>
        <time>2020-02-09T06:39:50Z</time>
      </trkpt>
      <trkpt lat="59.29109" lon="18.086954">
        <ele>40</ele>
        <time>2020-02-09T06:39:51Z</time>
      </trkpt>
      <trkpt lat="59.291134" lon="18.086932">
        <ele>40</ele>
        <time>2020-02-09T06:39:52Z</time>
      </trkpt>
      <trkpt lat="59.291178" lon="18.086906">
        <ele>40</ele>
        <time>2020-02-09T06:39:53Z</time>
      </trkpt>
      <trkpt lat="59.29122" lon="18.086882">
        <ele>40</ele>
        <time>2020-02-09T06:39:54Z</time>
      </trkpt>
      <trkpt lat="59.291262" lon="18.08686">
        <ele>40</ele>
        <time>2020-02-09T06:39:55Z</time>
      </trkpt>
      <trkpt lat="59.291302" lon="18.086837">
        <ele>40</ele>
        <time>2020-02-09T06:39:56Z</time>
      </trkpt>
      <trkpt lat="59.291343" lon="18.086814">
        <ele>41</ele>
        <time>2020-02-09T06:39:57Z</time>
      </trkpt>
      <trkpt lat="59.291384" lon="18.086796">
        <ele>41</ele>
        <time>2020-02-09T06:39:58Z</time>
      </trkpt>
      <trkpt lat="59.291425" lon="18.086775">
        <ele>41</ele>
        <time>2020-02-09T06:39:59Z</time>
      </trkpt>
      <trkpt lat="59.291465" lon="18.086754">
        <ele>41</ele>
        <time>2020-02-09T06:40:00Z</time>
      </trkpt>
      <trkpt lat="59.291506" lon="18.086734">
        <ele>41</ele>
        <time>2020-02-09T06:40:01Z</time>
      </trkpt>
      <trkpt lat="59.291549" lon="18.086716">
        <ele>41</ele>
        <time>2020-02-09T06:40:02Z</time>
      </trkpt>
      <trkpt lat="59.29159" lon="18.086698">
        <ele>41</ele>
        <time>2020-02-09T06:40:03Z</time>
      </trkpt>
      <trkpt lat="59.291632" lon="18.086681">
        <ele>41</ele>
        <time>2020-02-09T06:40:04Z</time>
      </trkpt>
      <trkpt lat="59.291672" lon="18.086664">
        <ele>41</ele>
        <time>2020-02-09T06:40:05Z</time>
      </trkpt>
      <trkpt lat="59.291713" lon="18.086646">
        <ele>42</ele>
        <time>2020-02-09T06:40:06Z</time>
      </trkpt>
      <trkpt lat="59.291754" lon="18.086626">
        <ele>42</ele>
        <time>2020-02-09T06:40:07Z</time>
      </trkpt>
      <trkpt lat="59.291795" lon="18.086603">
        <ele>42</ele>
        <time>2020-02-09T06:40:08Z</time>
      </trkpt>
      <trkpt lat="59.291839" lon="18.086579">
        <ele>42</ele>
        <time>2020-02-09T06:40:09Z</time>
      </trkpt>
      <trkpt lat="59.291879" lon="18.086558">
        <ele>43</ele>
        <time>2020-02-09T06:40:10Z</time>
      </trkpt>
      <trkpt lat="59.29192" lon="18.086536">
        <ele>43</ele>
        <time>2020-02-09T06:40:11Z</time>
      </trkpt>
      <trkpt lat="59.29196" lon="18.086515">
        <ele>43</ele>
        <time>2020-02-09T06:40:12Z</time>
      </trkpt>
      <trkpt lat="59.292002" lon="18.086494">
        <ele>43</ele>
        <time>2020-02-09T06:40:13Z</time>
      </trkpt>
      <trkpt lat="59.292046" lon="18.086472">
        <ele>43</ele>
        <time>2020-02-09T06:40:14Z</time>
      </trkpt>
      <trkpt lat="59.292089" lon="18.08645">
        <ele>43</ele>
        <time>2020-02-09T06:40:15Z</time>
      </trkpt>
      <trkpt lat="59.292132" lon="18.086428">
        <ele>44</ele>
        <time>2020-02-09T06:40:16Z</time>
      </trkpt>
      <trkpt lat="59.292177" lon="18.086406">
        <ele>44</ele>
        <time>2020-02-09T06:40:17Z</time>
      </trkpt>
      <trkpt lat="59.292222" lon="18.086381">
        <ele>44</ele>
        <time>2020-02-09T06:40:18Z</time>
      </trkpt>
      <trkpt lat="59.292268" lon="18.086355">
        <ele>44</ele>
        <time>2020-02-09T06:40:19Z</time>
      </trkpt>
      <trkpt lat="59.292313" lon="18.086331">
        <ele>45</ele>
        <time>2020-02-09T06:40:20Z</time>
      </trkpt>
      <trkpt lat="59.292358" lon="18.086307">
        <ele>45</ele>
        <time>2020-02-09T06:40:21Z</time>
      </trkpt>
      <trkpt lat="59.292404" lon="18.086281">
        <ele>45</ele>
        <time>2020-02-09T06:40:22Z</time>
      </trkpt>
      <trkpt lat="59.29245" lon="18.086259">
        <ele>45</ele>
        <time>2020-02-09T06:40:23Z</time>
      </trkpt>
      <trkpt lat="59.292494" lon="18.086238">
        <ele>45</ele>
        <time>2020-02-09T06:40:24Z</time>
      </trkpt>
      <trkpt lat="59.29254" lon="18.086218">
        <ele>45</ele>
        <time>2020-02-09T06:40:25Z</time>
      </trkpt>
      <trkpt lat="59.292586" lon="18.086198">
        <ele>45</ele>
        <time>2020-02-09T06:40:26Z</time>
      </trkpt>
      <trkpt lat="59.292633" lon="18.086174">
        <ele>45</ele>
        <time>2020-02-09T06:40:27Z</time>
      </trkpt>
      <trkpt lat="59.292679" lon="18.086146">
        <ele>45</ele>
        <time>2020-02-09T06:40:28Z</time>
      </trkpt>
      <trkpt lat="59.292729" lon="18.08612">
        <ele>45</ele>
        <time>2020-02-09T06:40:29Z</time>
      </trkpt>
      <trkpt lat="59.29278" lon="18.086098">
        <ele>45</ele>
        <time>2020-02-09T06:40:30Z</time>
      </trkpt>
      <trkpt lat="59.292834" lon="18.086074">
        <ele>46</ele>
        <time>2020-02-09T06:40:31Z</time>
      </trkpt>
      <trkpt lat="59.292889" lon="18.086049">
        <ele>46</ele>
        <time>2020-02-09T06:40:32Z</time>
      </trkpt>
      <trkpt lat="59.292943" lon="18.086024">
        <ele>46</ele>
        <time>2020-02-09T06:40:33Z</time>
      </trkpt>
      <trkpt lat="59.292999" lon="18.085999">
        <ele>45</ele>
        <time>2020-02-09T06:40:34Z</time>
      </trkpt>
      <trkpt lat="59.293056" lon="18.085973">
        <ele>46</ele>
        <time>2020-02-09T06:40:35Z</time>
      </trkpt>
      <trkpt lat="59.29311" lon="18.085941">
        <ele>46</ele>
        <time>2020-02-09T06:40:36Z</time>
      </trkpt>
      <trkpt lat="59.293162" lon="18.085907">
        <ele>46</ele>
        <time>2020-02-09T06:40:37Z</time>
      </trkpt>
      <trkpt lat="59.293213" lon="18.085873">
        <ele>46</ele>
        <time>2020-02-09T06:40:38Z</time>
      </trkpt>
      <trkpt lat="59.293267" lon="18.085839">
        <ele>46</ele>
        <time>2020-02-09T06:40:39Z</time>
      </trkpt>
      <trkpt lat="59.293324" lon="18.0858">
        <ele>47</ele>
        <time>2020-02-09T06:40:40Z</time>
      </trkpt>
      <trkpt lat="59.293378" lon="18.085763">
        <ele>47</ele>
        <time>2020-02-09T06:40:41Z</time>
      </trkpt>
      <trkpt lat="59.293433" lon="18.085724">
        <ele>47</ele>
        <time>2020-02-09T06:40:42Z</time>
      </trkpt>
      <trkpt lat="59.293495" lon="18.085691">
        <ele>47</ele>
        <time>2020-02-09T06:40:43Z</time>
      </trkpt>
      <trkpt lat="59.293557" lon="18.085655">
        <ele>47</ele>
        <time>2020-02-09T06:40:44Z</time>
      </trkpt>
      <trkpt lat="59.293617" lon="18.085617">
        <ele>47</ele>
        <time>2020-02-09T06:40:45Z</time>
      </trkpt>
      <trkpt lat="59.293676" lon="18.085579">
        <ele>47</ele>
        <time>2020-02-09T06:40:46Z</time>
      </trkpt>
      <trkpt lat="59.293737" lon="18.08554">
        <ele>47</ele>
        <time>2020-02-09T06:40:47Z</time>
      </trkpt>
      <trkpt lat="59.293796" lon="18.085504">
        <ele>47</ele>
        <time>2020-02-09T06:40:48Z</time>
      </trkpt>
      <trkpt lat="59.293856" lon="18.085469">
        <ele>47</ele>
        <time>2020-02-09T06:40:49Z</time>
      </trkpt>
      <trkpt lat="59.293918" lon="18.085432">
        <ele>47</ele>
        <time>2020-02-09T06:40:50Z</time>
      </trkpt>
      <trkpt lat="59.293979" lon="18.085393">
        <ele>48</ele>
        <time>2020-02-09T06:40:51Z</time>
      </trkpt>
      <trkpt lat="59.294038" lon="18.085353">
        <ele>48</ele>
        <time>2020-02-09T06:40:52Z</time>
      </trkpt>
      <trkpt lat="59.294093" lon="18.085314">
        <ele>48</ele>
        <time>2020-02-09T06:40:53Z</time>
      </trkpt>
      <trkpt lat="59.29415" lon="18.08528">
        <ele>48</ele>
        <time>2020-02-09T06:40:54Z</time>
      </trkpt>
      <trkpt lat="59.294203" lon="18.085249">
        <ele>49</ele>
        <time>2020-02-09T06:40:55Z</time>
      </trkpt>
      <trkpt lat="59.294304" lon="18.085149">
        <ele>49</ele>
        <time>2020-02-09T06:40:58Z</time>
      </trkpt>
      <trkpt lat="59.294436" lon="18.085048">
        <ele>49</ele>
        <time>2020-02-09T06:41:01Z</time>
      </trkpt>
      <trkpt lat="59.294534" lon="18.084876">
        <ele>51</ele>
        <time>2020-02-09T06:41:03Z</time>
      </trkpt>
      <trkpt lat="59.294648" lon="18.084855">
        <ele>52</ele>
        <time>2020-02-09T06:41:05Z</time>
      </trkpt>
      <trkpt lat="59.294767" lon="18.084812">
        <ele>52</ele>
        <time>2020-02-09T06:41:06Z</time>
      </trkpt>
      <trkpt lat="59.294845" lon="18.084779">
        <ele>52</ele>
        <time>2020-02-09T06:41:07Z</time>
      </trkpt>
      <trkpt lat="59.294914" lon="18.084746">
        <ele>53</ele>
        <time>2020-02-09T06:41:08Z</time>
      </trkpt>
      <trkpt lat="59.294977" lon="18.08472">
        <ele>52</ele>
        <time>2020-02-09T06:41:09Z</time>
      </trkpt>
      <trkpt lat="59.295036" lon="18.084699">
        <ele>52</ele>
        <time>2020-02-09T06:41:10Z</time>
      </trkpt>
      <trkpt lat="59.295093" lon="18.084682">
        <ele>52</ele>
        <time>2020-02-09T06:41:11Z</time>
      </trkpt>
      <trkpt lat="59.295149" lon="18.084666">
        <ele>52</ele>
        <time>2020-02-09T06:41:12Z</time>
      </trkpt>
      <trkpt lat="59.295205" lon="18.084647">
        <ele>51</ele>
        <time>2020-02-09T06:41:13Z</time>
      </trkpt>
      <trkpt lat="59.295259" lon="18.084624">
        <ele>51</ele>
        <time>2020-02-09T06:41:14Z</time>
      </trkpt>
      <trkpt lat="59.29531" lon="18.084603">
        <ele>51</ele>
        <time>2020-02-09T06:41:15Z</time>
      </trkpt>
      <trkpt lat="59.295361" lon="18.08458">
        <ele>50</ele>
        <time>2020-02-09T06:41:16Z</time>
      </trkpt>
      <trkpt lat="59.295412" lon="18.084557">
        <ele>50</ele>
        <time>2020-02-09T06:41:17Z</time>
      </trkpt>
      <trkpt lat="59.295467" lon="18.084532">
        <ele>50</ele>
        <time>2020-02-09T06:41:18Z</time>
      </trkpt>
      <trkpt lat="59.295519" lon="18.084505">
        <ele>50</ele>
        <time>2020-02-09T06:41:19Z</time>
      </trkpt>
      <trkpt lat="59.29557" lon="18.084478">
        <ele>50</ele>
        <time>2020-02-09T06:41:20Z</time>
      </trkpt>
      <trkpt lat="59.295619" lon="18.084451">
        <ele>50</ele>
        <time>2020-02-09T06:41:21Z</time>
      </trkpt>
      <trkpt lat="59.295669" lon="18.084425">
        <ele>49</ele>
        <time>2020-02-09T06:41:22Z</time>
      </trkpt>
      <trkpt lat="59.295717" lon="18.084399">
        <ele>49</ele>
        <time>2020-02-09T06:41:23Z</time>
      </trkpt>
      <trkpt lat="59.295766" lon="18.084373">
        <ele>49</ele>
        <time>2020-02-09T06:41:24Z</time>
      </trkpt>
      <trkpt lat="59.295814" lon="18.084348">
        <ele>49</ele>
        <time>2020-02-09T06:41:25Z</time>
      </trkpt>
      <trkpt lat="59.295864" lon="18.084322">
        <ele>49</ele>
        <time>2020-02-09T06:41:26Z</time>
      </trkpt>
      <trkpt lat="59.295913" lon="18.084297">
        <ele>49</ele>
        <time>2020-02-09T06:41:27Z</time>
      </trkpt>
      <trkpt lat="59.295963" lon="18.08427">
        <ele>48</ele>
        <time>2020-02-09T06:41:28Z</time>
      </trkpt>
      <trkpt lat="59.296014" lon="18.084242">
        <ele>48</ele>
        <time>2020-02-09T06:41:29Z</time>
      </trkpt>
      <trkpt lat="59.296064" lon="18.084212">
        <ele>48</ele>
        <time>2020-02-09T06:41:30Z</time>
      </trkpt>
      <trkpt lat="59.296115" lon="18.084182">
        <ele>48</ele>
        <time>2020-02-09T06:41:31Z</time>
      </trkpt>
      <trkpt lat="59.296168" lon="18.084155">
        <ele>48</ele>
        <time>2020-02-09T06:41:32Z</time>
      </trkpt>
      <trkpt lat="59.296225" lon="18.084139">
        <ele>47</ele>
        <time>2020-02-09T06:41:33Z</time>
      </trkpt>
      <trkpt lat="59.296282" lon="18.084139">
        <ele>47</ele>
        <time>2020-02-09T06:41:34Z</time>
      </trkpt>
      <trkpt lat="59.296337" lon="18.084166">
        <ele>47</ele>
        <time>2020-02-09T06:41:35Z</time>
      </trkpt>
      <trkpt lat="59.296387" lon="18.084233">
        <ele>47</ele>
        <time>2020-02-09T06:41:36Z</time>
      </trkpt>
      <trkpt lat="59.296425" lon="18.08433">
        <ele>47</ele>
        <time>2020-02-09T06:41:37Z</time>
      </trkpt>
      <trkpt lat="59.296452" lon="18.084438">
        <ele>47</ele>
        <time>2020-02-09T06:41:38Z</time>
      </trkpt>
      <trkpt lat="59.296479" lon="18.08454">
        <ele>46</ele>
        <time>2020-02-09T06:41:39Z</time>
      </trkpt>
      <trkpt lat="59.296517" lon="18.084615">
        <ele>46</ele>
        <time>2020-02-09T06:41:40Z</time>
      </trkpt>
      <trkpt lat="59.296563" lon="18.084658">
        <ele>46</ele>
        <time>2020-02-09T06:41:41Z</time>
      </trkpt>
      <trkpt lat="59.296612" lon="18.084671">
        <ele>46</ele>
        <time>2020-02-09T06:41:42Z</time>
      </trkpt>
      <trkpt lat="59.296662" lon="18.084669">
        <ele>46</ele>
        <time>2020-02-09T06:41:43Z</time>
      </trkpt>
      <trkpt lat="59.296714" lon="18.084667">
        <ele>46</ele>
        <time>2020-02-09T06:41:44Z</time>
      </trkpt>
      <trkpt lat="59.296766" lon="18.084667">
        <ele>46</ele>
        <time>2020-02-09T06:41:45Z</time>
      </trkpt>
      <trkpt lat="59.296821" lon="18.084665">
        <ele>46</ele>
        <time>2020-02-09T06:41:46Z</time>
      </trkpt>
      <trkpt lat="59.296876" lon="18.084666">
        <ele>46</ele>
        <time>2020-02-09T06:41:47Z</time>
      </trkpt>
      <trkpt lat="59.296934" lon="18.084669">
        <ele>45</ele>
        <time>2020-02-09T06:41:48Z</time>
      </trkpt>
      <trkpt lat="59.296995" lon="18.084663">
        <ele>45</ele>
        <time>2020-02-09T06:41:49Z</time>
      </trkpt>
      <trkpt lat="59.297055" lon="18.084635">
        <ele>45</ele>
        <time>2020-02-09T06:41:50Z</time>
      </trkpt>
      <trkpt lat="59.297113" lon="18.084573">
        <ele>45</ele>
        <time>2020-02-09T06:41:51Z</time>
      </trkpt>
      <trkpt lat="59.297165" lon="18.084481">
        <ele>45</ele>
        <time>2020-02-09T06:41:52Z</time>
      </trkpt>
      <trkpt lat="59.297208" lon="18.084368">
        <ele>45</ele>
        <time>2020-02-09T06:41:53Z</time>
      </trkpt>
      <trkpt lat="59.297242" lon="18.084235">
        <ele>44</ele>
        <time>2020-02-09T06:41:54Z</time>
      </trkpt>
      <trkpt lat="59.297263" lon="18.08409">
        <ele>44</ele>
        <time>2020-02-09T06:41:55Z</time>
      </trkpt>
      <trkpt lat="59.297272" lon="18.083938">
        <ele>44</ele>
        <time>2020-02-09T06:41:56Z</time>
      </trkpt>
      <trkpt lat="59.297272" lon="18.083786">
        <ele>44</ele>
        <time>2020-02-09T06:41:57Z</time>
      </trkpt>
      <trkpt lat="59.297266" lon="18.083643">
        <ele>45</ele>
        <time>2020-02-09T06:41:58Z</time>
      </trkpt>
      <trkpt lat="59.297272" lon="18.083512">
        <ele>45</ele>
        <time>2020-02-09T06:41:59Z</time>
      </trkpt>
      <trkpt lat="59.297298" lon="18.083402">
        <ele>44</ele>
        <time>2020-02-09T06:42:00Z</time>
      </trkpt>
      <trkpt lat="59.297339" lon="18.083319">
        <ele>44</ele>
        <time>2020-02-09T06:42:01Z</time>
      </trkpt>
      <trkpt lat="59.29739" lon="18.083261">
        <ele>44</ele>
        <time>2020-02-09T06:42:02Z</time>
      </trkpt>
      <trkpt lat="59.297443" lon="18.083216">
        <ele>44</ele>
        <time>2020-02-09T06:42:03Z</time>
      </trkpt>
      <trkpt lat="59.297501" lon="18.083176">
        <ele>44</ele>
        <time>2020-02-09T06:42:04Z</time>
      </trkpt>
      <trkpt lat="59.297561" lon="18.083137">
        <ele>44</ele>
        <time>2020-02-09T06:42:05Z</time>
      </trkpt>
      <trkpt lat="59.297622" lon="18.0831">
        <ele>44</ele>
        <time>2020-02-09T06:42:06Z</time>
      </trkpt>
      <trkpt lat="59.297681" lon="18.083065">
        <ele>44</ele>
        <time>2020-02-09T06:42:07Z</time>
      </trkpt>
      <trkpt lat="59.297742" lon="18.083043">
        <ele>44</ele>
        <time>2020-02-09T06:42:08Z</time>
      </trkpt>
      <trkpt lat="59.297804" lon="18.083034">
        <ele>44</ele>
        <time>2020-02-09T06:42:09Z</time>
      </trkpt>
      <trkpt lat="59.29787" lon="18.083028">
        <ele>44</ele>
        <time>2020-02-09T06:42:10Z</time>
      </trkpt>
      <trkpt lat="59.297939" lon="18.083016">
        <ele>44</ele>
        <time>2020-02-09T06:42:11Z</time>
      </trkpt>
      <trkpt lat="59.298009" lon="18.082992">
        <ele>44</ele>
        <time>2020-02-09T06:42:12Z</time>
      </trkpt>
      <trkpt lat="59.29808" lon="18.082954">
        <ele>44</ele>
        <time>2020-02-09T06:42:13Z</time>
      </trkpt>
      <trkpt lat="59.298153" lon="18.082907">
        <ele>44</ele>
        <time>2020-02-09T06:42:14Z</time>
      </trkpt>
      <trkpt lat="59.298226" lon="18.082856">
        <ele>44</ele>
        <time>2020-02-09T06:42:15Z</time>
      </trkpt>
      <trkpt lat="59.298297" lon="18.082799">
        <ele>44</ele>
        <time>2020-02-09T06:42:16Z</time>
      </trkpt>
      <trkpt lat="59.298364" lon="18.082735">
        <ele>44</ele>
        <time>2020-02-09T06:42:17Z</time>
      </trkpt>
      <trkpt lat="59.298429" lon="18.082665">
        <ele>44</ele>
        <time>2020-02-09T06:42:18Z</time>
      </trkpt>
      <trkpt lat="59.298497" lon="18.082598">
        <ele>44</ele>
        <time>2020-02-09T06:42:20Z</time>
      </trkpt>
      <trkpt lat="59.298567" lon="18.08254">
        <ele>44</ele>
        <time>2020-02-09T06:42:20Z</time>
      </trkpt>
      <trkpt lat="59.298635" lon="18.082485">
        <ele>44</ele>
        <time>2020-02-09T06:42:21Z</time>
      </trkpt>
      <trkpt lat="59.298703" lon="18.08244">
        <ele>44</ele>
        <time>2020-02-09T06:42:22Z</time>
      </trkpt>
      <trkpt lat="59.298771" lon="18.082395">
        <ele>44</ele>
        <time>2020-02-09T06:42:23Z</time>
      </trkpt>
      <trkpt lat="59.29884" lon="18.08235">
        <ele>44</ele>
        <time>2020-02-09T06:42:24Z</time>
      </trkpt>
      <trkpt lat="59.298909" lon="18.082303">
        <ele>43</ele>
        <time>2020-02-09T06:42:25Z</time>
      </trkpt>
      <trkpt lat="59.298978" lon="18.08226">
        <ele>43</ele>
        <time>2020-02-09T06:42:26Z</time>
      </trkpt>
      <trkpt lat="59.29905" lon="18.082227">
        <ele>43</ele>
        <time>2020-02-09T06:42:27Z</time>
      </trkpt>
      <trkpt lat="59.299117" lon="18.082201">
        <ele>43</ele>
        <time>2020-02-09T06:42:28Z</time>
      </trkpt>
      <trkpt lat="59.299177" lon="18.082169">
        <ele>43</ele>
        <time>2020-02-09T06:42:29Z</time>
      </trkpt>
      <trkpt lat="59.299235" lon="18.082145">
        <ele>43</ele>
        <time>2020-02-09T06:42:30Z</time>
      </trkpt>
      <trkpt lat="59.29929" lon="18.082155">
        <ele>43</ele>
        <time>2020-02-09T06:42:31Z</time>
      </trkpt>
      <trkpt lat="59.299349" lon="18.082164">
        <ele>44</ele>
        <time>2020-02-09T06:42:32Z</time>
      </trkpt>
      <trkpt lat="59.29942" lon="18.082145">
        <ele>44</ele>
        <time>2020-02-09T06:42:33Z</time>
      </trkpt>
      <trkpt lat="59.299487" lon="18.082136">
        <ele>44</ele>
        <time>2020-02-09T06:42:34Z</time>
      </trkpt>
      <trkpt lat="59.299559" lon="18.0821">
        <ele>44</ele>
        <time>2020-02-09T06:42:35Z</time>
      </trkpt>
      <trkpt lat="59.299625" lon="18.082066">
        <ele>44</ele>
        <time>2020-02-09T06:42:36Z</time>
      </trkpt>
      <trkpt lat="59.299692" lon="18.082032">
        <ele>44</ele>
        <time>2020-02-09T06:42:37Z</time>
      </trkpt>
      <trkpt lat="59.299758" lon="18.081996">
        <ele>43</ele>
        <time>2020-02-09T06:42:38Z</time>
      </trkpt>
      <trkpt lat="59.299827" lon="18.081959">
        <ele>43</ele>
        <time>2020-02-09T06:42:39Z</time>
      </trkpt>
      <trkpt lat="59.299892" lon="18.081915">
        <ele>43</ele>
        <time>2020-02-09T06:42:40Z</time>
      </trkpt>
      <trkpt lat="59.299954" lon="18.081865">
        <ele>43</ele>
        <time>2020-02-09T06:42:41Z</time>
      </trkpt>
      <trkpt lat="59.300014" lon="18.081813">
        <ele>43</ele>
        <time>2020-02-09T06:42:42Z</time>
      </trkpt>
      <trkpt lat="59.300075" lon="18.081763">
        <ele>43</ele>
        <time>2020-02-09T06:42:43Z</time>
      </trkpt>
      <trkpt lat="59.300134" lon="18.081719">
        <ele>43</ele>
        <time>2020-02-09T06:42:44Z</time>
      </trkpt>
      <trkpt lat="59.300197" lon="18.081683">
        <ele>43</ele>
        <time>2020-02-09T06:42:45Z</time>
      </trkpt>
      <trkpt lat="59.300257" lon="18.081651">
        <ele>43</ele>
        <time>2020-02-09T06:42:46Z</time>
      </trkpt>
      <trkpt lat="59.300318" lon="18.081618">
        <ele>43</ele>
        <time>2020-02-09T06:42:47Z</time>
      </trkpt>
      <trkpt lat="59.300381" lon="18.081582">
        <ele>42</ele>
        <time>2020-02-09T06:42:48Z</time>
      </trkpt>
      <trkpt lat="59.300438" lon="18.081543">
        <ele>42</ele>
        <time>2020-02-09T06:42:49Z</time>
      </trkpt>
      <trkpt lat="59.300503" lon="18.081502">
        <ele>42</ele>
        <time>2020-02-09T06:42:50Z</time>
      </trkpt>
      <trkpt lat="59.300567" lon="18.081459">
        <ele>42</ele>
        <time>2020-02-09T06:42:51Z</time>
      </trkpt>
      <trkpt lat="59.30063" lon="18.081414">
        <ele>42</ele>
        <time>2020-02-09T06:42:52Z</time>
      </trkpt>
      <trkpt lat="59.300692" lon="18.081367">
        <ele>42</ele>
        <time>2020-02-09T06:42:53Z</time>
      </trkpt>
      <trkpt lat="59.300756" lon="18.081315">
        <ele>41</ele>
        <time>2020-02-09T06:42:54Z</time>
      </trkpt>
      <trkpt lat="59.300817" lon="18.081259">
        <ele>41</ele>
        <time>2020-02-09T06:42:55Z</time>
      </trkpt>
      <trkpt lat="59.30088" lon="18.081199">
        <ele>41</ele>
        <time>2020-02-09T06:42:56Z</time>
      </trkpt>
      <trkpt lat="59.300941" lon="18.081137">
        <ele>41</ele>
        <time>2020-02-09T06:42:57Z</time>
      </trkpt>
      <trkpt lat="59.301005" lon="18.081076">
        <ele>41</ele>
        <time>2020-02-09T06:42:58Z</time>
      </trkpt>
      <trkpt lat="59.301066" lon="18.081017">
        <ele>41</ele>
        <time>2020-02-09T06:42:59Z</time>
      </trkpt>
      <trkpt lat="59.30113" lon="18.080958">
        <ele>41</ele>
        <time>2020-02-09T06:43:00Z</time>
      </trkpt>
      <trkpt lat="59.301194" lon="18.080899">
        <ele>40</ele>
        <time>2020-02-09T06:43:01Z</time>
      </trkpt>
      <trkpt lat="59.301257" lon="18.080842">
        <ele>40</ele>
        <time>2020-02-09T06:43:02Z</time>
      </trkpt>
      <trkpt lat="59.301321" lon="18.080789">
        <ele>40</ele>
        <time>2020-02-09T06:43:03Z</time>
      </trkpt>
      <trkpt lat="59.301385" lon="18.080736">
        <ele>40</ele>
        <time>2020-02-09T06:43:04Z</time>
      </trkpt>
      <trkpt lat="59.301448" lon="18.080685">
        <ele>40</ele>
        <time>2020-02-09T06:43:05Z</time>
      </trkpt>
      <trkpt lat="59.301512" lon="18.080634">
        <ele>40</ele>
        <time>2020-02-09T06:43:06Z</time>
      </trkpt>
      <trkpt lat="59.301574" lon="18.080584">
        <ele>40</ele>
        <time>2020-02-09T06:43:07Z</time>
      </trkpt>
      <trkpt lat="59.301637" lon="18.080535">
        <ele>39</ele>
        <time>2020-02-09T06:43:08Z</time>
      </trkpt>
      <trkpt lat="59.301699" lon="18.080486">
        <ele>39</ele>
        <time>2020-02-09T06:43:09Z</time>
      </trkpt>
      <trkpt lat="59.301761" lon="18.080439">
        <ele>39</ele>
        <time>2020-02-09T06:43:10Z</time>
      </trkpt>
      <trkpt lat="59.301825" lon="18.080394">
        <ele>39</ele>
        <time>2020-02-09T06:43:11Z</time>
      </trkpt>
      <trkpt lat="59.301888" lon="18.080353">
        <ele>39</ele>
        <time>2020-02-09T06:43:12Z</time>
      </trkpt>
      <trkpt lat="59.301949" lon="18.080312">
        <ele>39</ele>
        <time>2020-02-09T06:43:13Z</time>
      </trkpt>
      <trkpt lat="59.302009" lon="18.080269">
        <ele>39</ele>
        <time>2020-02-09T06:43:14Z</time>
      </trkpt>
      <trkpt lat="59.302068" lon="18.080225">
        <ele>39</ele>
        <time>2020-02-09T06:43:15Z</time>
      </trkpt>
      <trkpt lat="59.302132" lon="18.080185">
        <ele>38</ele>
        <time>2020-02-09T06:43:16Z</time>
      </trkpt>
      <trkpt lat="59.302196" lon="18.080147">
        <ele>38</ele>
        <time>2020-02-09T06:43:17Z</time>
      </trkpt>
      <trkpt lat="59.302259" lon="18.080109">
        <ele>38</ele>
        <time>2020-02-09T06:43:18Z</time>
      </trkpt>
      <trkpt lat="59.302322" lon="18.080072">
        <ele>38</ele>
        <time>2020-02-09T06:43:19Z</time>
      </trkpt>
      <trkpt lat="59.302387" lon="18.080037">
        <ele>38</ele>
        <time>2020-02-09T06:43:20Z</time>
      </trkpt>
      <trkpt lat="59.302452" lon="18.080002">
        <ele>37</ele>
        <time>2020-02-09T06:43:21Z</time>
      </trkpt>
      <trkpt lat="59.302515" lon="18.079967">
        <ele>37</ele>
        <time>2020-02-09T06:43:22Z</time>
      </trkpt>
      <trkpt lat="59.302576" lon="18.079927">
        <ele>37</ele>
        <time>2020-02-09T06:43:23Z</time>
      </trkpt>
      <trkpt lat="59.302638" lon="18.079886">
        <ele>37</ele>
        <time>2020-02-09T06:43:24Z</time>
      </trkpt>
      <trkpt lat="59.302699" lon="18.079846">
        <ele>37</ele>
        <time>2020-02-09T06:43:25Z</time>
      </trkpt>
      <trkpt lat="59.302761" lon="18.079807">
        <ele>37</ele>
        <time>2020-02-09T06:43:26Z</time>
      </trkpt>
      <trkpt lat="59.302823" lon="18.079768">
        <ele>37</ele>
        <time>2020-02-09T06:43:27Z</time>
      </trkpt>
      <trkpt lat="59.302886" lon="18.079728">
        <ele>37</ele>
        <time>2020-02-09T06:43:28Z</time>
      </trkpt>
      <trkpt lat="59.302949" lon="18.079687">
        <ele>36</ele>
        <time>2020-02-09T06:43:29Z</time>
      </trkpt>
      <trkpt lat="59.303012" lon="18.079648">
        <ele>36</ele>
        <time>2020-02-09T06:43:30Z</time>
      </trkpt>
      <trkpt lat="59.303075" lon="18.079608">
        <ele>36</ele>
        <time>2020-02-09T06:43:31Z</time>
      </trkpt>
      <trkpt lat="59.303138" lon="18.079569">
        <ele>36</ele>
        <time>2020-02-09T06:43:32Z</time>
      </trkpt>
      <trkpt lat="59.303201" lon="18.07953">
        <ele>36</ele>
        <time>2020-02-09T06:43:33Z</time>
      </trkpt>
      <trkpt lat="59.303264" lon="18.07949">
        <ele>36</ele>
        <time>2020-02-09T06:43:34Z</time>
      </trkpt>
      <trkpt lat="59.303328" lon="18.07945">
        <ele>36</ele>
        <time>2020-02-09T06:43:35Z</time>
      </trkpt>
      <trkpt lat="59.303392" lon="18.079409">
        <ele>36</ele>
        <time>2020-02-09T06:43:36Z</time>
      </trkpt>
      <trkpt lat="59.303459" lon="18.079367">
        <ele>36</ele>
        <time>2020-02-09T06:43:37Z</time>
      </trkpt>
      <trkpt lat="59.303524" lon="18.079326">
        <ele>35</ele>
        <time>2020-02-09T06:43:38Z</time>
      </trkpt>
      <trkpt lat="59.30359" lon="18.079284">
        <ele>35</ele>
        <time>2020-02-09T06:43:39Z</time>
      </trkpt>
      <trkpt lat="59.303656" lon="18.079241">
        <ele>35</ele>
        <time>2020-02-09T06:43:40Z</time>
      </trkpt>
      <trkpt lat="59.303725" lon="18.079197">
        <ele>34</ele>
        <time>2020-02-09T06:43:41Z</time>
      </trkpt>
      <trkpt lat="59.303795" lon="18.079152">
        <ele>34</ele>
        <time>2020-02-09T06:43:42Z</time>
      </trkpt>
      <trkpt lat="59.303867" lon="18.079107">
        <ele>34</ele>
        <time>2020-02-09T06:43:43Z</time>
      </trkpt>
      <trkpt lat="59.30394" lon="18.079062">
        <ele>33</ele>
        <time>2020-02-09T06:43:44Z</time>
      </trkpt>
      <trkpt lat="59.304014" lon="18.079016">
        <ele>33</ele>
        <time>2020-02-09T06:43:45Z</time>
      </trkpt>
      <trkpt lat="59.304089" lon="18.078968">
        <ele>33</ele>
        <time>2020-02-09T06:43:46Z</time>
      </trkpt>
      <trkpt lat="59.304164" lon="18.078919">
        <ele>32</ele>
        <time>2020-02-09T06:43:47Z</time>
      </trkpt>
      <trkpt lat="59.30424" lon="18.078871">
        <ele>32</ele>
        <time>2020-02-09T06:43:48Z</time>
      </trkpt>
      <trkpt lat="59.304317" lon="18.078826">
        <ele>32</ele>
        <time>2020-02-09T06:43:49Z</time>
      </trkpt>
      <trkpt lat="59.304395" lon="18.078779">
        <ele>31</ele>
        <time>2020-02-09T06:43:50Z</time>
      </trkpt>
      <trkpt lat="59.304473" lon="18.078729">
        <ele>31</ele>
        <time>2020-02-09T06:43:51Z</time>
      </trkpt>
      <trkpt lat="59.304552" lon="18.078679">
        <ele>30</ele>
        <time>2020-02-09T06:43:52Z</time>
      </trkpt>
      <trkpt lat="59.304632" lon="18.07863">
        <ele>30</ele>
        <time>2020-02-09T06:43:53Z</time>
      </trkpt>
      <trkpt lat="59.304713" lon="18.07858">
        <ele>30</ele>
        <time>2020-02-09T06:43:54Z</time>
      </trkpt>
      <trkpt lat="59.304795" lon="18.078529">
        <ele>29</ele>
        <time>2020-02-09T06:43:55Z</time>
      </trkpt>
      <trkpt lat="59.304879" lon="18.078476">
        <ele>29</ele>
        <time>2020-02-09T06:43:56Z</time>
      </trkpt>
      <trkpt lat="59.304963" lon="18.078422">
        <ele>28</ele>
        <time>2020-02-09T06:43:57Z</time>
      </trkpt>
      <trkpt lat="59.305048" lon="18.078366">
        <ele>28</ele>
        <time>2020-02-09T06:43:58Z</time>
      </trkpt>
      <trkpt lat="59.305133" lon="18.078312">
        <ele>28</ele>
        <time>2020-02-09T06:43:59Z</time>
      </trkpt>
      <trkpt lat="59.305217" lon="18.078257">
        <ele>27</ele>
        <time>2020-02-09T06:44:00Z</time>
      </trkpt>
      <trkpt lat="59.305302" lon="18.078204">
        <ele>27</ele>
        <time>2020-02-09T06:44:01Z</time>
      </trkpt>
      <trkpt lat="59.305386" lon="18.078151">
        <ele>26</ele>
        <time>2020-02-09T06:44:02Z</time>
      </trkpt>
      <trkpt lat="59.305471" lon="18.078098">
        <ele>26</ele>
        <time>2020-02-09T06:44:03Z</time>
      </trkpt>
      <trkpt lat="59.305556" lon="18.078045">
        <ele>26</ele>
        <time>2020-02-09T06:44:04Z</time>
      </trkpt>
      <trkpt lat="59.30564" lon="18.07799">
        <ele>25</ele>
        <time>2020-02-09T06:44:05Z</time>
      </trkpt>
      <trkpt lat="59.305726" lon="18.077935">
        <ele>25</ele>
        <time>2020-02-09T06:44:06Z</time>
      </trkpt>
      <trkpt lat="59.305812" lon="18.077883">
        <ele>25</ele>
        <time>2020-02-09T06:44:07Z</time>
      </trkpt>
      <trkpt lat="59.305896" lon="18.077832">
        <ele>24</ele>
        <time>2020-02-09T06:44:08Z</time>
      </trkpt>
      <trkpt lat="59.305979" lon="18.077778">
        <ele>24</ele>
        <time>2020-02-09T06:44:09Z</time>
      </trkpt>
      <trkpt lat="59.306062" lon="18.077724">
        <ele>24</ele>
        <time>2020-02-09T06:44:10Z</time>
      </trkpt>
      <trkpt lat="59.306143" lon="18.077671">
        <ele>23</ele>
        <time>2020-02-09T06:44:11Z</time>
      </trkpt>
      <trkpt lat="59.306223" lon="18.077618">
        <ele>23</ele>
        <time>2020-02-09T06:44:12Z</time>
      </trkpt>
      <trkpt lat="59.306302" lon="18.077565">
        <ele>23</ele>
        <time>2020-02-09T06:44:13Z</time>
      </trkpt>
      <trkpt lat="59.30638" lon="18.077507">
        <ele>23</ele>
        <time>2020-02-09T06:44:14Z</time>
      </trkpt>
      <trkpt lat="59.306456" lon="18.077447">
        <ele>23</ele>
        <time>2020-02-09T06:44:15Z</time>
      </trkpt>
      <trkpt lat="59.306532" lon="18.077393">
        <ele>23</ele>
        <time>2020-02-09T06:44:17Z</time>
      </trkpt>
      <trkpt lat="59.306609" lon="18.077346">
        <ele>23</ele>
        <time>2020-02-09T06:44:17Z</time>
      </trkpt>
      <trkpt lat="59.306683" lon="18.077306">
        <ele>23</ele>
        <time>2020-02-09T06:44:18Z</time>
      </trkpt>
      <trkpt lat="59.306757" lon="18.077267">
        <ele>23</ele>
        <time>2020-02-09T06:44:19Z</time>
      </trkpt>
      <trkpt lat="59.306829" lon="18.077226">
        <ele>23</ele>
        <time>2020-02-09T06:44:20Z</time>
      </trkpt>
      <trkpt lat="59.306903" lon="18.077187">
        <ele>23</ele>
        <time>2020-02-09T06:44:21Z</time>
      </trkpt>
      <trkpt lat="59.306973" lon="18.077151">
        <ele>23</ele>
        <time>2020-02-09T06:44:22Z</time>
      </trkpt>
      <trkpt lat="59.307044" lon="18.077114">
        <ele>23</ele>
        <time>2020-02-09T06:44:23Z</time>
      </trkpt>
      <trkpt lat="59.307112" lon="18.077077">
        <ele>23</ele>
        <time>2020-02-09T06:44:24Z</time>
      </trkpt>
      <trkpt lat="59.30718" lon="18.077041">
        <ele>23</ele>
        <time>2020-02-09T06:44:25Z</time>
      </trkpt>
      <trkpt lat="59.307246" lon="18.077006">
        <ele>23</ele>
        <time>2020-02-09T06:44:26Z</time>
      </trkpt>
      <trkpt lat="59.307312" lon="18.076971">
        <ele>23</ele>
        <time>2020-02-09T06:44:27Z</time>
      </trkpt>
      <trkpt lat="59.307376" lon="18.07693">
        <ele>23</ele>
        <time>2020-02-09T06:44:28Z</time>
      </trkpt>
      <trkpt lat="59.307444" lon="18.076891">
        <ele>24</ele>
        <time>2020-02-09T06:44:29Z</time>
      </trkpt>
      <trkpt lat="59.307513" lon="18.076855">
        <ele>24</ele>
        <time>2020-02-09T06:44:30Z</time>
      </trkpt>
      <trkpt lat="59.307582" lon="18.076818">
        <ele>24</ele>
        <time>2020-02-09T06:44:31Z</time>
      </trkpt>
      <trkpt lat="59.307652" lon="18.076773">
        <ele>24</ele>
        <time>2020-02-09T06:44:32Z</time>
      </trkpt>
      <trkpt lat="59.30772" lon="18.076728">
        <ele>24</ele>
        <time>2020-02-09T06:44:33Z</time>
      </trkpt>
      <trkpt lat="59.307788" lon="18.076684">
        <ele>24</ele>
        <time>2020-02-09T06:44:34Z</time>
      </trkpt>
      <trkpt lat="59.307855" lon="18.07664">
        <ele>24</ele>
        <time>2020-02-09T06:44:35Z</time>
      </trkpt>
      <trkpt lat="59.307922" lon="18.076598">
        <ele>24</ele>
        <time>2020-02-09T06:44:36Z</time>
      </trkpt>
      <trkpt lat="59.307985" lon="18.076557">
        <ele>24</ele>
        <time>2020-02-09T06:44:37Z</time>
      </trkpt>
      <trkpt lat="59.30805" lon="18.076521">
        <ele>24</ele>
        <time>2020-02-09T06:44:38Z</time>
      </trkpt>
      <trkpt lat="59.308118" lon="18.076487">
        <ele>24</ele>
        <time>2020-02-09T06:44:39Z</time>
      </trkpt>
      <trkpt lat="59.308184" lon="18.076454">
        <ele>24</ele>
        <time>2020-02-09T06:44:40Z</time>
      </trkpt>
      <trkpt lat="59.308248" lon="18.076419">
        <ele>24</ele>
        <time>2020-02-09T06:44:41Z</time>
      </trkpt>
      <trkpt lat="59.308314" lon="18.076383">
        <ele>25</ele>
        <time>2020-02-09T06:44:42Z</time>
      </trkpt>
      <trkpt lat="59.308384" lon="18.076348">
        <ele>25</ele>
        <time>2020-02-09T06:44:43Z</time>
      </trkpt>
      <trkpt lat="59.308454" lon="18.076313">
        <ele>25</ele>
        <time>2020-02-09T06:44:44Z</time>
      </trkpt>
      <trkpt lat="59.308524" lon="18.07628">
        <ele>25</ele>
        <time>2020-02-09T06:44:45Z</time>
      </trkpt>
      <trkpt lat="59.308595" lon="18.076246">
        <ele>25</ele>
        <time>2020-02-09T06:44:46Z</time>
      </trkpt>
      <trkpt lat="59.30867" lon="18.076209">
        <ele>25</ele>
        <time>2020-02-09T06:44:47Z</time>
      </trkpt>
      <trkpt lat="59.308744" lon="18.076168">
        <ele>25</ele>
        <time>2020-02-09T06:44:48Z</time>
      </trkpt>
      <trkpt lat="59.308816" lon="18.076128">
        <ele>25</ele>
        <time>2020-02-09T06:44:49Z</time>
      </trkpt>
      <trkpt lat="59.30889" lon="18.076092">
        <ele>25</ele>
        <time>2020-02-09T06:44:50Z</time>
      </trkpt>
      <trkpt lat="59.308965" lon="18.076057">
        <ele>25</ele>
        <time>2020-02-09T06:44:51Z</time>
      </trkpt>
      <trkpt lat="59.309037" lon="18.076021">
        <ele>25</ele>
        <time>2020-02-09T06:44:52Z</time>
      </trkpt>
      <trkpt lat="59.309109" lon="18.075984">
        <ele>25</ele>
        <time>2020-02-09T06:44:53Z</time>
      </trkpt>
      <trkpt lat="59.30918" lon="18.075948">
        <ele>25</ele>
        <time>2020-02-09T06:44:55Z</time>
      </trkpt>
      <trkpt lat="59.309251" lon="18.075912">
        <ele>26</ele>
        <time>2020-02-09T06:44:55Z</time>
      </trkpt>
      <trkpt lat="59.309321" lon="18.075879">
        <ele>25</ele>
        <time>2020-02-09T06:44:56Z</time>
      </trkpt>
      <trkpt lat="59.30939" lon="18.075848">
        <ele>25</ele>
        <time>2020-02-09T06:44:57Z</time>
      </trkpt>
      <trkpt lat="59.309459" lon="18.075814">
        <ele>26</ele>
        <time>2020-02-09T06:44:58Z</time>
      </trkpt>
      <trkpt lat="59.309525" lon="18.075776">
        <ele>26</ele>
        <time>2020-02-09T06:44:59Z</time>
      </trkpt>
      <trkpt lat="59.309591" lon="18.075735">
        <ele>27</ele>
        <time>2020-02-09T06:45:00Z</time>
      </trkpt>
      <trkpt lat="59.309657" lon="18.075703">
        <ele>27</ele>
        <time>2020-02-09T06:45:01Z</time>
      </trkpt>
      <trkpt lat="59.309728" lon="18.075668">
        <ele>27</ele>
        <time>2020-02-09T06:45:02Z</time>
      </trkpt>
      <trkpt lat="59.309794" lon="18.075635">
        <ele>27</ele>
        <time>2020-02-09T06:45:03Z</time>
      </trkpt>
      <trkpt lat="59.309859" lon="18.075602">
        <ele>28</ele>
        <time>2020-02-09T06:45:04Z</time>
      </trkpt>
      <trkpt lat="59.309924" lon="18.075569">
        <ele>28</ele>
        <time>2020-02-09T06:45:05Z</time>
      </trkpt>
      <trkpt lat="59.309987" lon="18.075537">
        <ele>28</ele>
        <time>2020-02-09T06:45:06Z</time>
      </trkpt>
      <trkpt lat="59.31005" lon="18.075507">
        <ele>28</ele>
        <time>2020-02-09T06:45:07Z</time>
      </trkpt>
      <trkpt lat="59.310113" lon="18.075474">
        <ele>28</ele>
        <time>2020-02-09T06:45:08Z</time>
      </trkpt>
      <trkpt lat="59.310177" lon="18.075442">
        <ele>28</ele>
        <time>2020-02-09T06:45:09Z</time>
      </trkpt>
      <trkpt lat="59.310241" lon="18.075412">
        <ele>28</ele>
        <time>2020-02-09T06:45:10Z</time>
      </trkpt>
      <trkpt lat="59.310305" lon="18.07538">
        <ele>29</ele>
        <time>2020-02-09T06:45:11Z</time>
      </trkpt>
      <trkpt lat="59.310369" lon="18.075348">
        <ele>29</ele>
        <time>2020-02-09T06:45:12Z</time>
      </trkpt>
      <trkpt lat="59.310432" lon="18.075318">
        <ele>29</ele>
        <time>2020-02-09T06:45:13Z</time>
      </trkpt>
      <trkpt lat="59.310497" lon="18.075287">
        <ele>29</ele>
        <time>2020-02-09T06:45:14Z</time>
      </trkpt>
      <trkpt lat="59.310561" lon="18.075253">
        <ele>30</ele>
        <time>2020-02-09T06:45:15Z</time>
      </trkpt>
      <trkpt lat="59.310623" lon="18.075218">
        <ele>30</ele>
        <time>2020-02-09T06:45:16Z</time>
      </trkpt>
      <trkpt lat="59.310683" lon="18.075183">
        <ele>30</ele>
        <time>2020-02-09T06:45:17Z</time>
      </trkpt>
      <trkpt lat="59.310742" lon="18.075151">
        <ele>30</ele>
        <time>2020-02-09T06:45:18Z</time>
      </trkpt>
      <trkpt lat="59.310803" lon="18.075119">
        <ele>31</ele>
        <time>2020-02-09T06:45:19Z</time>
      </trkpt>
      <trkpt lat="59.310864" lon="18.075089">
        <ele>31</ele>
        <time>2020-02-09T06:45:20Z</time>
      </trkpt>
      <trkpt lat="59.310922" lon="18.07506">
        <ele>31</ele>
        <time>2020-02-09T06:45:21Z</time>
      </trkpt>
      <trkpt lat="59.31098" lon="18.075032">
        <ele>31</ele>
        <time>2020-02-09T06:45:22Z</time>
      </trkpt>
      <trkpt lat="59.311035" lon="18.075004">
        <ele>31</ele>
        <time>2020-02-09T06:45:23Z</time>
      </trkpt>
      <trkpt lat="59.311089" lon="18.074977">
        <ele>31</ele>
        <time>2020-02-09T06:45:24Z</time>
      </trkpt>
      <trkpt lat="59.311144" lon="18.07495">
        <ele>32</ele>
        <time>2020-02-09T06:45:25Z</time>
      </trkpt>
      <trkpt lat="59.311197" lon="18.074923">
        <ele>32</ele>
        <time>2020-02-09T06:45:26Z</time>
      </trkpt>
      <trkpt lat="59.31125" lon="18.074896">
        <ele>32</ele>
        <time>2020-02-09T06:45:27Z</time>
      </trkpt>
      <trkpt lat="59.311302" lon="18.074868">
        <ele>32</ele>
        <time>2020-02-09T06:45:28Z</time>
      </trkpt>
      <trkpt lat="59.311351" lon="18.07484">
        <ele>32</ele>
        <time>2020-02-09T06:45:29Z</time>
      </trkpt>
      <trkpt lat="59.311401" lon="18.074813">
        <ele>32</ele>
        <time>2020-02-09T06:45:30Z</time>
      </trkpt>
      <trkpt lat="59.31145" lon="18.074785">
        <ele>32</ele>
        <time>2020-02-09T06:45:31Z</time>
      </trkpt>
      <trkpt lat="59.311501" lon="18.074756">
        <ele>32</ele>
        <time>2020-02-09T06:45:32Z</time>
      </trkpt>
      <trkpt lat="59.311552" lon="18.074725">
        <ele>33</ele>
        <time>2020-02-09T06:45:33Z</time>
      </trkpt>
      <trkpt lat="59.311602" lon="18.074693">
        <ele>33</ele>
        <time>2020-02-09T06:45:34Z</time>
      </trkpt>
      <trkpt lat="59.311651" lon="18.074666">
        <ele>32</ele>
        <time>2020-02-09T06:45:35Z</time>
      </trkpt>
      <trkpt lat="59.311702" lon="18.074643">
        <ele>32</ele>
        <time>2020-02-09T06:45:36Z</time>
      </trkpt>
      <trkpt lat="59.311752" lon="18.074625">
        <ele>32</ele>
        <time>2020-02-09T06:45:37Z</time>
      </trkpt>
      <trkpt lat="59.3118" lon="18.074608">
        <ele>34</ele>
        <time>2020-02-09T06:45:38Z</time>
      </trkpt>
      <trkpt lat="59.311853" lon="18.074592">
        <ele>34</ele>
        <time>2020-02-09T06:45:39Z</time>
      </trkpt>
      <trkpt lat="59.311894" lon="18.074577">
        <ele>34</ele>
        <time>2020-02-09T06:45:40Z</time>
      </trkpt>
      <trkpt lat="59.311928" lon="18.074568">
        <ele>34</ele>
        <time>2020-02-09T06:45:41Z</time>
      </trkpt>
      <trkpt lat="59.311975" lon="18.074549">
        <ele>34</ele>
        <time>2020-02-09T06:45:42Z</time>
      </trkpt>
      <trkpt lat="59.312016" lon="18.07453">
        <ele>35</ele>
        <time>2020-02-09T06:45:43Z</time>
      </trkpt>
      <trkpt lat="59.312061" lon="18.074505">
        <ele>35</ele>
        <time>2020-02-09T06:45:44Z</time>
      </trkpt>
      <trkpt lat="59.31211" lon="18.074475">
        <ele>35</ele>
        <time>2020-02-09T06:45:45Z</time>
      </trkpt>
      <trkpt lat="59.312159" lon="18.074447">
        <ele>35</ele>
        <time>2020-02-09T06:45:46Z</time>
      </trkpt>
      <trkpt lat="59.312207" lon="18.074421">
        <ele>35</ele>
        <time>2020-02-09T06:45:47Z</time>
      </trkpt>
      <trkpt lat="59.312259" lon="18.074394">
        <ele>36</ele>
        <time>2020-02-09T06:45:48Z</time>
      </trkpt>
      <trkpt lat="59.312304" lon="18.074365">
        <ele>36</ele>
        <time>2020-02-09T06:45:49Z</time>
      </trkpt>
      <trkpt lat="59.312358" lon="18.07434">
        <ele>36</ele>
        <time>2020-02-09T06:45:50Z</time>
      </trkpt>
      <trkpt lat="59.312415" lon="18.074312">
        <ele>36</ele>
        <time>2020-02-09T06:45:51Z</time>
      </trkpt>
      <trkpt lat="59.312473" lon="18.074282">
        <ele>36</ele>
        <time>2020-02-09T06:45:52Z</time>
      </trkpt>
      <trkpt lat="59.312524" lon="18.074262">
        <ele>37</ele>
        <time>2020-02-09T06:45:53Z</time>
      </trkpt>
      <trkpt lat="59.312561" lon="18.074248">
        <ele>37</ele>
        <time>2020-02-09T06:45:54Z</time>
      </trkpt>
      <trkpt lat="59.312584" lon="18.07424">
        <ele>37</ele>
        <time>2020-02-09T06:45:55Z</time>
      </trkpt>
      <trkpt lat="59.31262" lon="18.074217">
        <ele>37</ele>
        <time>2020-02-09T06:45:56Z</time>
      </trkpt>
      <trkpt lat="59.312674" lon="18.07419">
        <ele>37</ele>
        <time>2020-02-09T06:45:57Z</time>
      </trkpt>
      <trkpt lat="59.312733" lon="18.074164">
        <ele>37</ele>
        <time>2020-02-09T06:45:58Z</time>
      </trkpt>
      <trkpt lat="59.312804" lon="18.074135">
        <ele>37</ele>
        <time>2020-02-09T06:45:59Z</time>
      </trkpt>
      <trkpt lat="59.31286" lon="18.074115">
        <ele>37</ele>
        <time>2020-02-09T06:46:00Z</time>
      </trkpt>
      <trkpt lat="59.31292" lon="18.0741">
        <ele>37</ele>
        <time>2020-02-09T06:46:01Z</time>
      </trkpt>
      <trkpt lat="59.312973" lon="18.074075">
        <ele>37</ele>
        <time>2020-02-09T06:46:02Z</time>
      </trkpt>
      <trkpt lat="59.31302" lon="18.07405">
        <ele>38</ele>
        <time>2020-02-09T06:46:03Z</time>
      </trkpt>
      <trkpt lat="59.313062" lon="18.07403">
        <ele>38</ele>
        <time>2020-02-09T06:46:04Z</time>
      </trkpt>
      <trkpt lat="59.313105" lon="18.074011">
        <ele>38</ele>
        <time>2020-02-09T06:46:05Z</time>
      </trkpt>
      <trkpt lat="59.313139" lon="18.073995">
        <ele>38</ele>
        <time>2020-02-09T06:46:06Z</time>
      </trkpt>
      <trkpt lat="59.313175" lon="18.073976">
        <ele>38</ele>
        <time>2020-02-09T06:46:07Z</time>
      </trkpt>
      <trkpt lat="59.313218" lon="18.073954">
        <ele>38</ele>
        <time>2020-02-09T06:46:08Z</time>
      </trkpt>
      <trkpt lat="59.313259" lon="18.073935">
        <ele>38</ele>
        <time>2020-02-09T06:46:09Z</time>
      </trkpt>
      <trkpt lat="59.313304" lon="18.073917">
        <ele>38</ele>
        <time>2020-02-09T06:46:10Z</time>
      </trkpt>
      <trkpt lat="59.313356" lon="18.073892">
        <ele>38</ele>
        <time>2020-02-09T06:46:11Z</time>
      </trkpt>
      <trkpt lat="59.313409" lon="18.073865">
        <ele>38</ele>
        <time>2020-02-09T06:46:12Z</time>
      </trkpt>
      <trkpt lat="59.31346" lon="18.073831">
        <ele>39</ele>
        <time>2020-02-09T06:46:13Z</time>
      </trkpt>
      <trkpt lat="59.313508" lon="18.073799">
        <ele>39</ele>
        <time>2020-02-09T06:46:14Z</time>
      </trkpt>
      <trkpt lat="59.31356" lon="18.073769">
        <ele>40</ele>
        <time>2020-02-09T06:46:15Z</time>
      </trkpt>
      <trkpt lat="59.313619" lon="18.073732">
        <ele>41</ele>
        <time>2020-02-09T06:46:16Z</time>
      </trkpt>
      <trkpt lat="59.313675" lon="18.073698">
        <ele>41</ele>
        <time>2020-02-09T06:46:17Z</time>
      </trkpt>
      <trkpt lat="59.31373" lon="18.073665">
        <ele>42</ele>
        <time>2020-02-09T06:46:18Z</time>
      </trkpt>
      <trkpt lat="59.313784" lon="18.073635">
        <ele>43</ele>
        <time>2020-02-09T06:46:19Z</time>
      </trkpt>
      <trkpt lat="59.313849" lon="18.073597">
        <ele>43</ele>
        <time>2020-02-09T06:46:20Z</time>
      </trkpt>
      <trkpt lat="59.313918" lon="18.073561">
        <ele>44</ele>
        <time>2020-02-09T06:46:21Z</time>
      </trkpt>
      <trkpt lat="59.31398" lon="18.073531">
        <ele>44</ele>
        <time>2020-02-09T06:46:22Z</time>
      </trkpt>
      <trkpt lat="59.31404" lon="18.073505">
        <ele>44</ele>
        <time>2020-02-09T06:46:23Z</time>
      </trkpt>
      <trkpt lat="59.314095" lon="18.073483">
        <ele>44</ele>
        <time>2020-02-09T06:46:24Z</time>
      </trkpt>
      <trkpt lat="59.314153" lon="18.073464">
        <ele>44</ele>
        <time>2020-02-09T06:46:25Z</time>
      </trkpt>
      <trkpt lat="59.314217" lon="18.073452">
        <ele>44</ele>
        <time>2020-02-09T06:46:26Z</time>
      </trkpt>
      <trkpt lat="59.314265" lon="18.073434">
        <ele>44</ele>
        <time>2020-02-09T06:46:27Z</time>
      </trkpt>
      <trkpt lat="59.314306" lon="18.07342">
        <ele>44</ele>
        <time>2020-02-09T06:46:28Z</time>
      </trkpt>
      <trkpt lat="59.314341" lon="18.073403">
        <ele>44</ele>
        <time>2020-02-09T06:46:29Z</time>
      </trkpt>
      <trkpt lat="59.314378" lon="18.073385">
        <ele>45</ele>
        <time>2020-02-09T06:46:30Z</time>
      </trkpt>
      <trkpt lat="59.314421" lon="18.073362">
        <ele>45</ele>
        <time>2020-02-09T06:46:31Z</time>
      </trkpt>
      <trkpt lat="59.314469" lon="18.07334">
        <ele>45</ele>
        <time>2020-02-09T06:46:32Z</time>
      </trkpt>
      <trkpt lat="59.314517" lon="18.073315">
        <ele>46</ele>
        <time>2020-02-09T06:46:33Z</time>
      </trkpt>
      <trkpt lat="59.314569" lon="18.073285">
        <ele>46</ele>
        <time>2020-02-09T06:46:34Z</time>
      </trkpt>
      <trkpt lat="59.314632" lon="18.073254">
        <ele>47</ele>
        <time>2020-02-09T06:46:35Z</time>
      </trkpt>
      <trkpt lat="59.314693" lon="18.073227">
        <ele>47</ele>
        <time>2020-02-09T06:46:36Z</time>
      </trkpt>
      <trkpt lat="59.314753" lon="18.073211">
        <ele>48</ele>
        <time>2020-02-09T06:46:37Z</time>
      </trkpt>
      <trkpt lat="59.314809" lon="18.073192">
        <ele>49</ele>
        <time>2020-02-09T06:46:38Z</time>
      </trkpt>
      <trkpt lat="59.314867" lon="18.073168">
        <ele>49</ele>
        <time>2020-02-09T06:46:39Z</time>
      </trkpt>
      <trkpt lat="59.314922" lon="18.073141">
        <ele>49</ele>
        <time>2020-02-09T06:46:40Z</time>
      </trkpt>
      <trkpt lat="59.314972" lon="18.073116">
        <ele>49</ele>
        <time>2020-02-09T06:46:41Z</time>
      </trkpt>
      <trkpt lat="59.315022" lon="18.073088">
        <ele>48</ele>
        <time>2020-02-09T06:46:42Z</time>
      </trkpt>
      <trkpt lat="59.315067" lon="18.073059">
        <ele>48</ele>
        <time>2020-02-09T06:46:43Z</time>
      </trkpt>
      <trkpt lat="59.315117" lon="18.073039">
        <ele>48</ele>
        <time>2020-02-09T06:46:44Z</time>
      </trkpt>
      <trkpt lat="59.315164" lon="18.073016">
        <ele>47</ele>
        <time>2020-02-09T06:46:45Z</time>
      </trkpt>
      <trkpt lat="59.31521" lon="18.072991">
        <ele>47</ele>
        <time>2020-02-09T06:46:46Z</time>
      </trkpt>
      <trkpt lat="59.315261" lon="18.072968">
        <ele>47</ele>
        <time>2020-02-09T06:46:47Z</time>
      </trkpt>
      <trkpt lat="59.315312" lon="18.07295">
        <ele>46</ele>
        <time>2020-02-09T06:46:48Z</time>
      </trkpt>
      <trkpt lat="59.315359" lon="18.072925">
        <ele>46</ele>
        <time>2020-02-09T06:46:49Z</time>
      </trkpt>
      <trkpt lat="59.315403" lon="18.072891">
        <ele>45</ele>
        <time>2020-02-09T06:46:50Z</time>
      </trkpt>
      <trkpt lat="59.315448" lon="18.072855">
        <ele>44</ele>
        <time>2020-02-09T06:46:51Z</time>
      </trkpt>
      <trkpt lat="59.315491" lon="18.072814">
        <ele>44</ele>
        <time>2020-02-09T06:46:52Z</time>
      </trkpt>
      <trkpt lat="59.315534" lon="18.072774">
        <ele>44</ele>
        <time>2020-02-09T06:46:53Z</time>
      </trkpt>
      <trkpt lat="59.315578" lon="18.072726">
        <ele>44</ele>
        <time>2020-02-09T06:46:54Z</time>
      </trkpt>
      <trkpt lat="59.31562" lon="18.072665">
        <ele>44</ele>
        <time>2020-02-09T06:46:55Z</time>
      </trkpt>
      <trkpt lat="59.315657" lon="18.072595">
        <ele>44</ele>
        <time>2020-02-09T06:46:56Z</time>
      </trkpt>
      <trkpt lat="59.315695" lon="18.072536">
        <ele>44</ele>
        <time>2020-02-09T06:46:57Z</time>
      </trkpt>
      <trkpt lat="59.315743" lon="18.072499">
        <ele>44</ele>
        <time>2020-02-09T06:46:58Z</time>
      </trkpt>
      <trkpt lat="59.315795" lon="18.072473">
        <ele>44</ele>
        <time>2020-02-09T06:46:59Z</time>
      </trkpt>
      <trkpt lat="59.315845" lon="18.072449">
        <ele>44</ele>
        <time>2020-02-09T06:47:00Z</time>
      </trkpt>
      <trkpt lat="59.315893" lon="18.072427">
        <ele>44</ele>
        <time>2020-02-09T06:47:01Z</time>
      </trkpt>
      <trkpt lat="59.31594" lon="18.072406">
        <ele>44</ele>
        <time>2020-02-09T06:47:02Z</time>
      </trkpt>
      <trkpt lat="59.315985" lon="18.072384">
        <ele>44</ele>
        <time>2020-02-09T06:47:03Z</time>
      </trkpt>
      <trkpt lat="59.316027" lon="18.072363">
        <ele>44</ele>
        <time>2020-02-09T06:47:04Z</time>
      </trkpt>
      <trkpt lat="59.31607" lon="18.072345">
        <ele>44</ele>
        <time>2020-02-09T06:47:05Z</time>
      </trkpt>
      <trkpt lat="59.316109" lon="18.072327">
        <ele>45</ele>
        <time>2020-02-09T06:47:06Z</time>
      </trkpt>
      <trkpt lat="59.31615" lon="18.072308">
        <ele>45</ele>
        <time>2020-02-09T06:47:08Z</time>
      </trkpt>
      <trkpt lat="59.316193" lon="18.072288">
        <ele>45</ele>
        <time>2020-02-09T06:47:08Z</time>
      </trkpt>
      <trkpt lat="59.316237" lon="18.072268">
        <ele>45</ele>
        <time>2020-02-09T06:47:09Z</time>
      </trkpt>
      <trkpt lat="59.316272" lon="18.072251">
        <ele>45</ele>
        <time>2020-02-09T06:47:10Z</time>
      </trkpt>
      <trkpt lat="59.31631" lon="18.072229">
        <ele>45</ele>
        <time>2020-02-09T06:47:11Z</time>
      </trkpt>
      <trkpt lat="59.316349" lon="18.072204">
        <ele>45</ele>
        <time>2020-02-09T06:47:12Z</time>
      </trkpt>
      <trkpt lat="59.316386" lon="18.072189">
        <ele>45</ele>
        <time>2020-02-09T06:47:13Z</time>
      </trkpt>
      <trkpt lat="59.31642" lon="18.072173">
        <ele>45</ele>
        <time>2020-02-09T06:47:14Z</time>
      </trkpt>
      <trkpt lat="59.316495" lon="18.072134">
        <ele>45</ele>
        <time>2020-02-09T06:47:16Z</time>
      </trkpt>
      <trkpt lat="59.316535" lon="18.072119">
        <ele>45</ele>
        <time>2020-02-09T06:47:17Z</time>
      </trkpt>
      <trkpt lat="59.316565" lon="18.072098">
        <ele>45</ele>
        <time>2020-02-09T06:47:18Z</time>
      </trkpt>
      <trkpt lat="59.316599" lon="18.072085">
        <ele>45</ele>
        <time>2020-02-09T06:47:19Z</time>
      </trkpt>
      <trkpt lat="59.316631" lon="18.072067">
        <ele>45</ele>
        <time>2020-02-09T06:47:20Z</time>
      </trkpt>
      <trkpt lat="59.316663" lon="18.07205">
        <ele>45</ele>
        <time>2020-02-09T06:47:21Z</time>
      </trkpt>
      <trkpt lat="59.316703" lon="18.072032">
        <ele>45</ele>
        <time>2020-02-09T06:47:22Z</time>
      </trkpt>
      <trkpt lat="59.316741" lon="18.072015">
        <ele>45</ele>
        <time>2020-02-09T06:47:23Z</time>
      </trkpt>
      <trkpt lat="59.31678" lon="18.071997">
        <ele>45</ele>
        <time>2020-02-09T06:47:24Z</time>
      </trkpt>
      <trkpt lat="59.316818" lon="18.071974">
        <ele>45</ele>
        <time>2020-02-09T06:47:25Z</time>
      </trkpt>
      <trkpt lat="59.316855" lon="18.071952">
        <ele>45</ele>
        <time>2020-02-09T06:47:26Z</time>
      </trkpt>
      <trkpt lat="59.316893" lon="18.071926">
        <ele>45</ele>
        <time>2020-02-09T06:47:27Z</time>
      </trkpt>
      <trkpt lat="59.316926" lon="18.071904">
        <ele>45</ele>
        <time>2020-02-09T06:47:28Z</time>
      </trkpt>
      <trkpt lat="59.316959" lon="18.071881">
        <ele>45</ele>
        <time>2020-02-09T06:47:29Z</time>
      </trkpt>
      <trkpt lat="59.316999" lon="18.071858">
        <ele>45</ele>
        <time>2020-02-09T06:47:30Z</time>
      </trkpt>
      <trkpt lat="59.317043" lon="18.071833">
        <ele>45</ele>
        <time>2020-02-09T06:47:31Z</time>
      </trkpt>
      <trkpt lat="59.317082" lon="18.071813">
        <ele>45</ele>
        <time>2020-02-09T06:47:32Z</time>
      </trkpt>
      <trkpt lat="59.317124" lon="18.07179">
        <ele>45</ele>
        <time>2020-02-09T06:47:33Z</time>
      </trkpt>
      <trkpt lat="59.317162" lon="18.071768">
        <ele>45</ele>
        <time>2020-02-09T06:47:34Z</time>
      </trkpt>
      <trkpt lat="59.317199" lon="18.071747">
        <ele>45</ele>
        <time>2020-02-09T06:47:35Z</time>
      </trkpt>
      <trkpt lat="59.317235" lon="18.071738">
        <ele>46</ele>
        <time>2020-02-09T06:47:36Z</time>
      </trkpt>
      <trkpt lat="59.317275" lon="18.071732">
        <ele>46</ele>
        <time>2020-02-09T06:47:37Z</time>
      </trkpt>
      <trkpt lat="59.317314" lon="18.071722">
        <ele>46</ele>
        <time>2020-02-09T06:47:38Z</time>
      </trkpt>
      <trkpt lat="59.317341" lon="18.071714">
        <ele>46</ele>
        <time>2020-02-09T06:47:39Z</time>
      </trkpt>
      <trkpt lat="59.317362" lon="18.071703">
        <ele>47</ele>
        <time>2020-02-09T06:47:40Z</time>
      </trkpt>
      <trkpt lat="59.317374" lon="18.071691">
        <ele>0</ele>
        <time>2020-02-09T06:47:47Z</time>
      </trkpt>
      <trkpt lat="59.31739" lon="18.071642">
        <ele>48</ele>
        <time>2020-02-09T06:49:08Z</time>
      </trkpt>
      <trkpt lat="59.31739" lon="18.071642">
        <ele>48</ele>
        <time>2020-02-09T06:49:09Z</time>
      </trkpt>
      <trkpt lat="59.31739" lon="18.071641">
        <ele>0</ele>
        <time>2020-02-09T06:49:11Z</time>
      </trkpt>
      <trkpt lat="59.317483" lon="18.071713">
        <ele>53</ele>
        <time>2020-02-09T06:50:12Z</time>
      </trkpt>
      <trkpt lat="59.317476" lon="18.071719">
        <ele>0</ele>
        <time>2020-02-09T06:50:17Z</time>
      </trkpt>
      <trkpt lat="59.317488" lon="18.071709">
        <ele>54</ele>
        <time>2020-02-09T06:51:16Z</time>
      </trkpt>
      <trkpt lat="59.31749" lon="18.071673">
        <ele>54</ele>
        <time>2020-02-09T06:51:19Z</time>
      </trkpt>
      <trkpt lat="59.317518" lon="18.071634">
        <ele>54</ele>
        <time>2020-02-09T06:51:21Z</time>
      </trkpt>
      <trkpt lat="59.317547" lon="18.071618">
        <ele>54</ele>
        <time>2020-02-09T06:51:22Z</time>
      </trkpt>
      <trkpt lat="59.317589" lon="18.071597">
        <ele>54</ele>
        <time>2020-02-09T06:51:23Z</time>
      </trkpt>
      <trkpt lat="59.317638" lon="18.071575">
        <ele>54</ele>
        <time>2020-02-09T06:51:24Z</time>
      </trkpt>
      <trkpt lat="59.317692" lon="18.071545">
        <ele>54</ele>
        <time>2020-02-09T06:51:25Z</time>
      </trkpt>
      <trkpt lat="59.317747" lon="18.071517">
        <ele>54</ele>
        <time>2020-02-09T06:51:26Z</time>
      </trkpt>
      <trkpt lat="59.317811" lon="18.071489">
        <ele>53</ele>
        <time>2020-02-09T06:51:27Z</time>
      </trkpt>
      <trkpt lat="59.317873" lon="18.071458">
        <ele>53</ele>
        <time>2020-02-09T06:51:28Z</time>
      </trkpt>
      <trkpt lat="59.31793" lon="18.071422">
        <ele>53</ele>
        <time>2020-02-09T06:51:29Z</time>
      </trkpt>
      <trkpt lat="59.31799" lon="18.071389">
        <ele>53</ele>
        <time>2020-02-09T06:51:30Z</time>
      </trkpt>
      <trkpt lat="59.318048" lon="18.071364">
        <ele>53</ele>
        <time>2020-02-09T06:51:31Z</time>
      </trkpt>
      <trkpt lat="59.318104" lon="18.071344">
        <ele>53</ele>
        <time>2020-02-09T06:51:32Z</time>
      </trkpt>
      <trkpt lat="59.318157" lon="18.071326">
        <ele>53</ele>
        <time>2020-02-09T06:51:33Z</time>
      </trkpt>
      <trkpt lat="59.318211" lon="18.071305">
        <ele>53</ele>
        <time>2020-02-09T06:51:34Z</time>
      </trkpt>
      <trkpt lat="59.318258" lon="18.071283">
        <ele>52</ele>
        <time>2020-02-09T06:51:35Z</time>
      </trkpt>
      <trkpt lat="59.318325" lon="18.071246">
        <ele>52</ele>
        <time>2020-02-09T06:51:36Z</time>
      </trkpt>
      <trkpt lat="59.31848" lon="18.071143">
        <ele>52</ele>
        <time>2020-02-09T06:51:38Z</time>
      </trkpt>
      <trkpt lat="59.318545" lon="18.071105">
        <ele>52</ele>
        <time>2020-02-09T06:51:39Z</time>
      </trkpt>
      <trkpt lat="59.318613" lon="18.071071">
        <ele>52</ele>
        <time>2020-02-09T06:51:40Z</time>
      </trkpt>
      <trkpt lat="59.318778" lon="18.070987">
        <ele>52</ele>
        <time>2020-02-09T06:51:42Z</time>
      </trkpt>
      <trkpt lat="59.318886" lon="18.070929">
        <ele>52</ele>
        <time>2020-02-09T06:51:43Z</time>
      </trkpt>
      <trkpt lat="59.31899" lon="18.070876">
        <ele>51</ele>
        <time>2020-02-09T06:51:44Z</time>
      </trkpt>
      <trkpt lat="59.319088" lon="18.07083">
        <ele>51</ele>
        <time>2020-02-09T06:51:45Z</time>
      </trkpt>
      <trkpt lat="59.319175" lon="18.070786">
        <ele>50</ele>
        <time>2020-02-09T06:51:46Z</time>
      </trkpt>
      <trkpt lat="59.319273" lon="18.07074">
        <ele>50</ele>
        <time>2020-02-09T06:51:47Z</time>
      </trkpt>
      <trkpt lat="59.31942" lon="18.070685">
        <ele>50</ele>
        <time>2020-02-09T06:51:49Z</time>
      </trkpt>
      <trkpt lat="59.319554" lon="18.070642">
        <ele>49</ele>
        <time>2020-02-09T06:51:51Z</time>
      </trkpt>
      <trkpt lat="59.319659" lon="18.070574">
        <ele>49</ele>
        <time>2020-02-09T06:51:52Z</time>
      </trkpt>
      <trkpt lat="59.319832" lon="18.070541">
        <ele>46</ele>
        <time>2020-02-09T06:51:54Z</time>
      </trkpt>
      <trkpt lat="59.319929" lon="18.070589">
        <ele>45</ele>
        <time>2020-02-09T06:51:55Z</time>
      </trkpt>
      <trkpt lat="59.320071" lon="18.070768">
        <ele>42</ele>
        <time>2020-02-09T06:51:57Z</time>
      </trkpt>
      <trkpt lat="59.320145" lon="18.07083">
        <ele>41</ele>
        <time>2020-02-09T06:51:58Z</time>
      </trkpt>
      <trkpt lat="59.320223" lon="18.070883">
        <ele>41</ele>
        <time>2020-02-09T06:51:59Z</time>
      </trkpt>
      <trkpt lat="59.320381" lon="18.070989">
        <ele>40</ele>
        <time>2020-02-09T06:52:01Z</time>
      </trkpt>
      <trkpt lat="59.320458" lon="18.071038">
        <ele>40</ele>
        <time>2020-02-09T06:52:02Z</time>
      </trkpt>
      <trkpt lat="59.320534" lon="18.07109">
        <ele>40</ele>
        <time>2020-02-09T06:52:03Z</time>
      </trkpt>
      <trkpt lat="59.32061" lon="18.071141">
        <ele>40</ele>
        <time>2020-02-09T06:52:04Z</time>
      </trkpt>
      <trkpt lat="59.320686" lon="18.07119">
        <ele>40</ele>
        <time>2020-02-09T06:52:05Z</time>
      </trkpt>
      <trkpt lat="59.32076" lon="18.071243">
        <ele>39</ele>
        <time>2020-02-09T06:52:06Z</time>
      </trkpt>
      <trkpt lat="59.320894" lon="18.071409">
        <ele>39</ele>
        <time>2020-02-09T06:52:08Z</time>
      </trkpt>
      <trkpt lat="59.320952" lon="18.071527">
        <ele>36</ele>
        <time>2020-02-09T06:52:09Z</time>
      </trkpt>
      <trkpt lat="59.320983" lon="18.071701">
        <ele>35</ele>
        <time>2020-02-09T06:52:10Z</time>
      </trkpt>
      <trkpt lat="59.321033" lon="18.071847">
        <ele>29</ele>
        <time>2020-02-09T06:52:11Z</time>
      </trkpt>
      <trkpt lat="59.321061" lon="18.072006">
        <ele>28</ele>
        <time>2020-02-09T06:52:12Z</time>
      </trkpt>
      <trkpt lat="59.321135" lon="18.072109">
        <ele>27</ele>
        <time>2020-02-09T06:52:13Z</time>
      </trkpt>
      <trkpt lat="59.321214" lon="18.072186">
        <ele>27</ele>
        <time>2020-02-09T06:52:14Z</time>
      </trkpt>
      <trkpt lat="59.321296" lon="18.072256">
        <ele>26</ele>
        <time>2020-02-09T06:52:15Z</time>
      </trkpt>
      <trkpt lat="59.32138" lon="18.072319">
        <ele>26</ele>
        <time>2020-02-09T06:52:16Z</time>
      </trkpt>
      <trkpt lat="59.321464" lon="18.072378">
        <ele>25</ele>
        <time>2020-02-09T06:52:17Z</time>
      </trkpt>
      <trkpt lat="59.321547" lon="18.072433">
        <ele>24</ele>
        <time>2020-02-09T06:52:18Z</time>
      </trkpt>
      <trkpt lat="59.321632" lon="18.072488">
        <ele>24</ele>
        <time>2020-02-09T06:52:19Z</time>
      </trkpt>
      <trkpt lat="59.321716" lon="18.072545">
        <ele>23</ele>
        <time>2020-02-09T06:52:20Z</time>
      </trkpt>
      <trkpt lat="59.321796" lon="18.072595">
        <ele>23</ele>
        <time>2020-02-09T06:52:21Z</time>
      </trkpt>
      <trkpt lat="59.321871" lon="18.072637">
        <ele>22</ele>
        <time>2020-02-09T06:52:22Z</time>
      </trkpt>
      <trkpt lat="59.321939" lon="18.072681">
        <ele>22</ele>
        <time>2020-02-09T06:52:23Z</time>
      </trkpt>
      <trkpt lat="59.321992" lon="18.072753">
        <ele>22</ele>
        <time>2020-02-09T06:52:24Z</time>
      </trkpt>
      <trkpt lat="59.322027" lon="18.072858">
        <ele>20</ele>
        <time>2020-02-09T06:52:25Z</time>
      </trkpt>
      <trkpt lat="59.322029" lon="18.072987">
        <ele>19</ele>
        <time>2020-02-09T06:52:26Z</time>
      </trkpt>
      <trkpt lat="59.322017" lon="18.073113">
        <ele>18</ele>
        <time>2020-02-09T06:52:27Z</time>
      </trkpt>
      <trkpt lat="59.321995" lon="18.07324">
        <ele>18</ele>
        <time>2020-02-09T06:52:28Z</time>
      </trkpt>
      <trkpt lat="59.32197" lon="18.073361">
        <ele>17</ele>
        <time>2020-02-09T06:52:29Z</time>
      </trkpt>
      <trkpt lat="59.321947" lon="18.073484">
        <ele>16</ele>
        <time>2020-02-09T06:52:30Z</time>
      </trkpt>
      <trkpt lat="59.321926" lon="18.073615">
        <ele>17</ele>
        <time>2020-02-09T06:52:31Z</time>
      </trkpt>
      <trkpt lat="59.321908" lon="18.073737">
        <ele>16</ele>
        <time>2020-02-09T06:52:32Z</time>
      </trkpt>
      <trkpt lat="59.321916" lon="18.073867">
        <ele>15</ele>
        <time>2020-02-09T06:52:33Z</time>
      </trkpt>
      <trkpt lat="59.321941" lon="18.073983">
        <ele>14</ele>
        <time>2020-02-09T06:52:34Z</time>
      </trkpt>
      <trkpt lat="59.321996" lon="18.074086">
        <ele>14</ele>
        <time>2020-02-09T06:52:35Z</time>
      </trkpt>
      <trkpt lat="59.322056" lon="18.074163">
        <ele>14</ele>
        <time>2020-02-09T06:52:36Z</time>
      </trkpt>
      <trkpt lat="59.322125" lon="18.074229">
        <ele>13</ele>
        <time>2020-02-09T06:52:37Z</time>
      </trkpt>
      <trkpt lat="59.322195" lon="18.074289">
        <ele>12</ele>
        <time>2020-02-09T06:52:38Z</time>
      </trkpt>
      <trkpt lat="59.322264" lon="18.074346">
        <ele>12</ele>
        <time>2020-02-09T06:52:39Z</time>
      </trkpt>
      <trkpt lat="59.322333" lon="18.074403">
        <ele>11</ele>
        <time>2020-02-09T06:52:40Z</time>
      </trkpt>
      <trkpt lat="59.322401" lon="18.074459">
        <ele>11</ele>
        <time>2020-02-09T06:52:41Z</time>
      </trkpt>
      <trkpt lat="59.322468" lon="18.074517">
        <ele>11</ele>
        <time>2020-02-09T06:52:42Z</time>
      </trkpt>
      <trkpt lat="59.322535" lon="18.074582">
        <ele>11</ele>
        <time>2020-02-09T06:52:43Z</time>
      </trkpt>
      <trkpt lat="59.322603" lon="18.074655">
        <ele>10</ele>
        <time>2020-02-09T06:52:44Z</time>
      </trkpt>
      <trkpt lat="59.322666" lon="18.074734">
        <ele>10</ele>
        <time>2020-02-09T06:52:45Z</time>
      </trkpt>
      <trkpt lat="59.322729" lon="18.074818">
        <ele>10</ele>
        <time>2020-02-09T06:52:46Z</time>
      </trkpt>
      <trkpt lat="59.322791" lon="18.074898">
        <ele>10</ele>
        <time>2020-02-09T06:52:47Z</time>
      </trkpt>
      <trkpt lat="59.322858" lon="18.074967">
        <ele>10</ele>
        <time>2020-02-09T06:52:48Z</time>
      </trkpt>
      <trkpt lat="59.322922" lon="18.075029">
        <ele>10</ele>
        <time>2020-02-09T06:52:49Z</time>
      </trkpt>
      <trkpt lat="59.322987" lon="18.075086">
        <ele>9</ele>
        <time>2020-02-09T06:52:50Z</time>
      </trkpt>
      <trkpt lat="59.323055" lon="18.075134">
        <ele>9</ele>
        <time>2020-02-09T06:52:51Z</time>
      </trkpt>
      <trkpt lat="59.323123" lon="18.075174">
        <ele>9</ele>
        <time>2020-02-09T06:52:52Z</time>
      </trkpt>
      <trkpt lat="59.323191" lon="18.075211">
        <ele>9</ele>
        <time>2020-02-09T06:52:53Z</time>
      </trkpt>
      <trkpt lat="59.32326" lon="18.075251">
        <ele>9</ele>
        <time>2020-02-09T06:52:54Z</time>
      </trkpt>
      <trkpt lat="59.323329" lon="18.075285">
        <ele>9</ele>
        <time>2020-02-09T06:52:55Z</time>
      </trkpt>
      <trkpt lat="59.323398" lon="18.075315">
        <ele>9</ele>
        <time>2020-02-09T06:52:56Z</time>
      </trkpt>
      <trkpt lat="59.323466" lon="18.075343">
        <ele>9</ele>
        <time>2020-02-09T06:52:57Z</time>
      </trkpt>
      <trkpt lat="59.323534" lon="18.075371">
        <ele>9</ele>
        <time>2020-02-09T06:52:58Z</time>
      </trkpt>
      <trkpt lat="59.323604" lon="18.075396">
        <ele>9</ele>
        <time>2020-02-09T06:52:59Z</time>
      </trkpt>
      <trkpt lat="59.323674" lon="18.07542">
        <ele>9</ele>
        <time>2020-02-09T06:53:00Z</time>
      </trkpt>
      <trkpt lat="59.323743" lon="18.075443">
        <ele>9</ele>
        <time>2020-02-09T06:53:01Z</time>
      </trkpt>
      <trkpt lat="59.323813" lon="18.075468">
        <ele>9</ele>
        <time>2020-02-09T06:53:02Z</time>
      </trkpt>
      <trkpt lat="59.323884" lon="18.075496">
        <ele>9</ele>
        <time>2020-02-09T06:53:03Z</time>
      </trkpt>
      <trkpt lat="59.323955" lon="18.075523">
        <ele>9</ele>
        <time>2020-02-09T06:53:04Z</time>
      </trkpt>
      <trkpt lat="59.324024" lon="18.075549">
        <ele>9</ele>
        <time>2020-02-09T06:53:05Z</time>
      </trkpt>
      <trkpt lat="59.324094" lon="18.075574">
        <ele>9</ele>
        <time>2020-02-09T06:53:06Z</time>
      </trkpt>
      <trkpt lat="59.324164" lon="18.075599">
        <ele>9</ele>
        <time>2020-02-09T06:53:07Z</time>
      </trkpt>
      <trkpt lat="59.324234" lon="18.075624">
        <ele>9</ele>
        <time>2020-02-09T06:53:08Z</time>
      </trkpt>
      <trkpt lat="59.324306" lon="18.075649">
        <ele>9</ele>
        <time>2020-02-09T06:53:09Z</time>
      </trkpt>
      <trkpt lat="59.324375" lon="18.075671">
        <ele>9</ele>
        <time>2020-02-09T06:53:10Z</time>
      </trkpt>
      <trkpt lat="59.324446" lon="18.075694">
        <ele>9</ele>
        <time>2020-02-09T06:53:11Z</time>
      </trkpt>
      <trkpt lat="59.324512" lon="18.075721">
        <ele>9</ele>
        <time>2020-02-09T06:53:12Z</time>
      </trkpt>
      <trkpt lat="59.324579" lon="18.075748">
        <ele>9</ele>
        <time>2020-02-09T06:53:13Z</time>
      </trkpt>
      <trkpt lat="59.324647" lon="18.075773">
        <ele>9</ele>
        <time>2020-02-09T06:53:14Z</time>
      </trkpt>
      <trkpt lat="59.324717" lon="18.075795">
        <ele>9</ele>
        <time>2020-02-09T06:53:15Z</time>
      </trkpt>
      <trkpt lat="59.324786" lon="18.075814">
        <ele>9</ele>
        <time>2020-02-09T06:53:16Z</time>
      </trkpt>
      <trkpt lat="59.324854" lon="18.075829">
        <ele>9</ele>
        <time>2020-02-09T06:53:17Z</time>
      </trkpt>
      <trkpt lat="59.324923" lon="18.075836">
        <ele>9</ele>
        <time>2020-02-09T06:53:18Z</time>
      </trkpt>
      <trkpt lat="59.32499" lon="18.075846">
        <ele>9</ele>
        <time>2020-02-09T06:53:19Z</time>
      </trkpt>
      <trkpt lat="59.325058" lon="18.075859">
        <ele>9</ele>
        <time>2020-02-09T06:53:20Z</time>
      </trkpt>
      <trkpt lat="59.325128" lon="18.07586">
        <ele>9</ele>
        <time>2020-02-09T06:53:21Z</time>
      </trkpt>
      <trkpt lat="59.325197" lon="18.075848">
        <ele>9</ele>
        <time>2020-02-09T06:53:22Z</time>
      </trkpt>
      <trkpt lat="59.325266" lon="18.07583">
        <ele>9</ele>
        <time>2020-02-09T06:53:23Z</time>
      </trkpt>
      <trkpt lat="59.325334" lon="18.07581">
        <ele>9</ele>
        <time>2020-02-09T06:53:24Z</time>
      </trkpt>
      <trkpt lat="59.325402" lon="18.075797">
        <ele>9</ele>
        <time>2020-02-09T06:53:25Z</time>
      </trkpt>
      <trkpt lat="59.325471" lon="18.075786">
        <ele>9</ele>
        <time>2020-02-09T06:53:26Z</time>
      </trkpt>
      <trkpt lat="59.325539" lon="18.075775">
        <ele>9</ele>
        <time>2020-02-09T06:53:27Z</time>
      </trkpt>
      <trkpt lat="59.325607" lon="18.075758">
        <ele>9</ele>
        <time>2020-02-09T06:53:28Z</time>
      </trkpt>
      <trkpt lat="59.325674" lon="18.075735">
        <ele>9</ele>
        <time>2020-02-09T06:53:29Z</time>
      </trkpt>
      <trkpt lat="59.325741" lon="18.075702">
        <ele>8</ele>
        <time>2020-02-09T06:53:30Z</time>
      </trkpt>
      <trkpt lat="59.325808" lon="18.075661">
        <ele>8</ele>
        <time>2020-02-09T06:53:31Z</time>
      </trkpt>
      <trkpt lat="59.325871" lon="18.075617">
        <ele>8</ele>
        <time>2020-02-09T06:53:32Z</time>
      </trkpt>
      <trkpt lat="59.325934" lon="18.075572">
        <ele>8</ele>
        <time>2020-02-09T06:53:33Z</time>
      </trkpt>
      <trkpt lat="59.325993" lon="18.07552">
        <ele>8</ele>
        <time>2020-02-09T06:53:34Z</time>
      </trkpt>
      <trkpt lat="59.326051" lon="18.075463">
        <ele>8</ele>
        <time>2020-02-09T06:53:35Z</time>
      </trkpt>
      <trkpt lat="59.326107" lon="18.0754">
        <ele>8</ele>
        <time>2020-02-09T06:53:36Z</time>
      </trkpt>
      <trkpt lat="59.326159" lon="18.075331">
        <ele>8</ele>
        <time>2020-02-09T06:53:37Z</time>
      </trkpt>
      <trkpt lat="59.326209" lon="18.075259">
        <ele>8</ele>
        <time>2020-02-09T06:53:38Z</time>
      </trkpt>
      <trkpt lat="59.326258" lon="18.07519">
        <ele>8</ele>
        <time>2020-02-09T06:53:39Z</time>
      </trkpt>
      <trkpt lat="59.326304" lon="18.075124">
        <ele>8</ele>
        <time>2020-02-09T06:53:40Z</time>
      </trkpt>
      <trkpt lat="59.326352" lon="18.075059">
        <ele>8</ele>
        <time>2020-02-09T06:53:41Z</time>
      </trkpt>
      <trkpt lat="59.326404" lon="18.074995">
        <ele>8</ele>
        <time>2020-02-09T06:53:42Z</time>
      </trkpt>
      <trkpt lat="59.326454" lon="18.074935">
        <ele>8</ele>
        <time>2020-02-09T06:53:43Z</time>
      </trkpt>
      <trkpt lat="59.326504" lon="18.07488">
        <ele>8</ele>
        <time>2020-02-09T06:53:44Z</time>
      </trkpt>
      <trkpt lat="59.326558" lon="18.07483">
        <ele>9</ele>
        <time>2020-02-09T06:53:45Z</time>
      </trkpt>
      <trkpt lat="59.326611" lon="18.074785">
        <ele>9</ele>
        <time>2020-02-09T06:53:46Z</time>
      </trkpt>
      <trkpt lat="59.326661" lon="18.074741">
        <ele>8</ele>
        <time>2020-02-09T06:53:47Z</time>
      </trkpt>
      <trkpt lat="59.326711" lon="18.074698">
        <ele>8</ele>
        <time>2020-02-09T06:53:49Z</time>
      </trkpt>
      <trkpt lat="59.326761" lon="18.074653">
        <ele>8</ele>
        <time>2020-02-09T06:53:49Z</time>
      </trkpt>
      <trkpt lat="59.326813" lon="18.074607">
        <ele>8</ele>
        <time>2020-02-09T06:53:50Z</time>
      </trkpt>
      <trkpt lat="59.326864" lon="18.074555">
        <ele>8</ele>
        <time>2020-02-09T06:53:51Z</time>
      </trkpt>
      <trkpt lat="59.326914" lon="18.074494">
        <ele>8</ele>
        <time>2020-02-09T06:53:52Z</time>
      </trkpt>
      <trkpt lat="59.32696" lon="18.074426">
        <ele>8</ele>
        <time>2020-02-09T06:53:53Z</time>
      </trkpt>
      <trkpt lat="59.327009" lon="18.07436">
        <ele>8</ele>
        <time>2020-02-09T06:53:54Z</time>
      </trkpt>
      <trkpt lat="59.327059" lon="18.074297">
        <ele>8</ele>
        <time>2020-02-09T06:53:55Z</time>
      </trkpt>
      <trkpt lat="59.327108" lon="18.074237">
        <ele>8</ele>
        <time>2020-02-09T06:53:56Z</time>
      </trkpt>
      <trkpt lat="59.327157" lon="18.074176">
        <ele>7</ele>
        <time>2020-02-09T06:53:57Z</time>
      </trkpt>
      <trkpt lat="59.327206" lon="18.074116">
        <ele>7</ele>
        <time>2020-02-09T06:53:58Z</time>
      </trkpt>
      <trkpt lat="59.327255" lon="18.074057">
        <ele>7</ele>
        <time>2020-02-09T06:53:59Z</time>
      </trkpt>
      <trkpt lat="59.327305" lon="18.073996">
        <ele>7</ele>
        <time>2020-02-09T06:54:00Z</time>
      </trkpt>
      <trkpt lat="59.327354" lon="18.073934">
        <ele>7</ele>
        <time>2020-02-09T06:54:01Z</time>
      </trkpt>
      <trkpt lat="59.327404" lon="18.073871">
        <ele>7</ele>
        <time>2020-02-09T06:54:02Z</time>
      </trkpt>
      <trkpt lat="59.327455" lon="18.073809">
        <ele>7</ele>
        <time>2020-02-09T06:54:03Z</time>
      </trkpt>
      <trkpt lat="59.327507" lon="18.073748">
        <ele>7</ele>
        <time>2020-02-09T06:54:04Z</time>
      </trkpt>
      <trkpt lat="59.327557" lon="18.073687">
        <ele>7</ele>
        <time>2020-02-09T06:54:05Z</time>
      </trkpt>
      <trkpt lat="59.327607" lon="18.073628">
        <ele>7</ele>
        <time>2020-02-09T06:54:06Z</time>
      </trkpt>
      <trkpt lat="59.327657" lon="18.073571">
        <ele>7</ele>
        <time>2020-02-09T06:54:07Z</time>
      </trkpt>
      <trkpt lat="59.327705" lon="18.073513">
        <ele>7</ele>
        <time>2020-02-09T06:54:08Z</time>
      </trkpt>
      <trkpt lat="59.327754" lon="18.073456">
        <ele>7</ele>
        <time>2020-02-09T06:54:09Z</time>
      </trkpt>
      <trkpt lat="59.327802" lon="18.073401">
        <ele>7</ele>
        <time>2020-02-09T06:54:10Z</time>
      </trkpt>
      <trkpt lat="59.327851" lon="18.073347">
        <ele>7</ele>
        <time>2020-02-09T06:54:11Z</time>
      </trkpt>
      <trkpt lat="59.327901" lon="18.073295">
        <ele>7</ele>
        <time>2020-02-09T06:54:12Z</time>
      </trkpt>
      <trkpt lat="59.327951" lon="18.073243">
        <ele>7</ele>
        <time>2020-02-09T06:54:13Z</time>
      </trkpt>
      <trkpt lat="59.328003" lon="18.073194">
        <ele>7</ele>
        <time>2020-02-09T06:54:14Z</time>
      </trkpt>
      <trkpt lat="59.328057" lon="18.073154">
        <ele>7</ele>
        <time>2020-02-09T06:54:15Z</time>
      </trkpt>
      <trkpt lat="59.328111" lon="18.073124">
        <ele>7</ele>
        <time>2020-02-09T06:54:16Z</time>
      </trkpt>
      <trkpt lat="59.328167" lon="18.073099">
        <ele>7</ele>
        <time>2020-02-09T06:54:17Z</time>
      </trkpt>
      <trkpt lat="59.328222" lon="18.073082">
        <ele>7</ele>
        <time>2020-02-09T06:54:18Z</time>
      </trkpt>
      <trkpt lat="59.328278" lon="18.073077">
        <ele>7</ele>
        <time>2020-02-09T06:54:19Z</time>
      </trkpt>
      <trkpt lat="59.328333" lon="18.073082">
        <ele>7</ele>
        <time>2020-02-09T06:54:20Z</time>
      </trkpt>
      <trkpt lat="59.328388" lon="18.073095">
        <ele>7</ele>
        <time>2020-02-09T06:54:21Z</time>
      </trkpt>
      <trkpt lat="59.328443" lon="18.073111">
        <ele>7</ele>
        <time>2020-02-09T06:54:22Z</time>
      </trkpt>
      <trkpt lat="59.328496" lon="18.073126">
        <ele>7</ele>
        <time>2020-02-09T06:54:23Z</time>
      </trkpt>
      <trkpt lat="59.32855" lon="18.073141">
        <ele>7</ele>
        <time>2020-02-09T06:54:24Z</time>
      </trkpt>
      <trkpt lat="59.328606" lon="18.073155">
        <ele>7</ele>
        <time>2020-02-09T06:54:25Z</time>
      </trkpt>
      <trkpt lat="59.328663" lon="18.07317">
        <ele>7</ele>
        <time>2020-02-09T06:54:26Z</time>
      </trkpt>
      <trkpt lat="59.328721" lon="18.073185">
        <ele>7</ele>
        <time>2020-02-09T06:54:27Z</time>
      </trkpt>
      <trkpt lat="59.328781" lon="18.073199">
        <ele>7</ele>
        <time>2020-02-09T06:54:28Z</time>
      </trkpt>
      <trkpt lat="59.328842" lon="18.073214">
        <ele>7</ele>
        <time>2020-02-09T06:54:29Z</time>
      </trkpt>
      <trkpt lat="59.328905" lon="18.07323">
        <ele>7</ele>
        <time>2020-02-09T06:54:30Z</time>
      </trkpt>
      <trkpt lat="59.328968" lon="18.073245">
        <ele>7</ele>
        <time>2020-02-09T06:54:31Z</time>
      </trkpt>
      <trkpt lat="59.329031" lon="18.073262">
        <ele>6</ele>
        <time>2020-02-09T06:54:32Z</time>
      </trkpt>
      <trkpt lat="59.329095" lon="18.073279">
        <ele>6</ele>
        <time>2020-02-09T06:54:33Z</time>
      </trkpt>
      <trkpt lat="59.329159" lon="18.073295">
        <ele>6</ele>
        <time>2020-02-09T06:54:34Z</time>
      </trkpt>
      <trkpt lat="59.329223" lon="18.07331">
        <ele>6</ele>
        <time>2020-02-09T06:54:35Z</time>
      </trkpt>
      <trkpt lat="59.329288" lon="18.073326">
        <ele>6</ele>
        <time>2020-02-09T06:54:36Z</time>
      </trkpt>
      <trkpt lat="59.329352" lon="18.07334">
        <ele>6</ele>
        <time>2020-02-09T06:54:37Z</time>
      </trkpt>
      <trkpt lat="59.329415" lon="18.073357">
        <ele>6</ele>
        <time>2020-02-09T06:54:38Z</time>
      </trkpt>
      <trkpt lat="59.329475" lon="18.073392">
        <ele>6</ele>
        <time>2020-02-09T06:54:39Z</time>
      </trkpt>
      <trkpt lat="59.329525" lon="18.073457">
        <ele>6</ele>
        <time>2020-02-09T06:54:40Z</time>
      </trkpt>
      <trkpt lat="59.329567" lon="18.073548">
        <ele>6</ele>
        <time>2020-02-09T06:54:41Z</time>
      </trkpt>
      <trkpt lat="59.329601" lon="18.073653">
        <ele>6</ele>
        <time>2020-02-09T06:54:42Z</time>
      </trkpt>
      <trkpt lat="59.329632" lon="18.073762">
        <ele>6</ele>
        <time>2020-02-09T06:54:43Z</time>
      </trkpt>
      <trkpt lat="59.329657" lon="18.073877">
        <ele>6</ele>
        <time>2020-02-09T06:54:44Z</time>
      </trkpt>
      <trkpt lat="59.329678" lon="18.073998">
        <ele>6</ele>
        <time>2020-02-09T06:54:45Z</time>
      </trkpt>
      <trkpt lat="59.329695" lon="18.074122">
        <ele>6</ele>
        <time>2020-02-09T06:54:46Z</time>
      </trkpt>
      <trkpt lat="59.329709" lon="18.074246">
        <ele>6</ele>
        <time>2020-02-09T06:54:47Z</time>
      </trkpt>
      <trkpt lat="59.329722" lon="18.074369">
        <ele>6</ele>
        <time>2020-02-09T06:54:48Z</time>
      </trkpt>
      <trkpt lat="59.329736" lon="18.07449">
        <ele>6</ele>
        <time>2020-02-09T06:54:49Z</time>
      </trkpt>
      <trkpt lat="59.329757" lon="18.074606">
        <ele>6</ele>
        <time>2020-02-09T06:54:50Z</time>
      </trkpt>
      <trkpt lat="59.329789" lon="18.07471">
        <ele>6</ele>
        <time>2020-02-09T06:54:51Z</time>
      </trkpt>
      <trkpt lat="59.32983" lon="18.0748">
        <ele>6</ele>
        <time>2020-02-09T06:54:52Z</time>
      </trkpt>
      <trkpt lat="59.329872" lon="18.074879">
        <ele>5</ele>
        <time>2020-02-09T06:54:53Z</time>
      </trkpt>
      <trkpt lat="59.329912" lon="18.074957">
        <ele>5</ele>
        <time>2020-02-09T06:54:54Z</time>
      </trkpt>
      <trkpt lat="59.329953" lon="18.075032">
        <ele>5</ele>
        <time>2020-02-09T06:54:55Z</time>
      </trkpt>
      <trkpt lat="59.329999" lon="18.075099">
        <ele>5</ele>
        <time>2020-02-09T06:54:56Z</time>
      </trkpt>
      <trkpt lat="59.330043" lon="18.075159">
        <ele>5</ele>
        <time>2020-02-09T06:54:57Z</time>
      </trkpt>
      <trkpt lat="59.330085" lon="18.075217">
        <ele>5</ele>
        <time>2020-02-09T06:54:58Z</time>
      </trkpt>
      <trkpt lat="59.330127" lon="18.075274">
        <ele>5</ele>
        <time>2020-02-09T06:54:59Z</time>
      </trkpt>
      <trkpt lat="59.330169" lon="18.075334">
        <ele>5</ele>
        <time>2020-02-09T06:55:00Z</time>
      </trkpt>
      <trkpt lat="59.330209" lon="18.075396">
        <ele>5</ele>
        <time>2020-02-09T06:55:01Z</time>
      </trkpt>
      <trkpt lat="59.330248" lon="18.075453">
        <ele>5</ele>
        <time>2020-02-09T06:55:02Z</time>
      </trkpt>
      <trkpt lat="59.330287" lon="18.075503">
        <ele>5</ele>
        <time>2020-02-09T06:55:03Z</time>
      </trkpt>
      <trkpt lat="59.330331" lon="18.075552">
        <ele>5</ele>
        <time>2020-02-09T06:55:04Z</time>
      </trkpt>
      <trkpt lat="59.330372" lon="18.075608">
        <ele>5</ele>
        <time>2020-02-09T06:55:05Z</time>
      </trkpt>
      <trkpt lat="59.330406" lon="18.075671">
        <ele>5</ele>
        <time>2020-02-09T06:55:06Z</time>
      </trkpt>
      <trkpt lat="59.330438" lon="18.075739">
        <ele>5</ele>
        <time>2020-02-09T06:55:07Z</time>
      </trkpt>
      <trkpt lat="59.330483" lon="18.0758">
        <ele>5</ele>
        <time>2020-02-09T06:55:08Z</time>
      </trkpt>
      <trkpt lat="59.330529" lon="18.07587">
        <ele>5</ele>
        <time>2020-02-09T06:55:09Z</time>
      </trkpt>
      <trkpt lat="59.330578" lon="18.075942">
        <ele>5</ele>
        <time>2020-02-09T06:55:10Z</time>
      </trkpt>
      <trkpt lat="59.33063" lon="18.076015">
        <ele>5</ele>
        <time>2020-02-09T06:55:11Z</time>
      </trkpt>
      <trkpt lat="59.330685" lon="18.07609">
        <ele>5</ele>
        <time>2020-02-09T06:55:12Z</time>
      </trkpt>
      <trkpt lat="59.330744" lon="18.076168">
        <ele>5</ele>
        <time>2020-02-09T06:55:13Z</time>
      </trkpt>
      <trkpt lat="59.330804" lon="18.076257">
        <ele>5</ele>
        <time>2020-02-09T06:55:14Z</time>
      </trkpt>
      <trkpt lat="59.330867" lon="18.076348">
        <ele>5</ele>
        <time>2020-02-09T06:55:15Z</time>
      </trkpt>
      <trkpt lat="59.330925" lon="18.076437">
        <ele>6</ele>
        <time>2020-02-09T06:55:16Z</time>
      </trkpt>
      <trkpt lat="59.330979" lon="18.076525">
        <ele>6</ele>
        <time>2020-02-09T06:55:17Z</time>
      </trkpt>
      <trkpt lat="59.331036" lon="18.076601">
        <ele>6</ele>
        <time>2020-02-09T06:55:18Z</time>
      </trkpt>
      <trkpt lat="59.331097" lon="18.07666">
        <ele>5</ele>
        <time>2020-02-09T06:55:19Z</time>
      </trkpt>
      <trkpt lat="59.331164" lon="18.076681">
        <ele>5</ele>
        <time>2020-02-09T06:55:20Z</time>
      </trkpt>
      <trkpt lat="59.331232" lon="18.076664">
        <ele>5</ele>
        <time>2020-02-09T06:55:21Z</time>
      </trkpt>
      <trkpt lat="59.331299" lon="18.076606">
        <ele>5</ele>
        <time>2020-02-09T06:55:22Z</time>
      </trkpt>
      <trkpt lat="59.331356" lon="18.076513">
        <ele>5</ele>
        <time>2020-02-09T06:55:23Z</time>
      </trkpt>
      <trkpt lat="59.331407" lon="18.076407">
        <ele>5</ele>
        <time>2020-02-09T06:55:24Z</time>
      </trkpt>
      <trkpt lat="59.331457" lon="18.076312">
        <ele>5</ele>
        <time>2020-02-09T06:55:25Z</time>
      </trkpt>
      <trkpt lat="59.331514" lon="18.076234">
        <ele>5</ele>
        <time>2020-02-09T06:55:26Z</time>
      </trkpt>
      <trkpt lat="59.331572" lon="18.07617">
        <ele>4</ele>
        <time>2020-02-09T06:55:27Z</time>
      </trkpt>
      <trkpt lat="59.331632" lon="18.076122">
        <ele>4</ele>
        <time>2020-02-09T06:55:28Z</time>
      </trkpt>
      <trkpt lat="59.331696" lon="18.076097">
        <ele>4</ele>
        <time>2020-02-09T06:55:29Z</time>
      </trkpt>
      <trkpt lat="59.331761" lon="18.076089">
        <ele>4</ele>
        <time>2020-02-09T06:55:30Z</time>
      </trkpt>
      <trkpt lat="59.331825" lon="18.076097">
        <ele>4</ele>
        <time>2020-02-09T06:55:31Z</time>
      </trkpt>
      <trkpt lat="59.331888" lon="18.076112">
        <ele>4</ele>
        <time>2020-02-09T06:55:32Z</time>
      </trkpt>
      <trkpt lat="59.331949" lon="18.076132">
        <ele>4</ele>
        <time>2020-02-09T06:55:33Z</time>
      </trkpt>
      <trkpt lat="59.332008" lon="18.076162">
        <ele>4</ele>
        <time>2020-02-09T06:55:34Z</time>
      </trkpt>
      <trkpt lat="59.332065" lon="18.076203">
        <ele>3</ele>
        <time>2020-02-09T06:55:35Z</time>
      </trkpt>
      <trkpt lat="59.33212" lon="18.076257">
        <ele>3</ele>
        <time>2020-02-09T06:55:36Z</time>
      </trkpt>
      <trkpt lat="59.332168" lon="18.076319">
        <ele>3</ele>
        <time>2020-02-09T06:55:37Z</time>
      </trkpt>
      <trkpt lat="59.332213" lon="18.076389">
        <ele>4</ele>
        <time>2020-02-09T06:55:38Z</time>
      </trkpt>
      <trkpt lat="59.33226" lon="18.07647">
        <ele>4</ele>
        <time>2020-02-09T06:55:39Z</time>
      </trkpt>
      <trkpt lat="59.332301" lon="18.076551">
        <ele>4</ele>
        <time>2020-02-09T06:55:40Z</time>
      </trkpt>
      <trkpt lat="59.332338" lon="18.076633">
        <ele>4</ele>
        <time>2020-02-09T06:55:41Z</time>
      </trkpt>
      <trkpt lat="59.33237" lon="18.076715">
        <ele>4</ele>
        <time>2020-02-09T06:55:42Z</time>
      </trkpt>
      <trkpt lat="59.332397" lon="18.076797">
        <ele>4</ele>
        <time>2020-02-09T06:55:43Z</time>
      </trkpt>
      <trkpt lat="59.332421" lon="18.076881">
        <ele>4</ele>
        <time>2020-02-09T06:55:44Z</time>
      </trkpt>
      <trkpt lat="59.332445" lon="18.076966">
        <ele>4</ele>
        <time>2020-02-09T06:55:45Z</time>
      </trkpt>
      <trkpt lat="59.332468" lon="18.077054">
        <ele>4</ele>
        <time>2020-02-09T06:55:46Z</time>
      </trkpt>
      <trkpt lat="59.332494" lon="18.077135">
        <ele>4</ele>
        <time>2020-02-09T06:55:47Z</time>
      </trkpt>
      <trkpt lat="59.332526" lon="18.077202">
        <ele>4</ele>
        <time>2020-02-09T06:55:48Z</time>
      </trkpt>
      <trkpt lat="59.332565" lon="18.077251">
        <ele>4</ele>
        <time>2020-02-09T06:55:49Z</time>
      </trkpt>
      <trkpt lat="59.332611" lon="18.077282">
        <ele>4</ele>
        <time>2020-02-09T06:55:50Z</time>
      </trkpt>
      <trkpt lat="59.332659" lon="18.077307">
        <ele>4</ele>
        <time>2020-02-09T06:55:51Z</time>
      </trkpt>
      <trkpt lat="59.33271" lon="18.077327">
        <ele>4</ele>
        <time>2020-02-09T06:55:52Z</time>
      </trkpt>
      <trkpt lat="59.332766" lon="18.077345">
        <ele>4</ele>
        <time>2020-02-09T06:55:53Z</time>
      </trkpt>
      <trkpt lat="59.332823" lon="18.077365">
        <ele>4</ele>
        <time>2020-02-09T06:55:54Z</time>
      </trkpt>
      <trkpt lat="59.332877" lon="18.077396">
        <ele>5</ele>
        <time>2020-02-09T06:55:55Z</time>
      </trkpt>
      <trkpt lat="59.332936" lon="18.077431">
        <ele>5</ele>
        <time>2020-02-09T06:55:56Z</time>
      </trkpt>
      <trkpt lat="59.332994" lon="18.077463">
        <ele>5</ele>
        <time>2020-02-09T06:55:57Z</time>
      </trkpt>
      <trkpt lat="59.333052" lon="18.077496">
        <ele>5</ele>
        <time>2020-02-09T06:55:58Z</time>
      </trkpt>
      <trkpt lat="59.333105" lon="18.077535">
        <ele>5</ele>
        <time>2020-02-09T06:55:59Z</time>
      </trkpt>
      <trkpt lat="59.333152" lon="18.077576">
        <ele>5</ele>
        <time>2020-02-09T06:56:00Z</time>
      </trkpt>
      <trkpt lat="59.333202" lon="18.077619">
        <ele>5</ele>
        <time>2020-02-09T06:56:01Z</time>
      </trkpt>
      <trkpt lat="59.333254" lon="18.077659">
        <ele>5</ele>
        <time>2020-02-09T06:56:02Z</time>
      </trkpt>
      <trkpt lat="59.333311" lon="18.077693">
        <ele>5</ele>
        <time>2020-02-09T06:56:03Z</time>
      </trkpt>
      <trkpt lat="59.333368" lon="18.077731">
        <ele>5</ele>
        <time>2020-02-09T06:56:04Z</time>
      </trkpt>
      <trkpt lat="59.333424" lon="18.07777">
        <ele>5</ele>
        <time>2020-02-09T06:56:05Z</time>
      </trkpt>
      <trkpt lat="59.333475" lon="18.077815">
        <ele>5</ele>
        <time>2020-02-09T06:56:06Z</time>
      </trkpt>
      <trkpt lat="59.333519" lon="18.077869">
        <ele>5</ele>
        <time>2020-02-09T06:56:07Z</time>
      </trkpt>
      <trkpt lat="59.333564" lon="18.077921">
        <ele>5</ele>
        <time>2020-02-09T06:56:08Z</time>
      </trkpt>
      <trkpt lat="59.333615" lon="18.077956">
        <ele>6</ele>
        <time>2020-02-09T06:56:09Z</time>
      </trkpt>
      <trkpt lat="59.333668" lon="18.077984">
        <ele>6</ele>
        <time>2020-02-09T06:56:10Z</time>
      </trkpt>
      <trkpt lat="59.33372" lon="18.078013">
        <ele>6</ele>
        <time>2020-02-09T06:56:11Z</time>
      </trkpt>
      <trkpt lat="59.333767" lon="18.078048">
        <ele>6</ele>
        <time>2020-02-09T06:56:12Z</time>
      </trkpt>
      <trkpt lat="59.333817" lon="18.078081">
        <ele>6</ele>
        <time>2020-02-09T06:56:13Z</time>
      </trkpt>
      <trkpt lat="59.333864" lon="18.078108">
        <ele>7</ele>
        <time>2020-02-09T06:56:14Z</time>
      </trkpt>
      <trkpt lat="59.333912" lon="18.07814">
        <ele>7</ele>
        <time>2020-02-09T06:56:15Z</time>
      </trkpt>
      <trkpt lat="59.333957" lon="18.078173">
        <ele>7</ele>
        <time>2020-02-09T06:56:16Z</time>
      </trkpt>
      <trkpt lat="59.334001" lon="18.078206">
        <ele>7</ele>
        <time>2020-02-09T06:56:17Z</time>
      </trkpt>
      <trkpt lat="59.334049" lon="18.078235">
        <ele>8</ele>
        <time>2020-02-09T06:56:18Z</time>
      </trkpt>
      <trkpt lat="59.334091" lon="18.078269">
        <ele>8</ele>
        <time>2020-02-09T06:56:19Z</time>
      </trkpt>
      <trkpt lat="59.334133" lon="18.07831">
        <ele>9</ele>
        <time>2020-02-09T06:56:20Z</time>
      </trkpt>
      <trkpt lat="59.334172" lon="18.078352">
        <ele>9</ele>
        <time>2020-02-09T06:56:21Z</time>
      </trkpt>
      <trkpt lat="59.334224" lon="18.078387">
        <ele>9</ele>
        <time>2020-02-09T06:56:22Z</time>
      </trkpt>
      <trkpt lat="59.334277" lon="18.078421">
        <ele>10</ele>
        <time>2020-02-09T06:56:23Z</time>
      </trkpt>
      <trkpt lat="59.334327" lon="18.078454">
        <ele>10</ele>
        <time>2020-02-09T06:56:24Z</time>
      </trkpt>
      <trkpt lat="59.334373" lon="18.078491">
        <ele>10</ele>
        <time>2020-02-09T06:56:25Z</time>
      </trkpt>
      <trkpt lat="59.334415" lon="18.07853">
        <ele>11</ele>
        <time>2020-02-09T06:56:26Z</time>
      </trkpt>
      <trkpt lat="59.334463" lon="18.078564">
        <ele>11</ele>
        <time>2020-02-09T06:56:27Z</time>
      </trkpt>
      <trkpt lat="59.334507" lon="18.078599">
        <ele>11</ele>
        <time>2020-02-09T06:56:28Z</time>
      </trkpt>
      <trkpt lat="59.334548" lon="18.078634">
        <ele>11</ele>
        <time>2020-02-09T06:56:29Z</time>
      </trkpt>
      <trkpt lat="59.334586" lon="18.078667">
        <ele>12</ele>
        <time>2020-02-09T06:56:30Z</time>
      </trkpt>
      <trkpt lat="59.334624" lon="18.0787">
        <ele>12</ele>
        <time>2020-02-09T06:56:31Z</time>
      </trkpt>
      <trkpt lat="59.334657" lon="18.078736">
        <ele>12</ele>
        <time>2020-02-09T06:56:32Z</time>
      </trkpt>
      <trkpt lat="59.334691" lon="18.078771">
        <ele>13</ele>
        <time>2020-02-09T06:56:33Z</time>
      </trkpt>
      <trkpt lat="59.33472" lon="18.0788">
        <ele>13</ele>
        <time>2020-02-09T06:56:34Z</time>
      </trkpt>
      <trkpt lat="59.334755" lon="18.078829">
        <ele>13</ele>
        <time>2020-02-09T06:56:35Z</time>
      </trkpt>
      <trkpt lat="59.334796" lon="18.078861">
        <ele>14</ele>
        <time>2020-02-09T06:56:36Z</time>
      </trkpt>
      <trkpt lat="59.334841" lon="18.078887">
        <ele>14</ele>
        <time>2020-02-09T06:56:37Z</time>
      </trkpt>
      <trkpt lat="59.334883" lon="18.078915">
        <ele>14</ele>
        <time>2020-02-09T06:56:38Z</time>
      </trkpt>
      <trkpt lat="59.334924" lon="18.07895">
        <ele>14</ele>
        <time>2020-02-09T06:56:39Z</time>
      </trkpt>
      <trkpt lat="59.334964" lon="18.078979">
        <ele>15</ele>
        <time>2020-02-09T06:56:40Z</time>
      </trkpt>
      <trkpt lat="59.335008" lon="18.079013">
        <ele>15</ele>
        <time>2020-02-09T06:56:41Z</time>
      </trkpt>
      <trkpt lat="59.335054" lon="18.079044">
        <ele>15</ele>
        <time>2020-02-09T06:56:42Z</time>
      </trkpt>
      <trkpt lat="59.335101" lon="18.079072">
        <ele>16</ele>
        <time>2020-02-09T06:56:43Z</time>
      </trkpt>
      <trkpt lat="59.335144" lon="18.079105">
        <ele>16</ele>
        <time>2020-02-09T06:56:44Z</time>
      </trkpt>
      <trkpt lat="59.335195" lon="18.079136">
        <ele>16</ele>
        <time>2020-02-09T06:56:45Z</time>
      </trkpt>
      <trkpt lat="59.335238" lon="18.079165">
        <ele>16</ele>
        <time>2020-02-09T06:56:46Z</time>
      </trkpt>
      <trkpt lat="59.335273" lon="18.079202">
        <ele>16</ele>
        <time>2020-02-09T06:56:47Z</time>
      </trkpt>
      <trkpt lat="59.335304" lon="18.079245">
        <ele>17</ele>
        <time>2020-02-09T06:56:48Z</time>
      </trkpt>
      <trkpt lat="59.335331" lon="18.079287">
        <ele>17</ele>
        <time>2020-02-09T06:56:49Z</time>
      </trkpt>
      <trkpt lat="59.335426" lon="18.079383">
        <ele>17</ele>
        <time>2020-02-09T06:56:52Z</time>
      </trkpt>
      <trkpt lat="59.335457" lon="18.079409">
        <ele>18</ele>
        <time>2020-02-09T06:56:53Z</time>
      </trkpt>
      <trkpt lat="59.335476" lon="18.079451">
        <ele>19</ele>
        <time>2020-02-09T06:56:54Z</time>
      </trkpt>
      <trkpt lat="59.3355" lon="18.0795">
        <ele>20</ele>
        <time>2020-02-09T06:56:55Z</time>
      </trkpt>
      <trkpt lat="59.335534" lon="18.079537">
        <ele>20</ele>
        <time>2020-02-09T06:56:56Z</time>
      </trkpt>
      <trkpt lat="59.335569" lon="18.079575">
        <ele>21</ele>
        <time>2020-02-09T06:56:57Z</time>
      </trkpt>
      <trkpt lat="59.33561" lon="18.079612">
        <ele>21</ele>
        <time>2020-02-09T06:56:58Z</time>
      </trkpt>
      <trkpt lat="59.335651" lon="18.07965">
        <ele>21</ele>
        <time>2020-02-09T06:56:59Z</time>
      </trkpt>
      <trkpt lat="59.335692" lon="18.079684">
        <ele>21</ele>
        <time>2020-02-09T06:57:00Z</time>
      </trkpt>
      <trkpt lat="59.335733" lon="18.079718">
        <ele>21</ele>
        <time>2020-02-09T06:57:01Z</time>
      </trkpt>
      <trkpt lat="59.335773" lon="18.079752">
        <ele>21</ele>
        <time>2020-02-09T06:57:02Z</time>
      </trkpt>
      <trkpt lat="59.33581" lon="18.079788">
        <ele>21</ele>
        <time>2020-02-09T06:57:03Z</time>
      </trkpt>
      <trkpt lat="59.335854" lon="18.07982">
        <ele>21</ele>
        <time>2020-02-09T06:57:04Z</time>
      </trkpt>
      <trkpt lat="59.335898" lon="18.079847">
        <ele>21</ele>
        <time>2020-02-09T06:57:05Z</time>
      </trkpt>
      <trkpt lat="59.335948" lon="18.079877">
        <ele>21</ele>
        <time>2020-02-09T06:57:06Z</time>
      </trkpt>
      <trkpt lat="59.336001" lon="18.079909">
        <ele>21</ele>
        <time>2020-02-09T06:57:07Z</time>
      </trkpt>
      <trkpt lat="59.336052" lon="18.079957">
        <ele>20</ele>
        <time>2020-02-09T06:57:08Z</time>
      </trkpt>
      <trkpt lat="59.336108" lon="18.080007">
        <ele>21</ele>
        <time>2020-02-09T06:57:09Z</time>
      </trkpt>
      <trkpt lat="59.336158" lon="18.08004">
        <ele>21</ele>
        <time>2020-02-09T06:57:10Z</time>
      </trkpt>
      <trkpt lat="59.336207" lon="18.080066">
        <ele>21</ele>
        <time>2020-02-09T06:57:11Z</time>
      </trkpt>
      <trkpt lat="59.336254" lon="18.080089">
        <ele>21</ele>
        <time>2020-02-09T06:57:12Z</time>
      </trkpt>
      <trkpt lat="59.336302" lon="18.080115">
        <ele>21</ele>
        <time>2020-02-09T06:57:13Z</time>
      </trkpt>
      <trkpt lat="59.336352" lon="18.080146">
        <ele>22</ele>
        <time>2020-02-09T06:57:14Z</time>
      </trkpt>
      <trkpt lat="59.336412" lon="18.080184">
        <ele>22</ele>
        <time>2020-02-09T06:57:15Z</time>
      </trkpt>
      <trkpt lat="59.336469" lon="18.080219">
        <ele>22</ele>
        <time>2020-02-09T06:57:16Z</time>
      </trkpt>
      <trkpt lat="59.33652" lon="18.080256">
        <ele>22</ele>
        <time>2020-02-09T06:57:17Z</time>
      </trkpt>
      <trkpt lat="59.336571" lon="18.080289">
        <ele>22</ele>
        <time>2020-02-09T06:57:18Z</time>
      </trkpt>
      <trkpt lat="59.33662" lon="18.080322">
        <ele>22</ele>
        <time>2020-02-09T06:57:19Z</time>
      </trkpt>
      <trkpt lat="59.336671" lon="18.080354">
        <ele>22</ele>
        <time>2020-02-09T06:57:20Z</time>
      </trkpt>
      <trkpt lat="59.336721" lon="18.080388">
        <ele>22</ele>
        <time>2020-02-09T06:57:21Z</time>
      </trkpt>
      <trkpt lat="59.33677" lon="18.080427">
        <ele>22</ele>
        <time>2020-02-09T06:57:22Z</time>
      </trkpt>
      <trkpt lat="59.336816" lon="18.080456">
        <ele>22</ele>
        <time>2020-02-09T06:57:23Z</time>
      </trkpt>
      <trkpt lat="59.33686" lon="18.08048">
        <ele>22</ele>
        <time>2020-02-09T06:57:24Z</time>
      </trkpt>
      <trkpt lat="59.336906" lon="18.080507">
        <ele>22</ele>
        <time>2020-02-09T06:57:25Z</time>
      </trkpt>
      <trkpt lat="59.336954" lon="18.08054">
        <ele>22</ele>
        <time>2020-02-09T06:57:26Z</time>
      </trkpt>
      <trkpt lat="59.337002" lon="18.080571">
        <ele>22</ele>
        <time>2020-02-09T06:57:27Z</time>
      </trkpt>
      <trkpt lat="59.33705" lon="18.080621">
        <ele>23</ele>
        <time>2020-02-09T06:57:28Z</time>
      </trkpt>
      <trkpt lat="59.337097" lon="18.080678">
        <ele>23</ele>
        <time>2020-02-09T06:57:29Z</time>
      </trkpt>
      <trkpt lat="59.337143" lon="18.080751">
        <ele>23</ele>
        <time>2020-02-09T06:57:30Z</time>
      </trkpt>
      <trkpt lat="59.337188" lon="18.080797">
        <ele>23</ele>
        <time>2020-02-09T06:57:31Z</time>
      </trkpt>
      <trkpt lat="59.337229" lon="18.080841">
        <ele>23</ele>
        <time>2020-02-09T06:57:32Z</time>
      </trkpt>
      <trkpt lat="59.337272" lon="18.080879">
        <ele>24</ele>
        <time>2020-02-09T06:57:33Z</time>
      </trkpt>
      <trkpt lat="59.337321" lon="18.080918">
        <ele>24</ele>
        <time>2020-02-09T06:57:34Z</time>
      </trkpt>
      <trkpt lat="59.337368" lon="18.080955">
        <ele>24</ele>
        <time>2020-02-09T06:57:35Z</time>
      </trkpt>
      <trkpt lat="59.337414" lon="18.080992">
        <ele>24</ele>
        <time>2020-02-09T06:57:37Z</time>
      </trkpt>
      <trkpt lat="59.337469" lon="18.081029">
        <ele>25</ele>
        <time>2020-02-09T06:57:37Z</time>
      </trkpt>
      <trkpt lat="59.337526" lon="18.081075">
        <ele>25</ele>
        <time>2020-02-09T06:57:38Z</time>
      </trkpt>
      <trkpt lat="59.337592" lon="18.081124">
        <ele>25</ele>
        <time>2020-02-09T06:57:39Z</time>
      </trkpt>
      <trkpt lat="59.337656" lon="18.081176">
        <ele>25</ele>
        <time>2020-02-09T06:57:40Z</time>
      </trkpt>
      <trkpt lat="59.337718" lon="18.081226">
        <ele>26</ele>
        <time>2020-02-09T06:57:41Z</time>
      </trkpt>
      <trkpt lat="59.337785" lon="18.081274">
        <ele>26</ele>
        <time>2020-02-09T06:57:42Z</time>
      </trkpt>
      <trkpt lat="59.337852" lon="18.08132">
        <ele>26</ele>
        <time>2020-02-09T06:57:43Z</time>
      </trkpt>
      <trkpt lat="59.337915" lon="18.081368">
        <ele>26</ele>
        <time>2020-02-09T06:57:44Z</time>
      </trkpt>
      <trkpt lat="59.337972" lon="18.081418">
        <ele>25</ele>
        <time>2020-02-09T06:57:45Z</time>
      </trkpt>
      <trkpt lat="59.338062" lon="18.081485">
        <ele>25</ele>
        <time>2020-02-09T06:57:46Z</time>
      </trkpt>
      <trkpt lat="59.338138" lon="18.081539">
        <ele>26</ele>
        <time>2020-02-09T06:57:47Z</time>
      </trkpt>
      <trkpt lat="59.338194" lon="18.081591">
        <ele>26</ele>
        <time>2020-02-09T06:57:48Z</time>
      </trkpt>
      <trkpt lat="59.33825" lon="18.081642">
        <ele>26</ele>
        <time>2020-02-09T06:57:49Z</time>
      </trkpt>
      <trkpt lat="59.338294" lon="18.081711">
        <ele>26</ele>
        <time>2020-02-09T06:57:50Z</time>
      </trkpt>
      <trkpt lat="59.338348" lon="18.081759">
        <ele>26</ele>
        <time>2020-02-09T06:57:51Z</time>
      </trkpt>
      <trkpt lat="59.338402" lon="18.081795">
        <ele>26</ele>
        <time>2020-02-09T06:57:52Z</time>
      </trkpt>
      <trkpt lat="59.33845" lon="18.08183">
        <ele>26</ele>
        <time>2020-02-09T06:57:53Z</time>
      </trkpt>
      <trkpt lat="59.338494" lon="18.081866">
        <ele>26</ele>
        <time>2020-02-09T06:57:54Z</time>
      </trkpt>
      <trkpt lat="59.338551" lon="18.081901">
        <ele>26</ele>
        <time>2020-02-09T06:57:55Z</time>
      </trkpt>
      <trkpt lat="59.33861" lon="18.081935">
        <ele>27</ele>
        <time>2020-02-09T06:57:56Z</time>
      </trkpt>
      <trkpt lat="59.338664" lon="18.08197">
        <ele>27</ele>
        <time>2020-02-09T06:57:57Z</time>
      </trkpt>
      <trkpt lat="59.338722" lon="18.082006">
        <ele>27</ele>
        <time>2020-02-09T06:57:58Z</time>
      </trkpt>
      <trkpt lat="59.338778" lon="18.082045">
        <ele>27</ele>
        <time>2020-02-09T06:57:59Z</time>
      </trkpt>
      <trkpt lat="59.338832" lon="18.082082">
        <ele>27</ele>
        <time>2020-02-09T06:58:00Z</time>
      </trkpt>
      <trkpt lat="59.338885" lon="18.082123">
        <ele>27</ele>
        <time>2020-02-09T06:58:01Z</time>
      </trkpt>
      <trkpt lat="59.338934" lon="18.082163">
        <ele>27</ele>
        <time>2020-02-09T06:58:02Z</time>
      </trkpt>
      <trkpt lat="59.338983" lon="18.082202">
        <ele>27</ele>
        <time>2020-02-09T06:58:03Z</time>
      </trkpt>
      <trkpt lat="59.339044" lon="18.082257">
        <ele>27</ele>
        <time>2020-02-09T06:58:04Z</time>
      </trkpt>
      <trkpt lat="59.339097" lon="18.082315">
        <ele>27</ele>
        <time>2020-02-09T06:58:05Z</time>
      </trkpt>
      <trkpt lat="59.339146" lon="18.082376">
        <ele>27</ele>
        <time>2020-02-09T06:58:06Z</time>
      </trkpt>
      <trkpt lat="59.339197" lon="18.082437">
        <ele>27</ele>
        <time>2020-02-09T06:58:07Z</time>
      </trkpt>
      <trkpt lat="59.339245" lon="18.082491">
        <ele>28</ele>
        <time>2020-02-09T06:58:08Z</time>
      </trkpt>
      <trkpt lat="59.339296" lon="18.082541">
        <ele>27</ele>
        <time>2020-02-09T06:58:09Z</time>
      </trkpt>
      <trkpt lat="59.339345" lon="18.082594">
        <ele>27</ele>
        <time>2020-02-09T06:58:10Z</time>
      </trkpt>
      <trkpt lat="59.339392" lon="18.082639">
        <ele>28</ele>
        <time>2020-02-09T06:58:11Z</time>
      </trkpt>
      <trkpt lat="59.339437" lon="18.082667">
        <ele>28</ele>
        <time>2020-02-09T06:58:12Z</time>
      </trkpt>
      <trkpt lat="59.339483" lon="18.082702">
        <ele>28</ele>
        <time>2020-02-09T06:58:13Z</time>
      </trkpt>
      <trkpt lat="59.339526" lon="18.08275">
        <ele>28</ele>
        <time>2020-02-09T06:58:14Z</time>
      </trkpt>
      <trkpt lat="59.33957" lon="18.082796">
        <ele>28</ele>
        <time>2020-02-09T06:58:15Z</time>
      </trkpt>
      <trkpt lat="59.33962" lon="18.082845">
        <ele>28</ele>
        <time>2020-02-09T06:58:16Z</time>
      </trkpt>
      <trkpt lat="59.339672" lon="18.082895">
        <ele>28</ele>
        <time>2020-02-09T06:58:17Z</time>
      </trkpt>
      <trkpt lat="59.339719" lon="18.08294">
        <ele>28</ele>
        <time>2020-02-09T06:58:18Z</time>
      </trkpt>
      <trkpt lat="59.339766" lon="18.082983">
        <ele>29</ele>
        <time>2020-02-09T06:58:19Z</time>
      </trkpt>
      <trkpt lat="59.339816" lon="18.083025">
        <ele>29</ele>
        <time>2020-02-09T06:58:20Z</time>
      </trkpt>
      <trkpt lat="59.339872" lon="18.083062">
        <ele>29</ele>
        <time>2020-02-09T06:58:21Z</time>
      </trkpt>
      <trkpt lat="59.339926" lon="18.083105">
        <ele>29</ele>
        <time>2020-02-09T06:58:22Z</time>
      </trkpt>
      <trkpt lat="59.339969" lon="18.083155">
        <ele>29</ele>
        <time>2020-02-09T06:58:23Z</time>
      </trkpt>
      <trkpt lat="59.340013" lon="18.083196">
        <ele>29</ele>
        <time>2020-02-09T06:58:24Z</time>
      </trkpt>
      <trkpt lat="59.34006" lon="18.08323">
        <ele>29</ele>
        <time>2020-02-09T06:58:25Z</time>
      </trkpt>
      <trkpt lat="59.340107" lon="18.08327">
        <ele>29</ele>
        <time>2020-02-09T06:58:26Z</time>
      </trkpt>
      <trkpt lat="59.340157" lon="18.083308">
        <ele>30</ele>
        <time>2020-02-09T06:58:27Z</time>
      </trkpt>
      <trkpt lat="59.340206" lon="18.083349">
        <ele>30</ele>
        <time>2020-02-09T06:58:28Z</time>
      </trkpt>
      <trkpt lat="59.340254" lon="18.083388">
        <ele>30</ele>
        <time>2020-02-09T06:58:29Z</time>
      </trkpt>
      <trkpt lat="59.340308" lon="18.083423">
        <ele>30</ele>
        <time>2020-02-09T06:58:30Z</time>
      </trkpt>
      <trkpt lat="59.340366" lon="18.083462">
        <ele>30</ele>
        <time>2020-02-09T06:58:31Z</time>
      </trkpt>
      <trkpt lat="59.340433" lon="18.083507">
        <ele>30</ele>
        <time>2020-02-09T06:58:32Z</time>
      </trkpt>
      <trkpt lat="59.340491" lon="18.083551">
        <ele>30</ele>
        <time>2020-02-09T06:58:33Z</time>
      </trkpt>
      <trkpt lat="59.340541" lon="18.08359">
        <ele>30</ele>
        <time>2020-02-09T06:58:34Z</time>
      </trkpt>
      <trkpt lat="59.340588" lon="18.083631">
        <ele>31</ele>
        <time>2020-02-09T06:58:35Z</time>
      </trkpt>
      <trkpt lat="59.340622" lon="18.083693">
        <ele>31</ele>
        <time>2020-02-09T06:58:36Z</time>
      </trkpt>
      <trkpt lat="59.340637" lon="18.083787">
        <ele>32</ele>
        <time>2020-02-09T06:58:37Z</time>
      </trkpt>
      <trkpt lat="59.340632" lon="18.083883">
        <ele>32</ele>
        <time>2020-02-09T06:58:38Z</time>
      </trkpt>
      <trkpt lat="59.340618" lon="18.083977">
        <ele>32</ele>
        <time>2020-02-09T06:58:39Z</time>
      </trkpt>
      <trkpt lat="59.3406" lon="18.08407">
        <ele>32</ele>
        <time>2020-02-09T06:58:40Z</time>
      </trkpt>
      <trkpt lat="59.340582" lon="18.084166">
        <ele>32</ele>
        <time>2020-02-09T06:58:41Z</time>
      </trkpt>
      <trkpt lat="59.34056" lon="18.084261">
        <ele>33</ele>
        <time>2020-02-09T06:58:42Z</time>
      </trkpt>
      <trkpt lat="59.340542" lon="18.084355">
        <ele>33</ele>
        <time>2020-02-09T06:58:43Z</time>
      </trkpt>
      <trkpt lat="59.340526" lon="18.084449">
        <ele>33</ele>
        <time>2020-02-09T06:58:44Z</time>
      </trkpt>
      <trkpt lat="59.34051" lon="18.084538">
        <ele>33</ele>
        <time>2020-02-09T06:58:45Z</time>
      </trkpt>
      <trkpt lat="59.340497" lon="18.084627">
        <ele>33</ele>
        <time>2020-02-09T06:58:46Z</time>
      </trkpt>
      <trkpt lat="59.340489" lon="18.084716">
        <ele>33</ele>
        <time>2020-02-09T06:58:47Z</time>
      </trkpt>
      <trkpt lat="59.340486" lon="18.084801">
        <ele>33</ele>
        <time>2020-02-09T06:58:48Z</time>
      </trkpt>
      <trkpt lat="59.340494" lon="18.084883">
        <ele>32</ele>
        <time>2020-02-09T06:58:49Z</time>
      </trkpt>
      <trkpt lat="59.340495" lon="18.084969">
        <ele>32</ele>
        <time>2020-02-09T06:58:50Z</time>
      </trkpt>
      <trkpt lat="59.340491" lon="18.085047">
        <ele>32</ele>
        <time>2020-02-09T06:58:51Z</time>
      </trkpt>
      <trkpt lat="59.340486" lon="18.085154">
        <ele>0</ele>
        <time>2020-02-09T06:58:53Z</time>
      </trkpt>
    </trkseg>
  </trk>
</gpx>